# Wetter Temperatur Luftdruck Luftfeuchtigkeit Sichtweite Windgeschwindigkeit Windrichtung Zeit
1 Clear 27 1011 30 10000 5.7 240 11:23 08.04.2020
2 Clear 28 1011 35 10000 4.6 240 10:59 08.04.2020
3 Clear 28 1011 35 10000 4.6 240 10:40 08.04.2020
4 Clear 29 1011 35 10000 5.1 270 10:21 08.04.2020
5 Clear 30 1011 35 10000 5.1 270 09:59 08.04.2020
6 Clear 30 1011 35 10000 5.1 270 09:59 08.04.2020
7 Clear 30 1011 31 10000 5.7 290 09:41 08.04.2020
8 Clear 31 1010 31 10000 5.7 290 09:19 08.04.2020
9 Clear 31 1010 31 10000 5.7 290 08:57 08.04.2020
10 Clear 32 1011 35 10000 6.2 290 08:38 08.04.2020
11 Clear 32 1011 33 10000 5.7 280 08:20 08.04.2020
12 Clear 31 1011 33 10000 4.6 280 07:42 08.04.2020
13 Clear 32 1011 31 10000 5.7 270 07:21 08.04.2020
14 Clear 31 1011 26 10000 7.2 300 06:28 08.04.2020
15 Clear 31 1012 27 10000 8.7 10 04:54 08.04.2020
16 Clouds 26 1012 32 10000 5.7 20 02:50 08.04.2020
17 Clouds 24 1012 36 10000 4.1 20 02:21 08.04.2020
18 Clouds 23 1012 38 10000 2.6 10 01:56 08.04.2020
19 Clouds 22 1011 38 10000 3.6 20 01:27 08.04.2020
20 Clouds 23 1011 36 10000 4.1 40 00:45 08.04.2020
21 Clouds 23 1011 36 10000 4.1 40 00:25 08.04.2020
22 Clouds 22 1010 33 10000 5.1 40 23:41 07.04.2020
23 Clouds 22 1010 33 10000 5.1 40 23:22 07.04.2020
24 Clouds 22 1010 38 10000 4.1 40 22:58 07.04.2020
25 Clouds 20 1010 72 10000 1.5 350 22:40 07.04.2020
26 Clouds 20 1010 72 10000 1.5 350 22:21 07.04.2020
27 Clouds 20 1010 82 10000 4.56 42 21:58 07.04.2020
28 Clouds 19 1010 82 10000 2.53 45 21:40 07.04.2020
29 Clouds 19 1010 82 10000 2.53 45 21:20 07.04.2020
30 Clouds 17 1011 87 10000 2.1 320 20:58 07.04.2020
31 Clouds 17 1011 87 10000 2.1 320 20:39 07.04.2020
32 Clouds 17 1011 87 10000 2.1 320 20:20 07.04.2020
33 Clouds 17 1011 87 10000 2.1 330 19:57 07.04.2020
34 Clouds 18 1011 87 10000 1.5 360 19:37 07.04.2020
35 Clouds 18 1011 87 10000 1.5 360 19:18 07.04.2020
36 Clouds 17 1010 87 10000 2.1 70 18:56 07.04.2020
37 Clouds 18 1011 82 10000 1 40 18:38 07.04.2020
38 Clouds 18 1011 82 10000 1.5 10 18:19 07.04.2020
39 Clouds 18 1011 82 10000 1.38 73 17:44 07.04.2020
40 Clouds 19 1011 82 10000 1.38 73 17:20 07.04.2020
41 Clouds 20 1011 72 10000 2.1 10 16:46 07.04.2020
42 Clouds 20 1011 72 10000 2.1 10 16:27 07.04.2020
43 Clouds 21 1011 77 10000 2.1 50 15:56 07.04.2020
44 Clouds 21 1011 73 10000 2.1 200 15:38 07.04.2020
45 Clouds 21 1011 73 10000 2.1 200 15:19 07.04.2020
46 Clouds 22 1011 68 10000 2.1 250 14:39 07.04.2020
47 Clouds 22 1011 68 10000 2.1 250 14:21 07.04.2020
48 Clouds 23 1011 60 10000 2.6 230 13:54 07.04.2020
49 Clouds 23 1011 60 10000 3.1 210 13:36 07.04.2020
50 Clouds 24 1010 57 10000 3.1 220 13:18 07.04.2020
51 Clouds 24 1010 57 10000 3.1 270 12:40 07.04.2020
52 Clouds 25 1010 57 10000 3.6 260 12:22 07.04.2020
53 Clouds 25 1010 57 10000 3.6 260 11:59 07.04.2020
54 Clouds 26 1009 57 10000 4.1 280 11:41 07.04.2020
55 Clouds 26 1009 57 10000 4.1 280 11:21 07.04.2020
56 Clouds 29 1009 45 10000 6.2 220 10:57 07.04.2020
57 Clouds 30 1009 22 10000 5.7 320 10:37 07.04.2020
58 Clouds 33 1008 21 10000 7.7 40 10:18 07.04.2020
59 Clouds 32 1009 21 10000 4.1 70 09:44 07.04.2020
60 Clouds 32 1009 23 10000 5.7 40 09:18 07.04.2020
61 Clouds 34 1009 21 10000 7.7 30 08:42 07.04.2020
62 Clouds 34 1009 21 10000 7.7 30 08:24 07.04.2020
63 Clouds 33 1009 23 10000 7.2 30 07:58 07.04.2020
64 Clouds 33 1010 24 10000 6.7 40 07:40 07.04.2020
65 Clouds 33 1010 25 10000 5.7 70 07:21 07.04.2020
66 Clouds 32 1011 27 10000 6.2 70 06:48 07.04.2020
67 Clear 30 1012 29 10000 7.7 80 06:20 07.04.2020
68 Clear 31 1012 30 10000 8.2 40 05:32 07.04.2020
69 Clear 29 1013 32 10000 6.7 60 04:35 07.04.2020
70 Clouds 26 1013 36 10000 7.7 70 03:24 07.04.2020
71 Clouds 24 1013 43 10000 7.7 60 02:48 07.04.2020
72 Clouds 22 1013 46 10000 6.7 60 01:47 07.04.2020
73 Clouds 21 1013 45 10000 8.7 80 01:23 07.04.2020
74 Clear 21 1013 45 10000 7.7 80 00:27 07.04.2020
75 Clear 21 1013 45 10000 8.2 60 23:44 06.04.2020
76 Clear 21 1013 45 10000 8.2 60 23:44 06.04.2020
77 Clear 21 1013 45 10000 8.2 60 23:23 06.04.2020
78 Clear 21 1012 43 10000 8.7 70 22:56 06.04.2020
79 Clear 21 1012 43 10000 8.2 60 22:37 06.04.2020
80 Clear 22 1012 37 10000 8.2 60 22:19 06.04.2020
81 Clear 22 1012 37 10000 8.2 60 21:56 06.04.2020
82 Clear 22 1012 37 10000 9.8 90 21:37 06.04.2020
83 Clear 22 1012 37 10000 8.2 60 21:18 06.04.2020
84 Clear 22 1012 37 10000 10.3 90 20:42 06.04.2020
85 Clear 23 1012 33 10000 8.2 50 20:23 06.04.2020
86 Clear 23 1012 37 10000 10.3 90 20:23 06.04.2020
87 Clear 23 1012 33 10000 8.2 50 19:58 06.04.2020
88 Clear 23 1012 33 10000 8.2 50 19:39 06.04.2020
89 Clear 23 1011 31 10000 11.3 90 19:20 06.04.2020
90 Clear 24 1011 33 10000 9.8 90 18:54 06.04.2020
91 Clear 24 1011 33 10000 9.8 90 18:36 06.04.2020
92 Clear 24 1011 33 10000 11.8 100 18:18 06.04.2020
93 Clear 25 1011 29 10000 10.8 100 17:41 06.04.2020
94 Clear 25 1011 29 10000 11.3 100 17:19 06.04.2020
95 Clear 25 1011 26 10000 11.3 100 16:49 06.04.2020
96 Clear 25 1011 26 10000 11.3 100 16:49 06.04.2020
97 Clear 26 1011 26 10000 11.3 100 16:31 06.04.2020
98 Clear 26 1011 26 10000 9.8 100 15:40 06.04.2020
99 Clear 26 1011 26 10000 9.8 100 15:40 06.04.2020
100 Clear 27 1011 23 10000 9.3 90 13:45 06.04.2020
101 Clear 27 1011 23 10000 9.3 90 13:23 06.04.2020
102 Clear 28 1010 23 10000 9.3 90 12:50 06.04.2020
103 Clear 28 1010 23 10000 9.3 90 12:50 06.04.2020
104 Clear 29 1010 21 10000 5.1 90 12:21 06.04.2020
105 Clouds 29 1010 21 10000 5.1 90 12:21 06.04.2020
106 Clouds 30 1010 20 10000 7.2 80 11:54 06.04.2020
107 Clouds 30 1010 20 10000 7.2 80 11:54 06.04.2020
108 Clouds 30 1010 20 10000 7.2 80 11:54 06.04.2020
109 Clouds 30 1010 20 10000 7.2 80 11:54 06.04.2020
110 Clouds 30 1010 20 10000 7.2 80 11:54 06.04.2020
111 Clouds 31 1010 19 10000 6.7 80 11:28 06.04.2020
112 Clouds 31 1010 19 10000 6.7 80 11:28 06.04.2020
113 Clouds 31 1010 19 10000 6.7 80 11:28 06.04.2020
114 Clouds 31 1010 19 10000 6.7 80 11:28 06.04.2020
115 Clouds 31 1010 18 10000 8.7 90 10:49 06.04.2020
116 Clouds 31 1010 18 10000 8.7 90 10:49 06.04.2020
117 Clouds 31 1010 18 10000 8.7 90 10:49 06.04.2020
118 Clouds 31 1010 18 10000 8.7 90 10:49 06.04.2020
119 Clouds 31 1010 18 10000 8.7 90 10:49 06.04.2020
120 Clouds 31 1010 18 10000 9.8 100 10:21 06.04.2020
121 Clouds 31 1010 19 10000 8.2 110 09:43 06.04.2020
122 Clouds 31 1010 19 10000 8.2 110 09:42 06.04.2020
123 Clouds 31 1010 19 10000 8.2 110 09:42 06.04.2020
124 Clouds 32 1010 17 10000 9.3 80 09:20 06.04.2020
125 Clear 31 1010 19 10000 8.7 80 08:51 06.04.2020
126 Clear 31 1010 19 10000 8.2 80 08:30 06.04.2020
127 Clear 30 1011 22 10000 7.7 90 07:24 06.04.2020
128 Clear 30 1013 23 10000 8.2 90 06:34 06.04.2020
129 Clear 28 1013 23 10000 8.7 90 06:01 06.04.2020
130 Clear 25 1014 31 10000 9.8 90 04:18 06.04.2020
131 Clouds 22 1014 40 10000 7.2 60 02:56 06.04.2020
132 Clouds 21 1014 42 10000 7.7 80 01:57 06.04.2020
133 Clouds 21 1014 42 10000 7.7 80 01:57 06.04.2020
134 Clouds 20 1013 42 10000 9.3 90 00:59 06.04.2020
135 Clouds 20 1013 42 10000 9.3 90 00:29 06.04.2020
136 Clouds 20 1013 42 10000 9.3 90 00:29 06.04.2020
137 Clouds 20 1014 45 10000 9.8 100 23:59 05.04.2020
138 Clouds 20 1013 45 10000 8.7 90 23:40 05.04.2020
139 Clouds 20 1013 45 10000 8.7 90 23:20 05.04.2020
140 Clouds 20 1013 45 10000 8.7 90 23:20 05.04.2020
141 Clouds 20 1013 45 10000 8.7 90 23:20 05.04.2020
142 Clouds 20 1013 45 10000 8.7 90 22:54 05.04.2020
143 Clouds 20 1013 45 10000 8.7 90 22:36 05.04.2020
144 Clouds 20 1013 45 10000 8.7 90 22:18 05.04.2020
145 Clouds 20 1013 45 10000 7.7 70 21:43 05.04.2020
146 Clouds 20 1013 45 10000 7.7 70 21:43 05.04.2020
147 Clouds 20 1013 45 10000 7.7 70 21:43 05.04.2020
148 Clouds 21 1014 43 10000 7.7 70 21:23 05.04.2020
149 Clouds 21 1014 45 10000 6.2 90 20:24 05.04.2020
150 Clouds 21 1014 46 10000 8.2 90 19:43 05.04.2020
151 Clouds 21 1013 43 10000 7.7 90 19:24 05.04.2020
152 Clouds 21 1014 43 10000 8.2 90 18:48 05.04.2020
153 Clear 21 1014 43 10000 8.2 90 18:18 05.04.2020
154 Clear 21 1014 43 10000 8.7 80 17:46 05.04.2020
155 Clear 21 1014 43 10000 8.7 80 17:46 05.04.2020
156 Clear 21 1014 43 10000 8.7 80 17:46 05.04.2020
157 Clear 21 1014 43 10000 8.7 80 17:46 05.04.2020
158 Clear 21 1014 43 10000 8.7 80 17:22 05.04.2020
159 Clear 21 1014 43 10000 8.7 80 16:47 05.04.2020
160 Clear 21 1015 40 10000 8.7 70 16:19 05.04.2020
161 Clear 21 1015 40 10000 8.2 70 15:45 05.04.2020
162 Clear 21 1015 40 10000 8.7 80 15:25 05.04.2020
163 Clear 21 1015 40 10000 8.7 80 15:25 05.04.2020
164 Clouds 22 1015 37 10000 9.3 80 14:48 05.04.2020
165 Clouds 22 1015 37 10000 9.3 80 14:48 05.04.2020
166 Clouds 22 1015 37 10000 9.3 80 14:48 05.04.2020
167 Clouds 22 1015 37 10000 9.3 80 14:48 05.04.2020
168 Clouds 22 1015 37 10000 9.3 80 14:48 05.04.2020
169 Clouds 22 1014 38 10000 8.7 80 13:59 05.04.2020
170 Clouds 22 1014 38 10000 8.7 90 13:40 05.04.2020
171 Clouds 22 1014 38 10000 8.7 90 13:40 05.04.2020
172 Clouds 22 1014 38 10000 8.7 90 13:40 05.04.2020
173 Clouds 22 1014 38 10000 8.7 90 13:40 05.04.2020
174 Clouds 22 1014 38 10000 8.7 90 13:40 05.04.2020
175 Clouds 25 1013 31 10000 7.7 100 12:00 05.04.2020
176 -273 0 0 0 0 0 12:00 05.04.2020
177 Clouds 25 1013 31 10000 7.7 100 12:00 05.04.2020
178 Clouds 25 1013 29 10000 7.7 80 11:39 05.04.2020
179 Clouds 25 1013 29 10000 7.7 80 11:19 05.04.2020
180 Clouds 26 1013 31 10000 6.7 110 10:47 05.04.2020
181 Clouds 26 1013 31 10000 6.7 110 10:47 05.04.2020
182 Clouds 26 1013 34 10000 6.7 110 10:22 05.04.2020
183 Clouds 25 1013 31 10000 7.7 90 09:53 05.04.2020
184 Clouds 25 1013 36 10000 7.7 90 09:25 05.04.2020
185 Clouds 25 1013 36 10000 7.7 90 09:25 05.04.2020
186 Clouds 25 1013 36 10000 7.7 90 09:25 05.04.2020
187 Clouds 25 1013 36 10000 7.7 90 09:25 05.04.2020
188 Clouds 25 1013 36 10000 7.7 90 09:25 05.04.2020
189 Clouds 25 1014 41 10000 5.7 100 08:18 05.04.2020
190 Clouds 22 1016 52 10000 4.6 110 05:37 05.04.2020
191 Clouds 22 1016 52 10000 4.6 110 05:37 05.04.2020
192 Clouds 22 1016 52 10000 4.6 110 05:37 05.04.2020
193 Clouds 22 1016 52 10000 4.6 110 05:37 05.04.2020
194 Clouds 22 1016 52 10000 4.6 110 05:37 05.04.2020
195 Clouds 21 1016 56 10000 7.2 90 04:29 05.04.2020
196 Clouds 21 1016 56 10000 7.2 90 04:29 05.04.2020
197 Clouds 19 1017 55 10000 4.6 70 03:24 05.04.2020
198 Clouds 17 1017 63 10000 4.1 90 01:57 05.04.2020
199 Rain 16 1017 67 10000 4.6 100 01:39 05.04.2020
200 Rain 17 1017 67 10000 4.1 80 00:52 05.04.2020
201 Rain 16 1017 82 10000 3.6 130 00:22 05.04.2020
202 Rain 17 1017 59 10000 4.6 50 23:58 04.04.2020
203 Rain 18 1017 59 10000 4.6 50 23:58 04.04.2020
204 Rain 18 1016 45 10000 4.6 50 23:38 04.04.2020
205 Rain 18 1016 45 10000 4.6 50 23:20 04.04.2020
206 Rain 19 1015 45 10000 7.7 90 22:56 04.04.2020
207 Rain 19 1015 45 10000 5.1 50 22:38 04.04.2020
208 Rain 19 1015 45 10000 5.1 50 22:19 04.04.2020
209 Clouds 20 1015 40 10000 8.7 90 21:55 04.04.2020
210 Clouds 20 1015 40 10000 8.7 90 21:37 04.04.2020
211 Clouds 20 1015 40 10000 8.7 90 21:18 04.04.2020
212 Rain 20 1015 40 10000 9.3 90 20:43 04.04.2020
213 Clouds 20 1016 40 10000 8.7 90 20:23 04.04.2020
214 Clouds 20 1016 40 10000 8.7 90 19:59 04.04.2020
215 Clouds 20 1016 42 10000 7.7 90 19:39 04.04.2020
216 Clouds 20 1016 42 10000 7.7 90 19:20 04.04.2020
217 Rain 19 1016 45 10000 7.2 70 18:58 04.04.2020
218 Clouds 19 1016 40 10000 9.8 90 18:39 04.04.2020
219 Clouds 19 1016 40 10000 9.8 90 18:19 04.04.2020
220 Rain 19 1017 45 10000 8.7 90 17:56 04.04.2020
221 Rain 19 1017 42 10000 5.1 90 17:38 04.04.2020
222 Rain 19 1017 42 10000 5.1 90 17:19 04.04.2020
223 Rain 19 1017 45 10000 8.2 90 16:42 04.04.2020
224 Rain 19 1017 42 10000 3.6 120 16:23 04.04.2020
225 Rain 20 1017 42 10000 3.6 100 15:57 04.04.2020
226 Rain 20 1017 40 10000 4.6 120 15:38 04.04.2020
227 Rain 20 1017 40 10000 4.6 120 15:19 04.04.2020
228 Rain 20 1017 45 10000 4.6 120 14:44 04.04.2020
229 Rain 20 1017 52 10000 4.1 120 14:23 04.04.2020
230 Rain 21 1017 59 10000 3.1 130 13:57 04.04.2020
231 Rain 21 1017 60 10000 2.1 150 13:38 04.04.2020
232 Drizzle 22 1018 40 10000 2.6 140 13:20 04.04.2020
233 Rain 22 1017 28 10000 2.6 100 12:46 04.04.2020
234 Rain 23 1017 28 10000 2.6 100 12:27 04.04.2020
235 Clouds 23 1017 27 10000 3.6 90 11:59 04.04.2020
236 Clouds 24 1017 27 10000 4.1 70 11:40 04.04.2020
237 Clouds 24 1017 27 10000 4.1 70 11:21 04.04.2020
238 Clouds 24 1017 29 10000 4.1 90 10:57 04.04.2020
239 Clouds 24 1017 29 10000 4.1 110 10:39 04.04.2020
240 Clouds 24 1017 29 10000 4.1 110 10:21 04.04.2020
241 Clouds 25 1017 27 10000 4.6 70 09:55 04.04.2020
242 Clouds 25 1017 27 10000 4.6 90 09:37 04.04.2020
243 Clouds 25 1017 27 10000 4.6 90 09:19 04.04.2020
244 Clouds 25 1017 29 10000 4.1 90 08:42 04.04.2020
245 Clouds 25 1018 27 10000 4.6 80 08:21 04.04.2020
246 Clouds 25 1018 31 10000 4.6 60 07:47 04.04.2020
247 Clouds 24 1018 31 10000 4.1 70 07:28 04.04.2020
248 Clouds 25 1018 31 10000 6.2 70 06:57 04.04.2020
249 Clouds 23 1019 33 10000 5.7 60 06:20 04.04.2020
250 Clouds 22 1019 35 10000 6.2 60 05:43 04.04.2020
251 Clouds 22 1020 35 10000 6.7 70 05:24 04.04.2020
252 Clouds 20 1020 40 10000 6.7 70 04:33 04.04.2020
253 Clouds 19 1020 45 10000 5.1 80 03:55 04.04.2020
254 Clouds 18 1020 51 10000 8.2 80 03:22 04.04.2020
255 Clouds 16 1020 54 10000 9.3 70 02:38 04.04.2020
256 Clouds 16 1020 54 10000 9.3 70 02:20 04.04.2020
257 Clouds 14 1019 58 10000 10.8 80 01:26 04.04.2020
258 Clouds 14 1019 62 10000 8.2 80 00:52 04.04.2020
259 Clouds 13 1019 62 10000 9.8 80 00:30 04.04.2020
260 Clear 14 1019 58 10000 8.7 90 23:41 03.04.2020
261 Clear 14 1019 58 10000 8.7 90 23:41 03.04.2020
262 Clear 14 1019 58 10000 8.7 90 23:21 03.04.2020
263 Clear 14 1019 58 10000 9.3 90 22:59 03.04.2020
264 Clear 14 1018 58 10000 9.8 90 22:39 03.04.2020
265 Clear 14 1019 58 10000 9.3 90 22:39 03.04.2020
266 Clear 14 1018 58 10000 9.8 90 22:39 03.04.2020
267 Clear 14 1018 58 10000 9.8 90 22:19 03.04.2020
268 Clear 14 1018 54 10000 10.8 90 21:45 03.04.2020
269 Clear 14 1018 54 10000 10.3 100 21:26 03.04.2020
270 Clear 15 1018 54 10000 9.3 100 20:57 03.04.2020
271 Clear 15 1019 54 10000 9.3 100 20:39 03.04.2020
272 Clear 15 1019 54 10000 9.3 100 20:21 03.04.2020
273 Clear 15 1019 48 10000 7.2 100 19:57 03.04.2020
274 Clear 15 1019 44 10000 6.7 110 19:39 03.04.2020
275 Clear 15 1019 44 10000 6.7 110 19:21 03.04.2020
276 Clear 15 1019 44 10000 5.7 100 18:59 03.04.2020
277 Clear 15 1019 44 10000 5.7 100 18:59 03.04.2020
278 Clear 14 1019 66 10000 2.6 90 18:41 03.04.2020
279 Clear 14 1019 66 10000 2.6 90 18:23 03.04.2020
280 Clear 14 1019 71 10000 3.1 60 17:55 03.04.2020
281 Clear 13 1019 66 10000 3.6 120 17:37 03.04.2020
282 Clear 13 1019 66 10000 3.6 120 17:18 03.04.2020
283 Clear 14 1019 81 10000 2.6 170 16:44 03.04.2020
284 Clear 14 1019 81 10000 2.6 170 16:22 03.04.2020
285 Clear 15 1019 81 10000 2.6 160 15:58 03.04.2020
286 Clear 15 1019 81 10000 2.6 160 15:58 03.04.2020
287 Clear 15 1019 76 10000 3.68 108 15:39 03.04.2020
288 Clear 15 1019 76 10000 3.68 108 15:20 03.04.2020
289 Clear 16 1016 74 0 4.03 168 14:55 03.04.2020
290 Clear 16 1016 74 0 4.03 168 14:37 03.04.2020
291 Clouds 17 1018 59 10000 4.1 210 14:19 03.04.2020
292 Clouds 17 1018 59 10000 4.1 210 13:42 03.04.2020
293 Clouds 18 1018 59 10000 4.1 210 13:24 03.04.2020
294 Clouds 18 1018 55 10000 5.1 240 12:45 03.04.2020
295 Clouds 19 1018 55 10000 5.1 240 12:21 03.04.2020
296 Clouds 20 1018 52 10000 5.7 220 11:57 03.04.2020
297 Clouds 20 1018 52 10000 5.7 220 11:57 03.04.2020
298 Clouds 20 1017 46 10000 6.7 230 11:39 03.04.2020
299 Clouds 20 1017 46 10000 6.7 230 11:21 03.04.2020
300 Clouds 20 1017 46 10000 6.7 230 11:21 03.04.2020
301 Clouds 21 1017 43 10000 6.7 240 10:59 03.04.2020
302 Clouds 21 1017 38 10000 5.7 250 10:39 03.04.2020
303 Clouds 22 1017 38 10000 5.7 250 10:20 03.04.2020
304 Clouds 23 1017 38 10000 5.7 260 09:59 03.04.2020
305 Clouds 23 1017 38 10000 5.7 260 09:40 03.04.2020
306 Clear 24 1017 25 10000 4.6 150 09:21 03.04.2020
307 Clear 24 1017 25 10000 4.6 150 09:21 03.04.2020
308 Clear 24 1017 25 10000 4.6 150 09:21 03.04.2020
309 Clear 24 1017 27 10000 7.2 210 08:56 03.04.2020
310 Clear 24 1018 28 10000 7.2 210 08:37 03.04.2020
311 Clear 24 1018 28 10000 7.2 210 08:19 03.04.2020
312 Clear 24 1018 31 10000 7.2 210 07:46 03.04.2020
313 Clear 24 1018 31 10000 7.2 210 07:46 03.04.2020
314 Clear 23 1018 30 10000 2.6 190 07:28 03.04.2020
315 Clear 22 1019 35 10000 3.6 130 06:40 03.04.2020
316 Clear 21 1019 35 10000 3.6 130 06:22 03.04.2020
317 Clouds 20 1020 37 10000 3.1 130 05:39 03.04.2020
318 Clear 17 1021 48 10000 5.7 140 03:42 03.04.2020
319 Clouds 16 1021 55 10000 5.1 140 02:55 03.04.2020
320 Clouds 14 1021 58 10000 4.25 132 02:18 03.04.2020
321 Clouds 10 1020 81 10000 1.5 130 01:20 03.04.2020
322 Clouds 10 1020 81 10000 1.5 130 01:20 03.04.2020
323 Clouds 11 1019 76 10000 3.1 120 00:34 03.04.2020
324 Clouds 10 1018 76 10000 3.1 90 23:58 02.04.2020
325 Clouds 11 1018 66 10000 3.6 150 23:39 02.04.2020
326 Clouds 11 1018 66 10000 3.6 150 23:39 02.04.2020
327 Clouds 11 1018 66 10000 3.6 150 23:21 02.04.2020
328 Clouds 12 1018 66 10000 3.6 200 22:43 02.04.2020
329 Clouds 12 1018 62 10000 3.1 200 22:25 02.04.2020
330 Clouds 12 1017 62 10000 2.6 200 21:59 02.04.2020
331 Clouds 12 1017 66 10000 2.6 160 21:38 02.04.2020
332 Clouds 13 1017 54 10000 3.6 170 21:19 02.04.2020
333 Clear 13 1017 66 10000 3.1 170 20:55 02.04.2020
334 Clear 13 1016 58 10000 4.6 180 20:37 02.04.2020
335 Clear 13 1016 58 10000 4.6 180 20:19 02.04.2020
336 Clear 14 1017 58 10000 4.6 190 19:42 02.04.2020
337 Clear 14 1017 58 10000 4.6 190 19:20 02.04.2020
338 Clear 14 1017 58 10000 4.6 190 19:20 02.04.2020
339 Clear 14 1017 58 10000 4.6 190 19:20 02.04.2020
340 Clear 15 1016 67 10000 5.1 190 18:57 02.04.2020
341 Clear 15 1016 63 10000 5.7 180 18:39 02.04.2020
342 Clouds 15 1016 63 10000 7.2 200 18:19 02.04.2020
343 Clouds 16 1016 63 10000 7.2 200 17:44 02.04.2020
344 Clouds 16 1016 63 10000 7.7 190 17:26 02.04.2020
345 Clouds 16 1016 63 10000 8.2 200 16:59 02.04.2020
346 Clouds 17 1015 59 10000 8.2 200 16:40 02.04.2020
347 Clouds 17 1015 59 10000 8.2 200 16:22 02.04.2020
348 Clouds 18 1015 59 10000 4.1 180 15:57 02.04.2020
349 Clouds 18 1015 55 10000 4.1 200 15:39 02.04.2020
350 Clouds 19 1015 55 10000 4.1 200 15:20 02.04.2020
351 Clouds 19 1015 52 10000 6.2 200 14:58 02.04.2020
352 Clouds 19 1015 56 10000 7.7 200 14:38 02.04.2020
353 Clouds 19 1014 56 10000 5.1 210 14:19 02.04.2020
354 Clouds 20 1014 56 10000 5.1 210 13:55 02.04.2020
355 Clouds 20 1014 56 10000 6.7 210 13:37 02.04.2020
356 Clouds 20 1014 56 10000 6.7 210 13:18 02.04.2020
357 Clouds 20 1013 68 10000 6.2 250 12:45 02.04.2020
358 Clouds 20 1013 68 10000 6.2 250 12:45 02.04.2020
359 Rain 20 1013 68 10000 7.2 240 12:20 02.04.2020
360 Rain 20 1013 68 10000 7.2 240 11:58 02.04.2020
361 Rain 20 1013 68 10000 7.2 240 11:58 02.04.2020
362 Clouds 20 1012 60 10000 7.7 240 11:39 02.04.2020
363 Clouds 21 1012 60 10000 7.7 240 11:20 02.04.2020
364 Clouds 21 1012 60 10000 7.7 240 11:20 02.04.2020
365 Clouds 22 1012 53 10000 8.2 230 10:57 02.04.2020
366 Clouds 22 1012 43 10000 7.7 240 10:38 02.04.2020
367 Clouds 23 1012 43 10000 7.7 240 10:20 02.04.2020
368 Clouds 23 1012 38 10000 7.7 240 09:58 02.04.2020
369 Clouds 23 1012 38 10000 7.7 240 09:58 02.04.2020
370 Clouds 23 1012 38 10000 7.7 240 09:58 02.04.2020
371 Clouds 24 1012 38 10000 7.7 240 09:40 02.04.2020
372 Clouds 24 1012 41 10000 9.3 220 09:20 02.04.2020
373 Clouds 24 1012 49 10000 8.7 230 08:47 02.04.2020
374 Clouds 24 1012 49 10000 8.2 230 08:28 02.04.2020
375 Clouds 24 1012 47 10000 8.7 240 07:54 02.04.2020
376 Clouds 24 1012 44 10000 8.7 240 07:36 02.04.2020
377 Clouds 24 1012 44 10000 8.7 240 07:18 02.04.2020
378 Clouds 23 1012 53 10000 8.7 230 06:23 02.04.2020
379 Rain 23 1012 50 10000 7.2 230 05:46 02.04.2020
380 Clouds 23 1013 50 10000 7.2 230 05:46 02.04.2020
381 Clouds 22 1013 53 10000 6.7 200 04:50 02.04.2020
382 Clouds 19 1013 68 10000 4.6 190 02:19 02.04.2020
383 Clouds 18 1011 72 10000 4.1 200 00:58 02.04.2020
384 Clouds 18 1011 72 10000 3.1 210 00:36 02.04.2020
385 Clouds 18 1011 72 10000 3.1 210 00:18 02.04.2020
386 Clouds 18 1011 72 10000 3.6 190 23:38 01.04.2020
387 Clouds 18 1011 72 10000 3.6 190 23:38 01.04.2020
388 Clouds 18 1011 72 10000 3.6 190 23:19 01.04.2020
389 Clouds 18 1011 68 10000 3.6 200 22:41 01.04.2020
390 Clouds 18 1010 63 10000 3.6 190 22:22 01.04.2020
391 Clouds 18 1010 63 10000 4.1 200 21:58 01.04.2020
392 Clouds 19 1010 63 10000 4.1 200 21:39 01.04.2020
393 Clouds 19 1011 68 10000 4.1 200 21:19 01.04.2020
394 Clouds 19 1011 68 10000 4.1 200 21:19 01.04.2020
395 Clouds 19 1011 68 10000 4.6 210 20:56 01.04.2020
396 Clouds 19 1011 68 10000 4.6 200 20:38 01.04.2020
397 Clouds 19 1011 68 10000 4.6 200 20:18 01.04.2020
398 Clouds 19 1011 72 10000 5.1 190 19:55 01.04.2020
399 Clouds 19 1011 72 10000 5.1 190 19:37 01.04.2020
400 Clouds 19 1011 72 10000 5.1 190 19:19 01.04.2020
401 Clouds 20 1011 72 10000 4.6 210 18:41 01.04.2020
402 Clouds 20 1011 72 10000 4.6 210 18:21 01.04.2020
403 Clouds 20 1012 72 10000 5.1 210 17:56 01.04.2020
404 Clouds 20 1012 72 10000 4.6 210 17:37 01.04.2020
405 Clouds 20 1012 72 10000 4.6 210 17:18 01.04.2020
406 Clouds 20 1012 72 10000 4.1 210 16:43 01.04.2020
407 Clouds 20 1012 72 10000 4.1 210 16:43 01.04.2020
408 Clouds 20 1012 72 10000 4.1 210 16:25 01.04.2020
409 Clouds 20 1012 72 10000 5.7 210 15:59 01.04.2020
410 Clouds 20 1012 72 10000 4.6 210 15:41 01.04.2020
411 Clouds 20 1012 72 10000 4.6 210 15:22 01.04.2020
412 Clouds 20 1012 72 10000 5.1 200 14:58 01.04.2020
413 Clouds 20 1012 72 10000 5.7 210 14:39 01.04.2020
414 Clouds 20 1012 72 10000 5.7 210 14:20 01.04.2020
415 Clouds 20 1012 64 10000 5.1 200 13:58 01.04.2020
416 Clouds 20 1012 64 10000 6.2 210 13:38 01.04.2020
417 Clouds 21 1012 64 10000 6.2 210 13:19 01.04.2020
418 Clouds 21 1012 64 10000 5.1 200 12:56 01.04.2020
419 Clouds 21 1012 56 10000 6.7 230 12:37 01.04.2020
420 Clouds 21 1012 56 10000 6.7 230 12:18 01.04.2020
421 Clouds 22 1011 46 10000 6.7 230 11:44 01.04.2020
422 Clouds 22 1011 46 10000 6.7 230 11:24 01.04.2020
423 Clouds 23 1011 44 10000 6.7 240 10:59 01.04.2020
424 Clouds 24 1010 47 10000 5.7 250 10:38 01.04.2020
425 Clouds 24 1010 47 10000 5.7 250 10:19 01.04.2020
426 Clouds 25 1010 47 10000 5.1 250 09:57 01.04.2020
427 Clouds 25 1010 47 10000 5.1 250 09:39 01.04.2020
428 Clouds 25 1010 50 10000 5.1 260 09:18 01.04.2020
429 Clouds 26 1010 47 10000 6.2 260 08:41 01.04.2020
430 Clouds 26 1010 47 10000 6.2 260 08:18 01.04.2020
431 Clouds 27 1011 34 10000 3.6 260 07:44 01.04.2020
432 Clouds 27 1011 34 10000 3.6 260 07:21 01.04.2020
433 Clouds 27 1012 34 10000 4.1 270 06:48 01.04.2020
434 Clouds 27 1012 32 10000 3.1 310 06:26 01.04.2020
435 Clouds 27 1012 36 10000 3.1 270 05:56 01.04.2020
436 Clouds 24 1014 49 10000 2.1 100 04:32 01.04.2020
437 Clouds 21 1014 60 10000 6.7 100 03:30 01.04.2020
438 Clouds 19 1015 63 10000 5.1 80 02:49 01.04.2020
439 Clouds 17 1015 77 10000 1 30 01:57 01.04.2020
440 Clouds 16 1015 87 10000 1 30 01:38 01.04.2020
441 Clouds 15 1015 87 10000 1 30 01:18 01.04.2020
442 Clouds 13 1015 100 10000 2.6 340 00:45 01.04.2020
443 Clouds 14 1015 100 10000 2.6 340 00:20 01.04.2020
444 Clouds 14 1015 93 10000 2.6 250 23:42 31.03.2020
445 Clouds 14 1015 93 10000 2.6 250 23:23 31.03.2020
446 Clouds 14 1015 93 10000 1.5 60 22:58 31.03.2020
447 Clouds 14 1015 93 10000 1.5 60 22:37 31.03.2020
448 Clouds 14 1015 93 10000 1.5 60 22:19 31.03.2020
449 Clouds 14 1014 93 10000 3.6 220 21:56 31.03.2020
450 Clouds 14 1014 93 10000 3.6 220 21:37 31.03.2020
451 Clouds 14 1014 93 10000 3.6 220 21:19 31.03.2020
452 Clouds 15 1015 93 10000 2.1 200 20:55 31.03.2020
453 Clouds 15 1015 93 10000 2.1 200 20:36 31.03.2020
454 Clouds 15 1015 100 10000 3.1 210 20:18 31.03.2020
455 Clouds 15 1015 100 10000 3.1 210 20:18 31.03.2020
456 Clouds 16 1015 87 10000 2.6 220 19:41 31.03.2020
457 Clouds 16 1015 87 10000 2.1 190 19:22 31.03.2020
458 Clouds 16 1015 87 10000 2.1 190 18:56 31.03.2020
459 Clouds 16 1015 82 10000 2.6 210 18:37 31.03.2020
460 Clouds 17 1016 77 10000 3.6 200 18:18 31.03.2020
461 Clouds 17 1016 77 10000 3.6 200 17:54 31.03.2020
462 Clouds 17 1016 77 10000 3.6 210 17:36 31.03.2020
463 Clouds 17 1016 77 10000 4.6 210 17:18 31.03.2020
464 Clouds 18 1017 77 10000 4.6 200 16:39 31.03.2020
465 Clouds 18 1017 77 10000 4.6 200 16:19 31.03.2020
466 Clouds 18 1016 72 10000 6.2 190 15:57 31.03.2020
467 Clouds 18 1016 72 10000 5.7 200 15:39 31.03.2020
468 Clouds 18 1016 72 10000 5.7 200 15:20 31.03.2020
469 Clouds 18 1016 72 10000 5.7 200 15:20 31.03.2020
470 Clouds 19 1016 72 10000 5.7 210 14:57 31.03.2020
471 Clouds 19 1016 68 10000 5.1 210 14:38 31.03.2020
472 Clouds 19 1016 68 10000 5.1 210 14:20 31.03.2020
473 Clouds 20 1016 60 10000 6.2 210 13:42 31.03.2020
474 Clouds 20 1016 60 10000 6.2 210 13:19 31.03.2020
475 Clouds 20 1016 56 10000 6.2 210 12:55 31.03.2020
476 Clouds 20 1016 56 10000 6.7 230 12:37 31.03.2020
477 Clouds 21 1016 56 10000 6.7 230 12:18 31.03.2020
478 Clouds 22 1015 49 10000 7.7 230 11:39 31.03.2020
479 Clouds 23 1015 49 10000 7.7 230 11:20 31.03.2020
480 Clouds 23 1015 49 10000 7.7 230 10:58 31.03.2020
481 Clouds 24 1015 47 10000 7.7 220 10:39 31.03.2020
482 Clouds 24 1015 47 10000 7.7 220 10:21 31.03.2020
483 Clouds 24 1015 47 10000 6.7 220 09:56 31.03.2020
484 Clouds 24 1014 47 10000 7.2 260 09:37 31.03.2020
485 Clouds 24 1014 47 10000 7.2 260 09:37 31.03.2020
486 Clouds 24 1014 47 10000 7.2 260 09:37 31.03.2020
487 Clouds 24 1014 47 10000 7.2 260 09:19 31.03.2020
488 Clouds 25 1014 44 10000 6.7 250 08:56 31.03.2020
489 Clouds 25 1014 44 10000 6.7 250 08:56 31.03.2020
490 Clouds 25 1014 44 10000 6.7 250 08:56 31.03.2020
491 Clouds 25 1014 44 10000 6.2 260 08:37 31.03.2020
492 Clouds 25 1014 44 10000 6.2 260 08:18 31.03.2020
493 Clouds 25 1015 34 10000 3.1 200 07:54 31.03.2020
494 Clouds 25 1015 36 10000 3.6 260 07:36 31.03.2020
495 Clouds 25 1015 36 10000 3.6 260 07:18 31.03.2020
496 Clouds 25 1016 38 10000 2.1 260 06:42 31.03.2020
497 Clouds 24 1017 41 10000 2.6 140 05:53 31.03.2020
498 Clouds 24 1017 43 10000 3.6 150 05:26 31.03.2020
499 Clouds 18 1019 68 10000 3.6 180 02:57 31.03.2020
500 Clouds 14 1018 100 10000 2.6 220 01:47 31.03.2020
501 Clouds 13 1018 93 10000 2.1 220 01:27 31.03.2020
502 Clouds 11 1018 93 10000 2.1 120 00:43 31.03.2020
503 Clouds 11 1018 93 10000 2.1 120 00:23 31.03.2020
504 Clouds 12 1018 93 10000 2.1 200 23:41 30.03.2020
505 Clouds 11 1018 93 10000 2.6 260 23:20 30.03.2020
506 Clouds 11 1017 93 10000 2.61 143 22:58 30.03.2020
507 Clouds 12 1017 93 10000 2.61 143 22:38 30.03.2020
508 Clouds 13 1017 93 10000 2.61 143 22:19 30.03.2020
509 Clouds 13 1017 93 10000 2.6 150 21:57 30.03.2020
510 Clouds 13 1017 93 10000 2.6 160 21:38 30.03.2020
511 -273 0 0 0 0 0 21:20 30.03.2020
512 Clouds 12 1017 93 10000 2.6 160 21:20 30.03.2020
513 Clear 13 1017 93 10000 3.6 260 20:58 30.03.2020
514 Clear 13 1017 93 10000 2.6 330 20:38 30.03.2020
515 Clear 13 1017 93 10000 2.6 330 20:19 30.03.2020
516 Clear 13 1016 87 10000 4.28 156 19:54 30.03.2020
517 Clear 14 1016 82 10000 2.1 100 19:36 30.03.2020
518 Clear 14 1017 76 10000 2.6 180 19:18 30.03.2020
519 Clear 15 1017 72 10000 4.1 190 18:41 30.03.2020
520 Clear 15 1017 72 10000 4.1 190 18:23 30.03.2020
521 Clear 16 1017 72 10000 4.6 170 17:57 30.03.2020
522 Clear 16 1018 72 10000 4.1 180 17:39 30.03.2020
523 Clear 16 1018 72 10000 4.1 180 17:19 30.03.2020
524 Clear 16 1018 72 10000 4.6 180 16:57 30.03.2020
525 Clear 16 1018 67 10000 4.6 200 16:39 30.03.2020
526 Clear 17 1018 67 10000 4.6 200 16:20 30.03.2020
527 Clear 17 1018 67 10000 3.6 200 15:55 30.03.2020
528 Clear 17 1018 67 10000 4.1 210 15:37 30.03.2020
529 Clouds 17 1018 67 10000 4.1 210 15:18 30.03.2020
530 Clouds 18 1018 63 10000 4.6 210 14:55 30.03.2020
531 Clouds 18 1017 63 10000 4.6 210 14:36 30.03.2020
532 Clouds 18 1017 63 10000 4.6 210 14:18 30.03.2020
533 Clouds 18 1017 59 10000 5.1 210 13:43 30.03.2020
534 Clouds 19 1016 55 10000 5.7 210 13:21 30.03.2020
535 Clouds 19 1016 56 10000 5.7 220 12:58 30.03.2020
536 Clouds 20 1017 56 10000 5.7 220 12:40 30.03.2020
537 Clouds 20 1017 56 10000 5.7 220 12:19 30.03.2020
538 Clouds 21 1016 49 10000 7.2 230 11:56 30.03.2020
539 Clouds 21 1016 43 10000 7.2 240 11:38 30.03.2020
540 Clouds 22 1016 43 10000 7.2 240 11:20 30.03.2020
541 Clouds 22 1016 43 10000 7.7 230 10:40 30.03.2020
542 Clouds 22 1016 43 10000 6.7 230 10:21 30.03.2020
543 Clouds 22 1016 43 10000 7.2 230 09:56 30.03.2020
544 Clouds 22 1016 40 10000 5.7 210 09:38 30.03.2020
545 Clouds 22 1016 40 10000 5.7 210 09:18 30.03.2020
546 Clouds 23 1016 38 10000 5.7 200 08:41 30.03.2020
547 Clouds 23 1016 36 10000 6.2 230 08:22 30.03.2020
548 Clouds 23 1016 36 10000 6.2 230 08:22 30.03.2020
549 Clouds 23 1016 38 10000 4.1 190 07:49 30.03.2020
550 Clouds 23 1017 38 10000 4.6 200 07:31 30.03.2020
551 Clouds 23 1017 43 10000 3.6 200 06:56 30.03.2020
552 Rain 22 1018 40 10000 3.6 230 06:31 30.03.2020
553 Clouds 22 1018 40 10000 5.1 230 05:53 30.03.2020
554 Clouds 22 1018 40 10000 3.1 130 05:22 30.03.2020
555 Clouds 21 1019 49 10000 4.1 70 04:23 30.03.2020
556 Clouds 20 1019 59 10000 3.1 140 03:38 30.03.2020
557 Clouds 16 1019 72 10000 2.1 60 02:37 30.03.2020
558 Clouds 13 1019 81 10000 2.85 120 01:35 30.03.2020
559 Clouds 11 1019 93 10000 1 50 00:47 30.03.2020
560 Clear 10 1019 100 10000 2.1 50 00:21 30.03.2020
561 Clear 10 1019 93 10000 2.6 100 23:41 29.03.2020
562 Clear 10 1019 93 10000 3.19 127 23:23 29.03.2020
563 Clear 10 1018 93 10000 3.19 127 22:57 29.03.2020
564 Clear 11 1018 93 10000 3.19 127 22:37 29.03.2020
565 Clear 11 1018 93 10000 3.19 127 22:18 29.03.2020
566 Clear 11 1018 93 10000 3.19 127 21:40 29.03.2020
567 Clear 11 1018 93 10000 1.5 20 21:21 29.03.2020
568 Clear 11 1018 93 10000 2.93 148 20:56 29.03.2020
569 Clear 11 1018 93 10000 2.93 148 20:56 29.03.2020
570 Clear 12 1018 87 10000 0.5 220 20:38 29.03.2020
571 Clear 12 1018 87 10000 0.5 220 20:19 29.03.2020
572 Clear 13 1018 93 10000 1 210 19:59 29.03.2020
573 Clear 12 1018 93 10000 1 210 19:59 29.03.2020
574 Clear 13 1018 87 10000 0.5 150 19:41 29.03.2020
575 Clear 13 1018 87 10000 1.5 90 19:23 29.03.2020
576 Clear 14 1018 87 10000 1.5 90 18:57 29.03.2020
577 Clear 14 1019 81 10000 2.6 200 18:39 29.03.2020
578 Clouds 14 1019 87 10000 3.1 170 18:20 29.03.2020
579 Clouds 14 1019 87 10000 3.1 170 17:56 29.03.2020
580 Clouds 15 1019 82 10000 3.6 140 17:38 29.03.2020
581 Clouds 15 1019 82 10000 3.6 140 17:19 29.03.2020
582 Clouds 15 1019 76 10000 3.6 150 16:57 29.03.2020
583 Clouds 16 1019 72 10000 3.1 200 16:38 29.03.2020
584 Clouds 16 1019 72 10000 3.1 200 16:38 29.03.2020
585 Clouds 16 1019 72 10000 3.1 200 16:19 29.03.2020
586 Clouds 16 1019 72 10000 3.1 210 15:42 29.03.2020
587 Clouds 17 1019 72 10000 3.1 180 15:24 29.03.2020
588 Clouds 17 1019 67 10000 3.6 160 14:58 29.03.2020
589 Clouds 18 1019 63 10000 4.6 190 14:40 29.03.2020
590 Clouds 18 1019 63 10000 4.6 190 14:20 29.03.2020
591 Clouds 18 1019 59 10000 4.6 210 13:58 29.03.2020
592 Clouds 18 1018 59 10000 4.6 210 13:39 29.03.2020
593 Clouds 19 1018 59 10000 4.6 210 13:20 29.03.2020
594 Clouds 19 1018 52 10000 5.7 230 12:56 29.03.2020
595 Clouds 19 1018 52 10000 5.7 230 12:37 29.03.2020
596 Clouds 19 1018 52 10000 5.7 230 12:37 29.03.2020
597 Clouds 20 1018 49 10000 6.2 240 12:19 29.03.2020
598 Clouds 20 1018 49 10000 6.2 240 11:55 29.03.2020
599 Clouds 21 1018 49 10000 6.7 240 11:37 29.03.2020
600 Clouds 21 1018 49 10000 6.7 240 11:18 29.03.2020
601 Clouds 21 1018 49 10000 6.7 240 11:18 29.03.2020
602 Clouds 22 1017 40 10000 6.7 240 10:38 29.03.2020
603 Clouds 22 1017 40 10000 6.7 240 10:19 29.03.2020
604 Clouds 22 1018 43 10000 5.7 260 09:41 29.03.2020
605 Clouds 23 1018 43 10000 5.7 260 09:20 29.03.2020
606 Clouds 22 1018 46 10000 3.6 230 08:54 29.03.2020
607 Clouds 22 1018 46 10000 3.6 230 08:54 29.03.2020
608 Clouds 22 1018 49 10000 4.1 230 08:30 29.03.2020
609 Clouds 23 1018 46 10000 6.2 220 07:59 29.03.2020
610 Clouds 22 1018 46 10000 3.6 230 07:41 29.03.2020
611 Clouds 22 1019 49 10000 5.1 220 07:20 29.03.2020
612 Clouds 21 1019 56 10000 3.1 100 05:41 29.03.2020
613 Clouds 19 1020 59 10000 6.2 230 03:58 29.03.2020
614 Clouds 18 1019 63 10000 6.2 230 03:28 29.03.2020
615 Clouds 17 1019 63 10000 2.6 150 01:51 29.03.2020
616 Clouds 16 1019 67 10000 1 10 01:23 29.03.2020
617 Clouds 16 1019 67 10000 3.1 40 00:55 29.03.2020
618 Clouds 15 1018 67 10000 3.1 40 00:32 29.03.2020
619 Clouds 15 1017 71 10000 3.6 70 23:43 28.03.2020
620 Clouds 14 1017 71 10000 3.6 70 23:24 28.03.2020
621 Clouds 13 1017 87 10000 2.6 40 22:59 28.03.2020
622 Clouds 13 1016 87 10000 0.5 50 22:39 28.03.2020
623 Clouds 13 1016 87 10000 0.5 50 22:20 28.03.2020
624 Clouds 14 1017 82 10000 3.02 160 21:54 28.03.2020
625 Clouds 13 1017 87 10000 3.02 160 21:36 28.03.2020
626 Clouds 14 1017 87 10000 3.02 160 21:18 28.03.2020
627 Clouds 15 1017 72 10000 2.1 150 20:41 28.03.2020
628 Clouds 15 1017 77 10000 2.6 150 20:23 28.03.2020
629 Clouds 16 1017 77 10000 1.5 160 19:57 28.03.2020
630 Clouds 16 1017 76 10000 3.1 170 19:38 28.03.2020
631 Clouds 16 1017 76 10000 3.1 170 19:20 28.03.2020
632 Clouds 16 1017 77 10000 3.1 130 18:56 28.03.2020
633 Clouds 16 1017 77 10000 3.6 170 18:38 28.03.2020
634 Clouds 16 1017 77 10000 3.6 170 18:38 28.03.2020
635 Clouds 17 1017 72 10000 3.6 180 18:19 28.03.2020
636 Clouds 17 1017 63 10000 3.1 190 17:38 28.03.2020
637 Clouds 17 1017 63 10000 3.6 190 17:20 28.03.2020
638 Clouds 18 1017 59 10000 3.6 190 16:43 28.03.2020
639 Clouds 18 1017 59 10000 3.6 190 16:20 28.03.2020
640 Clouds 18 1017 63 10000 4.6 180 15:57 28.03.2020
641 Clouds 18 1018 63 10000 4.6 190 15:39 28.03.2020
642 Clouds 18 1018 63 10000 4.6 190 15:19 28.03.2020
643 Clouds 18 1018 63 10000 4.1 180 14:43 28.03.2020
644 Clouds 18 1018 63 10000 5.1 180 14:23 28.03.2020
645 Clouds 19 1017 59 10000 5.1 190 13:59 28.03.2020
646 Clouds 19 1017 59 10000 5.1 200 13:38 28.03.2020
647 Clouds 19 1017 59 10000 5.1 200 13:18 28.03.2020
648 Clouds 19 1017 59 10000 6.2 210 12:38 28.03.2020
649 Clouds 19 1017 59 10000 6.2 210 12:19 28.03.2020
650 Clouds 20 1016 60 10000 6.2 230 11:42 28.03.2020
651 Clouds 20 1016 56 10000 6.2 240 11:21 28.03.2020
652 Clouds 20 1016 56 10000 6.2 240 10:55 28.03.2020
653 Clouds 21 1015 49 10000 7.2 210 10:36 28.03.2020
654 Clouds 21 1015 49 10000 7.2 210 10:18 28.03.2020
655 Clouds 22 1015 49 10000 7.2 230 09:40 28.03.2020
656 Clouds 22 1015 49 10000 7.2 230 09:22 28.03.2020
657 Clouds 22 1015 56 10000 7.7 210 08:45 28.03.2020
658 Clouds 23 1015 53 10000 7.2 240 08:25 28.03.2020
659 Clouds 23 1015 49 10000 6.7 240 07:58 28.03.2020
660 Clouds 23 1015 53 10000 7.2 250 07:40 28.03.2020
661 Clouds 23 1015 53 10000 6.7 240 06:53 28.03.2020
662 Clouds 23 1016 53 10000 6.7 210 06:26 28.03.2020
663 Clouds 22 1016 49 10000 5.7 230 05:30 28.03.2020
664 Clouds 23 1016 49 10000 5.7 230 05:30 28.03.2020
665 Clouds 23 1016 49 10000 6.2 240 04:58 28.03.2020
666 Clouds 23 1016 49 10000 6.2 230 04:39 28.03.2020
667 Clouds 22 1016 56 10000 8.7 230 02:51 28.03.2020
668 Clouds 21 1016 52 10000 7.7 220 01:47 28.03.2020
669 Clouds 21 1016 56 10000 6.2 220 01:23 28.03.2020
670 Clouds 20 1016 60 10000 5.1 220 00:49 28.03.2020
671 Clouds 19 1015 63 10000 5.1 220 00:24 28.03.2020
672 Clouds 19 1015 72 10000 7.7 220 23:44 27.03.2020
673 Clouds 19 1015 72 10000 7.7 220 23:25 27.03.2020
674 Clouds 19 1014 68 10000 7.2 220 22:57 27.03.2020
675 Clouds 20 1014 68 10000 4.6 230 22:39 27.03.2020
676 Clouds 20 1014 68 10000 4.6 230 22:20 27.03.2020
677 Clouds 20 1013 72 10000 5.1 230 21:57 27.03.2020
678 Clouds 20 1013 77 10000 5.7 230 21:38 27.03.2020
679 Clouds 20 1013 77 10000 5.7 230 21:20 27.03.2020
680 Clouds 20 1013 77 10000 7.7 230 20:55 27.03.2020
681 Clouds 20 1013 77 10000 7.7 230 20:55 27.03.2020
682 Clouds 20 1013 88 10000 5.7 230 20:37 27.03.2020
683 Clouds 20 1013 88 10000 5.7 230 20:18 27.03.2020
684 Rain 20 1012 88 10000 4.6 250 19:42 27.03.2020
685 Rain 20 1012 88 10000 4.6 250 19:23 27.03.2020
686 Drizzle 20 1012 94 5000 5.1 260 18:57 27.03.2020
687 Drizzle 20 1012 94 6000 3.1 280 18:38 27.03.2020
688 Drizzle 20 1012 94 6000 3.1 280 18:19 27.03.2020
689 Rain 21 1012 100 9000 4.1 260 17:40 27.03.2020
690 Rain 21 1012 78 10000 6.2 260 17:20 27.03.2020
691 Rain 22 1012 78 10000 6.2 260 16:55 27.03.2020
692 Rain 22 1012 73 10000 6.2 260 16:37 27.03.2020
693 Rain 22 1012 73 10000 6.2 260 16:19 27.03.2020
694 Clouds 22 1013 78 10000 4.1 290 15:42 27.03.2020
695 Clouds 22 1013 78 10000 4.1 290 15:24 27.03.2020
696 Rain 22 1013 78 10000 6.2 260 14:46 27.03.2020
697 Clouds 22 1013 73 10000 3.6 290 14:25 27.03.2020
698 Rain 22 1013 73 10000 6.2 260 13:57 27.03.2020
699 Rain 22 1013 73 10000 6.2 260 13:57 27.03.2020
700 Clouds 22 1012 73 10000 4.6 280 13:38 27.03.2020
701 Clouds 22 1012 73 10000 4.6 280 13:19 27.03.2020
702 Clouds 23 1012 78 10000 4.6 270 12:55 27.03.2020
703 Clouds 23 1012 78 10000 5.7 270 12:37 27.03.2020
704 Clouds 23 1012 73 10000 7.7 300 12:18 27.03.2020
705 Clouds 23 1011 73 10000 6.7 310 11:41 27.03.2020
706 Clouds 23 1011 78 10000 6.7 310 11:23 27.03.2020
707 Clouds 24 1011 78 10000 6.7 310 10:55 27.03.2020
708 Clouds 24 1011 65 10000 6.2 310 10:37 27.03.2020
709 Clouds 24 1011 65 10000 6.2 310 10:37 27.03.2020
710 Clouds 25 1011 65 10000 6.2 310 10:18 27.03.2020
711 Clouds 25 1011 65 10000 6.2 290 09:56 27.03.2020
712 Clouds 26 1011 61 10000 6.7 280 09:37 27.03.2020
713 Clouds 26 1011 61 10000 6.7 280 09:18 27.03.2020
714 Clouds 26 1011 65 10000 6.7 290 08:55 27.03.2020
715 Clouds 26 1011 61 10000 6.7 310 08:37 27.03.2020
716 Clouds 26 1011 61 10000 6.7 310 08:18 27.03.2020
717 Clouds 26 1011 57 10000 6.2 300 07:49 27.03.2020
718 Clouds 27 1011 65 10000 7.2 310 07:22 27.03.2020
719 Clouds 27 1012 61 10000 6.2 290 06:45 27.03.2020
720 Clouds 26 1012 61 10000 6.2 290 06:26 27.03.2020
721 Clouds 27 1013 61 10000 5.1 310 03:42 27.03.2020
722 Clouds 25 1013 69 10000 3.6 350 02:25 27.03.2020
723 Clouds 25 1013 69 10000 4.6 10 01:21 27.03.2020
724 Clouds 24 1012 64 10000 3.6 10 00:47 27.03.2020
725 Clouds 23 1012 64 10000 3.6 10 00:23 27.03.2020
726 Clouds 23 1012 64 10000 2.6 20 23:42 26.03.2020
727 Clouds 23 1011 53 10000 4.1 330 23:19 26.03.2020
728 Clouds 23 1011 53 10000 4.1 330 22:57 26.03.2020
729 Clouds 23 1011 50 10000 3.1 40 22:37 26.03.2020
730 Clouds 23 1011 50 10000 3.1 40 22:18 26.03.2020
731 Clouds 24 1011 56 10000 3.1 10 21:40 26.03.2020
732 Clouds 24 1011 56 10000 3.1 10 21:22 26.03.2020
733 Clouds 24 1010 47 10000 3.6 350 20:59 26.03.2020
734 Clouds 24 1010 56 10000 2.6 350 20:39 26.03.2020
735 Clouds 24 1010 56 10000 2.6 350 20:21 26.03.2020
736 Clouds 23 1010 49 10000 2.6 350 19:58 26.03.2020
737 Clouds 24 1011 47 10000 3.6 50 19:40 26.03.2020
738 Clouds 24 1011 47 10000 3.6 50 19:21 26.03.2020
739 Clouds 24 1011 47 10000 3.6 50 18:58 26.03.2020
740 Clouds 24 1011 50 10000 3.6 30 18:40 26.03.2020
741 Clouds 24 1011 50 10000 3.6 30 18:21 26.03.2020
742 Clouds 24 1011 53 10000 2.1 360 17:45 26.03.2020
743 Clouds 24 1011 53 10000 2.6 30 17:20 26.03.2020
744 Clouds 24 1011 53 10000 2.6 30 16:57 26.03.2020
745 Clouds 25 1012 50 10000 3.1 360 16:38 26.03.2020
746 Clouds 25 1012 50 10000 3.1 360 16:19 26.03.2020
747 Clouds 26 1012 47 10000 3.6 30 15:56 26.03.2020
748 Clouds 26 1012 47 10000 3.6 30 15:56 26.03.2020
749 Clouds 26 1012 47 10000 3.6 60 15:37 26.03.2020
750 Clouds 26 1012 47 10000 3.6 60 15:18 26.03.2020
751 Clouds 26 1012 47 10000 2.6 60 14:43 26.03.2020
752 Clouds 26 1012 47 10000 2.6 60 14:24 26.03.2020
753 Clear 26 1012 47 10000 3.1 300 13:56 26.03.2020
754 Clear 27 1012 39 10000 3.1 280 13:38 26.03.2020
755 Clear 27 1012 39 10000 3.1 280 13:19 26.03.2020
756 Clear 29 1012 33 10000 3.6 270 12:38 26.03.2020
757 Clear 30 1011 29 10000 3.6 270 12:20 26.03.2020
758 Clear 31 1011 26 10000 3.6 260 11:46 26.03.2020
759 Clear 32 1011 24 10000 3.6 230 11:23 26.03.2020
760 Clear 33 1011 24 10000 3.6 230 10:59 26.03.2020
761 Clear 34 1011 23 10000 4.1 230 10:41 26.03.2020
762 Clear 34 1011 23 10000 4.1 230 10:19 26.03.2020
763 Clear 35 1012 23 10000 3.6 200 09:44 26.03.2020
764 Clear 36 1012 22 10000 4.1 250 09:21 26.03.2020
765 Clear 36 1012 23 10000 4.6 230 08:57 26.03.2020
766 Clear 36 1012 23 10000 4.6 230 08:57 26.03.2020
767 Clear 36 1012 22 10000 4.6 250 08:38 26.03.2020
768 Clear 36 1012 22 10000 4.6 250 08:19 26.03.2020
769 Rain 36 1013 25 10000 7.2 260 07:44 26.03.2020
770 Rain 36 1013 25 10000 7.2 260 07:22 26.03.2020
771 Rain 35 1013 23 10000 6.7 250 06:57 26.03.2020
772 Rain 35 1013 20 10000 3.6 300 06:27 26.03.2020
773 Rain 36 1014 21 10000 6.2 210 05:22 26.03.2020
774 Clear 34 1015 28 10000 4.6 20 03:45 26.03.2020
775 Clear 31 1016 35 10000 2.6 20 02:56 26.03.2020
776 Clear 27 1016 42 10000 3.6 60 01:50 26.03.2020
777 Clouds 24 1016 53 10000 4.1 70 00:55 26.03.2020
778 Clouds 20 1016 60 10000 4.6 60 00:22 26.03.2020
779 Clouds 20 1015 60 10000 4.6 70 23:41 25.03.2020
780 Clouds 19 1015 64 10000 2.6 60 23:21 25.03.2020
781 Clouds 18 1015 68 10000 1.5 100 22:42 25.03.2020
782 Clouds 18 1015 68 10000 1.5 100 22:21 25.03.2020
783 Clouds 20 1015 64 10000 1.5 60 21:56 25.03.2020
784 Clouds 20 1015 64 10000 2.6 30 21:38 25.03.2020
785 Clouds 20 1015 64 10000 2.6 30 21:38 25.03.2020
786 Clouds 20 1015 64 10000 2.6 30 21:19 25.03.2020
787 Clouds 20 1014 64 10000 2.1 50 20:55 25.03.2020
788 Clouds 20 1014 68 10000 3.1 40 20:37 25.03.2020
789 Clouds 20 1014 68 10000 3.1 40 20:18 25.03.2020
790 Clouds 20 1015 68 10000 1.07 64 19:43 25.03.2020
791 Clouds 20 1015 68 10000 1.12 87 19:23 25.03.2020
792 Clouds 21 1015 64 10000 3.1 70 18:57 25.03.2020
793 Clouds 21 1015 64 10000 3.1 70 18:57 25.03.2020
794 Clouds 20 1015 77 10000 3.1 70 18:39 25.03.2020
795 Clouds 20 1015 82 10000 1.07 64 18:21 25.03.2020
796 Clouds 21 1015 82 10000 1.07 64 17:55 25.03.2020
797 Clouds 21 1015 73 10000 1.07 64 17:37 25.03.2020
798 Clouds 22 1015 73 10000 3.6 350 17:18 25.03.2020
799 Rain 22 1015 69 10000 3.6 100 16:43 25.03.2020
800 Rain 23 1015 69 10000 3.6 100 16:24 25.03.2020
801 Rain 23 1015 69 10000 3.1 50 15:57 25.03.2020
802 Clouds 23 1016 69 10000 2.6 50 15:38 25.03.2020
803 Clouds 23 1016 69 10000 2.6 50 15:19 25.03.2020
804 Clouds 24 1016 69 10000 2.6 210 14:42 25.03.2020
805 Clouds 23 1016 69 10000 2.6 210 14:21 25.03.2020
806 Clouds 24 1016 61 10000 3.6 250 13:46 25.03.2020
807 Clouds 24 1016 61 10000 3.6 250 13:27 25.03.2020
808 Clouds 25 1016 61 10000 4.6 210 12:57 25.03.2020
809 Clouds 25 1015 65 10000 5.7 260 12:37 25.03.2020
810 Clouds 25 1015 54 10000 4.6 260 12:19 25.03.2020
811 Clouds 27 1015 48 10000 5.7 250 11:43 25.03.2020
812 Clouds 28 1014 33 10000 3.6 280 11:22 25.03.2020
813 Clouds 30 1014 31 10000 4.1 270 10:59 25.03.2020
814 Clouds 31 1014 27 10000 4.1 270 10:40 25.03.2020
815 Clouds 32 1014 27 10000 4.1 270 10:19 25.03.2020
816 Clouds 32 1013 27 10000 4.6 250 09:59 25.03.2020
817 Clouds 32 1013 27 10000 3.6 270 09:40 25.03.2020
818 Clouds 33 1013 27 10000 3.6 270 09:22 25.03.2020
819 Clouds 32 1013 27 10000 4.1 270 08:54 25.03.2020
820 Clouds 32 1013 26 10000 4.6 260 08:36 25.03.2020
821 Clouds 32 1013 26 10000 4.6 260 08:18 25.03.2020
822 Clouds 33 1013 23 10000 4.6 360 07:39 25.03.2020
823 Clouds 33 1013 23 10000 4.6 360 07:39 25.03.2020
824 Clouds 33 1014 24 10000 3.6 360 07:19 25.03.2020
825 Clouds 33 1014 23 10000 5.1 350 06:45 25.03.2020
826 Clouds 33 1014 23 10000 5.1 350 06:25 25.03.2020
827 Clouds 33 1014 22 10000 6.7 10 05:48 25.03.2020
828 Clouds 32 1015 24 10000 7.2 30 04:46 25.03.2020
829 Clouds 31 1015 23 10000 6.7 30 03:58 25.03.2020
830 Clouds 31 1016 26 10000 7.7 40 03:34 25.03.2020
831 Clouds 27 1016 29 10000 6.7 50 01:55 25.03.2020
832 Clouds 26 1015 27 10000 7.2 50 00:58 25.03.2020
833 Clouds 25 1015 29 10000 6.2 60 00:40 25.03.2020
834 Clouds 24 1015 33 10000 5.1 60 00:18 25.03.2020
835 Clouds 23 1015 35 10000 5.1 80 23:40 24.03.2020
836 Clouds 23 1015 35 10000 5.7 70 23:21 24.03.2020
837 Clouds 23 1015 35 10000 5.7 70 22:55 24.03.2020
838 Clouds 23 1015 35 10000 5.7 70 22:36 24.03.2020
839 Clouds 23 1015 35 10000 5.7 70 22:18 24.03.2020
840 Clouds 23 1015 35 10000 5.7 80 21:43 24.03.2020
841 Clouds 23 1015 35 10000 5.1 70 21:19 24.03.2020
842 Clouds 23 1015 35 10000 5.7 70 20:59 24.03.2020
843 Clouds 24 1015 33 10000 4.6 50 20:41 24.03.2020
844 Clouds 23 1015 33 10000 4.6 50 20:23 24.03.2020
845 Clouds 23 1015 33 10000 4.6 70 19:48 24.03.2020
846 Clouds 24 1015 33 10000 4.6 70 19:48 24.03.2020
847 Clouds 24 1014 31 10000 7.2 70 19:24 24.03.2020
848 Clouds 24 1014 31 10000 7.2 70 18:59 24.03.2020
849 Clouds 24 1014 31 10000 6.7 70 18:40 24.03.2020
850 Clouds 24 1014 29 10000 6.2 70 18:20 24.03.2020
851 Clouds 25 1014 31 10000 7.2 70 17:58 24.03.2020
852 Clouds 25 1014 31 10000 7.2 70 17:40 24.03.2020
853 Clouds 25 1014 31 10000 7.2 70 17:40 24.03.2020
854 Clouds 25 1014 31 10000 7.2 70 17:40 24.03.2020
855 Clouds 25 1014 29 10000 7.7 80 17:22 24.03.2020
856 Clear 25 1014 29 10000 7.7 80 16:57 24.03.2020
857 Clear 25 1014 29 10000 7.7 80 16:57 24.03.2020
858 Clear 26 1014 29 10000 8.2 90 16:38 24.03.2020
859 Clear 26 1014 29 10000 8.2 90 16:20 24.03.2020
860 Clear 27 1015 30 10000 6.7 90 15:43 24.03.2020
861 Clear 27 1015 30 10000 6.7 90 15:25 24.03.2020
862 Clear 27 1015 32 10000 5.7 90 14:44 24.03.2020
863 Clear 27 1015 32 10000 5.7 90 14:24 24.03.2020
864 Clear 27 1015 32 10000 5.7 90 13:59 24.03.2020
865 Clear 27 1014 30 10000 4.1 100 13:41 24.03.2020
866 Clear 27 1014 30 10000 4.1 100 13:41 24.03.2020
867 Clear 27 1014 30 10000 4.1 100 13:22 24.03.2020
868 Clear 28 1014 28 10000 4.1 130 12:43 24.03.2020
869 Clear 28 1014 28 10000 4.1 130 12:25 24.03.2020
870 Clear 29 1014 23 10000 4.1 100 11:56 24.03.2020
871 Clear 30 1014 22 10000 4.1 100 11:37 24.03.2020
872 Clear 32 1014 18 10000 4.1 100 11:18 24.03.2020
873 Clear 33 1014 18 10000 2.6 200 10:41 24.03.2020
874 Clear 33 1014 18 10000 2.6 200 10:19 24.03.2020
875 Clear 33 1014 18 10000 2.6 200 10:19 24.03.2020
876 Clear 34 1014 17 10000 3.1 170 09:47 24.03.2020
877 Clear 34 1014 18 10000 3.6 190 09:27 24.03.2020
878 Clear 34 1014 19 10000 3.6 170 08:57 24.03.2020
879 Clear 34 1014 18 10000 3.1 200 08:38 24.03.2020
880 Clear 34 1014 18 10000 3.1 200 08:19 24.03.2020
881 Clear 34 1014 21 10000 3.1 350 07:44 24.03.2020
882 Clear 34 1014 21 10000 2.6 180 07:22 24.03.2020
883 Clear 33 1015 22 10000 2.6 30 06:42 24.03.2020
884 Clear 33 1015 24 10000 3.6 50 06:21 24.03.2020
885 Clear 31 1016 29 10000 5.1 60 04:52 24.03.2020
886 Clear 29 1017 35 10000 5.7 60 03:32 24.03.2020
887 Clear 27 1017 39 10000 6.7 60 02:43 24.03.2020
888 Clouds 23 1017 49 10000 8.7 70 00:57 24.03.2020
889 Clouds 22 1017 49 10000 6.2 70 00:28 24.03.2020
890 Clouds 22 1017 49 10000 6.2 70 00:28 24.03.2020
891 Clouds 22 1017 52 10000 8.7 70 23:58 23.03.2020
892 Clouds 22 1017 49 10000 5.7 60 23:38 23.03.2020
893 Clouds 21 1017 52 10000 6.2 70 23:19 23.03.2020
894 Clouds 21 1016 52 10000 6.7 70 22:44 23.03.2020
895 Clouds 21 1016 52 10000 6.7 70 22:23 23.03.2020
896 Clouds 22 1016 52 10000 7.2 70 21:55 23.03.2020
897 Clouds 22 1016 52 10000 7.2 70 21:37 23.03.2020
898 Clouds 22 1016 52 10000 7.2 70 21:18 23.03.2020
899 Clouds 22 1016 52 10000 7.2 70 21:18 23.03.2020
900 Clouds 22 1016 52 10000 8.7 70 20:44 23.03.2020
901 Clouds 22 1016 46 10000 5.1 60 20:26 23.03.2020
902 Clouds 22 1016 46 10000 6.2 70 19:59 23.03.2020
903 Clouds 22 1016 46 10000 7.2 80 19:41 23.03.2020
904 Clouds 22 1016 46 10000 7.2 80 19:22 23.03.2020
905 Clouds 23 1016 43 10000 8.7 90 18:54 23.03.2020
906 Clouds 23 1016 43 10000 8.7 90 18:36 23.03.2020
907 Clouds 23 1017 40 10000 9.8 90 18:18 23.03.2020
908 Clouds 24 1017 38 10000 8.7 90 17:41 23.03.2020
909 Clouds 24 1017 36 10000 9.3 90 17:20 23.03.2020
910 Clouds 24 1017 36 10000 9.3 90 16:44 23.03.2020
911 Clouds 24 1017 36 10000 9.3 90 16:26 23.03.2020
912 Clouds 24 1017 31 10000 9.3 90 15:59 23.03.2020
913 Clouds 24 1017 31 10000 8.2 70 15:39 23.03.2020
914 Clouds 24 1017 31 10000 8.2 70 15:19 23.03.2020
915 Clouds 23 1017 40 10000 1.5 100 14:37 23.03.2020
916 Clouds 24 1018 44 10000 4.1 180 14:19 23.03.2020
917 Clouds 25 1018 44 10000 4.1 180 13:57 23.03.2020
918 Clouds 25 1017 40 10000 1.5 170 13:38 23.03.2020
919 Clouds 25 1017 40 10000 1.5 170 13:38 23.03.2020
920 Clouds 25 1017 40 10000 1.5 170 13:20 23.03.2020
921 Clouds 26 1016 34 10000 1.5 150 12:43 23.03.2020
922 Clouds 26 1016 34 10000 1.5 150 12:43 23.03.2020
923 Clouds 26 1016 34 10000 1.5 150 12:23 23.03.2020
924 Clouds 28 1016 27 10000 3.6 100 11:56 23.03.2020
925 Clouds 28 1016 27 10000 3.6 100 11:37 23.03.2020
926 Clouds 29 1016 23 10000 3.6 130 11:19 23.03.2020
927 Clouds 30 1016 23 10000 3.6 130 10:56 23.03.2020
928 Clouds 31 1016 22 10000 3.6 110 10:36 23.03.2020
929 Clouds 31 1016 22 10000 3.6 110 10:18 23.03.2020
930 Clouds 31 1016 22 10000 4.1 110 09:42 23.03.2020
931 Clouds 31 1016 22 10000 4.1 110 09:20 23.03.2020
932 Clouds 33 1016 24 10000 3.6 70 08:38 23.03.2020
933 Clear 33 1016 24 10000 3.6 70 08:20 23.03.2020
934 Clear 32 1016 25 10000 3.1 60 07:52 23.03.2020
935 Clear 32 1017 24 10000 5.1 130 07:33 23.03.2020
936 Clear 32 1017 27 10000 5.1 70 06:56 23.03.2020
937 Clear 32 1017 27 10000 5.1 70 06:34 23.03.2020
938 Clear 31 1018 33 10000 7.7 80 05:44 23.03.2020
939 Clear 31 1018 33 10000 7.7 80 05:44 23.03.2020
940 Clear 28 1020 39 10000 5.1 60 03:54 23.03.2020
941 Clear 26 1020 50 10000 7.2 60 02:45 23.03.2020
942 Clear 24 1020 60 10000 7.2 70 01:50 23.03.2020
943 Clear 21 1020 72 10000 8.2 70 00:47 23.03.2020
944 Clear 21 1020 72 10000 8.2 70 00:27 23.03.2020
945 Clear 20 1020 72 10000 7.2 70 23:42 22.03.2020
946 Clear 20 1020 72 10000 7.2 70 23:24 22.03.2020
947 Clear 20 1019 77 10000 8.7 80 22:42 22.03.2020
948 Clear 20 1019 77 10000 8.7 80 22:21 22.03.2020
949 Clear 20 1019 72 10000 9.3 80 21:41 22.03.2020
950 Clear 20 1019 72 10000 9.3 80 21:23 22.03.2020
951 Clear 20 1019 72 10000 9.3 80 20:59 22.03.2020
952 Clear 20 1019 60 10000 7.7 80 20:40 22.03.2020
953 Clear 21 1019 72 10000 10.8 90 20:22 22.03.2020
954 Clear 21 1019 64 10000 11.3 90 19:56 22.03.2020
955 Clear 21 1019 64 10000 10.8 90 19:38 22.03.2020
956 Clear 21 1019 64 10000 10.8 90 19:19 22.03.2020
957 Clear 21 1019 64 10000 10.8 100 18:57 22.03.2020
958 Clear 22 1019 56 10000 10.8 90 18:39 22.03.2020
959 Clear 22 1019 56 10000 10.8 90 18:20 22.03.2020
960 Clear 22 1019 53 10000 10.8 100 17:57 22.03.2020
961 Clear 23 1019 53 10000 8.7 80 17:38 22.03.2020
962 Clear 23 1019 53 10000 8.7 80 17:20 22.03.2020
963 Clear 23 1020 53 10000 9.8 100 16:57 22.03.2020
964 Clear 23 1020 53 10000 9.8 100 16:57 22.03.2020
965 Clear 23 1020 50 10000 8.7 60 16:39 22.03.2020
966 Clear 24 1020 50 10000 8.7 60 16:20 22.03.2020
967 Clear 24 1020 50 10000 9.8 100 15:40 22.03.2020
968 Clear 24 1020 50 10000 9.8 100 15:19 22.03.2020
969 Clear 25 1020 50 10000 7.2 80 14:46 22.03.2020
970 Clear 25 1020 50 10000 7.2 80 14:46 22.03.2020
971 Clear 25 1020 50 10000 8.2 110 14:18 22.03.2020
972 Clear 26 1020 47 10000 6.7 110 13:42 22.03.2020
973 Clear 26 1020 47 10000 6.7 110 13:20 22.03.2020
974 Clear 27 1020 44 10000 7.2 90 12:47 22.03.2020
975 Clear 27 1019 42 10000 7.2 90 12:23 22.03.2020
976 Clouds 28 1019 39 10000 6.7 130 11:59 22.03.2020
977 Clear 29 1019 37 10000 6.7 120 11:41 22.03.2020
978 Clear 29 1019 37 10000 6.7 120 11:23 22.03.2020
979 Clear 30 1019 33 10000 6.7 110 10:57 22.03.2020
980 Clear 31 1019 33 10000 6.7 130 10:39 22.03.2020
981 Clear 31 1019 33 10000 6.7 130 10:21 22.03.2020
982 Clear 31 1019 31 10000 5.1 90 09:43 22.03.2020
983 Clear 31 1019 33 10000 6.2 100 09:23 22.03.2020
984 Clear 32 1019 29 10000 6.2 110 08:44 22.03.2020
985 Clear 32 1019 33 10000 6.7 110 08:25 22.03.2020
986 Clear 31 1019 33 10000 6.7 110 07:53 22.03.2020
987 Clear 32 1019 33 10000 7.7 110 07:28 22.03.2020
988 Clear 31 1020 37 10000 7.7 90 06:40 22.03.2020
989 Clear 29 1021 39 10000 8.2 90 05:35 22.03.2020
990 Clouds 27 1022 44 10000 6.2 90 03:46 22.03.2020
991 Clouds 22 1023 64 10000 9.8 90 01:28 22.03.2020
992 Clear 20 1023 72 10000 7.7 100 00:48 22.03.2020
993 Clear 20 1022 64 10000 9.8 80 00:29 22.03.2020
994 Clear 19 1022 68 10000 11.8 100 23:43 21.03.2020
995 Clear 19 1022 68 10000 11.3 100 23:19 21.03.2020
996 Clear 19 1022 68 10000 11.3 100 22:55 21.03.2020
997 Clear 19 1022 68 10000 10.8 100 22:37 21.03.2020
998 Clear 19 1022 68 10000 10.8 100 22:18 21.03.2020
999 Clear 19 1021 68 10000 10.3 100 21:42 21.03.2020
1000 Clear 19 1021 68 10000 10.3 100 21:23 21.03.2020
1001 Clear 19 1021 64 10000 8.2 100 20:59 21.03.2020
1002 Clear 19 1021 72 10000 5.7 110 20:41 21.03.2020
1003 Clear 19 1021 72 10000 5.7 110 20:19 21.03.2020
1004 Clouds 20 1021 64 10000 9.3 110 19:44 21.03.2020
1005 Clear 20 1021 68 10000 6.2 100 19:25 21.03.2020
1006 Rain 20 1021 68 10000 9.3 110 18:57 21.03.2020
1007 Clear 20 1022 72 10000 8.2 100 18:38 21.03.2020
1008 Clear 20 1021 68 10000 9.3 110 18:20 21.03.2020
1009 Clear 20 1021 68 10000 9.3 110 18:20 21.03.2020
1010 Clear 20 1021 68 10000 14.4 100 17:55 21.03.2020
1011 Clear 20 1021 68 10000 14.4 100 17:37 21.03.2020
1012 Clear 20 1021 68 10000 14.4 100 17:37 21.03.2020
1013 Clear 20 1021 68 10000 14.4 100 17:18 21.03.2020
1014 Clear 20 1021 68 10000 14.4 100 17:18 21.03.2020
1015 Clear 21 1021 64 10000 12.9 100 16:41 21.03.2020
1016 Clear 21 1021 64 10000 12.9 100 16:20 21.03.2020
1017 Clear 21 1021 64 10000 13.9 100 15:56 21.03.2020
1018 Clear 21 1021 68 10000 12.9 100 15:37 21.03.2020
1019 Clear 21 1021 68 10000 12.9 100 15:18 21.03.2020
1020 Clear 22 1021 64 10000 13.9 110 14:54 21.03.2020
1021 Clouds 22 1022 68 10000 9.3 120 14:36 21.03.2020
1022 Clouds 22 1022 68 10000 9.3 120 14:18 21.03.2020
1023 Rain 23 1020 60 10000 14.4 110 13:56 21.03.2020
1024 Rain 24 1020 57 10000 12.3 110 13:38 21.03.2020
1025 Rain 24 1020 57 10000 12.3 110 13:19 21.03.2020
1026 Rain 25 1020 57 10000 7.7 130 12:39 21.03.2020
1027 Clouds 26 1018 37 10000 9.8 70 12:19 21.03.2020
1028 Clouds 27 1018 37 10000 9.8 70 11:58 21.03.2020
1029 Rain 27 1018 44 10000 7.7 130 11:39 21.03.2020
1030 Rain 28 1018 35 10000 9.3 110 11:19 21.03.2020
1031 Rain 28 1018 35 10000 9.3 110 11:19 21.03.2020
1032 Rain 30 1018 35 10000 9.3 110 10:57 21.03.2020
1033 Rain 29 1018 35 10000 9.3 110 10:57 21.03.2020
1034 Clouds 30 1018 35 10000 7.7 130 10:39 21.03.2020
1035 Clouds 30 1018 35 10000 7.7 130 10:20 21.03.2020
1036 Clouds 30 1018 35 10000 7.7 130 10:20 21.03.2020
1037 Clouds 31 1018 35 10000 7.2 120 09:57 21.03.2020
1038 Clouds 31 1018 35 10000 7.7 120 09:37 21.03.2020
1039 Clouds 31 1018 35 10000 7.7 120 09:37 21.03.2020
1040 Clouds 31 1018 35 10000 7.7 120 09:19 21.03.2020
1041 Clouds 31 1018 35 10000 7.2 130 08:45 21.03.2020
1042 Clouds 31 1018 35 10000 5.7 100 08:25 21.03.2020
1043 Rain 30 1018 35 10000 7.2 100 07:52 21.03.2020
1044 Rain 30 1018 33 10000 6.7 90 07:32 21.03.2020
1045 Rain 31 1019 35 10000 6.2 90 06:48 21.03.2020
1046 Rain 31 1019 35 10000 6.2 90 06:29 21.03.2020
1047 Rain 30 1020 45 10000 5.1 100 05:48 21.03.2020
1048 Clear 30 1020 45 10000 5.7 90 05:18 21.03.2020
1049 Clear 27 1021 57 10000 7.2 100 03:26 21.03.2020
1050 Clear 25 1021 60 10000 7.7 100 02:34 21.03.2020
1051 Clouds 23 1021 64 10000 7.2 90 01:38 21.03.2020
1052 Clouds 22 1021 64 10000 7.2 90 01:18 21.03.2020
1053 Clouds 20 1020 68 10000 6.7 80 00:38 21.03.2020
1054 Clouds 19 1019 68 10000 5.1 80 23:58 20.03.2020
1055 Clouds 19 1019 77 10000 3.6 90 23:40 20.03.2020
1056 Clouds 18 1019 82 10000 2.6 70 23:18 20.03.2020
1057 Clouds 17 1019 87 10000 2.1 200 22:41 20.03.2020
1058 Clouds 17 1019 87 10000 2.1 200 22:22 20.03.2020
1059 Clouds 17 1019 88 10000 2.6 220 21:56 20.03.2020
1060 Clouds 17 1019 87 10000 2.05 84 21:38 20.03.2020
1061 Clouds 17 1019 87 10000 2.05 84 21:18 20.03.2020
1062 Clouds 17 1018 88 10000 2.05 84 20:57 20.03.2020
1063 Clouds 18 1018 87 10000 1 60 20:38 20.03.2020
1064 Clouds 17 1018 87 10000 1 60 20:18 20.03.2020
1065 Clouds 18 1018 87 10000 1.5 120 19:45 20.03.2020
1066 Clouds 18 1018 87 10000 2.1 180 19:19 20.03.2020
1067 Clouds 18 1018 87 10000 2.1 180 19:19 20.03.2020
1068 Clouds 18 1019 82 10000 3.1 210 18:55 20.03.2020
1069 Clouds 19 1018 82 10000 2.6 210 18:37 20.03.2020
1070 Clouds 19 1018 77 10000 2.6 180 18:19 20.03.2020
1071 Clouds 19 1018 72 10000 3.6 200 17:39 20.03.2020
1072 Clouds 20 1018 68 10000 3.6 210 17:21 20.03.2020
1073 Clouds 20 1018 68 10000 3.6 210 17:21 20.03.2020
1074 Clouds 20 1018 68 10000 3.6 210 16:58 20.03.2020
1075 Clouds 21 1019 68 10000 4.1 190 16:39 20.03.2020
1076 Clouds 21 1019 68 10000 4.1 190 16:18 20.03.2020
1077 Clouds 21 1019 68 10000 3.1 210 15:42 20.03.2020
1078 Clouds 21 1019 60 10000 3.6 200 15:21 20.03.2020
1079 Clouds 21 1019 60 10000 4.6 200 14:55 20.03.2020
1080 Clouds 22 1020 64 10000 4.1 200 14:37 20.03.2020
1081 Clouds 22 1020 64 10000 4.1 200 14:18 20.03.2020
1082 Clouds 22 1019 56 10000 3.6 200 13:42 20.03.2020
1083 Rain 23 1019 50 10000 6.7 200 13:19 20.03.2020
1084 Rain 24 1018 47 10000 4.6 230 12:39 20.03.2020
1085 Rain 24 1018 44 10000 5.1 220 12:20 20.03.2020
1086 Rain 24 1018 44 10000 5.1 220 11:57 20.03.2020
1087 Rain 25 1018 47 10000 5.1 230 11:38 20.03.2020
1088 Clouds 25 1017 44 10000 4.6 230 11:18 20.03.2020
1089 Clouds 27 1017 45 10000 4.1 270 10:41 20.03.2020
1090 Clouds 28 1017 45 10000 4.1 270 10:21 20.03.2020
1091 Clouds 28 1017 39 10000 5.7 250 09:55 20.03.2020
1092 Clouds 28 1017 39 10000 5.7 250 09:55 20.03.2020
1093 Clouds 28 1017 37 10000 5.7 260 09:37 20.03.2020
1094 Clouds 29 1017 37 10000 5.7 260 09:18 20.03.2020
1095 Clouds 30 1017 31 10000 5.1 280 08:41 20.03.2020
1096 Rain 30 1017 31 10000 5.1 280 08:22 20.03.2020
1097 Clouds 31 1017 31 10000 5.1 280 07:48 20.03.2020
1098 Clouds 31 1018 31 10000 2.6 350 07:26 20.03.2020
1099 Clouds 31 1018 33 10000 2.6 300 06:49 20.03.2020
1100 Clouds 31 1019 33 10000 3.6 360 06:31 20.03.2020
1101 Clouds 27 1021 50 10000 6.7 70 04:49 20.03.2020
1102 Rain 23 1021 56 10000 6.2 70 03:19 20.03.2020
1103 Clouds 21 1021 56 10000 3.1 80 01:51 20.03.2020
1104 Clouds 19 1021 72 10000 2.1 150 00:46 20.03.2020
1105 Clouds 19 1021 72 10000 2.1 150 00:25 20.03.2020
1106 Clouds 19 1020 63 10000 5.7 190 23:44 19.03.2020
1107 Clouds 19 1020 63 10000 5.7 190 23:25 19.03.2020
1108 Clouds 19 1020 59 10000 2.6 240 22:56 19.03.2020
1109 Clouds 19 1019 59 10000 2.1 70 22:37 19.03.2020
1110 Clouds 19 1019 59 10000 2.1 70 22:18 19.03.2020
1111 Clouds 19 1019 55 10000 1.5 280 21:41 19.03.2020
1112 Clouds 19 1019 55 10000 1.5 280 21:20 19.03.2020
1113 Clouds 20 1019 55 10000 2.6 260 20:55 19.03.2020
1114 Clouds 20 1019 43 10000 2.6 190 20:37 19.03.2020
1115 Clouds 20 1019 43 10000 2.6 190 20:19 19.03.2020
1116 Clouds 20 1018 43 10000 2.6 100 19:54 19.03.2020
1117 Clouds 20 1019 43 10000 3.1 130 19:36 19.03.2020
1118 Clouds 20 1019 49 10000 2.1 110 19:18 19.03.2020
1119 Clouds 19 1019 72 10000 3.1 210 18:41 19.03.2020
1120 Clouds 18 1019 72 10000 3.1 210 18:22 19.03.2020
1121 Clouds 18 1021 68 10000 3.6 190 17:56 19.03.2020
1122 Clouds 18 1021 68 10000 3.6 190 17:37 19.03.2020
1123 Clouds 18 1021 72 10000 3.6 170 17:18 19.03.2020
1124 Clouds 19 1022 68 10000 2.1 250 16:43 19.03.2020
1125 Clouds 19 1022 68 10000 2.1 250 16:22 19.03.2020
1126 Clouds 19 1022 68 10000 4.1 200 15:44 19.03.2020
1127 Clouds 19 1022 68 10000 4.1 200 15:25 19.03.2020
1128 Clouds 19 1022 68 10000 5.7 190 14:54 19.03.2020
1129 Clouds 19 1022 68 10000 6.2 190 14:36 19.03.2020
1130 Clouds 19 1022 68 10000 6.2 190 14:18 19.03.2020
1131 Clouds 19 1022 64 10000 6.7 190 13:38 19.03.2020
1132 Clouds 19 1023 64 10000 6.7 190 13:18 19.03.2020
1133 Clouds 19 1022 60 10000 7.2 190 12:42 19.03.2020
1134 Clouds 20 1022 60 10000 7.2 190 12:24 19.03.2020
1135 Clouds 20 1022 60 10000 7.2 190 11:59 19.03.2020
1136 Clouds 20 1022 56 10000 5.7 220 11:40 19.03.2020
1137 Clouds 20 1022 56 10000 6.2 210 11:22 19.03.2020
1138 Clouds 21 1021 53 10000 5.1 220 10:43 19.03.2020
1139 Clouds 21 1021 53 10000 5.1 220 10:22 19.03.2020
1140 Clouds 21 1021 53 10000 5.1 230 09:58 19.03.2020
1141 Clouds 22 1021 53 10000 5.7 230 09:39 19.03.2020
1142 Clouds 22 1021 53 10000 5.7 230 09:19 19.03.2020
1143 Clouds 23 1021 46 10000 6.2 220 08:46 19.03.2020
1144 Clouds 23 1021 36 10000 3.1 200 08:22 19.03.2020
1145 Clouds 24 1022 36 10000 2.6 220 07:47 19.03.2020
1146 Clouds 24 1022 36 10000 2.6 220 07:29 19.03.2020
1147 Clouds 25 1022 38 10000 2.1 290 06:51 19.03.2020
1148 Clouds 23 1023 43 10000 1.5 80 05:52 19.03.2020
1149 Clouds 23 1023 43 10000 3.6 100 05:19 19.03.2020
1150 Clouds 22 1024 49 10000 4.6 110 04:40 19.03.2020
1151 Clouds 19 1025 52 10000 7.2 100 03:20 19.03.2020
1152 Clouds 16 1025 67 10000 2.6 90 01:27 19.03.2020
1153 Clouds 14 1024 76 10000 2.6 140 00:35 19.03.2020
1154 Clouds 14 1024 87 10000 3.1 100 23:57 18.03.2020
1155 Clouds 13 1023 81 10000 3.1 10 23:31 18.03.2020
1156 Clouds 13 1023 76 10000 3.1 150 22:58 18.03.2020
1157 Clouds 13 1022 81 10000 4.1 190 22:40 18.03.2020
1158 Clouds 13 1022 81 10000 4.1 190 22:21 18.03.2020
1159 Clouds 13 1022 87 10000 1.5 30 21:43 18.03.2020
1160 Clouds 13 1022 87 10000 1.5 30 21:43 18.03.2020
1161 Clouds 13 1022 76 10000 2.6 160 21:22 18.03.2020
1162 Clouds 14 1022 76 10000 5.1 160 20:59 18.03.2020
1163 Clouds 14 1023 76 10000 2.6 80 20:41 18.03.2020
1164 Clouds 14 1023 76 10000 2.6 80 20:20 18.03.2020
1165 Clouds 14 1023 67 10000 4.1 140 19:58 18.03.2020
1166 Clouds 14 1022 63 10000 5.1 150 19:39 18.03.2020
1167 Clouds 15 1022 63 10000 5.1 150 19:20 18.03.2020
1168 Clouds 15 1023 76 10000 3.1 130 18:42 18.03.2020
1169 Clouds 15 1023 76 10000 3.1 130 18:42 18.03.2020
1170 Clouds 15 1023 76 10000 3.1 130 18:21 18.03.2020
1171 Clouds 15 1023 76 10000 3.1 130 18:21 18.03.2020
1172 Clouds 15 1023 76 10000 3.1 130 17:59 18.03.2020
1173 Clouds 15 1022 72 10000 4.6 160 17:41 18.03.2020
1174 Clouds 16 1022 77 10000 4.1 170 17:22 18.03.2020
1175 Clouds 16 1022 77 10000 4.1 170 16:58 18.03.2020
1176 Clouds 16 1022 77 10000 3.1 120 16:40 18.03.2020
1177 Clouds 16 1022 77 10000 3.1 120 16:20 18.03.2020
1178 Clouds 16 1022 77 10000 3.1 120 16:20 18.03.2020
1179 Clouds 17 1023 72 10000 3.6 170 15:45 18.03.2020
1180 Clouds 16 1023 72 10000 3.6 170 15:23 18.03.2020
1181 Clouds 17 1023 72 10000 3.1 170 14:56 18.03.2020
1182 Clouds 17 1023 63 10000 2.6 200 14:38 18.03.2020
1183 Clouds 17 1023 63 10000 2.6 200 14:19 18.03.2020
1184 Clouds 18 1022 55 10000 4.6 210 13:38 18.03.2020
1185 Clouds 18 1022 55 10000 4.6 210 13:19 18.03.2020
1186 Clouds 19 1021 55 10000 4.6 220 12:42 18.03.2020
1187 Clouds 19 1021 55 10000 4.6 220 12:20 18.03.2020
1188 Clouds 19 1021 49 10000 6.7 230 11:41 18.03.2020
1189 Clouds 20 1020 46 10000 7.2 220 11:21 18.03.2020
1190 Clear 20 1020 46 10000 7.2 220 10:58 18.03.2020
1191 Clear 21 1020 49 10000 7.2 220 10:39 18.03.2020
1192 Clear 21 1020 49 10000 7.2 220 10:20 18.03.2020
1193 Clear 21 1020 46 10000 6.7 210 09:59 18.03.2020
1194 Clear 22 1020 40 10000 7.7 240 09:39 18.03.2020
1195 Clear 22 1020 40 10000 7.7 240 09:21 18.03.2020
1196 Clear 23 1019 38 10000 7.7 230 08:40 18.03.2020
1197 Clear 23 1019 38 10000 7.7 230 08:21 18.03.2020
1198 Clear 23 1019 40 10000 7.7 230 07:49 18.03.2020
1199 Clear 23 1019 38 10000 6.2 250 07:30 18.03.2020
1200 Clouds 23 1019 40 10000 6.7 240 06:50 18.03.2020
1201 Clouds 23 1019 43 10000 5.7 270 06:24 18.03.2020
1202 Clear 23 1019 43 10000 5.7 230 05:36 18.03.2020
1203 Clear 21 1020 43 10000 7.2 230 04:29 18.03.2020
1204 Clear 21 1020 49 10000 7.7 230 02:51 18.03.2020
1205 Rain 20 1019 55 10000 6.7 250 02:23 18.03.2020
1206 Clouds 19 1018 59 10000 3.1 240 01:29 18.03.2020
1207 Clouds 17 1018 82 10000 3.6 220 00:26 18.03.2020
1208 Rain 17 1017 76 10000 0.5 140 23:57 17.03.2020
1209 Rain 16 1017 76 10000 0.5 140 23:37 17.03.2020
1210 Rain 16 1017 77 10000 3.6 250 23:18 17.03.2020
1211 Clouds 17 1017 67 10000 3.6 240 22:41 17.03.2020
1212 Clouds 17 1017 67 10000 4.6 200 22:22 17.03.2020
1213 Clouds 16 1017 67 10000 4.6 200 21:42 17.03.2020
1214 Clouds 17 1016 59 10000 5.1 240 21:22 17.03.2020
1215 Clouds 18 1016 55 10000 5.1 240 20:41 17.03.2020
1216 Clouds 17 1016 63 10000 5.7 240 20:23 17.03.2020
1217 Clouds 18 1016 59 10000 4.1 260 19:59 17.03.2020
1218 Clouds 18 1016 59 10000 5.1 270 19:40 17.03.2020
1219 Clouds 18 1015 59 10000 4.6 260 19:18 17.03.2020
1220 Clouds 18 1015 59 10000 4.6 260 18:56 17.03.2020
1221 Clouds 18 1015 59 10000 5.1 270 18:37 17.03.2020
1222 Clouds 18 1015 59 10000 4.6 270 18:19 17.03.2020
1223 Clouds 18 1015 55 10000 3.6 280 17:41 17.03.2020
1224 Clouds 18 1015 55 10000 3.6 280 17:41 17.03.2020
1225 Clouds 18 1015 55 10000 4.1 280 17:22 17.03.2020
1226 Clouds 18 1015 55 10000 4.1 280 16:55 17.03.2020
1227 Clouds 18 1015 55 10000 4.1 270 16:37 17.03.2020
1228 Clouds 18 1015 55 10000 4.1 270 16:18 17.03.2020
1229 Clouds 18 1015 55 10000 5.1 260 15:43 17.03.2020
1230 Clouds 18 1015 55 10000 5.1 260 15:21 17.03.2020
1231 Clouds 18 1015 59 10000 5.1 260 14:43 17.03.2020
1232 Clouds 18 1015 59 10000 4.6 260 14:21 17.03.2020
1233 Clouds 18 1015 68 10000 5.7 250 13:45 17.03.2020
1234 Rain 19 1015 68 9000 5.1 250 13:27 17.03.2020
1235 Clouds 18 1014 72 10000 4.1 240 12:59 17.03.2020
1236 Clouds 18 1014 72 10000 4.1 270 12:40 17.03.2020
1237 Rain 18 1015 93 7000 2.1 280 12:22 17.03.2020
1238 Clouds 18 1014 82 10000 3.1 250 11:47 17.03.2020
1239 Clouds 18 1014 82 10000 3.1 250 11:28 17.03.2020
1240 Drizzle 18 1014 88 8000 4.1 250 10:58 17.03.2020
1241 Drizzle 18 1013 93 7000 7.2 270 10:38 17.03.2020
1242 Drizzle 18 1013 93 7000 7.2 270 10:20 17.03.2020
1243 Rain 18 1013 93 6000 5.1 280 09:57 17.03.2020
1244 Rain 18 1013 88 3500 8.7 270 09:39 17.03.2020
1245 Rain 18 1013 88 3500 8.7 270 09:18 17.03.2020
1246 Rain 19 1013 88 4000 6.2 270 08:43 17.03.2020
1247 Rain 19 1013 88 4000 6.2 270 08:21 17.03.2020
1248 Clouds 22 1012 56 10000 6.7 330 07:50 17.03.2020
1249 Clouds 22 1013 68 10000 7.7 290 07:26 17.03.2020
1250 Clouds 22 1013 68 10000 7.7 290 06:58 17.03.2020
1251 Rain 21 1013 82 10000 5.7 280 06:33 17.03.2020
1252 Clouds 23 1013 53 10000 8.7 300 05:41 17.03.2020
1253 Clouds 23 1014 60 10000 5.7 290 03:36 17.03.2020
1254 Clouds 23 1014 60 10000 5.7 280 02:45 17.03.2020
1255 Clouds 21 1013 82 10000 3.1 10 01:41 17.03.2020
1256 Clouds 21 1013 82 10000 3.1 10 01:19 17.03.2020
1257 Clouds 20 1013 93 10000 3.1 30 00:19 17.03.2020
1258 Clouds 20 1013 93 10000 3.1 20 23:44 16.03.2020
1259 Clouds 19 1012 93 10000 2.6 20 23:23 16.03.2020
1260 Rain 20 1012 93 10000 4.1 20 22:40 16.03.2020
1261 Rain 19 1012 93 10000 4.1 20 22:22 16.03.2020
1262 Clouds 20 1012 93 10000 2.6 40 21:55 16.03.2020
1263 Clouds 20 1012 93 10000 2.6 40 21:36 16.03.2020
1264 Clouds 20 1012 93 10000 2.6 360 21:18 16.03.2020
1265 Clouds 20 1012 93 10000 2.1 30 20:42 16.03.2020
1266 Clouds 20 1012 93 10000 2.1 30 20:24 16.03.2020
1267 Clouds 20 1012 93 10000 2.1 20 19:47 16.03.2020
1268 Clouds 20 1012 93 10000 2.1 20 19:47 16.03.2020
1269 Clouds 20 1012 88 10000 2.1 10 19:25 16.03.2020
1270 Rain 20 1012 88 10000 3.6 360 19:00 16.03.2020
1271 Rain 20 1012 88 10000 3.1 30 18:40 16.03.2020
1272 Clouds 20 1012 88 10000 3.1 30 18:20 16.03.2020
1273 Clouds 20 1012 88 10000 3.1 20 17:46 16.03.2020
1274 Clouds 20 1012 88 10000 3.1 20 17:26 16.03.2020
1275 Clouds 20 1013 82 10000 2.6 310 16:58 16.03.2020
1276 Clouds 21 1013 82 10000 2.6 310 16:40 16.03.2020
1277 Clouds 21 1013 82 10000 2.6 310 16:40 16.03.2020
1278 Clouds 21 1013 82 10000 2.6 310 16:21 16.03.2020
1279 Clouds 21 1013 83 10000 4.1 310 15:43 16.03.2020
1280 Clouds 21 1013 83 10000 4.1 310 15:24 16.03.2020
1281 Clouds 21 1013 83 10000 3.1 320 14:48 16.03.2020
1282 Clouds 22 1013 78 10000 3.6 280 14:24 16.03.2020
1283 Clouds 22 1013 68 10000 3.1 300 13:51 16.03.2020
1284 Clouds 22 1013 68 10000 3.1 300 13:29 16.03.2020
1285 Clouds 22 1013 68 10000 3.6 290 12:58 16.03.2020
1286 Clouds 22 1013 60 10000 3.6 280 12:39 16.03.2020
1287 Clouds 22 1012 56 10000 3.6 290 12:20 16.03.2020
1288 Clouds 23 1012 53 10000 3.6 280 11:43 16.03.2020
1289 Clouds 24 1012 47 10000 5.1 300 11:25 16.03.2020
1290 Clouds 24 1012 44 10000 4.1 290 10:45 16.03.2020
1291 Clouds 25 1012 44 10000 4.1 290 10:24 16.03.2020
1292 Clouds 26 1012 47 10000 4.6 300 09:56 16.03.2020
1293 Clouds 26 1012 44 10000 4.6 260 09:37 16.03.2020
1294 Clouds 26 1012 44 10000 4.6 260 09:19 16.03.2020
1295 Clouds 27 1012 47 10000 5.7 270 08:41 16.03.2020
1296 Clouds 27 1012 47 10000 5.7 270 08:21 16.03.2020
1297 Clouds 27 1012 44 10000 5.1 290 07:42 16.03.2020
1298 Clouds 27 1012 44 10000 5.1 290 07:19 16.03.2020
1299 Clouds 26 1013 47 10000 3.1 330 06:29 16.03.2020
1300 Clouds 26 1013 53 10000 5.7 330 05:59 16.03.2020
1301 Clouds 25 1013 57 10000 1.5 290 04:21 16.03.2020
1302 Clouds 21 1014 77 10000 3.6 180 01:46 16.03.2020
1303 Clouds 20 1013 88 10000 3.1 190 00:45 16.03.2020
1304 Clouds 20 1013 88 10000 3.1 190 00:25 16.03.2020
1305 Clouds 19 1012 93 10000 4.6 190 23:39 15.03.2020
1306 Clouds 19 1012 94 10000 3.1 210 23:18 15.03.2020
1307 Drizzle 19 1012 93 10000 0.5 50 22:41 15.03.2020
1308 Drizzle 19 1012 93 10000 0.5 50 22:20 15.03.2020
1309 Clouds 20 1011 100 10000 0.5 10 21:39 15.03.2020
1310 Clouds 19 1011 100 10000 0.5 10 21:21 15.03.2020
1311 Clouds 19 1011 93 10000 2.1 40 20:55 15.03.2020
1312 Clouds 19 1011 93 10000 2.1 50 20:36 15.03.2020
1313 Clouds 19 1011 93 10000 2.1 50 20:18 15.03.2020
1314 Drizzle 20 1011 93 10000 2.6 70 19:42 15.03.2020
1315 Clouds 20 1011 93 10000 2.99 261 19:24 15.03.2020
1316 Clouds 20 1011 93 10000 1.5 40 18:59 15.03.2020
1317 Clouds 19 1011 88 10000 2.6 350 18:39 15.03.2020
1318 Clouds 20 1011 88 10000 2.6 350 18:21 15.03.2020
1319 Clouds 20 1011 88 10000 3.1 330 17:54 15.03.2020
1320 Clouds 20 1011 88 10000 3.1 350 17:36 15.03.2020
1321 Clouds 20 1011 93 10000 2.6 10 17:18 15.03.2020
1322 Clouds 20 1011 93 10000 3.6 360 16:42 15.03.2020
1323 Clouds 20 1011 93 10000 3.6 360 16:24 15.03.2020
1324 Rain 20 1011 88 10000 2.6 270 15:57 15.03.2020
1325 Rain 20 1011 88 10000 2.6 270 15:57 15.03.2020
1326 Rain 21 1012 88 10000 2.6 270 15:38 15.03.2020
1327 Rain 21 1012 88 10000 2.6 270 15:19 15.03.2020
1328 Rain 21 1012 83 10000 2.6 270 14:46 15.03.2020
1329 Clouds 21 1012 83 10000 2.6 360 14:24 15.03.2020
1330 Rain 22 1011 78 10000 2.6 270 13:57 15.03.2020
1331 Rain 22 1011 78 10000 2.6 270 13:38 15.03.2020
1332 Rain 22 1011 78 10000 2.6 270 13:19 15.03.2020
1333 Clouds 22 1010 73 10000 3.1 280 12:43 15.03.2020
1334 Clouds 22 1010 73 10000 3.1 280 12:25 15.03.2020
1335 Clouds 23 1010 69 10000 5.1 280 11:45 15.03.2020
1336 Clouds 23 1009 73 10000 5.1 280 11:26 15.03.2020
1337 Clouds 24 1009 73 10000 5.1 280 11:00 15.03.2020
1338 Clouds 24 1009 65 10000 5.7 290 10:41 15.03.2020
1339 Clouds 24 1009 65 10000 5.7 290 10:23 15.03.2020
1340 Clouds 25 1009 65 10000 4.6 280 09:59 15.03.2020
1341 Clouds 25 1009 65 10000 4.6 280 09:59 15.03.2020
1342 Clouds 24 1009 69 10000 5.1 290 09:39 15.03.2020
1343 Clouds 25 1009 69 10000 5.1 290 09:20 15.03.2020
1344 Clouds 25 1009 69 10000 5.1 280 08:41 15.03.2020
1345 Clouds 25 1008 65 10000 6.2 270 08:19 15.03.2020
1346 Clouds 25 1008 69 10000 5.7 290 07:49 15.03.2020
1347 Clouds 25 1008 69 10000 5.1 270 07:22 15.03.2020
1348 Clouds 26 1008 65 10000 5.1 270 06:44 15.03.2020
1349 Clouds 26 1008 65 10000 3.6 290 05:48 15.03.2020
1350 Rain 26 1009 73 10000 7.2 280 04:57 15.03.2020
1351 Clouds 25 1009 78 10000 3.1 340 04:38 15.03.2020
1352 Clouds 25 1009 78 10000 3.1 340 04:20 15.03.2020
1353 Clouds 23 1009 83 10000 3.6 350 03:19 15.03.2020
1354 Rain 22 1009 94 10000 4.6 10 02:22 15.03.2020
1355 Rain 21 1009 94 10000 2.6 30 00:58 15.03.2020
1356 Clouds 21 1008 100 10000 3.1 30 00:40 15.03.2020
1357 Clouds 20 1008 100 10000 2.6 20 00:19 15.03.2020
1358 Clouds 20 1008 100 10000 2.6 30 23:39 14.03.2020
1359 Clouds 20 1008 100 10000 2.1 40 23:20 14.03.2020
1360 Clouds 20 1008 100 10000 2.1 40 22:56 14.03.2020
1361 Clouds 20 1008 94 10000 1.5 20 22:37 14.03.2020
1362 Clouds 20 1008 94 10000 1.5 20 22:37 14.03.2020
1363 Clouds 20 1008 94 10000 1.5 20 22:19 14.03.2020
1364 Rain 20 1007 94 10000 4.1 340 21:55 14.03.2020
1365 Rain 20 1007 94 10000 4.1 340 21:55 14.03.2020
1366 Clouds 20 1007 100 10000 2.1 30 21:36 14.03.2020
1367 Clouds 20 1007 100 10000 2.1 30 21:18 14.03.2020
1368 Rain 20 1007 100 10000 4.1 340 20:55 14.03.2020
1369 Clouds 20 1007 100 10000 2.6 60 20:37 14.03.2020
1370 Clouds 21 1007 100 10000 2.6 60 20:18 14.03.2020
1371 Clouds 20 1008 94 10000 3.14 48 19:40 14.03.2020
1372 Clouds 20 1008 94 10000 3.14 48 19:20 14.03.2020
1373 Drizzle 20 1008 100 7000 4.1 70 18:40 14.03.2020
1374 Drizzle 20 1008 100 7000 4.1 70 18:40 14.03.2020
1375 Drizzle 20 1008 100 5000 3.1 90 18:20 14.03.2020
1376 Drizzle 20 1008 100 5000 2.6 200 17:42 14.03.2020
1377 Rain 20 1009 100 7000 2.1 320 17:23 14.03.2020
1378 Rain 20 1009 100 7000 2.1 320 17:23 14.03.2020
1379 Rain 21 1009 100 7000 2.1 320 16:58 14.03.2020
1380 Rain 21 1009 100 4800 2.6 10 16:38 14.03.2020
1381 Rain 21 1009 100 4800 2.6 10 16:19 14.03.2020
1382 Rain 21 1009 94 10000 4.25 58 15:44 14.03.2020
1383 Drizzle 21 1009 100 5000 4.1 20 15:22 14.03.2020
1384 Rain 21 1010 100 5000 5.7 290 14:40 14.03.2020
1385 Rain 21 1010 100 5000 5.7 290 14:21 14.03.2020
1386 Rain 21 1010 94 6000 2.6 20 13:57 14.03.2020
1387 Rain 21 1010 88 6000 2.6 50 13:38 14.03.2020
1388 Rain 21 1010 88 6000 2.6 50 13:19 14.03.2020
1389 Rain 22 1009 83 10000 7.2 70 12:44 14.03.2020
1390 Rain 22 1009 83 10000 7.2 70 12:25 14.03.2020
1391 Rain 24 1010 83 4400 4.1 30 11:45 14.03.2020
1392 Rain 25 1008 57 10000 7.2 70 11:26 14.03.2020
1393 Rain 26 1008 57 10000 7.2 70 10:55 14.03.2020
1394 Rain 26 1008 57 10000 7.2 70 10:36 14.03.2020
1395 Rain 26 1008 57 10000 7.2 70 10:18 14.03.2020
1396 Rain 27 1007 48 10000 7.7 10 09:41 14.03.2020
1397 Rain 28 1007 48 10000 7.7 10 09:22 14.03.2020
1398 Rain 28 1008 51 10000 2.6 50 08:47 14.03.2020
1399 Rain 30 1008 37 10000 4.1 350 08:27 14.03.2020
1400 Rain 30 1008 35 10000 5.1 60 07:45 14.03.2020
1401 Rain 30 1008 35 10000 4.6 70 07:23 14.03.2020
1402 Rain 31 1009 35 10000 6.7 90 06:59 14.03.2020
1403 Rain 30 1009 37 10000 6.2 90 06:39 14.03.2020
1404 Clouds 28 1012 42 10000 6.7 70 04:57 14.03.2020
1405 Clouds 27 1013 47 10000 5.7 60 03:40 14.03.2020
1406 Clouds 25 1013 50 10000 4.6 80 02:53 14.03.2020
1407 Rain 24 1013 50 10000 6.7 80 01:47 14.03.2020
1408 Clouds 24 1013 53 10000 6.7 80 00:36 14.03.2020
1409 Clouds 24 1013 56 10000 6.2 80 23:44 13.03.2020
1410 Clouds 23 1013 56 10000 6.2 80 23:23 13.03.2020
1411 Clouds 23 1013 56 10000 5.7 70 22:46 13.03.2020
1412 Clouds 23 1013 56 10000 6.7 80 22:24 13.03.2020
1413 Clouds 24 1013 56 10000 6.7 70 21:42 13.03.2020
1414 Clouds 24 1013 53 10000 6.7 70 21:19 13.03.2020
1415 Clouds 24 1013 53 10000 6.7 70 20:43 13.03.2020
1416 Clouds 24 1013 53 10000 6.7 70 20:23 13.03.2020
1417 Clouds 24 1013 53 10000 9.3 80 19:59 13.03.2020
1418 Clouds 24 1013 50 10000 7.7 80 19:40 13.03.2020
1419 Clouds 24 1013 50 10000 7.7 80 19:22 13.03.2020
1420 Clouds 25 1012 41 10000 9.3 80 18:44 13.03.2020
1421 Clouds 25 1012 39 10000 8.2 80 18:23 13.03.2020
1422 Clouds 25 1013 47 10000 7.7 90 17:43 13.03.2020
1423 Clouds 26 1013 44 10000 8.2 90 17:21 13.03.2020
1424 Clouds 26 1013 44 10000 8.2 90 16:59 13.03.2020
1425 Clouds 26 1013 39 10000 9.3 90 16:39 13.03.2020
1426 Clouds 26 1013 39 10000 9.3 90 16:20 13.03.2020
1427 Clouds 27 1014 39 10000 9.8 80 15:46 13.03.2020
1428 Clouds 27 1014 39 10000 7.7 90 15:23 13.03.2020
1429 Clouds 27 1014 39 10000 7.2 70 14:59 13.03.2020
1430 Clouds 28 1014 37 10000 7.2 70 14:40 13.03.2020
1431 Clouds 28 1014 37 10000 7.2 70 14:21 13.03.2020
1432 Clouds 28 1014 34 10000 3.6 90 13:43 13.03.2020
1433 Clouds 28 1014 34 10000 3.6 90 13:24 13.03.2020
1434 Clouds 28 1014 37 10000 3.6 80 12:59 13.03.2020
1435 Clouds 29 1014 32 10000 6.2 90 12:38 13.03.2020
1436 Clouds 29 1014 32 10000 6.2 90 12:20 13.03.2020
1437 Clouds 30 1014 29 10000 8.2 90 11:56 13.03.2020
1438 Clouds 30 1014 29 10000 8.2 90 11:36 13.03.2020
1439 Clouds 31 1014 31 10000 7.7 100 11:18 13.03.2020
1440 Clouds 31 1014 27 10000 7.7 70 10:46 13.03.2020
1441 Rain 32 1014 27 10000 7.7 70 10:25 13.03.2020
1442 Rain 32 1014 27 10000 8.2 90 09:48 13.03.2020
1443 -273 0 0 0 0 0 09:28 13.03.2020
1444 Clouds 32 1014 27 10000 7.7 100 08:57 13.03.2020
1445 Clouds 32 1014 26 10000 6.7 130 08:38 13.03.2020
1446 Clouds 32 1014 26 10000 6.7 130 08:19 13.03.2020
1447 Clouds 32 1015 27 10000 8.2 110 07:44 13.03.2020
1448 Clouds 32 1015 27 10000 8.2 110 07:23 13.03.2020
1449 Clouds 31 1016 31 10000 7.7 100 06:46 13.03.2020
1450 Clouds 31 1016 31 10000 7.7 100 06:21 13.03.2020
1451 Clouds 30 1017 35 10000 9.8 100 05:44 13.03.2020
1452 Clear 28 1017 39 10000 8.7 110 04:39 13.03.2020
1453 Clear 27 1018 44 10000 10.3 100 03:51 13.03.2020
1454 Clouds 24 1018 50 10000 9.3 90 02:29 13.03.2020
1455 Clouds 22 1018 56 10000 5.7 90 01:20 13.03.2020
1456 Clouds 21 1018 64 10000 6.7 100 00:59 13.03.2020
1457 Clouds 21 1019 68 10000 9.3 100 00:39 13.03.2020
1458 Clouds 20 1018 64 10000 5.1 110 00:18 13.03.2020
1459 Clouds 19 1017 68 10000 10.8 90 23:37 12.03.2020
1460 Clouds 19 1018 72 10000 8.2 100 23:18 12.03.2020
1461 Clouds 19 1018 68 10000 6.7 110 22:44 12.03.2020
1462 Clouds 19 1018 68 10000 6.7 110 22:25 12.03.2020
1463 Clouds 20 1018 64 10000 6.7 120 21:55 12.03.2020
1464 Clouds 20 1018 72 10000 7.7 110 21:36 12.03.2020
1465 Clouds 20 1018 72 10000 7.7 110 21:18 12.03.2020
1466 Clouds 20 1017 64 10000 4.6 110 20:42 12.03.2020
1467 Clear 20 1017 64 10000 4.6 110 20:20 12.03.2020
1468 Clear 20 1018 68 10000 7.7 110 19:42 12.03.2020
1469 Clear 20 1017 60 10000 8.2 90 19:21 12.03.2020
1470 Clear 21 1017 60 10000 8.2 90 18:45 12.03.2020
1471 Clear 21 1017 60 10000 6.2 100 18:25 12.03.2020
1472 Clear 21 1017 56 10000 9.8 120 17:58 12.03.2020
1473 Clear 22 1017 56 10000 9.8 120 17:40 12.03.2020
1474 Clear 22 1017 60 10000 8.7 110 17:21 12.03.2020
1475 Clear 22 1017 60 10000 8.7 110 16:58 12.03.2020
1476 Clear 23 1016 56 10000 9.3 110 16:39 12.03.2020
1477 Clear 23 1016 56 10000 9.3 110 16:20 12.03.2020
1478 Clear 24 1015 50 10000 9.8 110 15:47 12.03.2020
1479 Clear 24 1016 53 10000 8.7 110 15:27 12.03.2020
1480 Clear 26 1015 36 10000 8.7 110 14:43 12.03.2020
1481 Clear 26 1015 36 10000 8.7 110 14:24 12.03.2020
1482 Clouds 25 1015 39 10000 8.7 110 13:58 12.03.2020
1483 Clouds 25 1014 47 10000 8.7 110 13:37 12.03.2020
1484 Clouds 25 1014 47 10000 8.7 110 13:19 12.03.2020
1485 Clouds 25 1013 54 10000 7.2 150 12:41 12.03.2020
1486 Clouds 25 1013 51 10000 7.2 150 12:22 12.03.2020
1487 Clouds 25 1013 51 10000 7.2 150 11:58 12.03.2020
1488 Clouds 26 1013 47 10000 7.2 150 11:39 12.03.2020
1489 Clouds 27 1013 48 10000 7.2 150 11:20 12.03.2020
1490 Clouds 27 1013 48 10000 7.2 150 10:59 12.03.2020
1491 Clouds 28 1013 48 10000 7.2 150 10:40 12.03.2020
1492 Clouds 28 1013 48 10000 7.2 150 10:22 12.03.2020
1493 Clouds 29 1012 45 10000 7.2 150 09:47 12.03.2020
1494 Clouds 29 1012 48 10000 6.2 260 09:28 12.03.2020
1495 Clouds 30 1012 45 10000 7.2 150 08:46 12.03.2020
1496 Clouds 30 1012 45 10000 6.7 280 08:21 12.03.2020
1497 Clouds 30 1012 48 10000 6.7 270 07:59 12.03.2020
1498 Clouds 30 1012 42 10000 7.2 270 07:41 12.03.2020
1499 Clouds 31 1012 42 10000 7.2 270 07:21 12.03.2020
1500 Clouds 31 1012 42 10000 7.2 270 07:21 12.03.2020
1501 Clouds 30 1013 35 10000 4.1 230 05:55 12.03.2020
1502 Clouds 30 1013 37 10000 5.1 220 05:26 12.03.2020
1503 Clouds 24 1013 56 10000 3.6 220 02:43 12.03.2020
1504 Clouds 21 1013 68 10000 3.6 190 01:38 12.03.2020
1505 Clouds 21 1013 68 10000 3.6 190 01:20 12.03.2020
1506 Clouds 19 1012 88 10000 2.6 200 00:41 12.03.2020
1507 Mist 18 1012 87 2000 0.5 360 23:56 11.03.2020
1508 Clouds 18 1011 87 10000 3.1 210 23:26 11.03.2020
1509 Clouds 18 1011 87 10000 3.1 210 22:55 11.03.2020
1510 Clouds 18 1011 93 10000 3.1 220 22:37 11.03.2020
1511 Clouds 18 1011 93 10000 3.1 220 22:18 11.03.2020
1512 Clouds 18 1010 88 10000 3.1 200 21:41 11.03.2020
1513 Clouds 18 1010 88 10000 3.1 200 21:23 11.03.2020
1514 Clouds 19 1010 82 10000 3.6 210 20:59 11.03.2020
1515 Clouds 19 1010 88 10000 3.1 220 20:40 11.03.2020
1516 Clouds 19 1010 88 10000 3.1 220 20:20 11.03.2020
1517 Clouds 19 1010 93 10000 1.56 216 19:57 11.03.2020
1518 Clouds 19 1010 88 10000 2.1 60 19:38 11.03.2020
1519 Clouds 19 1010 88 10000 2.1 60 19:20 11.03.2020
1520 Clouds 20 1010 82 10000 2.1 170 18:43 11.03.2020
1521 Clouds 20 1010 82 10000 2.1 170 18:24 11.03.2020
1522 Clouds 20 1010 77 10000 2.6 210 17:59 11.03.2020
1523 Clouds 20 1010 77 10000 1.5 190 17:39 11.03.2020
1524 Clouds 21 1010 73 10000 2.6 230 17:20 11.03.2020
1525 Clouds 21 1010 73 10000 3.1 250 16:47 11.03.2020
1526 Clouds 21 1010 73 10000 3.1 250 16:23 11.03.2020
1527 Clouds 21 1010 73 10000 2.6 230 15:58 11.03.2020
1528 Clouds 22 1010 69 10000 3.1 210 15:39 11.03.2020
1529 Clouds 22 1010 69 10000 3.1 210 15:21 11.03.2020
1530 Clouds 22 1010 69 10000 6.2 220 14:42 11.03.2020
1531 Clouds 22 1010 69 10000 6.2 220 14:22 11.03.2020
1532 Clear 23 1010 64 10000 6.2 210 13:45 11.03.2020
1533 Clear 23 1009 53 10000 5.1 230 13:27 11.03.2020
1534 Clear 24 1008 50 10000 6.7 230 12:59 11.03.2020
1535 Clear 25 1008 57 10000 7.2 230 12:40 11.03.2020
1536 Clear 26 1007 30 10000 6.2 230 12:20 11.03.2020
1537 Clear 27 1007 30 10000 6.2 230 11:55 11.03.2020
1538 Clear 28 1007 28 10000 7.7 210 11:36 11.03.2020
1539 Clear 28 1007 27 10000 6.7 230 11:18 11.03.2020
1540 Clear 30 1007 29 10000 8.2 230 10:42 11.03.2020
1541 Clear 31 1007 29 10000 8.2 230 10:18 11.03.2020
1542 Clear 32 1007 24 10000 7.7 240 09:43 11.03.2020
1543 Clear 32 1007 24 10000 7.7 240 09:25 11.03.2020
1544 Clear 33 1006 22 10000 7.7 240 08:49 11.03.2020
1545 Clear 34 1006 19 10000 6.2 220 08:31 11.03.2020
1546 Clouds 35 1007 22 10000 6.2 240 07:59 11.03.2020
1547 Clouds 34 1007 26 10000 5.1 250 07:38 11.03.2020
1548 Clouds 34 1007 26 10000 5.1 250 07:18 11.03.2020
1549 Dust 34 1008 18 10000 2.6 170 06:37 11.03.2020
1550 Clouds 35 1009 23 10000 7.2 230 05:36 11.03.2020
1551 Clear 33 1009 33 10000 3.6 110 04:29 11.03.2020
1552 Clear 26 1011 50 10000 7.7 90 02:19 11.03.2020
1553 Clear 23 1011 56 10000 5.1 70 01:27 11.03.2020
1554 Clear 22 1011 60 10000 5.1 80 00:46 11.03.2020
1555 Clear 20 1011 64 10000 5.1 80 23:58 10.03.2020
1556 Clear 20 1011 60 10000 5.7 70 23:39 10.03.2020
1557 Clear 20 1010 60 10000 6.2 80 23:20 10.03.2020
1558 Clear 21 1010 56 10000 4.6 50 22:38 10.03.2020
1559 Clear 21 1010 56 10000 4.6 50 22:20 10.03.2020
1560 Clear 21 1010 56 10000 5.1 70 21:57 10.03.2020
1561 Clear 21 1010 56 10000 6.2 80 21:38 10.03.2020
1562 Clear 21 1010 56 10000 6.2 80 21:38 10.03.2020
1563 Clear 21 1010 56 10000 6.2 80 21:20 10.03.2020
1564 Clear 21 1010 49 10000 7.7 70 20:58 10.03.2020
1565 Clear 22 1010 49 10000 8.2 70 20:40 10.03.2020
1566 Clear 22 1010 49 10000 8.2 70 20:18 10.03.2020
1567 Clear 22 1010 43 10000 8.7 80 19:56 10.03.2020
1568 Clear 23 1010 40 10000 8.7 90 19:37 10.03.2020
1569 Clear 24 1010 33 10000 8.2 100 19:18 10.03.2020
1570 Clear 24 1010 31 10000 5.1 70 18:44 10.03.2020
1571 Clear 24 1010 31 10000 5.1 70 18:25 10.03.2020
1572 Clear 23 1010 46 10000 2.6 10 17:57 10.03.2020
1573 Clear 23 1010 46 10000 2.6 10 17:38 10.03.2020
1574 Clear 22 1010 49 10000 1 80 17:20 10.03.2020
1575 Clear 23 1010 43 10000 3.6 210 16:38 10.03.2020
1576 Clear 23 1010 43 10000 3.6 210 16:18 10.03.2020
1577 Clear 24 1010 41 10000 7.2 100 15:55 10.03.2020
1578 Clear 24 1011 38 10000 4.6 190 15:37 10.03.2020
1579 Clear 24 1011 38 10000 4.6 190 15:18 10.03.2020
1580 Clear 24 1011 38 10000 4.6 190 15:18 10.03.2020
1581 Clear 26 1011 34 10000 7.2 100 14:41 10.03.2020
1582 Clear 26 1011 34 10000 7.2 100 14:20 10.03.2020
1583 Clear 26 1011 32 10000 7.7 190 13:57 10.03.2020
1584 Clear 27 1011 32 10000 6.2 180 13:37 10.03.2020
1585 Clear 27 1011 32 10000 6.2 180 13:19 10.03.2020
1586 Clouds 28 1010 28 10000 5.1 210 12:39 10.03.2020
1587 Clouds 29 1010 27 10000 6.7 210 12:19 10.03.2020
1588 Clouds 30 1010 24 10000 6.7 220 11:43 10.03.2020
1589 Clouds 30 1010 24 10000 6.7 220 11:25 10.03.2020
1590 Clouds 32 1009 22 10000 6.7 230 10:59 10.03.2020
1591 Clouds 33 1009 21 10000 7.2 240 10:41 10.03.2020
1592 Clouds 33 1009 21 10000 7.2 240 10:22 10.03.2020
1593 Clouds 33 1009 23 10000 6.2 260 09:57 10.03.2020
1594 -273 0 0 0 0 0 09:38 10.03.2020
1595 Clouds 34 1009 19 10000 3.1 200 09:18 10.03.2020
1596 Clouds 34 1009 19 10000 3.1 200 09:18 10.03.2020
1597 Clouds 35 1009 17 10000 5.1 210 08:45 10.03.2020
1598 Clouds 34 1010 23 10000 4.6 270 08:26 10.03.2020
1599 Clouds 35 1010 21 10000 7.2 240 07:46 10.03.2020
1600 Clouds 35 1010 21 10000 2.6 310 07:28 10.03.2020
1601 -273 0 0 0 0 0 06:42 10.03.2020
1602 Clouds 33 1011 19 10000 7.2 200 06:23 10.03.2020
1603 Clouds 34 1012 26 10000 7.2 240 05:39 10.03.2020
1604 Clouds 33 1013 29 10000 2.6 340 04:35 10.03.2020
1605 Clouds 31 1013 35 10000 2.1 140 03:35 10.03.2020
1606 Clear 26 1013 41 10000 5.1 70 02:18 10.03.2020
1607 Clear 23 1013 53 10000 4.1 80 00:54 10.03.2020
1608 Clear 22 1013 56 10000 5.1 70 00:30 10.03.2020
1609 Clear 21 1012 60 10000 3.6 30 23:57 09.03.2020
1610 Clear 20 1012 60 10000 3.6 30 23:57 09.03.2020
1611 Clear 20 1012 60 10000 3.6 30 23:38 09.03.2020
1612 Clear 21 1012 56 10000 5.1 60 23:20 09.03.2020
1613 Clear 21 1012 52 10000 4.1 70 22:40 09.03.2020
1614 Clear 21 1012 52 10000 4.1 70 22:22 09.03.2020
1615 Clear 21 1012 49 10000 3.6 70 21:57 09.03.2020
1616 Clear 22 1012 49 10000 4.1 90 21:38 09.03.2020
1617 Clear 22 1012 49 10000 4.1 90 21:20 09.03.2020
1618 Clear 22 1011 46 10000 2.6 120 20:55 09.03.2020
1619 Clear 23 1011 46 10000 3.6 130 20:36 09.03.2020
1620 Clear 23 1011 46 10000 3.6 130 20:18 09.03.2020
1621 Clear 24 1010 36 10000 8.2 90 19:42 09.03.2020
1622 Clear 24 1010 36 10000 8.2 90 19:20 09.03.2020
1623 Clear 25 1011 36 10000 8.2 100 18:57 09.03.2020
1624 Clear 25 1011 34 10000 8.7 100 18:38 09.03.2020
1625 Clear 25 1011 36 10000 8.7 100 18:19 09.03.2020
1626 Clear 25 1011 36 10000 8.7 100 17:56 09.03.2020
1627 Clear 25 1011 36 10000 6.2 100 17:37 09.03.2020
1628 Clear 25 1011 36 10000 6.2 100 17:37 09.03.2020
1629 Clear 24 1011 47 10000 7.2 110 17:19 09.03.2020
1630 Clear 24 1011 47 10000 7.2 110 16:56 09.03.2020
1631 Clear 25 1012 44 10000 7.2 110 16:38 09.03.2020
1632 Clear 25 1012 44 10000 7.2 110 16:20 09.03.2020
1633 Clear 25 1012 44 10000 7.2 110 15:56 09.03.2020
1634 Clear 25 1012 44 10000 7.2 110 15:38 09.03.2020
1635 Clear 25 1012 44 10000 7.2 110 15:18 09.03.2020
1636 Clear 26 1012 44 10000 6.2 190 14:39 09.03.2020
1637 Clear 26 1012 44 10000 6.2 190 14:21 09.03.2020
1638 Clear 27 1012 45 10000 4.6 200 13:59 09.03.2020
1639 Clear 27 1012 48 10000 4.6 210 13:39 09.03.2020
1640 Clear 27 1012 48 10000 4.6 210 13:20 09.03.2020
1641 Clear 28 1011 42 10000 5.1 210 12:58 09.03.2020
1642 Clear 28 1011 40 10000 4.6 240 12:39 09.03.2020
1643 Clear 28 1011 40 10000 4.6 240 12:18 09.03.2020
1644 Clear 30 1010 33 10000 6.2 240 11:40 09.03.2020
1645 Clear 31 1010 33 10000 6.2 240 11:20 09.03.2020
1646 Clear 32 1010 29 10000 6.2 230 10:57 09.03.2020
1647 Clear 33 1010 33 10000 5.7 240 10:39 09.03.2020
1648 Clear 33 1010 33 10000 5.7 240 10:18 09.03.2020
1649 Clear 33 1010 21 10000 4.6 190 09:42 09.03.2020
1650 Clear 33 1010 21 10000 4.6 190 09:24 09.03.2020
1651 Clear 33 1010 21 10000 4.6 190 09:24 09.03.2020
1652 Clear 35 1010 21 10000 7.2 210 08:45 09.03.2020
1653 Clear 34 1011 23 10000 7.2 210 08:27 09.03.2020
1654 Clouds 33 1011 23 10000 4.6 90 07:45 09.03.2020
1655 Clouds 33 1011 23 10000 4.6 90 07:45 09.03.2020
1656 Clouds 33 1011 26 10000 4.6 80 07:23 09.03.2020
1657 Clouds 33 1012 26 10000 5.7 120 06:59 09.03.2020
1658 Clouds 33 1012 27 10000 6.2 130 06:39 09.03.2020
1659 Clouds 33 1012 27 10000 6.2 130 06:21 09.03.2020
1660 Clouds 32 1013 31 10000 5.7 100 05:41 09.03.2020
1661 Clouds 31 1014 33 10000 7.7 70 04:56 09.03.2020
1662 Clouds 29 1014 39 10000 5.1 70 04:37 09.03.2020
1663 Clouds 29 1014 39 10000 5.1 70 04:37 09.03.2020
1664 Clouds 29 1014 39 10000 5.1 70 04:18 09.03.2020
1665 Clouds 26 1015 53 10000 5.1 90 02:50 09.03.2020
1666 Clouds 22 1015 56 10000 2.1 160 00:42 09.03.2020
1667 Clouds 22 1015 56 10000 2.1 160 00:24 09.03.2020
1668 Clouds 22 1014 56 10000 4.1 100 23:55 08.03.2020
1669 Clouds 22 1014 56 10000 6.7 100 23:29 08.03.2020
1670 Clouds 22 1014 53 10000 5.1 100 22:59 08.03.2020
1671 Clouds 22 1013 56 10000 7.2 90 22:40 08.03.2020
1672 Clouds 22 1013 56 10000 7.2 90 22:21 08.03.2020
1673 Clouds 22 1014 56 10000 6.7 90 21:57 08.03.2020
1674 Clouds 22 1014 56 10000 6.7 90 21:57 08.03.2020
1675 Clouds 22 1014 56 10000 5.1 90 21:39 08.03.2020
1676 Clouds 22 1014 56 10000 5.1 90 21:19 08.03.2020
1677 Clouds 22 1014 56 10000 5.1 90 21:19 08.03.2020
1678 Clouds 22 1014 56 10000 6.2 100 20:56 08.03.2020
1679 Clouds 23 1013 56 10000 7.2 100 20:37 08.03.2020
1680 Clear 23 1013 53 10000 7.7 100 20:18 08.03.2020
1681 Clear 23 1013 53 10000 8.7 100 19:38 08.03.2020
1682 Clear 23 1013 53 10000 8.7 100 19:19 08.03.2020
1683 Clouds 24 1014 50 10000 8.7 90 18:42 08.03.2020
1684 Clouds 24 1014 50 10000 8.7 90 18:24 08.03.2020
1685 Clear 24 1014 47 10000 7.7 100 17:57 08.03.2020
1686 Clear 24 1014 47 10000 7.7 100 17:38 08.03.2020
1687 Clear 25 1014 47 10000 7.7 100 17:19 08.03.2020
1688 Clear 25 1014 47 10000 7.7 110 16:46 08.03.2020
1689 Clear 25 1014 44 10000 6.7 120 16:28 08.03.2020
1690 Clear 24 1014 83 10000 7.2 100 15:58 08.03.2020
1691 Clear 24 1014 83 10000 7.2 100 15:39 08.03.2020
1692 Clear 23 1014 83 10000 7.2 100 15:20 08.03.2020
1693 Clear 23 1014 73 3800 3.6 160 14:41 08.03.2020
1694 Clouds 23 1014 73 10000 7.2 100 14:21 08.03.2020
1695 Clouds 23 1014 69 10000 7.2 100 13:58 08.03.2020
1696 Clouds 23 1014 78 10000 2.1 180 13:39 08.03.2020
1697 Clouds 24 1014 69 10000 7.2 100 13:19 08.03.2020
1698 Clouds 24 1013 69 10000 4.1 250 12:41 08.03.2020
1699 Clouds 24 1013 69 10000 4.1 250 12:23 08.03.2020
1700 Clouds 25 1013 65 10000 4.1 240 11:55 08.03.2020
1701 Clear 26 1013 51 10000 6.7 230 11:37 08.03.2020
1702 Clear 26 1013 51 10000 6.7 230 11:37 08.03.2020
1703 Clear 26 1013 51 10000 6.7 230 11:37 08.03.2020
1704 Clouds 26 1013 51 10000 6.7 230 11:19 08.03.2020
1705 Clouds 27 1013 51 10000 6.7 230 10:41 08.03.2020
1706 Clouds 28 1013 51 10000 5.1 250 10:23 08.03.2020
1707 Clouds 28 1013 54 10000 6.2 260 09:43 08.03.2020
1708 Clouds 29 1012 51 10000 7.2 270 09:24 08.03.2020
1709 Clouds 30 1013 43 10000 6.2 220 08:51 08.03.2020
1710 Clouds 30 1013 43 10000 6.2 220 08:28 08.03.2020
1711 Clear 31 1013 43 10000 4.6 250 07:56 08.03.2020
1712 Clear 31 1013 43 10000 4.6 250 07:37 08.03.2020
1713 Clouds 30 1014 42 10000 7.2 250 07:18 08.03.2020
1714 Clear 29 1014 48 10000 6.7 250 06:40 08.03.2020
1715 Clear 29 1014 48 10000 6.7 250 06:22 08.03.2020
1716 Clear 29 1015 42 10000 5.1 260 05:19 08.03.2020
1717 Clear 28 1016 51 10000 4.1 260 03:51 08.03.2020
1718 Clear 24 1016 69 10000 1 180 02:28 08.03.2020
1719 Clouds 21 1017 100 10000 3.6 170 01:23 08.03.2020
1720 Clouds 21 1017 100 10000 3.6 170 01:23 08.03.2020
1721 Clouds 19 1017 100 700 2.6 160 00:44 08.03.2020
1722 Clouds 19 1017 93 7000 4.6 190 00:25 08.03.2020
1723 Clouds 18 1017 93 7000 4.6 190 23:44 07.03.2020
1724 Clouds 18 1017 100 250 3.1 180 23:23 07.03.2020
1725 Clouds 18 1016 88 10000 2.6 200 22:40 07.03.2020
1726 Clouds 18 1016 88 10000 2.6 200 22:21 07.03.2020
1727 Clouds 18 1016 88 10000 2.6 210 21:49 07.03.2020
1728 Clouds 18 1016 88 10000 2.6 220 21:25 07.03.2020
1729 Clouds 18 1016 88 10000 2.6 210 20:42 07.03.2020
1730 Clouds 18 1016 88 10000 2.6 210 20:24 07.03.2020
1731 Clouds 18 1016 88 10000 2.6 210 20:24 07.03.2020
1732 Clouds 19 1016 88 10000 2.6 210 19:59 07.03.2020
1733 Clouds 19 1016 88 10000 2.6 200 19:40 07.03.2020
1734 Clouds 19 1016 88 10000 2.6 200 19:20 07.03.2020
1735 Clouds 19 1017 88 10000 3.1 200 18:42 07.03.2020
1736 Clouds 19 1017 88 10000 3.1 200 18:24 07.03.2020
1737 Clouds 20 1017 82 10000 3.6 190 17:56 07.03.2020
1738 Clouds 20 1018 82 10000 3.6 180 17:38 07.03.2020
1739 Clouds 20 1018 82 10000 3.6 180 17:18 07.03.2020
1740 Clouds 20 1018 83 10000 3.6 210 16:42 07.03.2020
1741 Clouds 20 1018 83 10000 3.6 210 16:23 07.03.2020
1742 Clouds 20 1018 83 10000 4.1 220 15:57 07.03.2020
1743 Clouds 21 1018 77 10000 4.1 220 15:39 07.03.2020
1744 Clouds 21 1018 77 10000 4.1 220 15:39 07.03.2020
1745 Clouds 21 1018 77 10000 4.1 220 15:20 07.03.2020
1746 Clouds 21 1018 83 10000 4.1 210 14:56 07.03.2020
1747 Clouds 21 1018 77 10000 3.6 210 14:37 07.03.2020
1748 Clouds 21 1018 77 10000 3.6 210 14:18 07.03.2020
1749 Clouds 21 1017 73 10000 4.6 240 13:39 07.03.2020
1750 Clouds 22 1017 73 10000 4.6 240 13:20 07.03.2020
1751 Clouds 22 1017 68 10000 6.7 240 12:42 07.03.2020
1752 Clouds 22 1017 68 10000 6.7 240 12:20 07.03.2020
1753 Clouds 23 1016 64 10000 7.7 230 11:57 07.03.2020
1754 Clouds 23 1016 60 10000 7.2 220 11:39 07.03.2020
1755 Clouds 23 1016 60 10000 7.2 220 11:21 07.03.2020
1756 Clouds 24 1016 60 10000 7.2 230 10:41 07.03.2020
1757 Clouds 24 1016 60 10000 7.2 230 10:21 07.03.2020
1758 Clouds 24 1016 60 10000 7.2 230 10:21 07.03.2020
1759 Clouds 25 1016 57 10000 6.2 240 09:57 07.03.2020
1760 Clouds 25 1016 57 10000 7.2 220 09:38 07.03.2020
1761 Clouds 26 1016 57 10000 7.2 220 09:18 07.03.2020
1762 Clouds 25 1016 57 10000 7.2 270 08:44 07.03.2020
1763 Clouds 25 1016 57 10000 7.7 270 08:21 07.03.2020
1764 Clouds 26 1015 54 10000 7.2 270 07:51 07.03.2020
1765 Clouds 25 1013 54 0 1.79 326 07:23 07.03.2020
1766 Clouds 26 1013 54 0 0.45 332 06:56 07.03.2020
1767 Clouds 26 1013 55 0 2.24 252 06:30 07.03.2020
1768 Clouds 26 1016 61 10000 4.1 250 05:53 07.03.2020
1769 Clouds 25 1017 64 10000 4.6 240 04:43 07.03.2020
1770 Clouds 23 1016 78 10000 3.1 200 02:47 07.03.2020
1771 Clouds 22 1016 78 10000 3.1 200 02:24 07.03.2020
1772 Clouds 22 1016 77 10000 3.6 190 01:26 07.03.2020
1773 Clouds 21 1015 77 10000 3.6 180 00:38 07.03.2020
1774 Clouds 21 1015 77 10000 3.6 180 00:20 07.03.2020
1775 Clouds 21 1015 77 10000 3.1 180 23:44 06.03.2020
1776 Clouds 21 1015 77 10000 3.6 190 23:25 06.03.2020
1777 Clouds 21 1014 83 10000 2.6 210 22:48 06.03.2020
1778 Clouds 21 1014 83 10000 2.6 210 22:21 06.03.2020
1779 Clouds 21 1014 77 10000 3.1 220 21:55 06.03.2020
1780 Clouds 21 1013 77 10000 3.6 210 21:36 06.03.2020
1781 Clouds 21 1013 77 10000 3.6 210 21:18 06.03.2020
1782 Clouds 21 1013 77 10000 4.1 210 20:37 06.03.2020
1783 Clouds 20 1013 77 10000 4.1 210 20:19 06.03.2020
1784 Clouds 20 1013 83 10000 3.6 230 19:44 06.03.2020
1785 Clouds 20 1013 83 10000 3.6 230 19:26 06.03.2020
1786 Clouds 21 1013 77 10000 4.1 230 18:44 06.03.2020
1787 Clouds 21 1013 78 10000 4.1 230 18:21 06.03.2020
1788 Clouds 21 1013 78 10000 4.1 230 17:58 06.03.2020
1789 Clouds 21 1014 78 10000 4.6 240 17:40 06.03.2020
1790 Clouds 21 1014 73 10000 5.1 230 17:21 06.03.2020
1791 Clouds 21 1014 73 10000 5.1 230 16:58 06.03.2020
1792 Clouds 21 1014 73 10000 5.1 230 16:40 06.03.2020
1793 Clouds 21 1013 73 10000 4.6 240 16:19 06.03.2020
1794 Clouds 21 1013 73 10000 4.6 240 15:44 06.03.2020
1795 Clouds 21 1013 77 10000 3.6 220 15:24 06.03.2020
1796 Clouds 21 1013 73 10000 5.1 230 14:43 06.03.2020
1797 Clouds 21 1013 73 10000 5.1 230 14:24 06.03.2020
1798 Clouds 22 1013 73 10000 4.6 240 13:58 06.03.2020
1799 Clouds 21 1013 73 10000 4.6 240 13:58 06.03.2020
1800 Clouds 22 1012 73 10000 5.7 230 13:40 06.03.2020
1801 Clouds 22 1012 73 10000 5.7 230 13:20 06.03.2020
1802 Rain 22 1012 73 10000 4.1 240 12:54 06.03.2020
1803 Clouds 22 1012 73 10000 5.1 260 12:36 06.03.2020
1804 Clouds 22 1012 73 10000 5.1 260 12:18 06.03.2020
1805 Clouds 23 1011 69 10000 6.2 260 11:42 06.03.2020
1806 Clouds 23 1011 69 10000 6.2 260 11:20 06.03.2020
1807 Clouds 23 1010 64 10000 4.1 240 10:56 06.03.2020
1808 Clouds 24 1010 64 10000 6.7 270 10:36 06.03.2020
1809 Clouds 24 1010 64 10000 6.7 270 10:18 06.03.2020
1810 Clouds 24 1010 54 10000 6.2 260 09:42 06.03.2020
1811 Clouds 25 1010 54 10000 6.2 260 09:23 06.03.2020
1812 Clouds 25 1010 54 10000 6.2 260 09:23 06.03.2020
1813 Clouds 25 1010 50 10000 7.2 260 08:56 06.03.2020
1814 Clouds 25 1009 50 10000 7.7 250 08:37 06.03.2020
1815 Clouds 25 1009 50 10000 7.7 250 08:18 06.03.2020
1816 Clouds 26 1009 50 10000 6.7 270 07:41 06.03.2020
1817 -273 0 0 0 0 0 07:21 06.03.2020
1818 Clouds 25 1009 50 10000 5.7 270 06:42 06.03.2020
1819 Clouds 25 1009 53 10000 6.7 260 05:59 06.03.2020
1820 Clouds 24 1010 53 10000 7.2 250 05:36 06.03.2020
1821 Clouds 24 1009 53 10000 6.7 250 04:59 06.03.2020
1822 Clouds 24 1009 53 10000 6.2 250 03:58 06.03.2020
1823 Clouds 22 1008 64 10000 4.6 260 01:42 06.03.2020
1824 Clouds 22 1008 64 10000 4.6 260 01:24 06.03.2020
1825 Clouds 21 1008 68 10000 4.1 240 00:47 06.03.2020
1826 Clouds 21 1007 73 10000 3.6 250 00:20 06.03.2020
1827 Clouds 20 1007 82 10000 3.6 240 23:43 05.03.2020
1828 Clouds 19 1007 82 10000 3.6 240 23:23 05.03.2020
1829 Clouds 20 1006 77 10000 3.6 260 22:41 05.03.2020
1830 Clouds 20 1006 77 10000 3.6 260 22:23 05.03.2020
1831 Clouds 20 1006 77 10000 4.1 250 21:58 05.03.2020
1832 Clouds 21 1006 77 10000 4.6 250 21:39 05.03.2020
1833 Clouds 21 1006 77 10000 4.6 250 21:21 05.03.2020
1834 Clouds 21 1006 77 10000 4.1 260 20:59 05.03.2020
1835 Clouds 21 1006 88 10000 4.1 250 20:41 05.03.2020
1836 Clouds 21 1006 88 10000 4.1 250 20:20 05.03.2020
1837 Clouds 21 1005 88 10000 3.6 270 19:58 05.03.2020
1838 Clouds 21 1005 88 10000 4.1 240 19:39 05.03.2020
1839 Clouds 21 1005 88 10000 4.1 240 19:39 05.03.2020
1840 Clouds 21 1005 88 10000 4.1 240 19:19 05.03.2020
1841 Rain 21 1005 83 10000 4.1 260 18:55 05.03.2020
1842 Clouds 21 1006 83 10000 4.1 240 18:36 05.03.2020
1843 Clouds 21 1006 83 10000 4.1 240 18:18 05.03.2020
1844 Clouds 22 1006 73 10000 1.5 300 17:42 05.03.2020
1845 Clouds 22 1006 73 10000 1.5 300 17:42 05.03.2020
1846 Clouds 22 1006 73 10000 1.5 300 17:22 05.03.2020
1847 Rain 22 1006 78 10000 4.1 260 16:57 05.03.2020
1848 Rain 22 1006 78 10000 4.1 260 16:38 05.03.2020
1849 Rain 22 1006 78 10000 4.1 260 16:19 05.03.2020
1850 Rain 22 1006 78 10000 4.1 260 15:45 05.03.2020
1851 Clouds 22 1006 78 10000 3.1 240 15:23 05.03.2020
1852 Rain 22 1006 78 10000 4.1 260 14:59 05.03.2020
1853 Rain 22 1006 78 10000 4.1 260 14:40 05.03.2020
1854 Rain 22 1006 78 10000 4.1 260 14:21 05.03.2020
1855 Rain 22 1006 69 10000 4.1 260 13:56 05.03.2020
1856 Clouds 22 1006 83 10000 5.7 240 13:37 05.03.2020
1857 Clouds 22 1005 57 10000 4.1 270 13:19 05.03.2020
1858 Clouds 23 1005 69 10000 3.1 250 12:41 05.03.2020
1859 Clouds 23 1005 50 10000 3.6 240 12:20 05.03.2020
1860 Clouds 24 1005 50 10000 4.6 240 11:57 05.03.2020
1861 Clouds 25 1005 50 10000 4.1 220 11:37 05.03.2020
1862 Clouds 25 1005 50 10000 4.1 220 11:19 05.03.2020
1863 Clouds 25 1005 50 10000 4.1 220 11:19 05.03.2020
1864 Clouds 26 1005 57 10000 5.1 250 10:57 05.03.2020
1865 Clouds 26 1004 51 10000 6.2 260 10:39 05.03.2020
1866 Clouds 26 1004 51 10000 6.2 260 10:20 05.03.2020
1867 Clouds 27 1004 48 10000 5.1 270 09:45 05.03.2020
1868 Clouds 28 1004 45 10000 5.7 260 09:27 05.03.2020
1869 Clouds 29 1004 35 10000 5.7 270 08:48 05.03.2020
1870 Clouds 30 1004 21 10000 4.6 260 08:30 05.03.2020
1871 Clouds 31 1005 19 10000 4.1 270 07:49 05.03.2020
1872 Clouds 31 1005 23 10000 3.1 240 07:23 05.03.2020
1873 Clouds 30 1005 28 10000 6.2 230 06:50 05.03.2020
1874 Clouds 30 1006 33 10000 6.2 230 06:24 05.03.2020
1875 Clouds 30 1006 23 10000 6.2 240 05:57 05.03.2020
1876 Clouds 30 1006 22 10000 4.1 250 05:32 05.03.2020
1877 Clouds 30 1007 22 10000 6.2 230 04:23 05.03.2020
1878 Clouds 30 1007 23 10000 4.1 10 03:58 05.03.2020
1879 Clouds 25 1008 34 10000 2.1 30 02:21 05.03.2020
1880 Clouds 22 1008 46 10000 2.1 40 01:24 05.03.2020
1881 Clouds 17 1008 67 10000 2.1 70 00:29 05.03.2020
1882 Clouds 15 1008 67 10000 2.1 60 23:43 04.03.2020
1883 Clouds 14 1007 71 10000 2.6 60 23:24 04.03.2020
1884 Clouds 14 1007 76 10000 1.77 94 22:59 04.03.2020
1885 Clouds 15 1007 76 10000 1.77 94 22:40 04.03.2020
1886 Clouds 15 1007 76 10000 1.77 94 22:19 04.03.2020
1887 Clouds 16 1007 71 10000 3.1 70 21:58 04.03.2020
1888 Clouds 16 1007 76 10000 2.1 70 21:40 04.03.2020
1889 Clouds 16 1007 76 10000 2.1 70 21:20 04.03.2020
1890 Clouds 16 1007 76 10000 1.77 94 20:56 04.03.2020
1891 Clouds 16 1007 76 10000 1.77 94 20:37 04.03.2020
1892 Clouds 15 1007 76 10000 1.58 100 20:18 04.03.2020
1893 Clouds 16 1007 71 10000 1.63 101 19:42 04.03.2020
1894 Clouds 16 1007 71 10000 1.63 101 19:23 04.03.2020
1895 Clouds 17 1007 67 10000 2.1 330 18:55 04.03.2020
1896 Clouds 17 1008 72 10000 2.1 360 18:36 04.03.2020
1897 Clouds 17 1008 72 10000 2.1 360 18:18 04.03.2020
1898 Clouds 18 1008 67 10000 1.63 101 17:54 04.03.2020
1899 Clouds 18 1008 67 10000 2.6 130 17:36 04.03.2020
1900 Clouds 18 1008 67 10000 2.6 130 17:18 04.03.2020
1901 Clouds 19 1009 52 10000 3.6 180 16:42 04.03.2020
1902 Clouds 20 1009 52 10000 3.6 180 16:23 04.03.2020
1903 Clouds 21 1009 52 10000 3.6 190 15:57 04.03.2020
1904 Clouds 21 1010 49 10000 3.6 210 15:39 04.03.2020
1905 Clouds 21 1010 49 10000 3.6 210 15:19 04.03.2020
1906 Clouds 21 1010 49 10000 3.6 210 15:19 04.03.2020
1907 Clouds 22 1010 53 10000 2.6 210 14:41 04.03.2020
1908 Clouds 22 1010 44 10000 2.6 80 14:22 04.03.2020
1909 Clouds 23 1010 41 10000 3.1 200 13:59 04.03.2020
1910 Clouds 23 1009 50 10000 3.1 200 13:40 04.03.2020
1911 Clouds 24 1009 50 10000 3.1 200 13:21 04.03.2020
1912 Clouds 24 1009 50 10000 3.1 200 13:21 04.03.2020
1913 Clouds 24 1009 31 10000 2.6 80 12:59 04.03.2020
1914 Clouds 25 1009 32 10000 2.6 80 12:41 04.03.2020
1915 Clouds 26 1009 32 10000 2.6 80 12:23 04.03.2020
1916 Clouds 27 1008 28 10000 2.6 80 11:55 04.03.2020
1917 Clouds 28 1008 25 10000 5.1 210 11:37 04.03.2020
1918 Clouds 28 1008 25 10000 5.1 210 11:19 04.03.2020
1919 Clouds 29 1008 19 10000 7.2 230 10:41 04.03.2020
1920 Clouds 29 1008 19 10000 7.2 230 10:22 04.03.2020
1921 Clouds 30 1008 20 10000 7.2 230 09:45 04.03.2020
1922 Clouds 30 1008 21 10000 7.7 220 09:23 04.03.2020
1923 Clouds 30 1008 24 10000 7.2 270 08:59 04.03.2020
1924 Clouds 30 1008 21 10000 5.7 260 08:40 04.03.2020
1925 Clouds 32 1008 21 10000 5.7 260 08:22 04.03.2020
1926 Clouds 33 1009 19 10000 6.2 250 07:44 04.03.2020
1927 Clouds 32 1009 18 10000 7.2 260 07:25 04.03.2020
1928 Clouds 33 1009 14 10000 8.7 220 06:49 04.03.2020
1929 Clouds 33 1010 15 10000 3.1 140 06:26 04.03.2020
1930 Clouds 33 1010 15 10000 5.7 220 05:55 04.03.2020
1931 Clouds 30 1011 18 10000 2.1 260 04:59 04.03.2020
1932 Clouds 30 1012 23 10000 2.1 60 03:50 04.03.2020
1933 Clouds 30 1012 28 10000 3.1 30 03:31 04.03.2020
1934 Clouds 28 1012 28 10000 3.1 80 02:58 04.03.2020
1935 Clouds 27 1012 29 10000 3.1 90 02:25 04.03.2020
1936 Clouds 25 1013 33 10000 4.1 80 01:56 04.03.2020
1937 Clouds 24 1013 37 10000 4.6 70 01:31 04.03.2020
1938 Clouds 20 1012 45 10000 4.6 70 00:41 04.03.2020
1939 Clouds 19 1012 45 10000 4.6 70 00:19 04.03.2020
1940 Clouds 18 1012 42 10000 4.6 80 23:41 03.03.2020
1941 Clouds 17 1012 42 10000 4.6 80 23:22 03.03.2020
1942 Clouds 17 1012 42 10000 6.2 70 22:42 03.03.2020
1943 Clouds 17 1012 42 10000 6.2 70 22:20 03.03.2020
1944 Clouds 18 1012 42 10000 4.1 60 21:59 03.03.2020
1945 Clouds 18 1012 45 10000 3.6 50 21:40 03.03.2020
1946 Clouds 18 1012 45 10000 3.6 50 21:21 03.03.2020
1947 Clouds 18 1012 48 10000 3.6 50 20:57 03.03.2020
1948 Clouds 19 1012 45 10000 2.1 50 20:38 03.03.2020
1949 Clear 19 1012 45 10000 2.1 50 20:18 03.03.2020
1950 Clear 19 1012 37 10000 0.5 310 19:55 03.03.2020
1951 Clear 20 1012 37 10000 2.6 70 19:37 03.03.2020
1952 Clouds 20 1012 37 10000 2.6 70 19:37 03.03.2020
1953 Clear 20 1012 37 10000 2.6 70 19:18 03.03.2020
1954 Clear 20 1012 37 10000 4.6 60 18:55 03.03.2020
1955 Clouds 21 1012 35 10000 5.1 70 18:37 03.03.2020
1956 Clear 21 1012 35 10000 5.1 70 18:18 03.03.2020
1957 Clear 21 1013 35 10000 2.6 60 17:40 03.03.2020
1958 Clouds 21 1013 35 10000 2.6 60 17:21 03.03.2020
1959 Clouds 21 1013 33 10000 3.1 70 16:59 03.03.2020
1960 Clouds 22 1013 35 10000 2.6 50 16:38 03.03.2020
1961 Clouds 21 1013 35 10000 2.6 50 16:20 03.03.2020
1962 Clouds 20 1013 52 10000 5.1 110 15:57 03.03.2020
1963 Clouds 21 1014 56 10000 1.5 180 15:39 03.03.2020
1964 Clouds 22 1014 56 10000 1.5 180 15:19 03.03.2020
1965 Clouds 23 1014 49 10000 5.1 110 14:41 03.03.2020
1966 Clouds 23 1014 49 10000 5.1 110 14:20 03.03.2020
1967 Clouds 23 1014 47 10000 4.6 180 13:57 03.03.2020
1968 Clouds 24 1014 47 10000 3.6 190 13:39 03.03.2020
1969 Clouds 24 1014 47 10000 3.6 190 13:20 03.03.2020
1970 Clouds 25 1013 47 10000 3.6 200 12:47 03.03.2020
1971 Clouds 26 1013 34 10000 5.1 110 12:26 03.03.2020
1972 Clouds 26 1012 37 10000 5.1 110 11:57 03.03.2020
1973 Clouds 27 1012 30 10000 5.1 190 11:37 03.03.2020
1974 Clouds 28 1012 30 10000 5.1 190 11:18 03.03.2020
1975 Clouds 29 1012 28 10000 5.1 180 10:55 03.03.2020
1976 Clouds 30 1012 24 10000 5.7 250 10:37 03.03.2020
1977 Clouds 30 1012 24 10000 5.7 250 10:18 03.03.2020
1978 Clouds 32 1012 17 10000 5.1 180 09:43 03.03.2020
1979 Clouds 32 1012 17 10000 5.1 180 09:43 03.03.2020
1980 Clouds 32 1012 17 10000 5.1 220 09:22 03.03.2020
1981 Clouds 31 1012 18 10000 2.6 230 08:56 03.03.2020
1982 Clouds 32 1013 19 10000 1.5 300 08:37 03.03.2020
1983 Clear 31 1013 19 10000 1.5 300 08:19 03.03.2020
1984 Clear 31 1013 22 10000 3.6 130 07:42 03.03.2020
1985 Clear 32 1013 22 10000 3.6 130 07:19 03.03.2020
1986 Clear 31 1014 25 10000 3.6 90 06:40 03.03.2020
1987 Clear 31 1014 25 10000 3.6 90 06:21 03.03.2020
1988 Clear 30 1014 27 10000 4.1 110 05:46 03.03.2020
1989 Clear 29 1015 28 10000 5.1 70 04:56 03.03.2020
1990 Clear 27 1017 34 10000 6.2 80 03:32 03.03.2020
1991 Clear 22 1017 52 10000 6.7 80 01:39 03.03.2020
1992 Clear 20 1017 55 10000 7.2 80 00:47 03.03.2020
1993 Clear 20 1017 55 10000 7.2 80 00:47 03.03.2020
1994 Clear 19 1017 55 10000 5.1 70 00:24 03.03.2020
1995 Clear 18 1017 59 10000 5.1 70 23:51 02.03.2020
1996 Clear 18 1016 59 10000 3.6 70 23:23 02.03.2020
1997 Clear 18 1016 55 10000 3.1 70 22:58 02.03.2020
1998 Clear 17 1016 63 10000 3.1 120 22:39 02.03.2020
1999 Clear 18 1016 63 10000 3.1 120 22:20 02.03.2020
2000 Clear 18 1016 59 10000 3.1 120 21:56 02.03.2020
2001 Clear 18 1016 55 10000 4.1 130 21:38 02.03.2020
2002 Clear 18 1016 55 10000 4.1 130 21:20 02.03.2020
2003 Clear 19 1016 52 10000 3.6 110 20:55 02.03.2020
2004 Clear 19 1016 52 10000 4.1 110 20:37 02.03.2020
2005 Clear 19 1016 52 10000 4.1 110 20:18 02.03.2020
2006 Clear 20 1016 48 10000 3.6 110 19:54 02.03.2020
2007 Clear 20 1016 48 10000 5.1 100 19:36 02.03.2020
2008 Clear 20 1016 48 10000 5.1 100 19:18 02.03.2020
2009 Clear 21 1015 45 10000 4.6 90 18:42 02.03.2020
2010 Clear 21 1015 43 10000 6.7 90 18:19 02.03.2020
2011 Clear 21 1015 43 10000 6.7 90 18:19 02.03.2020
2012 Clear 22 1016 40 10000 4.1 70 17:57 02.03.2020
2013 Clear 22 1016 37 10000 4.1 60 17:39 02.03.2020
2014 Clear 22 1016 37 10000 4.1 60 17:20 02.03.2020
2015 Clear 23 1015 35 10000 6.7 70 16:43 02.03.2020
2016 Clear 23 1015 35 10000 5.7 90 16:24 02.03.2020
2017 Clear 23 1016 37 10000 5.1 100 15:57 02.03.2020
2018 Clear 23 1016 35 10000 5.7 100 15:38 02.03.2020
2019 Clear 23 1016 35 10000 5.7 100 15:18 02.03.2020
2020 Clear 23 1016 33 10000 4.6 110 14:39 02.03.2020
2021 Clouds 24 1016 33 10000 4.6 110 14:19 02.03.2020
2022 Clouds 24 1016 33 10000 4.6 130 13:55 02.03.2020
2023 Clouds 24 1016 33 10000 4.6 120 13:36 02.03.2020
2024 Clouds 24 1016 33 10000 4.6 120 13:18 02.03.2020
2025 Clouds 25 1016 31 10000 4.1 120 12:41 02.03.2020
2026 Clouds 26 1016 31 10000 4.1 120 12:19 02.03.2020
2027 Clouds 27 1016 26 10000 6.7 90 11:39 02.03.2020
2028 Clouds 27 1016 26 10000 6.7 90 11:21 02.03.2020
2029 Clouds 28 1016 24 10000 7.7 110 10:57 02.03.2020
2030 Clouds 28 1015 26 10000 6.2 100 10:38 02.03.2020
2031 Clouds 28 1015 26 10000 6.2 100 10:19 02.03.2020
2032 Clouds 29 1015 25 10000 7.2 100 09:50 02.03.2020
2033 Clouds 29 1015 24 10000 7.7 120 09:31 02.03.2020
2034 Clouds 29 1015 25 10000 7.7 110 08:49 02.03.2020
2035 Clouds 28 1015 26 10000 8.2 90 08:23 02.03.2020
2036 Clouds 29 1016 25 10000 8.2 80 07:52 02.03.2020
2037 Clouds 28 1016 26 10000 8.7 90 07:32 02.03.2020
2038 Clouds 28 1016 28 10000 8.2 100 06:51 02.03.2020
2039 Clouds 27 1017 30 10000 7.7 90 06:26 02.03.2020
2040 Clouds 26 1017 31 10000 9.3 100 05:26 02.03.2020
2041 Clouds 24 1019 38 10000 8.7 80 03:57 02.03.2020
2042 Clouds 22 1019 43 10000 10.3 80 02:57 02.03.2020
2043 Clouds 20 1019 42 10000 7.7 80 02:30 02.03.2020
2044 Clouds 19 1020 52 10000 8.7 80 01:36 02.03.2020
2045 Clear 18 1020 52 10000 8.7 80 01:18 02.03.2020
2046 Clear 17 1020 59 10000 8.7 100 00:22 02.03.2020
2047 Clear 16 1019 59 10000 8.2 90 23:42 01.03.2020
2048 Clear 16 1019 59 10000 8.2 90 23:23 01.03.2020
2049 Clear 16 1019 59 10000 9.3 100 22:45 01.03.2020
2050 Clear 16 1018 59 10000 8.7 110 22:21 01.03.2020
2051 Clear 16 1018 59 10000 8.7 100 21:59 01.03.2020
2052 Clear 16 1018 59 10000 8.7 100 21:59 01.03.2020
2053 Clear 16 1018 55 10000 9.3 100 21:40 01.03.2020
2054 Clear 16 1018 55 10000 9.3 100 21:22 01.03.2020
2055 Clear 16 1018 55 10000 10.8 100 20:55 01.03.2020
2056 Clear 17 1018 55 10000 10.8 100 20:37 01.03.2020
2057 Clear 17 1018 55 10000 10.8 100 20:19 01.03.2020
2058 Clear 17 1018 59 10000 8.7 100 19:41 01.03.2020
2059 Clear 17 1018 59 10000 8.7 100 19:22 01.03.2020
2060 Clear 17 1018 59 10000 8.2 110 18:57 01.03.2020
2061 Clear 17 1018 63 10000 8.2 110 18:39 01.03.2020
2062 Clear 17 1018 63 10000 8.2 110 18:19 01.03.2020
2063 Clear 18 1018 55 10000 9.8 110 17:55 01.03.2020
2064 Clear 18 1018 55 10000 9.8 110 17:37 01.03.2020
2065 Clear 18 1018 55 10000 9.8 110 17:18 01.03.2020
2066 Clear 19 1017 55 10000 11.8 110 16:40 01.03.2020
2067 Clear 19 1017 55 10000 11.8 110 16:21 01.03.2020
2068 Clear 19 1018 55 10000 7.7 110 15:59 01.03.2020
2069 Clear 19 1017 59 10000 9.3 120 15:41 01.03.2020
2070 Clear 19 1017 59 10000 9.3 120 15:23 01.03.2020
2071 Clouds 20 1017 60 10000 8.7 130 14:58 01.03.2020
2072 Clouds 20 1017 56 10000 10.8 110 14:39 01.03.2020
2073 Clouds 20 1017 56 10000 10.8 110 14:21 01.03.2020
2074 Clear 20 1017 60 10000 8.7 110 13:59 01.03.2020
2075 Clouds 21 1016 56 10000 10.3 110 13:41 01.03.2020
2076 Clouds 21 1016 56 10000 10.3 110 13:20 01.03.2020
2077 Clouds 22 1016 56 10000 9.8 110 12:56 01.03.2020
2078 Clouds 23 1016 53 10000 8.7 110 12:38 01.03.2020
2079 Clouds 23 1016 53 10000 8.7 110 12:19 01.03.2020
2080 Clouds 24 1015 50 10000 9.8 120 11:40 01.03.2020
2081 Clouds 25 1015 50 10000 9.8 120 11:20 01.03.2020
2082 Clouds 25 1015 47 10000 10.8 120 10:56 01.03.2020
2083 Clouds 26 1014 47 10000 10.8 120 10:37 01.03.2020
2084 Clouds 26 1014 47 10000 10.8 120 10:37 01.03.2020
2085 Clouds 26 1014 47 10000 10.8 120 10:37 01.03.2020
2086 Clouds 26 1014 47 10000 10.8 120 10:18 01.03.2020
2087 Clouds 27 1014 44 10000 10.3 110 09:44 01.03.2020
2088 Clouds 27 1014 44 10000 10.3 110 09:26 01.03.2020
2089 Clouds 27 1014 44 10000 10.3 120 08:47 01.03.2020
2090 Clouds 27 1014 44 10000 9.8 110 08:28 01.03.2020
2091 Clouds 27 1013 44 10000 9.8 120 07:57 01.03.2020
2092 Clouds 28 1014 48 10000 10.3 120 07:39 01.03.2020
2093 Clouds 28 1014 48 10000 10.3 120 07:21 01.03.2020
2094 Clouds 27 1014 47 10000 10.3 120 06:42 01.03.2020
2095 Clouds 27 1014 47 10000 10.3 80 05:58 01.03.2020
2096 Clouds 26 1014 53 10000 7.7 130 03:38 01.03.2020
2097 Clouds 24 1014 57 10000 9.8 120 02:23 01.03.2020
2098 Clouds 23 1014 60 10000 9.3 110 01:45 01.03.2020
2099 Clouds 22 1013 64 10000 8.7 120 00:51 01.03.2020
2100 Clouds 22 1013 64 10000 8.7 130 00:26 01.03.2020
2101 Clouds 21 1012 68 10000 6.2 130 23:58 29.02.2020
2102 Clouds 21 1012 68 10000 5.7 140 23:40 29.02.2020
2103 Clouds 21 1012 68 10000 5.7 140 23:22 29.02.2020
2104 Clear 21 1011 68 10000 4.6 150 22:38 29.02.2020
2105 Clear 21 1011 68 10000 4.6 150 22:20 29.02.2020
2106 Clouds 21 1011 68 10000 7.7 140 21:39 29.02.2020
2107 Clouds 21 1011 68 10000 7.7 140 21:20 29.02.2020
2108 Clouds 21 1010 73 10000 6.2 140 20:42 29.02.2020
2109 Clouds 21 1010 73 10000 6.2 140 20:21 29.02.2020
2110 Clouds 21 1010 73 10000 6.2 180 19:55 29.02.2020
2111 Clouds 21 1010 73 10000 6.2 180 19:55 29.02.2020
2112 Clouds 21 1010 77 10000 6.7 180 19:36 29.02.2020
2113 Clouds 21 1010 77 10000 6.7 180 19:18 29.02.2020
2114 Clouds 20 1010 93 10000 2.6 180 18:42 29.02.2020
2115 Clouds 20 1010 93 10000 2.6 180 18:22 29.02.2020
2116 Clouds 20 1010 93 10000 2.1 190 17:56 29.02.2020
2117 Clouds 20 1010 93 10000 2.1 90 17:37 29.02.2020
2118 Clouds 20 1010 93 10000 2.1 90 17:19 29.02.2020
2119 Clouds 20 1010 88 10000 2.6 160 16:44 29.02.2020
2120 Clouds 21 1010 88 10000 2.6 160 16:19 29.02.2020
2121 Clouds 21 1010 83 10000 2.6 200 15:56 29.02.2020
2122 Clouds 21 1010 83 10000 3.1 210 15:36 29.02.2020
2123 Clouds 21 1010 83 10000 3.1 210 15:18 29.02.2020
2124 Clouds 22 1009 83 10000 4.6 210 14:39 29.02.2020
2125 Clouds 22 1009 83 10000 4.6 210 14:21 29.02.2020
2126 Clouds 22 1009 78 10000 4.1 230 13:45 29.02.2020
2127 Clouds 22 1009 78 10000 4.1 230 13:45 29.02.2020
2128 Clouds 22 1009 78 10000 4.1 230 13:27 29.02.2020
2129 Clouds 22 1008 73 10000 4.6 230 12:57 29.02.2020
2130 Clouds 23 1008 73 10000 5.1 230 12:38 29.02.2020
2131 Clouds 23 1008 73 10000 5.1 230 12:20 29.02.2020
2132 Clouds 24 1008 65 10000 6.2 260 11:45 29.02.2020
2133 Clouds 24 1008 65 10000 6.2 260 11:26 29.02.2020
2134 Clouds 25 1007 65 10000 6.7 260 10:51 29.02.2020
2135 Clouds 25 1007 61 10000 6.2 260 10:31 29.02.2020
2136 Clouds 25 1007 61 10000 6.2 260 10:31 29.02.2020
2137 Clouds 26 1007 61 10000 6.7 260 09:56 29.02.2020
2138 Clouds 26 1007 61 10000 6.7 260 09:56 29.02.2020
2139 Clouds 26 1007 57 10000 6.7 260 09:37 29.02.2020
2140 Clouds 26 1007 57 10000 6.7 260 09:18 29.02.2020
2141 Clouds 26 1007 61 10000 6.2 250 08:40 29.02.2020
2142 Clouds 26 1007 61 10000 6.2 250 08:20 29.02.2020
2143 Clouds 26 1007 57 10000 6.7 250 07:51 29.02.2020
2144 Clouds 27 1007 57 10000 5.1 290 07:22 29.02.2020
2145 Clouds 27 1007 57 10000 5.7 270 06:54 29.02.2020
2146 Clouds 27 1007 54 10000 5.7 260 06:29 29.02.2020
2147 Clouds 27 1007 57 10000 6.2 300 05:50 29.02.2020
2148 Clouds 27 1007 54 10000 5.7 270 05:31 29.02.2020
2149 Clouds 26 1008 57 10000 3.6 270 03:55 29.02.2020
2150 Clouds 26 1008 61 10000 5.1 290 03:24 29.02.2020
2151 Clouds 25 1008 61 10000 4.1 260 02:52 29.02.2020
2152 Clouds 24 1008 64 10000 3.6 250 01:58 29.02.2020
2153 Clouds 23 1008 78 10000 3.1 270 00:51 29.02.2020
2154 Clouds 22 1008 83 10000 2.6 260 00:27 29.02.2020
2155 Clouds 21 1007 83 10000 3.1 260 23:41 28.02.2020
2156 Clouds 21 1007 83 10000 3.1 260 23:22 28.02.2020
2157 Clouds 22 1006 88 10000 3.1 270 22:43 28.02.2020
2158 Clouds 22 1006 88 10000 3.1 270 22:22 28.02.2020
2159 Clouds 22 1007 94 10000 3.6 250 21:42 28.02.2020
2160 Clouds 22 1006 83 10000 3.6 260 21:22 28.02.2020
2161 Clouds 22 1006 83 10000 2.6 280 20:57 28.02.2020
2162 Clouds 22 1006 83 10000 2.6 250 20:38 28.02.2020
2163 Clouds 22 1006 83 10000 2.6 250 20:20 28.02.2020
2164 Clouds 22 1007 94 10000 2.1 250 19:56 28.02.2020
2165 Clouds 22 1007 83 10000 3.6 270 19:38 28.02.2020
2166 Clouds 23 1007 83 10000 3.6 270 19:19 28.02.2020
2167 Clouds 23 1007 88 10000 3.1 240 18:46 28.02.2020
2168 Clouds 23 1007 100 10000 2.6 250 18:24 28.02.2020
2169 Clouds 23 1007 88 10000 4.1 270 17:56 28.02.2020
2170 Clouds 23 1007 100 10000 2.52 248 17:36 28.02.2020
2171 Clouds 23 1007 100 10000 2.52 248 17:36 28.02.2020
2172 Clouds 23 1007 100 10000 2.37 250 17:18 28.02.2020
2173 Clouds 22 1007 94 10000 2.6 250 16:38 28.02.2020
2174 Clouds 23 1007 94 10000 2.6 250 16:19 28.02.2020
2175 Clouds 23 1007 94 10000 2.6 250 16:19 28.02.2020
2176 Drizzle 23 1007 88 10000 4.1 280 15:56 28.02.2020
2177 Clouds 23 1007 88 10000 2.6 220 15:37 28.02.2020
2178 Clouds 23 1007 88 10000 2.6 220 15:18 28.02.2020
2179 Clear 23 1008 94 10000 2.1 270 14:45 28.02.2020
2180 Drizzle 23 1008 83 10000 4.1 280 14:19 28.02.2020
2181 Drizzle 24 1008 83 10000 4.1 280 13:58 28.02.2020
2182 Clear 24 1008 73 10000 3.1 280 13:40 28.02.2020
2183 Rain 24 1008 73 10000 3.1 280 13:19 28.02.2020
2184 Clouds 26 1007 57 10000 5.1 280 12:44 28.02.2020
2185 Clouds 26 1007 57 10000 5.1 280 12:26 28.02.2020
2186 Clouds 27 1006 48 10000 5.1 280 11:56 28.02.2020
2187 Clouds 28 1006 51 10000 5.1 280 11:37 28.02.2020
2188 Clouds 28 1006 51 10000 5.1 280 11:19 28.02.2020
2189 Rain 29 1005 48 10000 6.2 340 10:43 28.02.2020
2190 Rain 30 1005 48 10000 6.2 340 10:23 28.02.2020
2191 Rain 30 1005 45 10000 6.2 340 09:47 28.02.2020
2192 Rain 30 1005 45 10000 8.7 60 09:22 28.02.2020
2193 Rain 30 1006 45 10000 6.2 340 08:58 28.02.2020
2194 Rain 29 1006 51 10000 6.2 340 08:40 28.02.2020
2195 Rain 29 1006 51 10000 6.2 340 08:20 28.02.2020
2196 Rain 29 1006 51 10000 6.2 340 08:20 28.02.2020
2197 Rain 29 1006 54 10000 8.7 50 07:41 28.02.2020
2198 Rain 29 1006 54 10000 8.7 50 07:22 28.02.2020
2199 Rain 28 1005 51 10000 11.3 80 06:45 28.02.2020
2200 Clouds 28 1006 57 10000 10.3 60 06:26 28.02.2020
2201 Clouds 26 1007 65 10000 10.8 60 04:47 28.02.2020
2202 Rain 25 1008 65 10000 9.8 60 04:19 28.02.2020
2203 Rain 24 1009 57 10000 8.7 90 02:46 28.02.2020
2204 Rain 24 1008 73 10000 10.8 70 02:27 28.02.2020
2205 Rain 22 1007 78 10000 7.7 60 01:23 28.02.2020
2206 Thunderstorm 25 1005 54 10000 8.7 70 00:28 28.02.2020
2207 Rain 26 1006 50 10000 8.2 60 23:42 27.02.2020
2208 Rain 26 1006 50 10000 8.2 60 23:20 27.02.2020
2209 Clouds 26 1006 57 10000 8.7 60 22:46 27.02.2020
2210 Clouds 26 1006 57 10000 8.7 60 22:26 27.02.2020
2211 Clouds 26 1006 57 10000 8.2 70 21:58 27.02.2020
2212 Clouds 25 1006 61 10000 9.3 70 21:39 27.02.2020
2213 Clouds 25 1006 61 10000 9.3 70 21:19 27.02.2020
2214 Clouds 25 1006 61 10000 8.2 70 20:56 27.02.2020
2215 Clouds 26 1006 61 10000 8.2 70 20:38 27.02.2020
2216 Rain 26 1006 61 10000 8.2 70 20:20 27.02.2020
2217 Rain 25 1006 65 10000 8.7 70 19:54 27.02.2020
2218 Rain 25 1007 61 10000 8.2 70 19:36 27.02.2020
2219 Rain 25 1007 61 10000 8.2 70 19:18 27.02.2020
2220 Rain 25 1007 61 10000 10.3 80 18:40 27.02.2020
2221 Rain 25 1007 61 10000 10.3 80 18:21 27.02.2020
2222 Rain 26 1007 61 10000 11.8 80 17:57 27.02.2020
2223 Rain 26 1007 57 10000 13.4 90 17:38 27.02.2020
2224 Rain 26 1007 57 10000 13.4 90 17:19 27.02.2020
2225 Rain 26 1007 57 10000 14.4 90 16:55 27.02.2020
2226 Rain 26 1007 57 10000 14.9 90 16:36 27.02.2020
2227 Rain 26 1007 57 10000 14.9 90 16:18 27.02.2020
2228 Clouds 25 1008 65 10000 7.7 80 15:54 27.02.2020
2229 Rain 25 1008 61 10000 13.9 90 15:36 27.02.2020
2230 Rain 25 1008 61 10000 13.9 90 15:18 27.02.2020
2231 Clouds 25 1008 69 10000 9.3 90 14:40 27.02.2020
2232 Clouds 25 1008 69 10000 9.3 90 14:21 27.02.2020
2233 Rain 25 1008 78 10000 10.3 90 13:56 27.02.2020
2234 Thunderstorm 24 1008 65 10000 13.9 90 13:37 27.02.2020
2235 Thunderstorm 25 1008 65 10000 13.9 90 13:19 27.02.2020
2236 Thunderstorm 25 1008 65 10000 14.9 90 12:44 27.02.2020
2237 Thunderstorm 24 1007 69 10000 13.9 90 12:20 27.02.2020
2238 Thunderstorm 24 1008 69 10000 11.3 80 11:46 27.02.2020
2239 Clouds 24 1009 65 10000 7.7 60 11:23 27.02.2020
2240 Thunderstorm 24 1008 73 10000 11.8 80 10:56 27.02.2020
2241 Rain 24 1008 78 10000 7.7 80 10:37 27.02.2020
2242 Rain 24 1008 78 10000 7.7 80 10:19 27.02.2020
2243 Rain 24 1010 73 10000 12.3 80 09:41 27.02.2020
2244 Rain 24 1010 73 10000 12.3 80 09:23 27.02.2020
2245 Thunderstorm 25 1010 69 10000 11.8 80 08:44 27.02.2020
2246 Rain 24 1010 69 10000 9.3 60 08:26 27.02.2020
2247 Rain 25 1009 69 10000 11.3 70 07:59 27.02.2020
2248 Drizzle 24 1008 69 10000 9.8 70 07:39 27.02.2020
2249 Drizzle 24 1008 69 10000 9.8 70 07:19 27.02.2020
2250 Thunderstorm 24 1009 78 10000 15.4 60 06:20 27.02.2020
2251 Rain 22 1013 83 9000 10.3 80 04:24 27.02.2020
2252 Rain 24 1012 65 10000 7.7 60 02:58 27.02.2020
2253 Clouds 23 1011 78 10000 8.7 90 00:59 27.02.2020
2254 Clouds 22 1012 78 10000 7.7 60 00:37 27.02.2020
2255 Thunderstorm 22 1009 83 10000 12.9 90 23:41 26.02.2020
2256 Thunderstorm 22 1009 83 10000 12.9 90 23:21 26.02.2020
2257 Clouds 23 1010 78 10000 8.7 80 22:59 26.02.2020
2258 Clouds 23 1011 78 10000 10.3 70 22:40 26.02.2020
2259 Clouds 23 1011 78 10000 10.3 70 22:22 26.02.2020
2260 Rain 23 1011 78 10000 8.2 60 21:58 26.02.2020
2261 Clouds 23 1010 78 10000 10.8 80 21:38 26.02.2020
2262 Clouds 23 1010 78 10000 10.8 80 21:19 26.02.2020
2263 Clouds 23 1010 78 10000 10.8 80 21:19 26.02.2020
2264 Rain 23 1010 88 10000 11.8 80 20:55 26.02.2020
2265 Rain 23 1011 88 10000 10.8 80 20:37 26.02.2020
2266 Rain 23 1011 88 10000 10.8 80 20:18 26.02.2020
2267 Rain 23 1011 83 10000 7.7 80 19:47 26.02.2020
2268 Clouds 23 1011 83 10000 9.3 90 19:21 26.02.2020
2269 Clouds 23 1012 83 10000 5.7 110 18:59 26.02.2020
2270 Rain 23 1012 83 10000 6.2 100 18:40 26.02.2020
2271 Rain 23 1012 83 10000 6.2 100 18:22 26.02.2020
2272 Rain 24 1012 78 10000 9.3 100 17:56 26.02.2020
2273 Clouds 24 1013 73 10000 5.7 90 17:37 26.02.2020
2274 Clouds 24 1013 73 10000 5.7 90 17:18 26.02.2020
2275 Rain 24 1012 73 10000 9.3 100 16:43 26.02.2020
2276 Rain 24 1012 73 10000 9.3 100 16:22 26.02.2020
2277 Rain 24 1011 65 10000 9.3 100 15:54 26.02.2020
2278 Rain 25 1011 65 10000 5.1 100 15:36 26.02.2020
2279 Rain 25 1011 65 10000 5.1 100 15:18 26.02.2020
2280 Rain 25 1011 69 10000 7.7 100 14:42 26.02.2020
2281 Rain 25 1011 69 10000 7.7 100 14:22 26.02.2020
2282 Clouds 24 1011 78 10000 7.2 80 13:43 26.02.2020
2283 Clouds 24 1011 78 10000 7.2 80 13:22 26.02.2020
2284 Rain 24 1012 78 10000 7.7 80 12:42 26.02.2020
2285 Rain 24 1012 78 10000 7.7 80 12:22 26.02.2020
2286 Rain 25 1013 78 10000 5.1 90 11:59 26.02.2020
2287 Rain 25 1013 78 10000 3.6 100 11:40 26.02.2020
2288 Rain 25 1013 78 10000 3.6 100 11:22 26.02.2020
2289 Rain 25 1013 78 10000 3.6 100 11:22 26.02.2020
2290 Rain 25 1012 78 10000 7.7 90 10:43 26.02.2020
2291 Rain 25 1012 78 10000 7.7 90 10:24 26.02.2020
2292 Rain 26 1014 73 10000 4.6 70 09:58 26.02.2020
2293 Clouds 26 1013 73 10000 7.7 70 09:40 26.02.2020
2294 Clouds 26 1013 73 10000 7.7 70 09:40 26.02.2020
2295 Clouds 26 1013 73 10000 7.7 70 09:21 26.02.2020
2296 Rain 27 1014 61 10000 8.2 70 08:41 26.02.2020
2297 Rain 28 1014 61 10000 8.2 70 08:23 26.02.2020
2298 Clouds 28 1014 65 10000 8.7 50 07:59 26.02.2020
2299 Clouds 28 1014 69 10000 7.7 60 07:39 26.02.2020
2300 Clouds 28 1014 69 10000 7.7 60 07:20 26.02.2020
2301 Rain 27 1013 54 10000 6.7 80 06:45 26.02.2020
2302 Rain 26 1013 88 10000 8.2 110 06:22 26.02.2020
2303 Clouds 27 1014 51 10000 8.2 30 05:48 26.02.2020
2304 Rain 28 1014 54 10000 7.7 60 05:18 26.02.2020
2305 Clouds 26 1014 57 10000 8.7 90 03:20 26.02.2020
2306 Clouds 25 1013 64 10000 7.7 90 01:57 26.02.2020
2307 Clouds 23 1014 64 10000 7.7 90 01:24 26.02.2020
2308 Clouds 22 1013 73 10000 8.2 100 00:38 26.02.2020
2309 Clouds 22 1013 73 10000 8.2 100 00:19 26.02.2020
2310 Rain 21 1013 73 10000 6.2 90 23:41 25.02.2020
2311 Rain 21 1013 73 10000 6.2 90 23:21 25.02.2020
2312 Rain 21 1013 73 10000 8.7 90 22:43 25.02.2020
2313 Clouds 21 1013 73 10000 7.2 90 22:21 25.02.2020
2314 Clouds 21 1012 73 10000 10.3 90 21:59 25.02.2020
2315 Clouds 22 1012 73 10000 6.7 90 21:38 25.02.2020
2316 Clouds 22 1012 73 10000 6.7 90 21:20 25.02.2020
2317 Rain 22 1012 73 10000 6.7 90 20:56 25.02.2020
2318 Rain 22 1012 73 10000 6.7 90 20:56 25.02.2020
2319 Rain 22 1012 68 10000 6.7 80 20:37 25.02.2020
2320 Rain 22 1012 68 10000 6.7 80 20:19 25.02.2020
2321 Rain 22 1012 68 10000 7.7 100 19:44 25.02.2020
2322 Rain 22 1012 73 10000 8.2 90 19:23 25.02.2020
2323 Rain 22 1012 68 10000 6.2 100 18:59 25.02.2020
2324 -273 0 0 0 0 0 18:39 25.02.2020
2325 Rain 23 1012 64 10000 8.2 90 18:20 25.02.2020
2326 Clouds 24 1011 64 10000 10.3 80 17:55 25.02.2020
2327 Rain 24 1012 64 10000 7.7 90 17:36 25.02.2020
2328 Rain 24 1012 64 10000 7.7 90 17:18 25.02.2020
2329 Rain 25 1012 57 10000 9.3 90 16:42 25.02.2020
2330 Rain 25 1012 57 10000 9.3 90 16:22 25.02.2020
2331 Rain 25 1012 57 10000 9.3 90 16:22 25.02.2020
2332 Rain 26 1012 57 10000 10.3 90 15:59 25.02.2020
2333 Rain 26 1012 51 10000 8.7 100 15:41 25.02.2020
2334 Rain 26 1012 51 10000 8.7 100 15:20 25.02.2020
2335 Rain 26 1012 54 10000 8.7 90 14:58 25.02.2020
2336 Rain 27 1012 57 10000 7.7 110 14:38 25.02.2020
2337 Rain 27 1012 57 10000 7.7 110 14:18 25.02.2020
2338 Rain 27 1011 51 10000 9.8 100 13:57 25.02.2020
2339 Rain 27 1011 51 10000 7.7 110 13:38 25.02.2020
2340 Rain 28 1011 51 10000 7.7 110 13:20 25.02.2020
2341 Rain 27 1011 65 10000 7.2 100 12:42 25.02.2020
2342 Rain 27 1011 65 10000 7.2 100 12:23 25.02.2020
2343 Rain 26 1010 69 10000 7.2 100 11:59 25.02.2020
2344 Rain 27 1010 74 10000 6.7 170 11:41 25.02.2020
2345 Rain 27 1010 74 10000 6.7 170 11:19 25.02.2020
2346 Rain 26 1011 83 10000 6.7 180 10:59 25.02.2020
2347 Clouds 27 1011 43 10000 10.8 90 10:40 25.02.2020
2348 Clouds 28 1011 43 10000 10.8 90 10:22 25.02.2020
2349 Rain 32 1010 43 10000 8.7 120 09:42 25.02.2020
2350 Rain 33 1010 43 10000 8.7 120 09:22 25.02.2020
2351 Rain 33 1010 38 10000 9.3 100 08:54 25.02.2020
2352 Rain 33 1010 41 10000 7.7 100 08:36 25.02.2020
2353 Clear 33 1010 41 10000 7.7 100 08:18 25.02.2020
2354 Clouds 33 1011 41 10000 8.2 120 07:39 25.02.2020
2355 Clouds 33 1011 41 10000 8.2 120 07:19 25.02.2020
2356 Clear 32 1011 43 10000 6.7 90 06:32 25.02.2020
2357 Clouds 32 1011 41 10000 6.7 100 05:27 25.02.2020
2358 Clouds 30 1013 51 10000 8.2 110 03:30 25.02.2020
2359 Clouds 25 1013 61 10000 6.2 100 01:31 25.02.2020
2360 Clouds 24 1013 69 10000 4.1 110 00:43 25.02.2020
2361 Clouds 23 1013 73 10000 4.1 120 00:25 25.02.2020
2362 Clouds 22 1012 73 10000 4.1 100 23:40 24.02.2020
2363 Clouds 22 1012 73 10000 4.1 100 23:20 24.02.2020
2364 Clouds 22 1012 73 10000 5.1 90 22:39 24.02.2020
2365 Clouds 22 1012 73 10000 5.1 90 22:19 24.02.2020
2366 Clouds 22 1012 73 10000 3.6 90 21:57 24.02.2020
2367 Clouds 22 1011 73 10000 5.7 110 21:39 24.02.2020
2368 Clouds 22 1011 73 10000 5.7 110 21:19 24.02.2020
2369 Clouds 22 1011 73 10000 5.7 110 20:57 24.02.2020
2370 Clouds 22 1011 73 10000 5.1 70 20:38 24.02.2020
2371 Clouds 22 1011 73 10000 5.1 70 20:19 24.02.2020
2372 Clouds 22 1011 73 10000 5.7 100 19:56 24.02.2020
2373 Clouds 22 1011 73 10000 4.6 90 19:37 24.02.2020
2374 Clouds 22 1011 73 10000 4.6 90 19:19 24.02.2020
2375 Clouds 23 1011 73 10000 7.2 110 18:42 24.02.2020
2376 Clouds 23 1011 73 10000 7.2 110 18:24 24.02.2020
2377 Clouds 23 1012 73 10000 7.7 100 17:57 24.02.2020
2378 Clouds 23 1012 69 10000 7.2 100 17:38 24.02.2020
2379 Clouds 23 1012 69 10000 7.2 100 17:19 24.02.2020
2380 Clouds 23 1012 69 10000 7.7 110 16:55 24.02.2020
2381 -273 0 0 0 0 0 16:55 24.02.2020
2382 Clouds 24 1012 64 10000 5.7 110 16:37 24.02.2020
2383 Clouds 24 1012 64 10000 5.7 110 16:18 24.02.2020
2384 Clouds 24 1012 64 10000 5.1 130 15:56 24.02.2020
2385 Clear 25 1012 61 10000 4.1 90 15:38 24.02.2020
2386 Clear 25 1012 61 10000 4.1 90 15:19 24.02.2020
2387 Clear 25 1011 61 10000 3.6 140 14:41 24.02.2020
2388 Clear 25 1011 61 10000 3.6 140 14:23 24.02.2020
2389 Rain 26 1011 57 10000 6.2 120 13:59 24.02.2020
2390 Rain 26 1011 57 10000 4.6 130 13:40 24.02.2020
2391 Rain 27 1011 57 10000 4.6 130 13:22 24.02.2020
2392 Rain 27 1010 54 10000 7.7 120 12:58 24.02.2020
2393 Rain 28 1010 51 10000 7.2 120 12:39 24.02.2020
2394 Rain 28 1010 51 10000 7.2 120 12:21 24.02.2020
2395 Rain 29 1010 48 10000 8.2 120 11:47 24.02.2020
2396 Rain 29 1009 45 10000 8.2 120 11:29 24.02.2020
2397 -273 0 0 0 0 0 10:51 24.02.2020
2398 Clouds 31 1009 43 10000 8.2 120 10:31 24.02.2020
2399 Clouds 31 1009 43 10000 8.7 120 09:55 24.02.2020
2400 Clouds 31 1010 43 10000 7.7 130 09:37 24.02.2020
2401 Clouds 31 1010 43 10000 7.7 130 09:18 24.02.2020
2402 Clouds 30 1010 45 10000 8.7 90 08:47 24.02.2020
2403 Clouds 30 1010 45 10000 8.7 90 08:47 24.02.2020
2404 Clouds 31 1010 43 10000 6.7 130 08:28 24.02.2020
2405 Clouds 31 1010 43 10000 7.2 120 07:48 24.02.2020
2406 Clouds 30 1010 45 10000 7.2 110 07:28 24.02.2020
2407 Clouds 30 1011 45 10000 6.7 100 06:37 24.02.2020
2408 Clouds 29 1011 45 10000 6.7 100 06:18 24.02.2020
2409 Rain 31 1011 48 10000 6.2 100 05:30 24.02.2020
2410 Clouds 29 1012 51 10000 9.8 110 04:42 24.02.2020
2411 Clouds 27 1012 54 10000 8.7 90 02:56 24.02.2020
2412 Clouds 25 1013 57 10000 9.3 90 01:47 24.02.2020
2413 Clouds 23 1012 64 10000 7.7 100 00:59 24.02.2020
2414 Rain 23 1012 68 10000 6.2 100 00:28 24.02.2020
2415 Rain 22 1012 68 10000 6.2 100 23:59 23.02.2020
2416 Clouds 22 1012 64 10000 6.2 100 23:41 23.02.2020
2417 Clouds 22 1012 64 10000 6.2 100 23:19 23.02.2020
2418 Rain 22 1011 68 10000 7.7 110 22:56 23.02.2020
2419 Rain 22 1011 68 10000 7.7 110 22:37 23.02.2020
2420 Rain 22 1011 68 10000 7.7 110 22:18 23.02.2020
2421 Rain 21 1011 68 10000 6.2 120 21:44 23.02.2020
2422 Rain 21 1011 68 10000 7.7 110 21:20 23.02.2020
2423 Rain 22 1011 68 10000 5.1 110 20:56 23.02.2020
2424 Rain 22 1011 64 10000 5.1 130 20:38 23.02.2020
2425 Clouds 22 1011 64 10000 5.1 130 20:20 23.02.2020
2426 Clouds 22 1011 64 10000 7.7 110 19:56 23.02.2020
2427 Clouds 22 1012 68 10000 7.7 90 19:38 23.02.2020
2428 Clouds 22 1012 68 10000 7.7 90 19:18 23.02.2020
2429 Clouds 23 1012 56 10000 4.1 120 18:54 23.02.2020
2430 Clouds 23 1011 60 10000 3.6 130 18:36 23.02.2020
2431 Clouds 23 1011 60 10000 3.6 130 18:18 23.02.2020
2432 Clouds 23 1011 60 10000 3.6 130 18:18 23.02.2020
2433 Clouds 23 1011 57 10000 4.1 130 17:54 23.02.2020
2434 Clouds 24 1011 57 10000 7.7 100 17:36 23.02.2020
2435 Rain 24 1011 57 10000 7.7 100 17:18 23.02.2020
2436 Rain 25 1011 53 10000 9.3 110 16:42 23.02.2020
2437 Rain 26 1011 53 10000 9.3 110 16:23 23.02.2020
2438 Rain 26 1011 51 10000 7.2 120 15:56 23.02.2020
2439 Clouds 27 1012 51 10000 7.7 120 15:37 23.02.2020
2440 Clouds 27 1012 51 10000 7.7 120 15:19 23.02.2020
2441 Rain 28 1010 48 10000 7.7 110 14:55 23.02.2020
2442 Clouds 29 1010 37 10000 7.7 110 14:37 23.02.2020
2443 Clouds 29 1010 37 10000 7.7 110 14:19 23.02.2020
2444 Rain 29 1010 42 10000 6.2 130 13:55 23.02.2020
2445 Rain 30 1009 40 10000 6.2 130 13:36 23.02.2020
2446 Rain 30 1009 40 10000 6.2 130 13:18 23.02.2020
2447 Rain 30 1009 35 10000 6.2 120 12:40 23.02.2020
2448 Rain 30 1009 35 10000 6.2 120 12:20 23.02.2020
2449 Rain 31 1008 35 10000 5.1 130 11:39 23.02.2020
2450 Rain 32 1008 35 10000 5.1 130 11:20 23.02.2020
2451 Rain 32 1008 38 10000 5.1 250 10:58 23.02.2020
2452 Rain 32 1008 36 10000 6.2 230 10:40 23.02.2020
2453 Rain 32 1008 36 10000 6.2 230 10:21 23.02.2020
2454 Rain 31 1008 38 10000 5.7 260 09:56 23.02.2020
2455 Rain 31 1008 33 10000 2.6 130 09:37 23.02.2020
2456 Rain 32 1008 33 10000 2.6 130 09:18 23.02.2020
2457 Rain 31 1008 35 10000 3.6 110 08:44 23.02.2020
2458 Clouds 33 1009 33 10000 2.1 110 08:25 23.02.2020
2459 Clouds 32 1009 35 10000 3.1 190 07:44 23.02.2020
2460 Clouds 32 1009 35 10000 3.1 70 07:26 23.02.2020
2461 Clouds 32 1010 35 10000 2.1 20 06:20 23.02.2020
2462 Clouds 30 1011 40 10000 5.7 110 04:59 23.02.2020
2463 Clouds 29 1012 45 10000 6.2 100 03:53 23.02.2020
2464 Clouds 27 1012 57 10000 5.7 80 02:40 23.02.2020
2465 Clouds 24 1012 73 10000 3.1 120 01:27 23.02.2020
2466 Clouds 24 1012 73 10000 3.1 120 01:27 23.02.2020
2467 Clouds 23 1012 83 10000 4.6 110 00:58 23.02.2020
2468 Clouds 22 1012 83 10000 2.6 130 00:37 23.02.2020
2469 Clouds 21 1012 83 10000 2.6 130 00:18 23.02.2020
2470 Clouds 20 1012 88 10000 2.6 70 23:42 22.02.2020
2471 Clouds 20 1012 82 10000 4.6 80 23:20 22.02.2020
2472 Clouds 20 1011 82 10000 3.6 70 22:44 22.02.2020
2473 Clouds 20 1011 82 10000 4.1 80 22:19 22.02.2020
2474 Clouds 20 1011 93 10000 2.1 40 21:43 22.02.2020
2475 Clouds 20 1011 88 10000 1 120 21:25 22.02.2020
2476 Clouds 20 1011 88 10000 2.1 150 20:57 22.02.2020
2477 Clouds 20 1011 88 10000 2.1 110 20:38 22.02.2020
2478 Clouds 20 1011 88 10000 2.1 110 20:38 22.02.2020
2479 Clouds 21 1011 88 10000 3.1 80 20:20 22.02.2020
2480 Clouds 21 1011 83 10000 2.1 90 19:42 22.02.2020
2481 Clouds 21 1011 83 10000 2.1 90 19:23 22.02.2020
2482 Clouds 22 1011 77 10000 2.6 80 18:54 22.02.2020
2483 Clouds 22 1011 78 10000 3.1 70 18:36 22.02.2020
2484 Clouds 22 1011 78 10000 3.1 70 18:18 22.02.2020
2485 Clouds 23 1012 73 10000 3.6 60 17:43 22.02.2020
2486 Clouds 23 1012 73 10000 3.6 60 17:25 22.02.2020
2487 Clouds 23 1012 73 10000 3.6 60 16:58 22.02.2020
2488 Clouds 23 1012 73 10000 3.6 60 16:40 22.02.2020
2489 Clouds 23 1012 73 10000 3.6 60 16:20 22.02.2020
2490 Clouds 24 1012 73 10000 3.6 60 15:45 22.02.2020
2491 Clouds 24 1012 73 10000 2.6 50 15:45 22.02.2020
2492 Clouds 24 1012 73 10000 2.6 50 15:27 22.02.2020
2493 Clouds 24 1011 73 10000 2.6 70 14:57 22.02.2020
2494 Clouds 24 1011 73 10000 2.26 47 14:39 22.02.2020
2495 Clouds 24 1011 73 10000 2.77 178 14:19 22.02.2020
2496 Clouds 25 1011 73 10000 3.1 80 13:41 22.02.2020
2497 Clouds 25 1011 65 10000 2.6 250 13:20 22.02.2020
2498 Clouds 25 1010 69 10000 2.6 80 12:48 22.02.2020
2499 Clouds 25 1010 65 10000 3.1 100 12:24 22.02.2020
2500 Clouds 26 1009 61 10000 3.6 60 11:56 22.02.2020
2501 Clouds 27 1009 57 10000 3.6 70 11:37 22.02.2020
2502 Clouds 27 1009 57 10000 3.6 70 11:18 22.02.2020
2503 Clouds 27 1010 57 10000 2.6 60 10:40 22.02.2020
2504 Clouds 28 1010 57 10000 2.6 60 10:20 22.02.2020
2505 Clouds 28 1010 57 10000 3.1 30 09:58 22.02.2020
2506 Clouds 28 1009 54 10000 4.1 70 09:39 22.02.2020
2507 -273 0 0 0 0 0 09:21 22.02.2020
2508 Clouds 28 1010 57 10000 4.6 20 08:48 22.02.2020
2509 Clouds 28 1010 57 10000 4.6 20 08:28 22.02.2020
2510 Clouds 27 1010 57 10000 4.1 50 07:50 22.02.2020
2511 Clouds 28 1010 57 10000 4.6 60 07:20 22.02.2020
2512 Clouds 27 1011 57 10000 4.6 50 06:48 22.02.2020
2513 Clouds 27 1011 61 10000 4.6 50 06:29 22.02.2020
2514 Rain 25 1013 78 10000 4.6 80 04:33 22.02.2020
2515 Rain 24 1013 78 10000 4.6 80 04:33 22.02.2020
2516 Clouds 23 1013 78 10000 4.6 80 03:22 22.02.2020
2517 Clouds 22 1013 83 10000 5.1 80 02:29 22.02.2020
2518 Rain 21 1014 83 10000 3.6 60 01:45 22.02.2020
2519 Rain 21 1014 83 10000 3.6 60 01:45 22.02.2020
2520 Rain 21 1014 83 10000 3.6 60 01:25 22.02.2020
2521 Rain 21 1014 88 10000 3.1 60 00:45 22.02.2020
2522 Rain 21 1014 88 10000 3.1 60 00:26 22.02.2020
2523 Rain 21 1014 88 9000 2.6 30 23:45 21.02.2020
2524 Rain 21 1014 88 9000 2.6 30 23:22 21.02.2020
2525 Rain 21 1013 73 10000 3.1 360 22:54 21.02.2020
2526 Rain 22 1013 56 10000 3.6 320 22:36 21.02.2020
2527 Rain 23 1013 56 10000 3.6 320 22:18 21.02.2020
2528 Rain 24 1012 47 10000 4.6 20 21:41 21.02.2020
2529 Rain 24 1012 47 10000 4.6 20 21:23 21.02.2020
2530 Rain 23 1011 44 10000 4.1 70 20:48 21.02.2020
2531 Rain 24 1012 47 10000 4.6 40 20:29 21.02.2020
2532 Rain 24 1012 56 10000 0.5 360 19:44 21.02.2020
2533 Rain 24 1012 41 10000 2.6 80 19:24 21.02.2020
2534 Rain 25 1012 39 10000 2.6 80 18:56 21.02.2020
2535 Rain 26 1012 34 10000 3.1 70 18:38 21.02.2020
2536 Rain 26 1012 34 10000 3.1 70 18:19 21.02.2020
2537 Rain 27 1012 30 10000 5.7 100 17:40 21.02.2020
2538 Clouds 27 1012 30 10000 5.7 100 17:21 21.02.2020
2539 Clouds 27 1012 30 10000 5.7 100 17:21 21.02.2020
2540 Clouds 27 1012 30 10000 4.6 80 16:57 21.02.2020
2541 Clouds 28 1012 30 10000 3.6 80 16:39 21.02.2020
2542 Clouds 28 1012 30 10000 3.6 80 16:20 21.02.2020
2543 Clouds 28 1012 30 10000 8.2 100 15:45 21.02.2020
2544 Clouds 28 1013 30 10000 2.1 60 15:19 21.02.2020
2545 Clouds 28 1013 30 10000 2.6 100 14:57 21.02.2020
2546 Clouds 28 1013 32 10000 3.6 120 14:39 21.02.2020
2547 Clouds 28 1013 32 10000 3.6 120 14:19 21.02.2020
2548 Clouds 28 1012 32 10000 4.1 140 13:42 21.02.2020
2549 Clouds 28 1012 32 10000 4.1 140 13:42 21.02.2020
2550 Clouds 28 1012 32 10000 4.1 140 13:23 21.02.2020
2551 Clouds 28 1012 32 10000 4.1 120 12:50 21.02.2020
2552 Clouds 29 1012 30 10000 4.6 110 12:28 21.02.2020
2553 Clouds 30 1012 28 10000 4.6 100 11:59 21.02.2020
2554 Clouds 30 1012 30 10000 6.2 100 11:40 21.02.2020
2555 Clouds 30 1012 30 10000 6.2 100 11:21 21.02.2020
2556 Clouds 30 1012 30 10000 3.6 100 10:55 21.02.2020
2557 Clouds 31 1012 27 10000 6.2 40 10:36 21.02.2020
2558 Clouds 31 1012 27 10000 6.2 40 10:18 21.02.2020
2559 Clouds 31 1012 27 10000 6.2 40 10:18 21.02.2020
2560 Clouds 31 1012 25 10000 6.7 90 09:42 21.02.2020
2561 Clouds 30 1012 25 10000 6.7 90 09:24 21.02.2020
2562 Clouds 30 1012 25 10000 7.7 70 08:58 21.02.2020
2563 Clouds 31 1013 27 10000 6.2 70 08:39 21.02.2020
2564 Clouds 31 1013 27 10000 6.2 70 08:21 21.02.2020
2565 Clouds 31 1013 28 10000 6.2 80 07:55 21.02.2020
2566 Clouds 31 1013 25 10000 7.7 70 07:36 21.02.2020
2567 Clouds 31 1013 25 10000 7.7 70 07:18 21.02.2020
2568 Clouds 31 1013 22 10000 6.7 100 06:39 21.02.2020
2569 Clouds 32 1013 22 10000 6.7 100 06:21 21.02.2020
2570 Clouds 31 1015 28 10000 5.1 90 05:35 21.02.2020
2571 Clouds 29 1015 32 10000 7.7 80 04:26 21.02.2020
2572 Clouds 28 1016 34 10000 8.2 80 03:52 21.02.2020
2573 Clouds 27 1016 39 10000 9.3 80 02:59 21.02.2020
2574 Clouds 26 1016 44 10000 6.2 70 01:44 21.02.2020
2575 Clouds 26 1016 39 10000 5.1 70 01:22 21.02.2020
2576 Clouds 25 1015 46 10000 8.2 90 00:39 21.02.2020
2577 Clouds 24 1015 46 10000 8.2 90 00:20 21.02.2020
2578 Clouds 24 1015 46 10000 9.3 90 23:41 20.02.2020
2579 Clouds 23 1015 46 10000 9.3 90 23:22 20.02.2020
2580 Clouds 24 1014 46 10000 8.7 90 22:42 20.02.2020
2581 Clouds 24 1014 46 10000 8.7 90 22:24 20.02.2020
2582 Clouds 24 1014 44 10000 7.7 90 21:58 20.02.2020
2583 Clouds 24 1014 44 10000 9.3 90 21:40 20.02.2020
2584 Clouds 24 1014 44 10000 9.3 90 21:20 20.02.2020
2585 Clouds 24 1014 44 10000 8.7 80 20:57 20.02.2020
2586 Clouds 25 1013 41 10000 9.8 90 20:39 20.02.2020
2587 Clouds 25 1013 41 10000 9.8 90 20:20 20.02.2020
2588 Clouds 25 1014 41 10000 8.7 90 19:59 20.02.2020
2589 Clouds 26 1014 36 10000 8.7 90 19:41 20.02.2020
2590 Clouds 26 1014 36 10000 8.7 90 19:22 20.02.2020
2591 Clouds 26 1014 36 10000 8.7 90 18:55 20.02.2020
2592 Clouds 26 1014 34 10000 6.7 90 18:37 20.02.2020
2593 Clouds 27 1013 24 10000 7.2 110 18:18 20.02.2020
2594 Clouds 27 1013 24 10000 7.2 110 17:39 20.02.2020
2595 Clouds 27 1013 23 10000 7.7 100 17:19 20.02.2020
2596 Clouds 28 1013 23 10000 7.7 100 16:56 20.02.2020
2597 Clouds 27 1013 23 10000 6.7 100 16:38 20.02.2020
2598 Clouds 27 1013 23 10000 6.7 100 16:19 20.02.2020
2599 Clouds 28 1013 23 10000 5.7 100 15:43 20.02.2020
2600 Clouds 28 1013 23 10000 5.1 110 15:24 20.02.2020
2601 Clouds 28 1013 21 10000 4.1 110 14:58 20.02.2020
2602 Clouds 28 1013 21 10000 4.6 90 14:40 20.02.2020
2603 Clouds 28 1013 21 10000 4.6 90 14:21 20.02.2020
2604 Clouds 29 1012 24 10000 4.1 100 13:55 20.02.2020
2605 Clouds 29 1012 22 10000 3.1 110 13:37 20.02.2020
2606 Clouds 30 1012 22 10000 3.1 110 13:18 20.02.2020
2607 Clouds 30 1012 22 10000 3.1 110 13:18 20.02.2020
2608 Clouds 31 1011 21 10000 3.6 110 12:42 20.02.2020
2609 Clouds 32 1011 21 10000 3.6 110 12:21 20.02.2020
2610 Clouds 31 1011 19 10000 4.6 100 11:58 20.02.2020
2611 Clouds 32 1011 18 10000 7.7 100 11:39 20.02.2020
2612 Clouds 33 1011 18 10000 7.7 100 11:20 20.02.2020
2613 Clouds 33 1011 17 10000 6.7 90 10:56 20.02.2020
2614 Clouds 34 1011 16 10000 6.7 100 10:37 20.02.2020
2615 Clouds 34 1011 16 10000 6.7 100 10:19 20.02.2020
2616 Clouds 34 1011 17 10000 6.2 120 09:39 20.02.2020
2617 Clouds 34 1011 17 10000 6.2 120 09:20 20.02.2020
2618 Clouds 34 1011 16 10000 6.7 80 08:42 20.02.2020
2619 Clouds 35 1011 16 10000 6.7 80 08:24 20.02.2020
2620 Clouds 35 1011 16 10000 5.7 70 07:47 20.02.2020
2621 Clouds 35 1012 19 10000 7.2 70 07:27 20.02.2020
2622 Clouds 35 1012 19 10000 7.2 70 07:27 20.02.2020
2623 Clouds 35 1012 19 10000 7.2 70 06:57 20.02.2020
2624 Clouds 35 1012 20 10000 6.2 110 06:37 20.02.2020
2625 Clouds 34 1013 23 10000 7.2 90 05:47 20.02.2020
2626 Clouds 33 1013 24 10000 6.7 60 05:20 20.02.2020
2627 Clouds 32 1014 29 10000 5.7 70 04:37 20.02.2020
2628 Clouds 31 1014 31 10000 6.7 70 03:46 20.02.2020
2629 Clouds 31 1014 31 10000 6.7 70 03:46 20.02.2020
2630 Clouds 30 1014 35 10000 7.2 80 02:45 20.02.2020
2631 Clouds 27 1014 39 10000 9.8 100 01:23 20.02.2020
2632 Clouds 26 1013 36 10000 8.7 90 00:37 20.02.2020
2633 Clouds 25 1013 33 10000 8.2 90 23:55 19.02.2020
2634 Clouds 26 1012 36 10000 8.2 90 23:24 19.02.2020
2635 Clouds 26 1012 34 10000 7.2 90 22:59 19.02.2020
2636 Clouds 26 1012 36 10000 6.7 80 22:41 19.02.2020
2637 Clouds 26 1012 36 10000 6.7 80 22:41 19.02.2020
2638 Clouds 26 1012 36 10000 6.7 80 22:21 19.02.2020
2639 Clouds 26 1011 36 10000 7.7 90 21:57 19.02.2020
2640 Clouds 27 1011 34 10000 6.7 80 21:38 19.02.2020
2641 Clouds 27 1011 34 10000 6.7 80 21:18 19.02.2020
2642 Clouds 27 1011 34 10000 6.7 80 21:18 19.02.2020
2643 Clouds 27 1011 34 10000 6.2 70 20:55 19.02.2020
2644 Clouds 27 1011 32 10000 7.2 80 20:36 19.02.2020
2645 Clouds 28 1011 32 10000 7.2 80 20:18 19.02.2020
2646 Clouds 28 1011 32 10000 6.2 70 19:56 19.02.2020
2647 Clouds 28 1011 32 10000 7.7 70 19:37 19.02.2020
2648 Clouds 28 1011 32 10000 7.7 70 19:18 19.02.2020
2649 Clouds 28 1011 32 10000 7.7 70 18:56 19.02.2020
2650 Clouds 28 1011 34 10000 7.7 70 18:37 19.02.2020
2651 Clouds 28 1011 34 10000 7.7 70 18:19 19.02.2020
2652 Clouds 28 1011 32 10000 6.7 60 17:42 19.02.2020
2653 Rain 29 1011 32 10000 6.7 60 17:19 19.02.2020
2654 Rain 29 1011 32 10000 6.2 50 16:44 19.02.2020
2655 Rain 28 1011 35 10000 7.2 70 16:19 19.02.2020
2656 Rain 28 1011 35 10000 8.7 90 15:58 19.02.2020
2657 Rain 29 1010 33 10000 7.7 90 15:39 19.02.2020
2658 Rain 29 1010 33 10000 7.7 90 15:20 19.02.2020
2659 Rain 28 1010 33 10000 6.7 90 14:42 19.02.2020
2660 Rain 29 1010 33 10000 6.7 90 14:23 19.02.2020
2661 Rain 29 1010 35 10000 3.6 90 13:59 19.02.2020
2662 Rain 29 1010 31 10000 3.6 110 13:39 19.02.2020
2663 Rain 29 1010 31 10000 3.6 110 13:19 19.02.2020
2664 Rain 30 1009 27 10000 4.6 120 12:40 19.02.2020
2665 Rain 30 1009 27 10000 4.6 120 12:19 19.02.2020
2666 Rain 30 1009 27 10000 6.2 120 11:55 19.02.2020
2667 Rain 31 1009 29 10000 5.7 180 11:37 19.02.2020
2668 Rain 32 1009 29 10000 5.7 180 11:18 19.02.2020
2669 Rain 32 1009 31 10000 6.7 180 10:56 19.02.2020
2670 Rain 32 1009 31 10000 7.7 180 10:37 19.02.2020
2671 Rain 32 1009 31 10000 7.7 180 10:18 19.02.2020
2672 Rain 32 1009 30 10000 7.2 190 09:54 19.02.2020
2673 Clouds 32 1009 26 10000 6.2 120 09:36 19.02.2020
2674 Clouds 32 1009 26 10000 6.2 120 09:18 19.02.2020
2675 Rain 33 1010 26 10000 5.1 100 08:42 19.02.2020
2676 Rain 33 1010 26 10000 5.1 100 08:42 19.02.2020
2677 Clouds 34 1010 26 10000 5.1 100 08:23 19.02.2020
2678 Rain 34 1010 24 10000 2.6 40 07:41 19.02.2020
2679 Rain 34 1010 24 10000 2.6 40 07:20 19.02.2020
2680 Rain 35 1011 24 10000 3.1 170 06:47 19.02.2020
2681 Rain 35 1011 26 10000 3.6 90 05:40 19.02.2020
2682 Rain 32 1012 27 10000 7.2 70 03:59 19.02.2020
2683 Rain 29 1013 34 10000 8.2 70 02:49 19.02.2020
2684 Clouds 27 1013 39 10000 6.2 80 01:54 19.02.2020
2685 Rain 25 1012 31 10000 7.7 80 01:23 19.02.2020
2686 Rain 24 1013 43 10000 5.7 90 00:43 19.02.2020
2687 Rain 23 1013 43 10000 5.7 90 00:23 19.02.2020
2688 Rain 23 1012 43 10000 5.1 90 23:41 18.02.2020
2689 Clouds 23 1012 43 10000 5.1 90 23:20 18.02.2020
2690 Clouds 23 1012 43 10000 6.2 90 22:55 18.02.2020
2691 Clouds 23 1012 43 10000 7.7 100 22:37 18.02.2020
2692 Clouds 23 1012 43 10000 7.7 100 22:19 18.02.2020
2693 Clouds 24 1011 38 10000 7.7 100 21:55 18.02.2020
2694 Clouds 25 1012 36 10000 7.7 100 21:36 18.02.2020
2695 Clouds 25 1012 36 10000 7.7 100 21:18 18.02.2020
2696 Clouds 26 1011 31 10000 7.7 100 20:54 18.02.2020
2697 Clouds 26 1012 30 10000 6.2 90 20:36 18.02.2020
2698 Clouds 27 1011 30 10000 8.7 90 20:18 18.02.2020
2699 Rain 27 1012 30 10000 7.2 80 19:42 18.02.2020
2700 Rain 27 1012 30 10000 7.2 80 19:19 18.02.2020
2701 Clouds 28 1012 28 10000 6.7 100 18:56 18.02.2020
2702 Clouds 28 1012 28 10000 6.7 100 18:56 18.02.2020
2703 Clouds 28 1012 28 10000 6.2 100 18:38 18.02.2020
2704 Clouds 28 1012 28 10000 6.2 100 18:18 18.02.2020
2705 Clouds 28 1011 30 10000 7.7 90 17:40 18.02.2020
2706 Clouds 28 1011 30 10000 7.7 90 17:19 18.02.2020
2707 Clouds 28 1012 30 10000 7.2 90 16:40 18.02.2020
2708 Clouds 28 1012 30 10000 7.2 90 16:22 18.02.2020
2709 Clouds 29 1012 30 10000 7.2 90 15:55 18.02.2020
2710 Clouds 29 1012 28 10000 4.6 90 15:37 18.02.2020
2711 Clouds 29 1012 28 10000 4.6 90 15:18 18.02.2020
2712 Clouds 29 1013 28 10000 4.6 90 14:55 18.02.2020
2713 Clouds 29 1013 28 10000 4.6 90 14:36 18.02.2020
2714 Clouds 29 1013 28 10000 4.6 90 14:18 18.02.2020
2715 Clouds 29 1012 30 10000 3.6 120 13:41 18.02.2020
2716 Clouds 30 1012 30 10000 3.6 120 13:21 18.02.2020
2717 Clouds 30 1012 28 10000 4.6 130 12:47 18.02.2020
2718 Clouds 31 1011 27 10000 5.7 110 12:29 18.02.2020
2719 Clouds 31 1011 25 10000 6.7 110 11:59 18.02.2020
2720 Clouds 31 1011 25 10000 6.7 110 11:59 18.02.2020
2721 Clouds 31 1011 24 10000 7.7 120 11:41 18.02.2020
2722 Clouds 33 1011 24 10000 7.7 120 11:22 18.02.2020
2723 Clouds 33 1012 24 10000 7.7 60 10:44 18.02.2020
2724 Clouds 33 1012 24 10000 7.7 60 10:24 18.02.2020
2725 Clouds 33 1012 24 10000 6.2 60 09:57 18.02.2020
2726 Clouds 33 1012 26 10000 6.7 100 09:39 18.02.2020
2727 Clouds 33 1012 26 10000 6.7 100 09:20 18.02.2020
2728 Clouds 33 1013 24 10000 6.7 90 08:57 18.02.2020
2729 Clouds 33 1013 26 10000 6.7 80 08:38 18.02.2020
2730 Clouds 33 1013 26 10000 6.7 80 08:19 18.02.2020
2731 Clouds 32 1013 25 10000 4.6 100 07:48 18.02.2020
2732 Clouds 32 1014 25 10000 6.7 110 07:25 18.02.2020
2733 Clouds 31 1014 29 10000 7.2 110 06:55 18.02.2020
2734 Clouds 31 1015 27 10000 6.2 130 06:29 18.02.2020
2735 Clouds 31 1015 28 10000 7.7 110 05:48 18.02.2020
2736 Clouds 29 1016 30 10000 7.7 90 05:21 18.02.2020
2737 Clouds 27 1017 34 10000 9.8 100 03:52 18.02.2020
2738 Clouds 25 1018 38 10000 9.3 90 02:58 18.02.2020
2739 Clouds 21 1018 49 10000 9.8 90 01:25 18.02.2020
2740 Clouds 19 1018 52 10000 10.3 90 00:40 18.02.2020
2741 Clouds 19 1018 52 10000 10.3 90 00:18 18.02.2020
2742 Clouds 18 1018 55 10000 6.7 90 23:39 17.02.2020
2743 Clouds 18 1018 55 10000 6.7 90 23:19 17.02.2020
2744 Clouds 17 1017 55 10000 9.8 90 22:58 17.02.2020
2745 Clouds 17 1017 55 10000 10.8 90 22:39 17.02.2020
2746 Clouds 17 1017 55 10000 10.8 90 22:18 17.02.2020
2747 Clouds 18 1017 52 10000 12.3 90 21:39 17.02.2020
2748 Clouds 18 1017 52 10000 12.3 90 21:19 17.02.2020
2749 Clouds 18 1017 52 10000 15.4 100 20:55 17.02.2020
2750 Clouds 18 1017 52 10000 14.9 100 20:37 17.02.2020
2751 Clouds 18 1017 52 10000 14.9 100 20:18 17.02.2020
2752 Clouds 18 1017 52 10000 14.9 100 20:18 17.02.2020
2753 Clouds 18 1018 55 10000 7.7 100 19:42 17.02.2020
2754 Clouds 19 1018 55 10000 7.7 100 19:21 17.02.2020
2755 Clouds 19 1018 52 10000 8.7 110 18:55 17.02.2020
2756 Clouds 19 1019 52 10000 8.2 100 18:36 17.02.2020
2757 Clouds 19 1019 52 10000 8.2 100 18:36 17.02.2020
2758 Clouds 19 1019 52 10000 8.2 100 18:36 17.02.2020
2759 Clouds 20 1019 52 10000 8.2 100 18:18 17.02.2020
2760 Clouds 21 1018 46 10000 9.3 100 17:38 17.02.2020
2761 Clear 21 1018 46 10000 9.3 100 17:19 17.02.2020
2762 Clear 22 1018 43 10000 10.8 110 16:58 17.02.2020
2763 Clear 22 1018 40 10000 11.8 100 16:40 17.02.2020
2764 Clear 23 1018 40 10000 11.8 100 16:21 17.02.2020
2765 Clear 24 1018 38 10000 10.8 110 15:46 17.02.2020
2766 Clear 25 1017 33 10000 9.8 110 15:27 17.02.2020
2767 Clear 25 1018 29 10000 7.2 120 14:58 17.02.2020
2768 Clear 26 1017 29 10000 3.6 150 14:39 17.02.2020
2769 Clear 26 1017 29 10000 3.6 150 14:20 17.02.2020
2770 Clear 26 1017 28 10000 4.6 130 13:55 17.02.2020
2771 Clear 27 1017 26 10000 5.1 130 13:36 17.02.2020
2772 Clear 27 1017 26 10000 5.1 130 13:36 17.02.2020
2773 Clear 27 1017 26 10000 5.1 130 13:36 17.02.2020
2774 Clear 27 1017 26 10000 5.1 130 13:18 17.02.2020
2775 Clear 27 1017 26 10000 5.1 130 13:18 17.02.2020
2776 Clear 28 1016 26 10000 5.1 110 12:42 17.02.2020
2777 Clear 27 1016 26 10000 5.1 110 12:22 17.02.2020
2778 Clear 29 1016 25 10000 6.7 120 11:50 17.02.2020
2779 Clear 29 1016 23 10000 6.7 110 11:29 17.02.2020
2780 Clear 30 1016 24 10000 5.7 140 10:58 17.02.2020
2781 Clear 31 1016 24 10000 5.7 100 10:40 17.02.2020
2782 Clear 30 1016 24 10000 5.7 100 10:21 17.02.2020
2783 Clear 30 1016 24 10000 5.7 100 10:21 17.02.2020
2784 -273 0 0 0 0 0 09:58 17.02.2020
2785 Clear 30 1016 25 10000 5.1 90 09:40 17.02.2020
2786 Clear 30 1016 25 10000 5.1 90 09:19 17.02.2020
2787 Clear 31 1016 24 10000 5.1 120 08:56 17.02.2020
2788 Clear 30 1016 25 10000 6.2 110 08:38 17.02.2020
2789 Clouds 30 1016 25 10000 6.2 110 08:19 17.02.2020
2790 Clouds 30 1017 25 10000 5.7 90 07:39 17.02.2020
2791 Clouds 30 1017 25 10000 5.7 90 07:21 17.02.2020
2792 Clouds 31 1017 29 10000 6.7 100 06:46 17.02.2020
2793 Clouds 31 1017 30 10000 3.6 110 06:27 17.02.2020
2794 Clouds 30 1018 35 10000 3.6 140 05:40 17.02.2020
2795 Clouds 27 1019 39 10000 4.6 100 04:39 17.02.2020
2796 Clouds 25 1020 47 10000 5.7 90 02:59 17.02.2020
2797 Clouds 22 1020 53 10000 5.1 120 01:23 17.02.2020
2798 Clouds 20 1020 60 10000 3.1 170 00:39 17.02.2020
2799 Clouds 19 1020 60 10000 3.1 170 00:19 17.02.2020
2800 Clouds 18 1019 63 10000 3.1 180 23:48 16.02.2020
2801 Clouds 18 1019 63 10000 3.6 180 23:27 16.02.2020
2802 Clouds 18 1019 63 10000 3.6 160 22:56 16.02.2020
2803 Clouds 18 1019 63 10000 3.1 150 22:38 16.02.2020
2804 Clouds 19 1019 63 10000 3.1 150 22:19 16.02.2020
2805 Clouds 19 1018 63 10000 4.1 170 21:43 16.02.2020
2806 Clouds 19 1018 68 10000 4.6 150 21:24 16.02.2020
2807 Clouds 19 1018 68 10000 5.7 140 20:59 16.02.2020
2808 Clouds 19 1018 68 10000 5.7 150 20:41 16.02.2020
2809 Clear 19 1018 68 10000 5.7 150 20:22 16.02.2020
2810 Clear 18 1017 72 10000 4.1 190 19:59 16.02.2020
2811 Clear 19 1017 68 10000 5.1 190 19:40 16.02.2020
2812 Clear 18 1017 68 10000 5.1 190 19:19 16.02.2020
2813 Clear 18 1017 68 10000 5.7 190 18:59 16.02.2020
2814 Clear 19 1017 68 10000 5.7 190 18:41 16.02.2020
2815 Clear 18 1017 68 10000 5.7 190 18:22 16.02.2020
2816 Clear 18 1017 68 10000 5.7 190 18:22 16.02.2020
2817 Clear 19 1017 68 10000 5.7 190 17:44 16.02.2020
2818 Clear 19 1017 68 10000 5.7 190 17:21 16.02.2020
2819 Clear 20 1016 68 10000 5.7 200 16:57 16.02.2020
2820 Clear 20 1016 68 10000 6.2 200 16:39 16.02.2020
2821 Clear 20 1016 68 10000 6.2 200 16:21 16.02.2020
2822 Clear 20 1016 68 10000 5.7 190 15:56 16.02.2020
2823 Clear 20 1016 68 10000 5.7 190 15:56 16.02.2020
2824 Clear 21 1016 64 10000 5.7 210 15:37 16.02.2020
2825 Clear 21 1016 64 10000 5.7 210 15:18 16.02.2020
2826 Clear 21 1016 64 10000 5.7 210 14:39 16.02.2020
2827 Clear 21 1016 64 10000 5.7 210 14:21 16.02.2020
2828 Clear 21 1016 68 10000 5.1 210 13:46 16.02.2020
2829 Clear 21 1015 64 10000 6.2 200 13:24 16.02.2020
2830 Clouds 21 1015 68 10000 6.2 190 12:55 16.02.2020
2831 Clouds 22 1015 68 10000 6.2 190 12:36 16.02.2020
2832 Clouds 22 1015 68 10000 6.2 190 12:18 16.02.2020
2833 Clouds 23 1014 60 10000 6.2 190 11:39 16.02.2020
2834 Clouds 23 1014 60 10000 6.2 190 11:18 16.02.2020
2835 Clouds 24 1014 57 10000 6.2 190 10:56 16.02.2020
2836 Clouds 24 1014 53 10000 6.2 190 10:38 16.02.2020
2837 Clouds 24 1014 53 10000 6.2 190 10:19 16.02.2020
2838 Clouds 25 1014 50 10000 8.2 230 09:55 16.02.2020
2839 Clear 25 1014 47 10000 7.7 230 09:36 16.02.2020
2840 Clear 25 1014 47 10000 7.7 230 09:18 16.02.2020
2841 Clear 26 1014 42 10000 7.2 240 08:45 16.02.2020
2842 Clear 27 1014 42 10000 7.2 240 08:21 16.02.2020
2843 Clear 26 1014 47 10000 7.2 240 07:51 16.02.2020
2844 Clear 26 1014 47 10000 7.2 240 07:51 16.02.2020
2845 Clear 26 1014 47 10000 7.7 250 07:33 16.02.2020
2846 Clouds 26 1014 47 10000 7.7 270 06:33 16.02.2020
2847 Clouds 25 1015 44 10000 6.7 190 04:43 16.02.2020
2848 Clouds 24 1015 50 10000 5.7 200 03:29 16.02.2020
2849 Clouds 22 1015 49 10000 6.7 170 02:32 16.02.2020
2850 Clouds 21 1015 60 10000 6.7 170 01:42 16.02.2020
2851 Clouds 21 1015 60 10000 6.7 170 01:22 16.02.2020
2852 Clouds 20 1015 68 10000 4.1 170 00:52 16.02.2020
2853 Clouds 19 1015 68 10000 4.6 180 00:31 16.02.2020
2854 Clouds 18 1015 72 10000 4.6 190 23:46 15.02.2020
2855 Clouds 17 1014 72 10000 5.1 190 23:26 15.02.2020
2856 Clouds 18 1014 77 10000 5.7 180 22:59 15.02.2020
2857 Clouds 18 1013 72 10000 7.2 190 22:41 15.02.2020
2858 Clouds 18 1013 72 10000 7.2 190 22:21 15.02.2020
2859 Clouds 19 1013 72 10000 5.7 210 21:59 15.02.2020
2860 Clouds 19 1012 68 10000 5.7 210 21:39 15.02.2020
2861 Clouds 19 1012 68 10000 5.7 210 21:21 15.02.2020
2862 Clouds 20 1012 72 10000 4.6 220 20:40 15.02.2020
2863 Clouds 20 1012 72 10000 4.6 220 20:21 15.02.2020
2864 Clouds 20 1012 68 10000 5.7 230 19:44 15.02.2020
2865 Clouds 20 1012 72 10000 4.1 240 19:22 15.02.2020
2866 Clouds 20 1012 72 10000 4.1 240 18:45 15.02.2020
2867 Clouds 20 1012 72 10000 5.1 240 18:24 15.02.2020
2868 Clouds 20 1012 68 10000 5.1 250 17:58 15.02.2020
2869 Clouds 20 1012 68 10000 5.1 250 17:58 15.02.2020
2870 Clouds 20 1012 68 10000 5.1 250 17:58 15.02.2020
2871 Clouds 21 1012 68 10000 5.7 230 17:39 15.02.2020
2872 Clouds 21 1012 68 10000 5.7 230 17:39 15.02.2020
2873 Clouds 21 1012 68 10000 5.7 230 17:21 15.02.2020
2874 Clouds 21 1012 73 10000 6.7 230 16:43 15.02.2020
2875 Clouds 21 1012 73 10000 6.7 230 16:25 15.02.2020
2876 Clouds 21 1012 77 10000 4.1 240 15:59 15.02.2020
2877 Clouds 21 1012 77 10000 4.6 240 15:41 15.02.2020
2878 Clouds 21 1012 77 10000 4.6 240 15:22 15.02.2020
2879 Drizzle 21 1012 77 10000 5.1 220 14:45 15.02.2020
2880 Clouds 21 1012 83 10000 5.1 210 14:19 15.02.2020
2881 Clouds 21 1011 83 10000 4.6 220 13:56 15.02.2020
2882 Clouds 21 1011 83 10000 4.6 220 13:56 15.02.2020
2883 Clouds 22 1011 78 10000 5.7 230 13:38 15.02.2020
2884 Clouds 22 1011 78 10000 5.7 230 13:20 15.02.2020
2885 Clouds 22 1011 78 10000 5.1 220 12:42 15.02.2020
2886 Clouds 22 1011 78 10000 5.1 220 12:24 15.02.2020
2887 Clouds 22 1011 78 10000 5.7 230 11:52 15.02.2020
2888 Rain 22 1011 78 10000 5.7 230 11:33 15.02.2020
2889 Rain 22 1010 78 10000 7.2 250 10:57 15.02.2020
2890 Clouds 22 1011 83 10000 7.2 250 10:38 15.02.2020
2891 Clouds 23 1011 83 10000 7.2 250 10:19 15.02.2020
2892 Clouds 23 1011 83 10000 7.7 240 09:43 15.02.2020
2893 Clouds 23 1011 83 10000 7.7 240 09:25 15.02.2020
2894 Clouds 23 1010 78 10000 6.7 260 08:44 15.02.2020
2895 Clouds 23 1010 78 10000 6.7 260 08:25 15.02.2020
2896 Haze 24 1010 78 10000 4.6 260 07:59 15.02.2020
2897 Clouds 24 1010 88 5000 6.2 260 07:39 15.02.2020
2898 Clouds 24 1010 88 5000 6.2 260 07:18 15.02.2020
2899 Clouds 25 1010 65 10000 5.1 270 06:37 15.02.2020
2900 Clouds 25 1010 65 10000 5.1 290 05:54 15.02.2020
2901 Clouds 25 1010 69 10000 4.6 290 04:48 15.02.2020
2902 Clouds 25 1010 65 10000 4.6 290 03:45 15.02.2020
2903 Clouds 25 1010 69 10000 7.2 270 02:58 15.02.2020
2904 Clouds 25 1010 69 10000 5.7 330 02:23 15.02.2020
2905 Clouds 24 1010 78 10000 4.6 290 01:41 15.02.2020
2906 Clouds 23 1009 83 10000 4.1 350 00:43 15.02.2020
2907 Clouds 23 1009 83 10000 4.1 350 00:24 15.02.2020
2908 Clouds 23 1008 88 10000 3.6 10 23:42 14.02.2020
2909 Clouds 23 1008 88 10000 3.6 10 23:20 14.02.2020
2910 Clouds 23 1008 88 10000 4.1 30 22:45 14.02.2020
2911 Clouds 22 1008 88 10000 4.1 30 22:24 14.02.2020
2912 Clouds 22 1008 88 10000 4.1 40 21:54 14.02.2020
2913 Clouds 22 1007 88 10000 3.6 20 21:36 14.02.2020
2914 Clouds 22 1007 88 10000 3.6 20 21:18 14.02.2020
2915 Clouds 22 1007 88 10000 4.6 30 20:42 14.02.2020
2916 Clouds 23 1007 88 10000 4.6 30 20:19 14.02.2020
2917 Clouds 22 1007 88 10000 3.6 40 19:56 14.02.2020
2918 Clear 23 1007 88 10000 3.1 30 19:38 14.02.2020
2919 Clear 23 1007 88 10000 3.1 30 19:18 14.02.2020
2920 Clouds 23 1007 83 10000 4.1 320 18:55 14.02.2020
2921 Clouds 23 1007 83 10000 4.1 320 18:55 14.02.2020
2922 Clouds 23 1007 78 10000 4.1 320 18:37 14.02.2020
2923 Clouds 23 1007 78 10000 4.1 320 18:18 14.02.2020
2924 Clouds 24 1007 78 10000 4.1 320 17:41 14.02.2020
2925 Clouds 23 1007 78 10000 4.1 320 17:19 14.02.2020
2926 Clear 24 1007 69 10000 3.6 20 16:57 14.02.2020
2927 Clear 24 1007 69 10000 2.6 20 16:38 14.02.2020
2928 Clear 24 1007 69 10000 2.6 20 16:19 14.02.2020
2929 Clear 24 1007 65 10000 2.1 290 15:54 14.02.2020
2930 Clear 25 1007 64 10000 2.6 290 15:36 14.02.2020
2931 Clear 25 1007 64 10000 2.6 290 15:18 14.02.2020
2932 Clear 26 1007 54 10000 3.1 250 14:42 14.02.2020
2933 Clear 26 1007 54 10000 3.1 250 14:22 14.02.2020
2934 Clear 27 1007 51 10000 3.1 280 13:58 14.02.2020
2935 Clear 27 1007 42 10000 3.1 250 13:39 14.02.2020
2936 Clouds 27 1007 42 10000 3.1 250 13:20 14.02.2020
2937 Clouds 28 1007 38 10000 3.6 240 12:57 14.02.2020
2938 Clouds 30 1006 33 10000 5.7 230 12:38 14.02.2020
2939 Clouds 30 1006 33 10000 5.7 230 12:20 14.02.2020
2940 Clouds 30 1006 35 10000 4.6 260 11:56 14.02.2020
2941 Clouds 30 1006 35 10000 4.6 260 11:56 14.02.2020
2942 Clouds 31 1006 34 10000 4.6 260 11:37 14.02.2020
2943 Clouds 32 1006 34 10000 4.6 260 11:19 14.02.2020
2944 Clouds 34 1006 30 10000 5.7 250 10:41 14.02.2020
2945 Clouds 34 1006 30 10000 5.7 250 10:22 14.02.2020
2946 Clouds 34 1006 32 10000 6.7 250 09:55 14.02.2020
2947 Clouds 34 1006 30 10000 7.7 250 09:36 14.02.2020
2948 Clouds 34 1006 30 10000 7.7 250 09:18 14.02.2020
2949 Clouds 34 1006 29 10000 7.7 250 08:40 14.02.2020
2950 Clear 36 1006 29 10000 7.7 250 08:21 14.02.2020
2951 Clear 36 1006 29 10000 7.7 250 08:21 14.02.2020
2952 Clear 36 1006 29 10000 7.7 250 08:21 14.02.2020
2953 Clear 36 1006 29 10000 7.7 250 08:21 14.02.2020
2954 Clear 38 1005 22 10000 6.2 260 07:50 14.02.2020
2955 Clear 37 1005 20 10000 4.1 10 07:30 14.02.2020
2956 Clear 40 1006 22 10000 3.1 80 06:41 14.02.2020
2957 Clear 40 1006 22 10000 3.1 80 06:41 14.02.2020
2958 Clear 40 1006 22 10000 3.1 80 06:21 14.02.2020
2959 Clear 38 1007 24 10000 5.7 60 05:38 14.02.2020
2960 Clear 34 1009 30 10000 6.2 30 03:49 14.02.2020
2961 Clear 32 1010 38 10000 6.2 30 02:58 14.02.2020
2962 Clear 30 1010 45 10000 6.2 30 01:57 14.02.2020
2963 Clear 27 1010 50 10000 9.3 80 00:52 14.02.2020
2964 Clear 26 1010 50 10000 9.3 70 00:31 14.02.2020
2965 Clear 25 1010 53 10000 10.3 90 23:57 13.02.2020
2966 Clear 24 1009 53 10000 8.2 90 23:38 13.02.2020
2967 Clear 24 1009 53 10000 8.2 90 23:18 13.02.2020
2968 Clear 24 1009 50 10000 8.7 90 22:40 13.02.2020
2969 Clear 25 1009 50 10000 8.7 90 22:19 13.02.2020
2970 Clear 25 1009 50 10000 8.7 90 21:57 13.02.2020
2971 Clear 25 1009 50 10000 5.7 110 21:37 13.02.2020
2972 Clear 25 1009 50 10000 5.7 110 21:19 13.02.2020
2973 Clear 25 1009 50 10000 8.2 100 20:42 13.02.2020
2974 Clouds 26 1009 50 10000 8.2 100 20:22 13.02.2020
2975 Clouds 26 1009 54 10000 8.2 100 19:57 13.02.2020
2976 Clouds 27 1009 54 10000 7.7 100 19:38 13.02.2020
2977 Clouds 27 1009 54 10000 7.7 100 19:20 13.02.2020
2978 Clouds 28 1009 45 10000 4.6 120 18:56 13.02.2020
2979 Clouds 28 1009 39 10000 4.1 120 18:37 13.02.2020
2980 Clouds 28 1009 39 10000 4.1 120 18:19 13.02.2020
2981 Clouds 29 1010 42 10000 5.7 110 17:54 13.02.2020
2982 Clouds 28 1009 42 10000 7.2 110 17:36 13.02.2020
2983 Clouds 27 1009 42 10000 7.2 110 17:18 13.02.2020
2984 Clouds 27 1010 54 10000 5.1 190 16:40 13.02.2020
2985 Clouds 27 1010 54 10000 5.1 190 16:20 13.02.2020
2986 Clouds 27 1010 54 10000 7.2 100 15:57 13.02.2020
2987 Clouds 27 1010 54 10000 7.2 100 15:38 13.02.2020
2988 Clouds 27 1010 54 10000 7.2 100 15:19 13.02.2020
2989 Clouds 28 1010 51 10000 7.2 100 14:58 13.02.2020
2990 Clouds 28 1010 51 10000 7.2 100 14:39 13.02.2020
2991 Clear 28 1010 51 10000 7.2 100 14:21 13.02.2020
2992 Clear 29 1010 45 10000 8.7 190 13:48 13.02.2020
2993 Clouds 29 1010 45 10000 8.7 190 13:19 13.02.2020
2994 Clouds 29 1010 40 10000 8.7 200 12:56 13.02.2020
2995 Clouds 29 1009 40 10000 8.7 200 12:38 13.02.2020
2996 Clouds 29 1009 40 10000 8.7 200 12:38 13.02.2020
2997 Clouds 29 1009 40 10000 8.7 200 12:38 13.02.2020
2998 Clouds 29 1009 40 10000 8.7 200 12:19 13.02.2020
2999 Clouds 30 1009 40 10000 6.2 190 11:45 13.02.2020
3000 Clouds 30 1009 40 10000 6.2 190 11:20 13.02.2020
3001 Clouds 32 1008 38 10000 7.7 220 10:49 13.02.2020
3002 Clouds 33 1009 38 10000 8.2 230 10:28 13.02.2020
3003 Clouds 31 1009 36 10000 7.2 240 09:57 13.02.2020
3004 Clouds 32 1009 36 10000 6.7 240 09:38 13.02.2020
3005 Clouds 33 1009 36 10000 6.7 240 09:20 13.02.2020
3006 Clouds 33 1009 34 10000 6.7 240 08:42 13.02.2020
3007 Clouds 33 1009 34 10000 6.7 240 08:19 13.02.2020
3008 Clouds 34 1010 32 10000 6.7 240 07:40 13.02.2020
3009 Clouds 32 1010 32 10000 6.7 240 07:22 13.02.2020
3010 Clouds 33 1010 24 10000 2.1 30 06:49 13.02.2020
3011 Clouds 33 1010 23 10000 3.6 90 06:30 13.02.2020
3012 Clouds 34 1011 26 10000 4.1 70 05:37 13.02.2020
3013 Clear 33 1011 30 10000 5.7 60 04:28 13.02.2020
3014 Clear 33 1012 29 10000 6.2 70 03:52 13.02.2020
3015 Clear 32 1012 35 10000 7.7 70 03:26 13.02.2020
3016 Clear 30 1012 35 10000 8.2 80 02:53 13.02.2020
3017 Clear 29 1012 40 10000 5.1 60 02:19 13.02.2020
3018 Clear 28 1012 51 10000 8.2 80 01:35 13.02.2020
3019 Clear 25 1012 57 10000 7.2 80 00:40 13.02.2020
3020 Clear 25 1012 57 10000 7.2 80 00:21 13.02.2020
3021 Clear 24 1012 60 10000 6.7 90 23:40 12.02.2020
3022 Clear 24 1012 60 10000 6.7 90 23:22 12.02.2020
3023 Clear 24 1011 57 10000 5.7 90 22:45 12.02.2020
3024 Clear 24 1011 57 10000 5.7 90 22:27 12.02.2020
3025 Clear 24 1011 57 10000 4.6 80 21:59 12.02.2020
3026 Clear 24 1011 60 10000 4.6 70 21:40 12.02.2020
3027 Clear 24 1011 60 10000 4.6 70 21:19 12.02.2020
3028 Clear 24 1011 69 10000 2.1 20 20:58 12.02.2020
3029 Clear 23 1011 69 10000 1.5 360 20:39 12.02.2020
3030 Clouds 23 1011 69 10000 1.5 360 20:20 12.02.2020
3031 Clouds 23 1010 77 10000 1.5 220 19:55 12.02.2020
3032 Clouds 23 1010 73 10000 2.6 210 19:36 12.02.2020
3033 Clouds 23 1010 73 10000 2.6 210 19:36 12.02.2020
3034 Clouds 23 1010 73 10000 2.6 210 19:18 12.02.2020
3035 Clouds 23 1010 73 10000 3.6 180 18:45 12.02.2020
3036 Clouds 23 1010 73 10000 3.6 180 18:18 12.02.2020
3037 Clouds 23 1011 69 10000 4.1 210 17:43 12.02.2020
3038 Clouds 23 1011 69 10000 4.1 210 17:21 12.02.2020
3039 Clouds 24 1011 64 10000 4.1 210 16:59 12.02.2020
3040 Clouds 24 1011 64 10000 4.6 190 16:39 12.02.2020
3041 Clouds 24 1011 64 10000 4.6 190 16:39 12.02.2020
3042 Clouds 24 1011 64 10000 4.6 190 16:19 12.02.2020
3043 Clouds 24 1011 64 10000 4.6 180 15:41 12.02.2020
3044 Clouds 24 1011 64 10000 4.6 180 15:23 12.02.2020
3045 Clouds 24 1012 61 10000 6.2 210 14:57 12.02.2020
3046 Clouds 24 1011 57 10000 4.6 210 14:39 12.02.2020
3047 Clouds 24 1011 57 10000 4.6 210 14:39 12.02.2020
3048 Clouds 24 1011 57 10000 4.6 210 14:19 12.02.2020
3049 Clouds 25 1011 57 10000 5.7 200 13:56 12.02.2020
3050 Clouds 25 1011 57 10000 5.7 200 13:56 12.02.2020
3051 Clouds 25 1011 57 10000 7.2 210 13:37 12.02.2020
3052 Clouds 25 1011 57 10000 7.2 210 13:19 12.02.2020
3053 Clouds 25 1011 57 10000 7.7 210 12:56 12.02.2020
3054 Clouds 25 1011 57 10000 7.2 230 12:37 12.02.2020
3055 Clouds 25 1011 57 10000 7.2 230 12:18 12.02.2020
3056 Clouds 27 1010 45 10000 6.7 210 11:54 12.02.2020
3057 Clouds 28 1010 45 10000 6.7 210 11:36 12.02.2020
3058 Clouds 28 1010 45 10000 6.7 210 11:18 12.02.2020
3059 Clouds 30 1010 40 10000 7.7 230 10:42 12.02.2020
3060 Clouds 30 1010 40 10000 7.7 230 10:21 12.02.2020
3061 Clouds 30 1010 38 10000 7.2 230 09:58 12.02.2020
3062 Clouds 32 1010 36 10000 6.7 210 09:40 12.02.2020
3063 Clouds 33 1010 36 10000 6.7 210 09:19 12.02.2020
3064 Clouds 33 1010 41 10000 7.2 230 08:57 12.02.2020
3065 Clouds 32 1010 26 10000 5.7 270 08:37 12.02.2020
3066 Clouds 31 1010 26 10000 5.7 270 08:19 12.02.2020
3067 Dust 32 1010 30 10000 2.6 360 07:43 12.02.2020
3068 Dust 31 1010 30 10000 2.6 360 07:22 12.02.2020
3069 Clouds 34 1011 34 10000 7.2 230 06:52 12.02.2020
3070 Clouds 33 1011 34 10000 7.2 230 06:20 12.02.2020
3071 Clouds 32 1012 38 10000 7.2 230 05:36 12.02.2020
3072 Clouds 30 1012 42 10000 7.2 230 04:56 12.02.2020
3073 Clouds 29 1013 45 10000 3.1 40 04:38 12.02.2020
3074 Clouds 28 1013 51 10000 5.7 90 03:31 12.02.2020
3075 Clouds 27 1013 50 10000 5.1 80 02:58 12.02.2020
3076 Clouds 26 1013 50 10000 5.7 90 02:28 12.02.2020
3077 Clouds 24 1013 57 10000 5.7 70 01:42 12.02.2020
3078 Clouds 22 1013 68 10000 7.2 70 00:44 12.02.2020
3079 Clouds 21 1013 68 10000 7.2 70 00:25 12.02.2020
3080 Clouds 20 1013 72 10000 4.6 70 23:55 11.02.2020
3081 Clouds 20 1013 72 10000 4.6 90 23:36 11.02.2020
3082 Clear 20 1013 72 10000 4.6 90 23:18 11.02.2020
3083 Clear 20 1013 72 10000 3.6 70 22:42 11.02.2020
3084 Clear 20 1013 72 10000 3.6 70 22:21 11.02.2020
3085 Clear 20 1012 72 10000 4.1 50 21:57 11.02.2020
3086 Clear 20 1012 72 10000 4.1 70 21:39 11.02.2020
3087 Clear 20 1012 72 10000 4.1 70 21:19 11.02.2020
3088 Clear 20 1012 72 10000 2.6 100 20:59 11.02.2020
3089 Clouds 21 1012 68 10000 3.6 60 20:39 11.02.2020
3090 Clouds 21 1012 68 10000 3.6 60 20:20 11.02.2020
3091 Clouds 21 1012 73 10000 4.1 60 19:58 11.02.2020
3092 Clouds 21 1012 73 10000 3.1 50 19:40 11.02.2020
3093 Clouds 21 1012 73 10000 3.1 50 19:22 11.02.2020
3094 Clouds 22 1012 73 10000 4.6 80 18:46 11.02.2020
3095 Clouds 22 1012 68 10000 4.1 80 18:28 11.02.2020
3096 Clouds 22 1013 68 10000 5.1 80 17:57 11.02.2020
3097 Clouds 22 1013 68 10000 4.6 90 17:39 11.02.2020
3098 Clouds 23 1013 68 10000 4.6 90 17:20 11.02.2020
3099 Clouds 23 1013 69 10000 9.3 60 16:58 11.02.2020
3100 Clouds 23 1013 69 10000 9.3 60 16:58 11.02.2020
3101 Clear 23 1013 69 10000 9.3 60 16:39 11.02.2020
3102 Clear 24 1013 69 10000 9.3 60 16:21 11.02.2020
3103 Clear 24 1013 64 10000 7.7 60 15:58 11.02.2020
3104 Clear 25 1013 61 10000 7.2 90 15:39 11.02.2020
3105 Clear 25 1013 61 10000 7.2 90 15:21 11.02.2020
3106 Clear 26 1012 54 10000 9.3 70 14:42 11.02.2020
3107 Clear 27 1012 54 10000 9.3 70 14:19 11.02.2020
3108 Clear 28 1011 48 10000 7.7 70 13:56 11.02.2020
3109 Clear 28 1011 45 10000 7.7 70 13:38 11.02.2020
3110 Clear 29 1011 45 10000 7.7 70 13:19 11.02.2020
3111 Clear 29 1010 35 10000 8.2 90 12:41 11.02.2020
3112 Clear 29 1010 35 10000 8.2 90 12:22 11.02.2020
3113 Clear 29 1010 35 10000 8.2 90 12:22 11.02.2020
3114 Clear 30 1009 33 10000 6.2 90 11:59 11.02.2020
3115 Clear 31 1009 29 10000 7.2 90 11:40 11.02.2020
3116 Clear 32 1009 29 10000 7.2 90 11:19 11.02.2020
3117 Clear 32 1009 29 10000 7.2 90 11:19 11.02.2020
3118 Clear 32 1009 30 10000 4.1 110 10:54 11.02.2020
3119 Clear 32 1009 28 10000 5.7 100 10:36 11.02.2020
3120 Clear 33 1009 28 10000 5.7 100 10:18 11.02.2020
3121 Clear 32 1009 28 10000 4.6 60 09:42 11.02.2020
3122 Clear 32 1009 28 10000 4.6 60 09:22 11.02.2020
3123 Clear 33 1009 28 10000 6.7 80 08:55 11.02.2020
3124 Clear 32 1009 28 10000 6.2 90 08:37 11.02.2020
3125 Clouds 34 1009 28 10000 6.2 90 08:18 11.02.2020
3126 Clouds 34 1009 28 10000 8.2 100 07:41 11.02.2020
3127 Clouds 33 1009 28 10000 8.2 100 07:19 11.02.2020
3128 Clouds 33 1009 28 10000 8.2 100 07:19 11.02.2020
3129 Clouds 33 1010 27 10000 5.7 60 06:40 11.02.2020
3130 Clouds 33 1010 27 10000 5.7 60 06:20 11.02.2020
3131 Clouds 33 1010 27 10000 5.7 60 06:20 11.02.2020
3132 Clouds 32 1011 29 10000 6.7 100 05:47 11.02.2020
3133 Clouds 32 1011 29 10000 6.7 100 05:47 11.02.2020
3134 Clouds 31 1011 31 10000 4.1 90 05:20 11.02.2020
3135 Clouds 29 1012 34 10000 5.7 100 04:34 11.02.2020
3136 Clouds 24 1012 43 10000 7.7 80 02:38 11.02.2020
3137 Clouds 23 1012 46 10000 8.2 80 01:59 11.02.2020
3138 Clouds 23 1012 46 10000 7.7 80 01:31 11.02.2020
3139 Clouds 21 1012 46 10000 7.7 90 00:26 11.02.2020
3140 Clouds 21 1011 49 10000 8.2 90 23:48 10.02.2020
3141 Clouds 21 1011 49 10000 8.2 70 23:30 10.02.2020
3142 Clouds 20 1010 49 10000 7.7 100 22:57 10.02.2020
3143 Clouds 20 1010 37 10000 8.2 80 22:37 10.02.2020
3144 Clouds 20 1010 37 10000 8.2 80 22:37 10.02.2020
3145 Clouds 20 1010 49 10000 7.7 90 22:19 10.02.2020
3146 Clouds 21 1009 49 10000 7.2 90 21:41 10.02.2020
3147 Clouds 21 1009 49 10000 7.2 90 21:23 10.02.2020
3148 Clouds 21 1009 46 10000 6.7 100 20:56 10.02.2020
3149 Clouds 22 1009 43 10000 8.2 100 20:38 10.02.2020
3150 Clear 22 1009 40 10000 6.7 100 20:19 10.02.2020
3151 Clear 22 1009 40 10000 6.7 100 19:57 10.02.2020
3152 Clear 22 1009 37 10000 6.2 90 19:37 10.02.2020
3153 Clear 22 1009 37 10000 6.2 90 19:18 10.02.2020
3154 Clear 23 1009 37 10000 7.2 100 18:56 10.02.2020
3155 Clear 23 1010 35 10000 5.7 110 18:38 10.02.2020
3156 Clear 23 1010 35 10000 5.7 110 18:20 10.02.2020
3157 Clear 24 1009 33 10000 7.7 90 17:54 10.02.2020
3158 Clear 24 1009 33 10000 5.7 110 17:36 10.02.2020
3159 Clear 24 1009 33 10000 5.7 110 17:18 10.02.2020
3160 Clear 25 1009 27 10000 7.2 100 16:41 10.02.2020
3161 Clear 25 1009 27 10000 7.2 100 16:41 10.02.2020
3162 Clear 26 1009 27 10000 7.2 100 16:20 10.02.2020
3163 Clear 27 1010 26 10000 8.2 90 15:59 10.02.2020
3164 Clear 27 1010 26 10000 8.2 90 15:59 10.02.2020
3165 Clear 27 1009 24 10000 7.2 110 15:41 10.02.2020
3166 Clear 27 1009 24 10000 7.2 110 15:22 10.02.2020
3167 Clear 28 1010 24 10000 6.7 130 14:58 10.02.2020
3168 Clear 28 1009 24 10000 4.1 120 14:39 10.02.2020
3169 Clear 28 1009 24 10000 4.1 120 14:19 10.02.2020
3170 Clear 28 1009 26 10000 4.6 120 13:45 10.02.2020
3171 Clear 29 1009 25 10000 4.1 120 13:26 10.02.2020
3172 Clear 29 1009 22 10000 5.1 100 12:59 10.02.2020
3173 Clear 30 1009 22 10000 5.7 110 12:41 10.02.2020
3174 Clear 30 1009 22 10000 5.7 110 12:22 10.02.2020
3175 Clear 31 1009 20 10000 6.2 110 11:46 10.02.2020
3176 Clear 31 1009 20 10000 6.2 110 11:46 10.02.2020
3177 Clear 32 1008 19 10000 7.7 90 11:22 10.02.2020
3178 Clear 32 1008 19 10000 7.2 110 10:58 10.02.2020
3179 Clear 32 1008 19 10000 7.2 120 10:39 10.02.2020
3180 Clear 32 1008 19 10000 7.2 120 10:21 10.02.2020
3181 Clear 33 1009 18 10000 7.2 120 09:42 10.02.2020
3182 Clear 33 1009 18 10000 7.2 120 09:23 10.02.2020
3183 Clear 33 1009 19 10000 6.2 100 08:41 10.02.2020
3184 Clear 32 1009 19 10000 6.2 100 08:22 10.02.2020
3185 Clear 32 1010 19 10000 6.7 100 07:55 10.02.2020
3186 Clear 31 1010 19 10000 7.2 110 07:35 10.02.2020
3187 Clear 30 1011 22 10000 6.7 90 06:50 10.02.2020
3188 Clear 28 1012 26 10000 5.7 100 05:38 10.02.2020
3189 Clear 25 1014 31 10000 6.2 90 03:55 10.02.2020
3190 Clear 24 1014 33 10000 9.8 110 03:22 10.02.2020
3191 Clear 22 1014 40 10000 8.2 110 02:44 10.02.2020
3192 Clear 18 1015 52 10000 8.7 100 01:25 10.02.2020
3193 Clear 17 1014 59 10000 4.6 120 00:40 10.02.2020
3194 Clear 17 1014 59 10000 4.6 120 00:22 10.02.2020
3195 Clear 16 1014 62 10000 5.7 90 23:41 09.02.2020
3196 Clear 16 1014 62 10000 5.7 90 23:23 09.02.2020
3197 Clear 16 1013 55 10000 6.2 100 22:45 09.02.2020
3198 Clear 16 1013 55 10000 7.2 110 22:23 09.02.2020
3199 Clear 16 1013 55 10000 7.7 110 21:57 09.02.2020
3200 Clear 16 1013 55 10000 5.7 120 21:38 09.02.2020
3201 Clear 16 1013 55 10000 5.7 120 21:19 09.02.2020
3202 Clear 17 1012 51 10000 9.3 110 20:45 09.02.2020
3203 Clear 17 1012 51 10000 8.2 120 20:21 09.02.2020
3204 Clear 18 1012 48 10000 7.7 120 19:55 09.02.2020
3205 Clear 18 1013 45 10000 7.7 120 19:37 09.02.2020
3206 Clear 18 1013 45 10000 7.7 120 19:18 09.02.2020
3207 Clear 19 1012 40 10000 8.2 120 18:42 09.02.2020
3208 Clear 20 1012 40 10000 8.2 120 18:23 09.02.2020
3209 Clear 20 1012 40 10000 8.2 120 18:23 09.02.2020
3210 Clear 20 1012 35 10000 8.2 130 17:56 09.02.2020
3211 Clear 20 1012 34 10000 8.2 130 17:37 09.02.2020
3212 Clear 20 1012 34 10000 8.2 130 17:19 09.02.2020
3213 Clear 20 1012 52 10000 8.2 120 16:41 09.02.2020
3214 Clear 19 1012 52 10000 8.2 120 16:22 09.02.2020
3215 Clear 19 1012 52 10000 8.2 120 15:58 09.02.2020
3216 Clear 20 1012 52 10000 8.2 120 15:40 09.02.2020
3217 Clear 20 1012 52 10000 8.2 120 15:21 09.02.2020
3218 Clear 20 1012 49 10000 8.2 120 14:56 09.02.2020
3219 Clear 21 1012 46 10000 8.2 120 14:36 09.02.2020
3220 Clear 21 1012 46 10000 8.2 120 14:18 09.02.2020
3221 Clear 21 1011 49 10000 5.7 190 13:42 09.02.2020
3222 Clear 21 1011 49 10000 5.7 190 13:23 09.02.2020
3223 Clear 22 1011 49 10000 6.2 200 12:54 09.02.2020
3224 Clear 22 1010 46 10000 8.2 210 12:36 09.02.2020
3225 Clear 22 1010 46 10000 8.2 210 12:18 09.02.2020
3226 Clear 24 1010 38 10000 6.2 180 11:39 09.02.2020
3227 Clear 24 1010 38 10000 6.2 180 11:19 09.02.2020
3228 Clear 25 1010 36 10000 6.2 180 10:43 09.02.2020
3229 Clear 25 1010 39 10000 10.3 230 10:23 09.02.2020
3230 Clear 25 1010 39 10000 9.8 230 09:57 09.02.2020
3231 Clear 26 1010 39 10000 10.3 230 09:38 09.02.2020
3232 Clear 26 1010 39 10000 10.3 230 09:19 09.02.2020
3233 Clear 26 1010 36 10000 9.8 240 08:40 09.02.2020
3234 Clear 26 1010 36 10000 9.8 240 08:22 09.02.2020
3235 Clear 26 1010 32 10000 9.3 230 07:51 09.02.2020
3236 Clear 27 1011 30 10000 9.8 230 07:26 09.02.2020
3237 Clear 27 1012 22 10000 4.6 200 06:37 09.02.2020
3238 Clear 27 1012 24 10000 7.2 220 05:52 09.02.2020
3239 Clear 26 1012 24 10000 6.7 180 05:32 09.02.2020
3240 Clear 25 1013 27 10000 5.7 180 04:43 09.02.2020
3241 Clear 22 1014 40 10000 7.7 190 02:50 09.02.2020
3242 Clear 21 1015 43 10000 7.2 170 02:32 09.02.2020
3243 Clear 19 1015 55 10000 6.7 170 01:38 09.02.2020
3244 Clear 18 1015 63 10000 6.2 190 00:56 09.02.2020
3245 Clouds 17 1015 67 10000 5.7 190 00:29 09.02.2020
3246 Clouds 15 1014 77 10000 4.1 190 23:49 08.02.2020
3247 Clouds 15 1014 82 10000 4.1 190 23:25 08.02.2020
3248 Clear 15 1014 77 10000 4.6 180 22:58 08.02.2020
3249 Clear 15 1014 77 10000 4.6 190 22:39 08.02.2020
3250 Clear 15 1013 72 10000 5.1 200 22:20 08.02.2020
3251 Clear 15 1013 72 10000 5.1 200 21:45 08.02.2020
3252 Clear 15 1013 72 10000 5.7 200 21:26 08.02.2020
3253 Clear 16 1013 72 10000 4.6 200 20:59 08.02.2020
3254 Clear 16 1013 72 10000 5.7 190 20:40 08.02.2020
3255 Clouds 16 1013 72 10000 5.7 190 20:19 08.02.2020
3256 Clouds 16 1013 67 10000 7.2 200 19:56 08.02.2020
3257 Clouds 16 1013 67 10000 7.2 200 19:56 08.02.2020
3258 Clouds 17 1013 67 10000 8.2 200 19:38 08.02.2020
3259 Clouds 17 1013 67 10000 8.2 200 19:19 08.02.2020
3260 Clouds 17 1013 63 10000 7.7 190 18:44 08.02.2020
3261 Clouds 18 1013 63 10000 7.7 190 18:25 08.02.2020
3262 Clouds 18 1012 72 10000 10.3 190 17:59 08.02.2020
3263 Clouds 19 1012 68 10000 8.2 200 17:40 08.02.2020
3264 Clouds 19 1012 68 10000 8.2 200 17:18 08.02.2020
3265 Clouds 19 1011 72 10000 6.2 180 16:40 08.02.2020
3266 Clouds 20 1011 73 10000 6.2 180 16:22 08.02.2020
3267 Clouds 20 1011 73 10000 6.2 180 15:57 08.02.2020
3268 Clouds 20 1011 73 10000 9.8 210 15:39 08.02.2020
3269 Clouds 21 1011 73 10000 9.8 210 15:18 08.02.2020
3270 Clouds 21 1011 64 10000 9.8 230 14:43 08.02.2020
3271 Clouds 22 1011 64 10000 9.8 230 14:19 08.02.2020
3272 Clouds 22 1010 68 10000 9.3 220 13:55 08.02.2020
3273 Clouds 22 1010 68 10000 9.3 220 13:37 08.02.2020
3274 Clouds 22 1010 68 10000 9.3 220 13:18 08.02.2020
3275 Clouds 22 1010 64 10000 9.8 220 12:39 08.02.2020
3276 Clouds 22 1010 64 10000 9.8 220 12:20 08.02.2020
3277 Clouds 23 1009 64 10000 8.7 230 11:43 08.02.2020
3278 Clouds 23 1009 60 10000 7.7 230 11:22 08.02.2020
3279 Clouds 24 1008 60 10000 7.7 230 10:57 08.02.2020
3280 Clouds 24 1008 57 10000 9.3 220 10:39 08.02.2020
3281 Clouds 24 1008 57 10000 9.3 220 10:20 08.02.2020
3282 Clouds 25 1008 54 10000 8.7 220 09:50 08.02.2020
3283 Clouds 26 1008 57 10000 7.7 270 09:24 08.02.2020
3284 Clouds 27 1007 54 10000 6.7 270 08:47 08.02.2020
3285 Clouds 27 1007 54 10000 5.7 270 08:27 08.02.2020
3286 Clouds 27 1007 54 10000 6.7 260 07:53 08.02.2020
3287 Clouds 28 1007 54 10000 6.7 270 07:34 08.02.2020
3288 Clouds 27 1007 54 10000 6.2 270 06:55 08.02.2020
3289 Clouds 28 1008 54 10000 6.2 260 06:21 08.02.2020
3290 Clouds 27 1008 57 10000 5.7 260 05:34 08.02.2020
3291 Clouds 27 1008 57 10000 6.2 270 04:54 08.02.2020
3292 Clouds 27 1008 61 10000 6.7 270 04:24 08.02.2020
3293 Clouds 27 1008 61 10000 4.1 260 03:37 08.02.2020
3294 Clouds 26 1008 65 10000 3.1 230 02:29 08.02.2020
3295 Clouds 23 1008 69 10000 3.6 240 01:31 08.02.2020
3296 Clouds 22 1008 73 10000 6.2 250 00:46 08.02.2020
3297 Clouds 21 1008 78 10000 2.6 210 00:25 08.02.2020
3298 Clouds 20 1008 83 10000 2.6 190 23:57 07.02.2020
3299 Clouds 20 1007 88 10000 3.6 190 23:39 07.02.2020
3300 Rain 20 1007 88 10000 3.6 190 23:19 07.02.2020
3301 Rain 20 1007 82 10000 3.6 210 22:41 07.02.2020
3302 Rain 20 1007 82 10000 3.6 210 22:19 07.02.2020
3303 Rain 20 1007 82 10000 3.6 210 22:19 07.02.2020
3304 Rain 20 1007 82 10000 3.1 210 21:57 07.02.2020
3305 Rain 20 1008 82 10000 2.6 230 21:39 07.02.2020
3306 Rain 20 1008 82 10000 2.6 230 21:19 07.02.2020
3307 Clouds 21 1008 83 10000 3.6 190 20:39 07.02.2020
3308 Clouds 21 1008 83 10000 3.6 190 20:19 07.02.2020
3309 Clouds 21 1008 83 10000 4.1 160 19:54 07.02.2020
3310 Clouds 21 1008 83 10000 6.2 210 19:36 07.02.2020
3311 Clouds 21 1008 83 10000 6.2 210 19:18 07.02.2020
3312 Clouds 21 1008 83 10000 8.2 200 18:43 07.02.2020
3313 Clouds 21 1008 83 10000 8.2 200 18:24 07.02.2020
3314 Clouds 22 1008 78 10000 6.2 200 17:45 07.02.2020
3315 Clouds 22 1008 78 10000 7.7 210 17:22 07.02.2020
3316 Rain 22 1009 78 10000 5.7 210 16:59 07.02.2020
3317 Rain 22 1009 78 10000 3.6 210 16:41 07.02.2020
3318 Rain 22 1009 78 10000 3.6 210 16:22 07.02.2020
3319 Rain 22 1010 83 10000 2.6 180 15:53 07.02.2020
3320 Rain 22 1010 78 10000 3.6 210 15:28 07.02.2020
3321 Rain 22 1010 78 10000 3.1 220 14:55 07.02.2020
3322 Rain 22 1010 83 10000 1.5 230 14:37 07.02.2020
3323 Rain 22 1010 73 10000 3.6 220 14:19 07.02.2020
3324 Clouds 22 1010 78 10000 3.1 220 13:56 07.02.2020
3325 Clouds 23 1010 73 10000 3.1 280 13:37 07.02.2020
3326 Clouds 23 1010 73 10000 3.1 280 13:18 07.02.2020
3327 Rain 23 1009 64 10000 3.6 270 12:41 07.02.2020
3328 Rain 24 1009 64 10000 3.6 270 12:22 07.02.2020
3329 Rain 25 1008 57 10000 5.7 240 11:45 07.02.2020
3330 Clouds 25 1008 57 10000 5.7 240 11:22 07.02.2020
3331 Clouds 26 1007 51 10000 6.2 240 10:57 07.02.2020
3332 Clouds 27 1007 42 10000 6.2 240 10:38 07.02.2020
3333 Clouds 27 1007 42 10000 6.2 240 10:19 07.02.2020
3334 Clouds 29 1007 45 10000 5.7 260 09:40 07.02.2020
3335 Clouds 29 1007 45 10000 5.7 260 09:22 07.02.2020
3336 Clouds 29 1008 48 10000 5.7 250 08:44 07.02.2020
3337 Clouds 29 1008 48 10000 5.7 250 08:21 07.02.2020
3338 Clouds 29 1008 48 10000 5.1 250 07:52 07.02.2020
3339 Clouds 29 1008 45 10000 5.7 250 07:30 07.02.2020
3340 Clouds 29 1009 48 10000 7.2 230 06:47 07.02.2020
3341 Clouds 29 1009 48 10000 7.2 230 06:28 07.02.2020
3342 Clouds 29 1009 51 10000 4.6 280 05:58 07.02.2020
3343 Clouds 28 1009 51 10000 4.1 270 05:36 07.02.2020
3344 Clouds 27 1010 54 10000 2.6 250 03:43 07.02.2020
3345 Clouds 23 1010 69 10000 5.1 250 01:51 07.02.2020
3346 Clouds 22 1010 73 10000 3.1 280 00:59 07.02.2020
3347 Clouds 22 1009 78 10000 3.1 290 00:26 07.02.2020
3348 Thunderstorm 22 1009 83 10000 2.1 270 23:38 06.02.2020
3349 Thunderstorm 22 1009 83 10000 2.1 270 23:19 06.02.2020
3350 Clouds 22 1009 78 10000 3.1 290 22:46 06.02.2020
3351 Clouds 22 1009 78 10000 3.1 270 22:26 06.02.2020
3352 Clouds 21 1009 78 10000 3.6 300 21:57 06.02.2020
3353 Clouds 22 1009 78 10000 3.1 290 21:36 06.02.2020
3354 Clouds 21 1009 78 10000 3.1 290 21:18 06.02.2020
3355 Clouds 21 1008 78 10000 3.1 300 20:54 06.02.2020
3356 Clouds 21 1008 83 10000 3.1 300 20:36 06.02.2020
3357 Clouds 21 1008 83 10000 3.1 300 20:18 06.02.2020
3358 Clouds 21 1008 88 10000 2.1 260 19:55 06.02.2020
3359 Clouds 21 1008 88 10000 2.1 260 19:55 06.02.2020
3360 Clouds 21 1009 83 10000 2.6 260 19:36 06.02.2020
3361 Clouds 21 1009 83 10000 2.6 260 19:18 06.02.2020
3362 Clouds 21 1009 83 10000 3.1 290 18:40 06.02.2020
3363 Clouds 21 1009 83 10000 3.1 290 18:22 06.02.2020
3364 Clouds 21 1009 83 10000 3.1 290 18:22 06.02.2020
3365 Clouds 21 1009 88 10000 1.5 240 17:55 06.02.2020
3366 Clouds 21 1009 83 10000 3.1 250 17:37 06.02.2020
3367 Clouds 21 1009 83 10000 3.1 250 17:18 06.02.2020
3368 Clouds 21 1009 88 10000 3.1 250 16:41 06.02.2020
3369 Clouds 21 1009 88 10000 3.1 250 16:23 06.02.2020
3370 Clouds 22 1010 88 10000 1.37 100 15:43 06.02.2020
3371 Clouds 22 1010 88 10000 1.37 100 15:22 06.02.2020
3372 Clouds 22 1010 78 10000 1.5 0 14:51 06.02.2020
3373 Clouds 22 1009 78 10000 3.6 240 14:28 06.02.2020
3374 Clouds 22 1009 78 10000 3.1 260 13:59 06.02.2020
3375 Clouds 22 1009 78 10000 3.6 290 13:40 06.02.2020
3376 Clouds 23 1009 78 10000 3.6 290 13:20 06.02.2020
3377 Clouds 23 1008 73 10000 3.6 290 12:44 06.02.2020
3378 Clouds 24 1008 69 10000 4.1 270 12:19 06.02.2020
3379 Clouds 24 1008 69 10000 4.1 270 12:19 06.02.2020
3380 Clouds 25 1008 61 10000 3.6 280 11:57 06.02.2020
3381 Clouds 25 1008 61 10000 4.1 290 11:39 06.02.2020
3382 Clouds 26 1008 61 10000 4.1 290 11:19 06.02.2020
3383 Clouds 27 1008 57 10000 3.6 280 10:56 06.02.2020
3384 Clouds 27 1008 51 10000 4.6 280 10:38 06.02.2020
3385 Clouds 28 1008 51 10000 4.6 280 10:19 06.02.2020
3386 Clouds 28 1008 45 10000 4.6 290 09:55 06.02.2020
3387 Clouds 29 1008 48 10000 4.6 280 09:36 06.02.2020
3388 Clouds 29 1008 48 10000 4.6 280 09:36 06.02.2020
3389 Clouds 29 1008 48 10000 4.6 280 09:18 06.02.2020
3390 Clouds 31 1008 43 10000 4.1 270 08:40 06.02.2020
3391 Clear 30 1008 43 10000 4.1 270 08:20 06.02.2020
3392 Clear 30 1008 40 10000 5.1 270 07:46 06.02.2020
3393 Clear 31 1008 43 10000 3.6 280 07:24 06.02.2020
3394 Clear 31 1008 45 10000 5.1 260 06:21 06.02.2020
3395 Clear 31 1008 45 10000 5.1 260 06:21 06.02.2020
3396 Clear 31 1008 45 10000 5.1 260 06:21 06.02.2020
3397 Clear 31 1008 45 10000 5.1 260 06:21 06.02.2020
3398 -273 0 0 0 0 0 06:21 06.02.2020
3399 Clear 29 1009 48 10000 4.6 290 05:54 06.02.2020
3400 Clear 29 1010 54 10000 3.6 250 04:22 06.02.2020
3401 Clouds 27 1010 61 10000 2.1 300 03:19 06.02.2020
3402 Clouds 26 1010 65 10000 2.1 290 02:28 06.02.2020
3403 Clouds 24 1010 73 10000 1.5 350 01:26 06.02.2020
3404 Clouds 23 1010 83 10000 2.6 300 00:57 06.02.2020
3405 Clouds 23 1010 78 10000 2.1 300 00:25 06.02.2020
3406 Clouds 22 1009 88 10000 2.1 330 23:44 05.02.2020
3407 Clouds 22 1009 83 10000 3.1 280 23:25 05.02.2020
3408 Clouds 22 1009 83 10000 3.6 270 22:57 05.02.2020
3409 Clouds 22 1008 88 10000 2.6 280 22:39 05.02.2020
3410 Clouds 22 1008 88 10000 2.6 280 22:20 05.02.2020
3411 Clouds 22 1008 88 10000 2.1 20 21:41 05.02.2020
3412 Clouds 22 1008 88 10000 2.1 20 21:23 05.02.2020
3413 Clouds 22 1008 88 9000 2.1 30 20:57 05.02.2020
3414 Clouds 22 1008 88 9000 2.6 30 20:38 05.02.2020
3415 Clouds 22 1008 88 9000 2.6 30 20:18 05.02.2020
3416 Clouds 22 1008 88 9000 1.5 310 19:55 05.02.2020
3417 Clouds 22 1008 88 9000 1.5 310 19:55 05.02.2020
3418 Clouds 22 1008 94 9000 2.6 300 19:36 05.02.2020
3419 Clouds 22 1008 94 9000 2.6 300 19:18 05.02.2020
3420 Clouds 22 1008 88 10000 3.1 300 18:43 05.02.2020
3421 Clouds 22 1008 88 10000 3.1 300 18:21 05.02.2020
3422 Clouds 22 1008 88 10000 3.1 300 18:21 05.02.2020
3423 Clouds 22 1009 68 10000 2.6 350 17:58 05.02.2020
3424 Mist 22 1009 88 10000 2.6 300 17:37 05.02.2020
3425 Clouds 22 1009 100 10000 3.1 280 17:18 05.02.2020
3426 Clear 23 1009 78 10000 4.1 240 16:43 05.02.2020
3427 Clear 23 1009 78 10000 4.1 240 16:25 05.02.2020
3428 Clouds 23 1009 64 10000 2.6 300 15:58 05.02.2020
3429 Clouds 24 1009 60 10000 2.6 300 15:38 05.02.2020
3430 Clouds 24 1009 60 10000 2.6 300 15:18 05.02.2020
3431 Clear 24 1009 60 10000 2.1 350 14:42 05.02.2020
3432 Clouds 24 1009 60 10000 2.1 350 14:23 05.02.2020
3433 Clouds 25 1009 57 10000 2.6 300 13:58 05.02.2020
3434 Clouds 26 1009 54 10000 2.6 300 13:38 05.02.2020
3435 Clouds 26 1009 54 10000 2.6 300 13:19 05.02.2020
3436 Clear 27 1009 45 10000 2.6 250 12:42 05.02.2020
3437 Clear 27 1009 45 10000 2.6 250 12:22 05.02.2020
3438 Clear 28 1008 48 10000 4.1 260 11:42 05.02.2020
3439 Clear 29 1008 48 10000 4.1 260 11:24 05.02.2020
3440 Clear 30 1008 45 10000 4.1 260 10:59 05.02.2020
3441 Clear 30 1008 45 10000 4.1 250 10:39 05.02.2020
3442 Clear 31 1008 45 10000 4.1 250 10:19 05.02.2020
3443 Clear 31 1008 45 10000 4.1 250 10:19 05.02.2020
3444 Clear 33 1008 41 10000 4.1 260 09:44 05.02.2020
3445 Clear 31 1008 41 10000 4.1 260 09:22 05.02.2020
3446 Clear 32 1008 41 10000 4.6 260 08:58 05.02.2020
3447 Clear 34 1008 36 10000 4.6 270 08:39 05.02.2020
3448 Clear 33 1008 36 10000 4.6 270 08:21 05.02.2020
3449 Rain 32 1008 43 10000 4.6 270 07:43 05.02.2020
3450 Clouds 32 1008 41 10000 4.1 270 07:20 05.02.2020
3451 Clouds 32 1008 46 10000 5.1 250 06:42 05.02.2020
3452 Clouds 31 1008 46 10000 5.1 250 06:21 05.02.2020
3453 Rain 33 1009 41 10000 5.7 290 05:48 05.02.2020
3454 Clouds 34 1009 28 10000 4.6 260 05:18 05.02.2020
3455 Clouds 35 1009 26 10000 4.6 250 04:27 05.02.2020
3456 Clouds 34 1009 23 10000 4.1 360 02:59 05.02.2020
3457 Clouds 33 1009 24 10000 3.6 10 02:22 05.02.2020
3458 Clear 30 1009 30 10000 5.1 360 01:35 05.02.2020
3459 Clear 28 1009 36 10000 5.1 360 00:25 05.02.2020
3460 Clear 25 1009 44 10000 4.1 70 23:42 04.02.2020
3461 Clear 25 1009 44 10000 4.1 70 23:23 04.02.2020
3462 Clear 25 1008 39 10000 5.1 360 22:58 04.02.2020
3463 Clear 26 1008 39 10000 5.7 60 22:40 04.02.2020
3464 Clear 26 1008 39 10000 5.7 60 22:20 04.02.2020
3465 Clear 26 1008 36 10000 5.1 360 21:56 04.02.2020
3466 Clear 26 1008 36 10000 5.1 360 21:38 04.02.2020
3467 Clear 27 1008 36 10000 5.1 360 21:18 04.02.2020
3468 Clear 27 1008 36 10000 5.1 360 21:18 04.02.2020
3469 Clear 27 1008 36 10000 5.1 60 20:55 04.02.2020
3470 Clear 28 1007 34 10000 5.7 70 20:37 04.02.2020
3471 Clear 28 1007 34 10000 5.7 70 20:18 04.02.2020
3472 Clear 28 1007 30 10000 7.7 70 19:43 04.02.2020
3473 Clear 29 1007 30 10000 7.7 70 19:24 04.02.2020
3474 Clear 29 1008 27 10000 6.7 70 18:59 04.02.2020
3475 Clear 30 1008 23 10000 6.7 70 18:39 04.02.2020
3476 Clear 30 1008 23 10000 6.7 70 18:21 04.02.2020
3477 Clear 30 1008 23 10000 6.7 70 17:54 04.02.2020
3478 Clear 31 1008 22 10000 5.7 70 17:36 04.02.2020
3479 Clear 31 1008 22 10000 7.7 70 17:18 04.02.2020
3480 Clear 30 1008 21 10000 8.2 80 16:38 04.02.2020
3481 Clear 31 1008 21 10000 8.2 80 16:20 04.02.2020
3482 Clear 30 1008 21 10000 8.7 70 15:56 04.02.2020
3483 Clear 30 1008 21 10000 8.7 70 15:56 04.02.2020
3484 Clear 31 1008 21 10000 8.7 70 15:56 04.02.2020
3485 Clear 31 1008 20 10000 8.7 90 15:38 04.02.2020
3486 Clear 32 1008 20 10000 8.7 90 15:20 04.02.2020
3487 Clear 32 1008 20 10000 7.2 90 14:45 04.02.2020
3488 Clear 33 1008 20 10000 7.2 90 14:26 04.02.2020
3489 Clouds 33 1008 17 10000 7.2 90 13:59 04.02.2020
3490 Clouds 33 1008 17 10000 7.2 90 13:59 04.02.2020
3491 Clouds 34 1008 16 10000 4.1 20 13:40 04.02.2020
3492 Clouds 34 1008 16 10000 4.1 20 13:22 04.02.2020
3493 Clouds 36 1008 18 10000 4.1 20 12:55 04.02.2020
3494 Clouds 37 1007 15 10000 4.1 20 12:36 04.02.2020
3495 Clouds 37 1007 15 10000 4.1 20 12:18 04.02.2020
3496 Clouds 38 1007 14 10000 4.1 20 11:54 04.02.2020
3497 Clouds 38 1007 15 10000 4.1 320 11:36 04.02.2020
3498 Clouds 38 1007 15 10000 4.1 320 11:18 04.02.2020
3499 Clouds 39 1007 12 10000 5.1 280 10:41 04.02.2020
3500 Clouds 39 1007 12 10000 5.1 280 10:22 04.02.2020
3501 Clouds 40 1007 12 10000 6.2 270 09:42 04.02.2020
3502 Clouds 40 1007 12 10000 6.2 270 09:23 04.02.2020
3503 Clouds 40 1007 11 10000 6.2 300 08:58 04.02.2020
3504 Clouds 40 1007 12 10000 6.2 300 08:39 04.02.2020
3505 Rain 41 1007 12 10000 6.2 300 08:21 04.02.2020
3506 Rain 40 1007 11 10000 8.7 250 07:46 04.02.2020
3507 Rain 39 1008 12 10000 3.6 110 07:22 04.02.2020
3508 Rain 41 1008 11 10000 5.7 120 06:43 04.02.2020
3509 Rain 40 1009 14 10000 5.7 50 05:58 04.02.2020
3510 Rain 39 1010 15 10000 7.2 80 05:28 04.02.2020
3511 Clouds 35 1010 23 10000 6.2 60 03:51 04.02.2020
3512 Clouds 34 1011 26 10000 8.7 80 03:31 04.02.2020
3513 Clouds 32 1011 25 10000 6.2 40 02:53 04.02.2020
3514 Clouds 30 1011 32 10000 9.8 80 02:31 04.02.2020
3515 Clouds 28 1011 36 10000 6.2 40 01:52 04.02.2020
3516 Clouds 27 1011 30 10000 8.7 70 01:33 04.02.2020
3517 Clouds 25 1011 44 10000 7.2 70 00:41 04.02.2020
3518 Clouds 25 1011 44 10000 7.2 70 00:20 04.02.2020
3519 Clouds 24 1011 41 10000 5.1 80 23:39 03.02.2020
3520 Clouds 24 1011 41 10000 5.1 80 23:19 03.02.2020
3521 Clouds 24 1010 43 10000 9.3 80 22:39 03.02.2020
3522 Clouds 24 1010 43 10000 9.3 80 22:20 03.02.2020
3523 Clouds 24 1010 43 10000 9.8 70 21:43 03.02.2020
3524 Clouds 24 1010 43 10000 9.8 70 21:20 03.02.2020
3525 Clouds 25 1010 41 10000 10.8 80 20:59 03.02.2020
3526 Clouds 25 1010 41 10000 10.8 80 20:40 03.02.2020
3527 Clear 25 1010 41 10000 10.8 80 20:18 03.02.2020
3528 Clear 26 1010 38 10000 11.3 80 19:56 03.02.2020
3529 Clear 26 1010 36 10000 9.8 80 19:37 03.02.2020
3530 Clear 26 1010 36 10000 9.8 80 19:37 03.02.2020
3531 Clear 26 1010 36 10000 9.8 80 19:18 03.02.2020
3532 Clear 28 1010 30 10000 9.3 100 18:42 03.02.2020
3533 Clear 28 1010 30 10000 9.3 100 18:22 03.02.2020
3534 Clear 29 1010 26 10000 10.3 90 17:58 03.02.2020
3535 Clear 30 1010 23 10000 11.8 90 17:39 03.02.2020
3536 Clear 30 1010 23 10000 11.8 90 17:19 03.02.2020
3537 Clear 31 1010 19 10000 10.8 100 16:40 03.02.2020
3538 Clear 31 1010 19 10000 10.8 100 16:22 03.02.2020
3539 Clear 31 1011 20 10000 10.8 100 15:59 03.02.2020
3540 Clear 32 1011 18 10000 8.7 100 15:39 03.02.2020
3541 Clear 32 1011 18 10000 8.7 100 15:20 03.02.2020
3542 Clear 32 1011 19 10000 8.2 90 14:58 03.02.2020
3543 Clear 32 1011 19 10000 8.2 90 14:39 03.02.2020
3544 Clear 32 1011 19 10000 8.2 90 14:21 03.02.2020
3545 Clear 33 1011 21 10000 8.2 90 13:43 03.02.2020
3546 Clear 33 1011 21 10000 8.2 90 13:21 03.02.2020
3547 Clear 33 1011 18 10000 5.1 120 12:58 03.02.2020
3548 Clear 35 1011 17 10000 6.7 120 12:39 03.02.2020
3549 Clear 34 1011 17 10000 6.7 120 12:21 03.02.2020
3550 Clear 35 1011 16 10000 7.2 110 11:55 03.02.2020
3551 Clear 35 1011 16 10000 7.7 120 11:36 03.02.2020
3552 Clear 37 1011 16 10000 7.7 120 11:18 03.02.2020
3553 Clear 38 1011 15 10000 7.7 110 10:40 03.02.2020
3554 Clear 37 1011 15 10000 7.7 110 10:22 03.02.2020
3555 Clear 38 1011 15 10000 6.7 70 09:46 03.02.2020
3556 Clear 38 1011 16 10000 6.7 110 09:23 03.02.2020
3557 Clear 38 1012 16 10000 7.7 110 08:55 03.02.2020
3558 Clear 38 1012 16 10000 7.7 110 08:37 03.02.2020
3559 Clear 38 1012 16 10000 7.7 110 08:18 03.02.2020
3560 Clear 37 1013 18 10000 9.3 110 07:40 03.02.2020
3561 Clear 37 1013 18 10000 9.3 110 07:21 03.02.2020
3562 Clear 36 1013 19 10000 8.2 80 06:50 03.02.2020
3563 Clear 36 1013 21 10000 7.2 110 06:28 03.02.2020
3564 Clear 34 1014 24 10000 8.7 100 05:37 03.02.2020
3565 Clear 33 1014 24 10000 8.7 100 05:18 03.02.2020
3566 Clear 29 1016 34 10000 7.2 80 03:19 03.02.2020
3567 Clear 26 1017 44 10000 9.3 100 02:34 03.02.2020
3568 Clear 24 1016 53 10000 9.3 90 01:41 03.02.2020
3569 Clear 22 1016 56 10000 10.3 90 00:46 03.02.2020
3570 Clear 20 1016 56 10000 8.7 100 00:23 03.02.2020
3571 Clear 19 1016 63 10000 8.2 90 23:39 02.02.2020
3572 Clear 19 1016 63 10000 8.2 90 23:20 02.02.2020
3573 Clear 19 1015 63 10000 8.2 90 22:57 02.02.2020
3574 Clear 19 1015 63 10000 8.2 90 22:57 02.02.2020
3575 Clear 19 1015 59 10000 7.2 100 22:38 02.02.2020
3576 Clear 19 1015 59 10000 7.2 100 22:19 02.02.2020
3577 Clear 19 1016 63 10000 9.3 90 21:54 02.02.2020
3578 Clear 20 1015 59 10000 7.7 100 21:36 02.02.2020
3579 Clear 20 1015 59 10000 7.7 100 21:18 02.02.2020
3580 Clear 20 1015 60 10000 9.3 100 20:55 02.02.2020
3581 Clear 21 1014 56 10000 7.7 100 20:36 02.02.2020
3582 Clear 21 1014 56 10000 7.7 100 20:18 02.02.2020
3583 Clear 22 1015 49 10000 3.1 110 19:42 02.02.2020
3584 Clear 22 1015 49 10000 3.1 110 19:23 02.02.2020
3585 Clear 23 1014 46 10000 8.7 100 18:59 02.02.2020
3586 Clear 24 1014 44 10000 9.8 100 18:38 02.02.2020
3587 Clear 24 1014 44 10000 9.8 100 18:20 02.02.2020
3588 Clear 25 1014 38 10000 9.8 100 17:58 02.02.2020
3589 Clear 25 1014 31 10000 7.7 110 17:38 02.02.2020
3590 Clear 25 1014 31 10000 7.7 110 17:38 02.02.2020
3591 Clear 26 1014 31 10000 7.7 110 17:19 02.02.2020
3592 Clear 27 1014 28 10000 9.3 100 16:58 02.02.2020
3593 Clear 27 1014 28 10000 9.3 100 16:58 02.02.2020
3594 Clear 27 1015 26 10000 6.2 120 16:39 02.02.2020
3595 Clear 27 1015 26 10000 6.2 120 16:39 02.02.2020
3596 Clear 27 1015 26 10000 6.2 120 16:19 02.02.2020
3597 Clear 27 1015 28 10000 9.3 100 15:57 02.02.2020
3598 Clear 27 1015 26 10000 5.1 160 15:38 02.02.2020
3599 Clear 27 1015 26 10000 5.1 160 15:19 02.02.2020
3600 Clear 27 1015 26 10000 4.6 150 14:45 02.02.2020
3601 Clear 27 1015 26 10000 4.6 150 14:45 02.02.2020
3602 Clear 28 1015 24 10000 5.7 130 14:20 02.02.2020
3603 Clear 28 1015 21 10000 4.1 120 13:59 02.02.2020
3604 Clear 28 1015 20 10000 4.1 120 13:41 02.02.2020
3605 Clear 29 1015 20 10000 4.1 120 13:23 02.02.2020
3606 Clear 29 1015 20 10000 4.1 120 13:23 02.02.2020
3607 Clear 30 1015 17 10000 5.7 110 12:58 02.02.2020
3608 Clear 30 1015 15 10000 6.7 100 12:40 02.02.2020
3609 Clear 30 1015 15 10000 6.7 100 12:22 02.02.2020
3610 Clear 31 1014 16 10000 6.7 110 11:54 02.02.2020
3611 Clear 31 1014 16 10000 6.7 110 11:54 02.02.2020
3612 Clear 31 1014 15 10000 6.7 120 11:36 02.02.2020
3613 Clear 33 1014 15 10000 6.7 120 11:18 02.02.2020
3614 Clear 34 1014 15 10000 6.7 120 10:54 02.02.2020
3615 Clear 34 1014 15 10000 7.2 130 10:36 02.02.2020
3616 Clear 34 1014 13 10000 6.2 150 10:18 02.02.2020
3617 Clear 34 1014 14 10000 7.7 140 09:40 02.02.2020
3618 Clear 34 1014 14 10000 7.7 140 09:21 02.02.2020
3619 Clear 34 1015 17 10000 6.7 160 08:49 02.02.2020
3620 Clear 34 1015 17 10000 5.7 110 08:30 02.02.2020
3621 Clear 34 1015 17 10000 6.7 120 07:49 02.02.2020
3622 Clear 34 1015 17 10000 6.7 120 07:49 02.02.2020
3623 Clear 33 1016 19 10000 4.1 120 07:31 02.02.2020
3624 Clear 33 1016 21 10000 5.7 120 06:57 02.02.2020
3625 Clear 34 1017 22 10000 6.2 110 06:38 02.02.2020
3626 Clear 33 1017 22 10000 6.2 110 06:18 02.02.2020
3627 Clear 31 1018 25 10000 6.2 90 05:20 02.02.2020
3628 Clear 27 1019 36 10000 7.7 100 03:43 02.02.2020
3629 Clear 27 1019 36 10000 7.7 100 03:22 02.02.2020
3630 Clear 24 1020 44 10000 6.7 120 02:20 02.02.2020
3631 Clear 23 1020 46 10000 6.7 120 01:50 02.02.2020
3632 Clear 20 1021 56 10000 7.7 100 00:51 02.02.2020
3633 Clear 19 1020 63 10000 9.3 100 00:25 02.02.2020
3634 Clear 18 1020 63 10000 5.7 110 23:56 01.02.2020
3635 Clear 17 1020 67 10000 8.7 110 23:38 01.02.2020
3636 Clear 17 1020 67 10000 8.7 110 23:19 01.02.2020
3637 Clear 17 1019 59 10000 8.2 100 22:43 01.02.2020
3638 Clear 17 1019 59 10000 8.2 100 22:18 01.02.2020
3639 Clear 17 1019 59 10000 8.2 100 22:18 01.02.2020
3640 Clear 18 1018 59 10000 6.2 110 21:40 01.02.2020
3641 Clear 18 1018 59 10000 6.2 110 21:19 01.02.2020
3642 Clear 18 1018 59 10000 6.2 110 21:19 01.02.2020
3643 Clear 19 1018 55 10000 6.7 120 20:55 01.02.2020
3644 Clear 19 1018 49 10000 4.6 120 20:36 01.02.2020
3645 Clear 19 1018 49 10000 4.6 120 20:18 01.02.2020
3646 Clear 20 1018 49 10000 7.7 120 19:54 01.02.2020
3647 Clear 20 1018 40 10000 4.1 140 19:36 01.02.2020
3648 Clear 20 1018 40 10000 4.1 140 19:18 01.02.2020
3649 Clear 19 1018 42 10000 4.6 190 18:42 01.02.2020
3650 Clear 18 1018 42 10000 4.6 190 18:23 01.02.2020
3651 Clear 18 1018 67 10000 3.6 160 17:59 01.02.2020
3652 Clear 18 1018 63 10000 8.2 110 17:40 01.02.2020
3653 Clear 17 1018 63 10000 8.2 110 17:20 01.02.2020
3654 Clear 18 1018 63 10000 8.2 110 16:57 01.02.2020
3655 Clear 19 1018 59 10000 4.1 190 16:38 01.02.2020
3656 Clear 19 1018 59 10000 4.1 190 16:20 01.02.2020
3657 Clear 20 1019 56 10000 8.2 110 15:42 01.02.2020
3658 Clear 20 1019 56 10000 8.2 110 15:24 01.02.2020
3659 Clear 21 1019 52 10000 8.2 110 14:57 01.02.2020
3660 Clear 21 1019 60 10000 5.1 180 14:38 01.02.2020
3661 Clear 21 1018 53 10000 7.7 190 14:20 01.02.2020
3662 Clear 22 1018 53 10000 8.2 200 13:43 01.02.2020
3663 Clear 22 1018 49 10000 8.2 210 13:18 01.02.2020
3664 Clear 22 1018 47 10000 8.2 200 12:43 01.02.2020
3665 Clear 23 1017 44 10000 7.7 200 12:24 01.02.2020
3666 Clear 24 1017 44 10000 7.7 220 11:55 01.02.2020
3667 Clear 24 1017 39 10000 8.2 220 11:37 01.02.2020
3668 Clear 25 1017 39 10000 8.2 220 11:18 01.02.2020
3669 Clear 26 1017 39 10000 5.7 240 10:42 01.02.2020
3670 Clear 26 1017 39 10000 5.7 240 10:24 01.02.2020
3671 Clear 27 1017 39 10000 7.7 220 09:59 01.02.2020
3672 Clear 27 1016 36 10000 8.2 220 09:41 01.02.2020
3673 Clear 27 1016 36 10000 8.2 220 09:21 01.02.2020
3674 Clear 27 1016 30 10000 8.2 220 08:58 01.02.2020
3675 Clouds 27 1017 36 10000 7.7 250 08:18 01.02.2020
3676 Clouds 27 1018 24 10000 8.7 220 07:41 01.02.2020
3677 Clouds 27 1018 24 10000 8.7 220 07:22 01.02.2020
3678 Clouds 28 1018 23 10000 8.7 220 06:44 01.02.2020
3679 Clouds 27 1019 28 10000 3.6 150 05:54 01.02.2020
3680 Clouds 25 1020 33 10000 5.1 150 04:22 01.02.2020
3681 Clouds 23 1021 40 10000 5.1 150 03:25 01.02.2020
3682 Clouds 22 1021 40 10000 5.1 150 02:55 01.02.2020
3683 Clouds 21 1021 43 10000 6.7 100 02:37 01.02.2020
3684 Clear 21 1021 43 10000 6.7 100 02:18 01.02.2020
3685 Clear 19 1021 52 10000 5.7 100 01:39 01.02.2020
3686 Clear 18 1021 52 10000 4.6 100 00:47 01.02.2020
3687 Clear 17 1020 55 10000 6.7 110 00:23 01.02.2020
3688 Clear 16 1020 58 10000 5.1 110 23:40 31.01.2020
3689 Clear 15 1020 58 10000 5.1 110 23:18 31.01.2020
3690 Clear 15 1019 58 10000 6.7 120 22:56 31.01.2020
3691 Clear 15 1019 58 10000 5.1 120 22:37 31.01.2020
3692 Clear 15 1019 58 10000 5.1 120 22:19 31.01.2020
3693 Clear 15 1018 58 10000 5.1 130 21:40 31.01.2020
3694 Clear 15 1018 58 10000 5.1 130 21:21 31.01.2020
3695 Clear 15 1018 58 10000 4.1 150 20:57 31.01.2020
3696 Clear 15 1018 54 10000 4.6 170 20:39 31.01.2020
3697 Clear 15 1017 55 10000 4.1 120 20:21 31.01.2020
3698 Clear 15 1017 55 10000 4.1 120 19:56 31.01.2020
3699 Clear 15 1017 59 10000 4.1 190 19:38 31.01.2020
3700 Clear 15 1017 59 10000 4.1 190 19:38 31.01.2020
3701 Clear 15 1017 59 10000 4.1 190 19:19 31.01.2020
3702 Clear 15 1017 63 10000 4.6 190 18:46 31.01.2020
3703 Clear 15 1017 63 10000 4.6 190 18:27 31.01.2020
3704 Clear 15 1017 63 10000 4.1 190 17:59 31.01.2020
3705 Clear 16 1017 63 10000 4.1 200 17:40 31.01.2020
3706 Clear 16 1017 63 10000 4.1 200 17:21 31.01.2020
3707 Clear 16 1017 63 10000 4.6 190 16:56 31.01.2020
3708 Clear 17 1017 59 10000 5.1 190 16:37 31.01.2020
3709 Clear 17 1017 59 10000 5.1 190 16:18 31.01.2020
3710 Clear 17 1017 55 10000 7.2 190 15:41 31.01.2020
3711 Clear 18 1017 55 10000 7.2 190 15:21 31.01.2020
3712 Clear 18 1017 55 10000 6.7 200 14:58 31.01.2020
3713 Clear 18 1017 52 10000 7.7 200 14:40 31.01.2020
3714 Clear 18 1017 52 10000 7.7 200 14:20 31.01.2020
3715 Clear 19 1016 55 10000 6.7 210 13:44 31.01.2020
3716 Clear 19 1016 55 10000 6.7 210 13:25 31.01.2020
3717 Clear 19 1016 55 10000 8.2 210 12:46 31.01.2020
3718 Clear 19 1016 49 10000 8.7 220 12:26 31.01.2020
3719 Clear 20 1015 56 10000 8.2 220 11:59 31.01.2020
3720 Clear 20 1015 49 10000 8.2 230 11:40 31.01.2020
3721 Clear 21 1015 43 10000 7.7 220 11:22 31.01.2020
3722 Clear 22 1014 43 10000 8.2 230 10:57 31.01.2020
3723 Clear 22 1014 40 10000 8.7 230 10:37 31.01.2020
3724 Clear 22 1014 40 10000 8.7 230 10:19 31.01.2020
3725 Clear 23 1013 35 10000 9.3 240 09:42 31.01.2020
3726 Clear 23 1013 35 10000 9.3 240 09:22 31.01.2020
3727 Clear 23 1013 36 10000 9.3 220 08:57 31.01.2020
3728 Clear 24 1013 33 10000 8.2 230 08:39 31.01.2020
3729 Clear 24 1013 33 10000 8.2 230 08:20 31.01.2020
3730 Clear 24 1013 31 10000 7.7 220 07:49 31.01.2020
3731 Clear 24 1013 33 10000 9.3 210 07:19 31.01.2020
3732 Clear 24 1014 25 10000 8.2 240 06:37 31.01.2020
3733 Clouds 24 1014 29 10000 7.7 200 05:56 31.01.2020
3734 Clear 23 1014 28 10000 4.1 240 05:25 31.01.2020
3735 Clear 23 1014 31 10000 6.2 200 04:20 31.01.2020
3736 Clear 21 1014 35 10000 4.1 240 02:49 31.01.2020
3737 Clear 18 1014 48 10000 3.1 140 01:30 31.01.2020
3738 Clouds 16 1014 67 10000 3.1 140 00:39 31.01.2020
3739 Clouds 16 1014 67 10000 3.1 140 00:39 31.01.2020
3740 Clouds 15 1014 67 10000 3.1 140 00:20 31.01.2020
3741 Clouds 12 1013 81 10000 3.1 200 23:40 30.01.2020
3742 Clouds 11 1013 81 10000 3.1 200 23:21 30.01.2020
3743 Clouds 12 1012 66 10000 3.6 200 22:38 30.01.2020
3744 Clouds 12 1012 66 10000 3.6 200 22:20 30.01.2020
3745 Clouds 13 1012 66 10000 4.1 190 21:58 30.01.2020
3746 Clouds 13 1012 66 10000 3.1 190 21:40 30.01.2020
3747 Clouds 13 1012 66 10000 4.1 190 21:18 30.01.2020
3748 Clouds 13 1012 66 10000 4.1 190 20:56 30.01.2020
3749 Clouds 13 1012 66 10000 3.6 190 20:37 30.01.2020
3750 Clear 13 1012 66 10000 3.6 190 20:19 30.01.2020
3751 Clear 14 1012 58 10000 4.6 190 19:42 30.01.2020
3752 Clear 15 1012 58 10000 4.6 190 19:19 30.01.2020
3753 Clear 15 1011 58 10000 4.1 180 18:58 30.01.2020
3754 Clear 15 1011 58 10000 4.1 180 18:58 30.01.2020
3755 Clear 15 1011 58 10000 4.6 180 18:36 30.01.2020
3756 Clear 15 1011 58 10000 4.6 180 18:18 30.01.2020
3757 Clear 16 1011 55 10000 7.2 190 17:41 30.01.2020
3758 Clear 16 1011 55 10000 7.2 190 17:19 30.01.2020
3759 Clear 16 1011 55 10000 7.2 190 16:58 30.01.2020
3760 Clear 17 1011 52 10000 7.2 200 16:39 30.01.2020
3761 Clear 17 1011 52 10000 7.2 200 16:21 30.01.2020
3762 Clear 18 1011 55 10000 7.2 190 15:44 30.01.2020
3763 Clouds 18 1011 55 10000 6.2 210 15:21 30.01.2020
3764 Clouds 18 1011 55 10000 6.2 210 15:21 30.01.2020
3765 Clouds 19 1011 55 10000 5.7 220 14:54 30.01.2020
3766 Clouds 19 1011 55 10000 6.7 210 14:36 30.01.2020
3767 Clouds 19 1011 55 10000 6.7 210 14:18 30.01.2020
3768 Clouds 19 1010 55 10000 4.1 220 13:41 30.01.2020
3769 Clouds 19 1010 55 10000 4.1 220 13:22 30.01.2020
3770 Clouds 19 1010 59 10000 5.7 240 12:54 30.01.2020
3771 Clouds 19 1010 52 10000 6.7 240 12:36 30.01.2020
3772 Clouds 20 1010 52 10000 6.7 240 12:18 30.01.2020
3773 Clouds 21 1009 37 10000 7.7 230 11:40 30.01.2020
3774 Clouds 21 1009 37 10000 7.7 230 11:21 30.01.2020
3775 Clouds 22 1009 40 10000 9.3 210 10:57 30.01.2020
3776 Clouds 22 1009 40 10000 9.3 210 10:38 30.01.2020
3777 Clouds 22 1009 40 10000 9.3 210 10:19 30.01.2020
3778 Clouds 22 1009 38 10000 8.7 230 09:43 30.01.2020
3779 Clouds 23 1009 40 10000 8.7 240 09:22 30.01.2020
3780 Clouds 23 1009 38 10000 8.7 250 08:42 30.01.2020
3781 Clouds 23 1009 38 10000 8.7 250 08:22 30.01.2020
3782 Rain 23 1008 38 10000 8.7 240 07:53 30.01.2020
3783 Rain 23 1009 38 10000 8.7 230 07:35 30.01.2020
3784 Rain 23 1009 33 10000 8.7 230 06:49 30.01.2020
3785 Smoke 23 1009 35 10000 9.3 220 06:31 30.01.2020
3786 Clouds 23 1009 43 10000 9.3 240 05:47 30.01.2020
3787 Clouds 23 1009 41 10000 8.7 230 05:27 30.01.2020
3788 Clouds 23 1009 36 10000 9.8 230 04:23 30.01.2020
3789 Clouds 22 1009 46 10000 8.7 230 03:46 30.01.2020
3790 Rain 21 1009 46 10000 9.3 210 02:52 30.01.2020
3791 Rain 20 1008 68 10000 9.3 240 00:56 30.01.2020
3792 Rain 19 1008 72 10000 9.3 240 00:26 30.01.2020
3793 Rain 19 1007 72 10000 9.3 240 23:49 29.01.2020
3794 Rain 19 1007 72 10000 9.3 240 23:22 29.01.2020
3795 Rain 19 1007 72 10000 5.7 230 22:59 29.01.2020
3796 Rain 19 1007 72 10000 5.7 230 22:59 29.01.2020
3797 Clouds 19 1007 72 10000 6.2 230 22:39 29.01.2020
3798 Clouds 19 1007 72 10000 6.2 230 22:19 29.01.2020
3799 Clouds 19 1006 77 10000 6.2 240 21:58 29.01.2020
3800 Clouds 19 1006 82 10000 5.1 220 21:39 29.01.2020
3801 Clouds 19 1006 82 10000 5.1 220 21:39 29.01.2020
3802 Clouds 19 1006 82 10000 5.1 220 21:19 29.01.2020
3803 Clouds 19 1006 82 10000 4.6 220 20:58 29.01.2020
3804 Clouds 19 1006 82 10000 5.7 230 20:39 29.01.2020
3805 Clouds 19 1006 82 10000 5.7 230 20:21 29.01.2020
3806 Clouds 19 1006 88 10000 5.1 230 19:56 29.01.2020
3807 Rain 19 1006 82 10000 4.6 230 19:37 29.01.2020
3808 Rain 19 1006 82 10000 4.6 230 19:19 29.01.2020
3809 Rain 19 1007 82 10000 5.1 230 18:47 29.01.2020
3810 Clouds 19 1007 93 10000 4.1 220 18:20 29.01.2020
3811 Drizzle 19 1007 88 9000 6.2 230 17:58 29.01.2020
3812 Drizzle 19 1007 88 9000 6.2 230 17:58 29.01.2020
3813 Clouds 19 1007 88 10000 5.1 250 17:39 29.01.2020
3814 Clouds 20 1007 88 10000 5.1 250 17:21 29.01.2020
3815 Rain 20 1007 88 10000 5.7 240 16:41 29.01.2020
3816 Rain 20 1007 88 10000 5.7 240 16:23 29.01.2020
3817 Rain 20 1007 88 6000 5.7 260 15:56 29.01.2020
3818 Rain 20 1007 88 6000 5.7 260 15:56 29.01.2020
3819 Rain 21 1007 94 3400 6.7 250 15:37 29.01.2020
3820 Rain 21 1007 94 3400 6.7 250 15:18 29.01.2020
3821 Clouds 22 1007 68 10000 5.1 260 14:42 29.01.2020
3822 Clouds 22 1007 68 10000 5.1 260 14:20 29.01.2020
3823 Clouds 22 1007 68 10000 6.2 250 13:54 29.01.2020
3824 Clouds 22 1007 68 10000 5.7 250 13:36 29.01.2020
3825 Clouds 22 1007 68 10000 5.7 250 13:36 29.01.2020
3826 Clouds 22 1007 68 10000 5.7 250 13:18 29.01.2020
3827 -273 0 0 0 0 0 12:55 29.01.2020
3828 Clouds 22 1007 60 10000 4.1 230 12:36 29.01.2020
3829 Clouds 23 1007 60 10000 4.1 230 12:18 29.01.2020
3830 Clouds 23 1007 57 10000 6.7 260 11:42 29.01.2020
3831 Clouds 24 1007 57 10000 6.7 260 11:20 29.01.2020
3832 Clear 25 999 10 0 1.34 251 10:46 29.01.2020
3833 Clouds 25 1007 57 10000 7.7 240 10:23 29.01.2020
3834 Clouds 25 1007 57 10000 7.7 240 09:58 29.01.2020
3835 Clouds 25 1007 57 10000 7.7 240 09:39 29.01.2020
3836 Clouds 25 1007 57 10000 7.7 240 09:18 29.01.2020
3837 Clouds 26 1007 51 10000 6.2 250 08:44 29.01.2020
3838 Clouds 27 1007 51 10000 6.2 250 08:24 29.01.2020
3839 Clouds 27 1007 51 10000 5.7 250 07:45 29.01.2020
3840 Clear 27 1008 51 10000 6.2 260 07:26 29.01.2020
3841 Clear 27 1008 47 10000 6.7 250 06:56 29.01.2020
3842 Clear 27 1008 45 10000 6.2 250 06:37 29.01.2020
3843 Clear 27 1008 45 10000 6.2 250 06:19 29.01.2020
3844 Clear 27 1008 44 10000 6.7 250 05:49 29.01.2020
3845 Clear 27 1008 47 10000 5.7 290 05:30 29.01.2020
3846 Clear 27 1009 47 10000 4.1 240 04:38 29.01.2020
3847 Clear 26 1009 54 10000 6.2 240 03:58 29.01.2020
3848 Clouds 24 1010 60 10000 4.6 210 02:33 29.01.2020
3849 Clouds 22 1010 68 10000 5.7 190 00:57 29.01.2020
3850 Clouds 21 1010 77 10000 5.7 190 00:36 29.01.2020
3851 Clouds 20 1010 77 10000 5.7 190 00:18 29.01.2020
3852 Clouds 19 1009 82 10000 4.6 210 23:38 28.01.2020
3853 Clouds 19 1009 82 10000 4.6 210 23:19 28.01.2020
3854 Clouds 18 1009 82 10000 4.1 210 22:44 28.01.2020
3855 Clouds 19 1009 82 10000 3.6 210 22:26 28.01.2020
3856 Clear 19 1009 77 10000 4.1 210 21:54 28.01.2020
3857 Clouds 19 1009 77 10000 4.6 220 21:36 28.01.2020
3858 Clouds 19 1009 77 10000 4.6 220 21:18 28.01.2020
3859 Clouds 19 1009 77 10000 4.6 220 21:18 28.01.2020
3860 Clouds 19 1009 77 10000 4.6 220 21:18 28.01.2020
3861 Clouds 20 1009 77 10000 4.6 210 20:45 28.01.2020
3862 Clouds 20 1008 77 10000 4.6 210 20:25 28.01.2020
3863 Clouds 20 1009 77 10000 4.6 200 19:55 28.01.2020
3864 Clouds 20 1009 77 10000 5.1 200 19:36 28.01.2020
3865 Clouds 21 1009 77 10000 5.1 200 19:18 28.01.2020
3866 Clouds 21 1009 77 10000 5.1 200 18:41 28.01.2020
3867 Clouds 21 1009 77 10000 5.1 200 18:22 28.01.2020
3868 Clouds 21 1009 83 10000 4.6 180 17:59 28.01.2020
3869 Clouds 21 1009 77 10000 5.7 210 17:38 28.01.2020
3870 Clouds 21 1009 77 10000 5.7 210 17:19 28.01.2020
3871 Clouds 21 1009 83 10000 5.7 210 16:55 28.01.2020
3872 Clouds 21 1009 77 10000 6.2 210 16:37 28.01.2020
3873 Clouds 21 1009 77 10000 6.2 210 16:19 28.01.2020
3874 Clear 21 1009 88 10000 5.1 220 15:44 28.01.2020
3875 Clear 21 1009 88 10000 5.1 220 15:19 28.01.2020
3876 Smoke 21 1009 78 10000 5.1 200 14:55 28.01.2020
3877 Smoke 22 1009 78 10000 5.1 200 14:36 28.01.2020
3878 Smoke 22 1009 78 10000 5.1 200 14:18 28.01.2020
3879 Clear 22 1008 69 10000 5.1 240 13:39 28.01.2020
3880 Clear 23 1008 69 10000 5.1 240 13:21 28.01.2020
3881 Clear 23 1008 69 10000 5.1 240 13:21 28.01.2020
3882 Clear 24 1008 57 10000 7.7 250 12:42 28.01.2020
3883 Clear 24 1008 57 10000 7.7 250 12:24 28.01.2020
3884 Clear 25 1008 47 10000 7.2 240 11:55 28.01.2020
3885 Clear 26 1008 42 10000 7.7 250 11:37 28.01.2020
3886 Clear 27 1008 42 10000 7.7 250 11:18 28.01.2020
3887 Clear 29 1007 37 10000 7.2 240 10:40 28.01.2020
3888 Clear 29 1007 37 10000 7.2 240 10:22 28.01.2020
3889 Clear 31 1007 38 10000 7.7 250 09:55 28.01.2020
3890 -273 0 0 0 0 0 09:55 28.01.2020
3891 Clear 32 1007 35 10000 8.7 240 09:36 28.01.2020
3892 Clear 32 1007 35 10000 8.7 240 09:18 28.01.2020
3893 Clear 34 1007 30 10000 7.7 250 08:40 28.01.2020
3894 Clear 32 1007 30 10000 7.7 250 08:19 28.01.2020
3895 Clear 33 1007 25 10000 7.2 250 07:37 28.01.2020
3896 Clear 35 1007 26 10000 6.7 240 06:50 28.01.2020
3897 Clear 33 1008 26 10000 7.2 250 06:26 28.01.2020
3898 Clear 32 1008 34 10000 7.2 240 05:54 28.01.2020
3899 Clear 33 1008 34 10000 6.7 260 05:26 28.01.2020
3900 Clear 34 1008 26 10000 7.2 240 04:28 28.01.2020
3901 Clear 32 1009 33 10000 5.1 250 02:58 28.01.2020
3902 Clear 31 1009 35 10000 5.1 250 02:25 28.01.2020
3903 Clear 30 1009 37 10000 5.1 250 01:57 28.01.2020
3904 Clear 30 1009 37 10000 5.1 250 01:57 28.01.2020
3905 Clear 28 1009 42 10000 1.5 110 01:24 28.01.2020
3906 Clear 27 1009 44 10000 1.5 80 00:48 28.01.2020
3907 Clear 25 1009 50 10000 2.1 50 00:28 28.01.2020
3908 Clear 23 1009 60 10000 1 20 23:49 27.01.2020
3909 Clear 22 1009 64 10000 1.48 205 23:30 27.01.2020
3910 Clear 22 1008 56 10000 1.5 40 22:55 27.01.2020
3911 Clear 23 1008 56 10000 0.5 30 22:36 27.01.2020
3912 Clear 23 1008 56 10000 0.5 30 22:18 27.01.2020
3913 Clear 23 1008 56 10000 0.5 30 22:18 27.01.2020
3914 Clear 24 1008 50 10000 2.6 40 21:54 27.01.2020
3915 Clear 23 1008 44 10000 2.1 110 21:36 27.01.2020
3916 Clear 23 1008 44 10000 2.1 110 21:18 27.01.2020
3917 Clear 24 1008 42 10000 3.1 110 20:42 27.01.2020
3918 Clear 23 1008 42 10000 3.1 110 20:22 27.01.2020
3919 Clear 23 1008 56 10000 0.5 260 19:59 27.01.2020
3920 Clear 23 1008 64 10000 1.5 300 19:40 27.01.2020
3921 Clear 23 1008 64 10000 1.5 300 19:22 27.01.2020
3922 Clear 23 1008 64 10000 1.5 290 18:56 27.01.2020
3923 Clear 24 1008 64 10000 2.6 230 18:37 27.01.2020
3924 Clear 24 1008 64 10000 2.6 230 18:37 27.01.2020
3925 Clear 24 1008 64 10000 2.6 230 18:19 27.01.2020
3926 Clear 25 1009 57 10000 3.1 210 17:39 27.01.2020
3927 Clear 25 1009 57 10000 3.1 210 17:20 27.01.2020
3928 Clear 25 1009 57 10000 3.1 210 16:58 27.01.2020
3929 Clear 25 1009 53 10000 2.6 210 16:40 27.01.2020
3930 Clear 25 1009 53 10000 2.6 210 16:22 27.01.2020
3931 Clear 25 1009 53 10000 2.6 210 16:22 27.01.2020
3932 Clear 26 1010 42 10000 4.1 190 15:55 27.01.2020
3933 Clear 26 1010 42 10000 5.1 200 15:36 27.01.2020
3934 Clear 27 1010 42 10000 5.1 200 15:18 27.01.2020
3935 Clear 28 1010 37 10000 4.6 210 14:41 27.01.2020
3936 Clear 28 1010 37 10000 4.6 210 14:22 27.01.2020
3937 Clear 29 1010 33 10000 3.6 220 13:54 27.01.2020
3938 Clear 29 1009 31 10000 4.6 220 13:36 27.01.2020
3939 Clouds 29 1009 31 10000 4.6 220 13:18 27.01.2020
3940 Clouds 31 1009 24 10000 5.1 220 12:42 27.01.2020
3941 Clouds 31 1009 24 10000 5.1 220 12:22 27.01.2020
3942 Clouds 33 1009 19 10000 5.1 190 11:43 27.01.2020
3943 Clouds 35 1009 18 10000 5.1 190 11:23 27.01.2020
3944 Clouds 35 1009 18 10000 5.1 190 11:23 27.01.2020
3945 Clouds 36 1009 18 10000 5.1 190 10:57 27.01.2020
3946 Clouds 36 1009 18 10000 5.1 190 10:57 27.01.2020
3947 Clouds 36 1009 18 10000 5.1 190 10:57 27.01.2020
3948 Clouds 37 1008 18 10000 7.2 230 10:39 27.01.2020
3949 Clouds 37 1008 18 10000 7.2 230 10:20 27.01.2020
3950 Clouds 40 1008 17 10000 6.7 250 09:40 27.01.2020
3951 Clouds 38 1008 17 10000 6.7 250 09:19 27.01.2020
3952 Clouds 39 1008 17 10000 6.7 250 08:57 27.01.2020
3953 Clouds 38 1009 14 10000 6.7 260 08:39 27.01.2020
3954 Clouds 39 1009 14 10000 6.7 260 08:19 27.01.2020
3955 Clouds 39 1009 20 10000 5.7 260 07:47 27.01.2020
3956 Clouds 39 1009 20 10000 5.7 260 07:47 27.01.2020
3957 Clouds 39 1009 21 10000 6.7 260 07:29 27.01.2020
3958 Clouds 37 1010 20 10000 6.2 260 06:39 27.01.2020
3959 Clouds 39 1010 15 10000 7.7 240 05:51 27.01.2020
3960 Clear 36 1010 18 10000 7.7 240 05:18 27.01.2020
3961 Clear 35 1011 26 10000 6.7 90 03:35 27.01.2020
3962 Clear 30 1012 37 10000 4.6 70 01:56 27.01.2020
3963 Clear 28 1012 44 10000 5.7 70 01:27 27.01.2020
3964 Clear 26 1012 50 10000 4.6 70 00:42 27.01.2020
3965 Clear 26 1012 50 10000 4.6 70 00:22 27.01.2020
3966 Clear 24 1011 49 10000 3.6 60 23:44 26.01.2020
3967 Clear 24 1011 49 10000 3.6 60 23:26 26.01.2020
3968 Clouds 24 1011 47 10000 3.6 90 22:59 26.01.2020
3969 Clouds 24 1011 47 10000 2.6 100 22:38 26.01.2020
3970 Clouds 24 1011 47 10000 2.6 100 22:20 26.01.2020
3971 Clouds 24 1011 47 10000 2.6 100 22:20 26.01.2020
3972 Clouds 24 1010 47 10000 7.7 80 21:58 26.01.2020
3973 Clouds 24 1010 47 10000 7.7 80 21:58 26.01.2020
3974 Clouds 25 1010 47 10000 8.7 90 21:39 26.01.2020
3975 Clouds 25 1010 47 10000 8.7 90 21:20 26.01.2020
3976 Clouds 26 1010 47 10000 8.7 90 20:58 26.01.2020
3977 Clouds 26 1010 47 10000 11.3 90 20:38 26.01.2020
3978 Clouds 26 1010 47 10000 11.3 90 20:38 26.01.2020
3979 Clouds 26 1010 47 10000 11.3 90 20:19 26.01.2020
3980 Clouds 27 1010 44 10000 10.8 90 19:58 26.01.2020
3981 Clouds 27 1010 39 10000 7.7 80 19:38 26.01.2020
3982 Clouds 27 1010 39 10000 7.7 80 19:19 26.01.2020
3983 Clouds 27 1010 39 10000 7.7 80 19:19 26.01.2020
3984 Clouds 26 1010 45 10000 5.7 80 18:56 26.01.2020
3985 Clouds 23 1011 60 10000 2.6 50 18:37 26.01.2020
3986 Clouds 22 1011 60 10000 2.6 50 18:19 26.01.2020
3987 Clouds 23 1011 68 10000 4.1 210 17:55 26.01.2020
3988 Clouds 23 1011 60 10000 3.1 210 17:36 26.01.2020
3989 Clouds 24 1011 53 10000 3.6 210 17:18 26.01.2020
3990 Clouds 24 1011 53 10000 3.6 210 16:55 26.01.2020
3991 Clouds 24 1011 47 10000 4.1 200 16:37 26.01.2020
3992 Clouds 25 1011 47 10000 4.1 200 16:18 26.01.2020
3993 Clouds 25 1009 55 0 1.79 217 15:42 26.01.2020
3994 Clouds 25 1009 54 0 2.68 224 15:19 26.01.2020
3995 Clouds 26 1009 52 0 2.24 239 14:55 26.01.2020
3996 Clouds 26 1009 51 0 2.24 217 14:37 26.01.2020
3997 Clouds 26 1009 51 0 2.68 211 14:18 26.01.2020
3998 Clouds 27 1009 53 0 3.13 256 13:39 26.01.2020
3999 Clouds 27 1009 55 0 2.68 235 13:18 26.01.2020
4000 Clouds 24 1010 81 0 3.87 190 12:43 26.01.2020
4001 Clouds 24 1010 81 0 3.87 190 12:43 26.01.2020
4002 Clouds 24 1010 81 0 3.87 190 12:25 26.01.2020
4003 Clouds 24 1010 74 0 1.34 202 11:59 26.01.2020
4004 Clouds 24 1010 78 0 0.89 187 11:40 26.01.2020
4005 Clouds 31 1011 33 10000 7.7 210 11:19 26.01.2020
4006 Clouds 31 1011 33 10000 7.7 210 10:59 26.01.2020
4007 Clouds 31 1011 33 10000 7.7 210 10:39 26.01.2020
4008 Clouds 32 1011 33 10000 7.7 210 10:21 26.01.2020
4009 Clouds 32 1011 36 10000 8.7 230 09:59 26.01.2020
4010 Clouds 32 1011 34 10000 7.7 220 09:41 26.01.2020
4011 Clouds 32 1011 34 10000 7.7 220 09:21 26.01.2020
4012 Clouds 33 1011 38 10000 6.7 260 08:45 26.01.2020
4013 Clouds 33 1011 38 10000 7.7 260 08:23 26.01.2020
4014 Clouds 34 1011 36 10000 7.2 260 07:58 26.01.2020
4015 Clouds 34 1011 28 10000 6.2 250 07:40 26.01.2020
4016 Clouds 33 1011 28 10000 6.2 250 07:21 26.01.2020
4017 Clouds 35 1012 28 10000 4.6 240 06:31 26.01.2020
4018 Clouds 34 1012 30 10000 3.6 170 05:32 26.01.2020
4019 Clouds 31 1013 31 10000 7.7 240 04:45 26.01.2020
4020 Clouds 29 1014 42 10000 7.7 240 02:58 26.01.2020
4021 Clear 26 1014 47 10000 5.1 110 01:50 26.01.2020
4022 Clouds 25 1014 53 10000 5.7 80 01:25 26.01.2020
4023 Clouds 24 1014 56 10000 3.6 110 00:58 26.01.2020
4024 Clouds 23 1014 56 10000 4.6 130 00:37 26.01.2020
4025 Clouds 23 1014 56 10000 4.6 130 00:19 26.01.2020
4026 Clouds 22 1007 10 0 0.89 125 23:37 25.01.2020
4027 Clouds 22 1012 66 0 2.24 160 23:18 25.01.2020
4028 Clouds 21 1011 66 0 2.68 188 22:40 25.01.2020
4029 Clouds 21 1011 66 0 1.79 173 22:19 25.01.2020
4030 Clouds 22 1007 10 0 1.34 178 21:57 25.01.2020
4031 Clouds 22 1011 65 0 2.24 172 21:38 25.01.2020
4032 Clouds 22 1011 65 0 2.24 172 21:38 25.01.2020
4033 Clouds 22 1011 66 0 2.68 207 21:20 25.01.2020
4034 Clouds 22 1010 71 0 2.68 179 20:44 25.01.2020
4035 Clouds 22 1010 71 0 2.68 179 20:44 25.01.2020
4036 Clouds 22 1010 75 0 1.79 173 20:25 25.01.2020
4037 Clouds 22 1010 75 0 1.79 173 20:25 25.01.2020
4038 Clouds 21 1014 63 0 4.22 112 19:55 25.01.2020
4039 Clouds 21 1010 81 0 0.89 218 19:37 25.01.2020
4040 Clouds 21 1010 81 0 0.89 218 19:18 25.01.2020
4041 Clouds 21 1013 82 0 0.89 197 18:42 25.01.2020
4042 Clouds 21 1010 81 0 4.22 112 18:21 25.01.2020
4043 Clouds 21 1010 81 0 0.45 195 17:58 25.01.2020
4044 Clouds 21 1010 81 0 0.89 233 17:38 25.01.2020
4045 Clouds 22 1010 81 0 0.89 260 17:18 25.01.2020
4046 Clouds 22 1014 83 0 3.51 155 16:42 25.01.2020
4047 Clouds 22 1010 80 0 0.45 231 16:23 25.01.2020
4048 Clouds 22 1010 79 0 1.34 239 15:58 25.01.2020
4049 Clouds 22 1010 79 0 1.34 233 15:39 25.01.2020
4050 Clouds 22 1011 78 0 1.34 271 15:20 25.01.2020
4051 Clouds 23 1011 77 0 1.79 233 14:42 25.01.2020
4052 Clouds 23 1011 76 0 1.34 231 14:19 25.01.2020
4053 Clouds 23 1007 10 0 0.45 260 13:45 25.01.2020
4054 Clouds 23 1014 76 0 1.34 212 13:27 25.01.2020
4055 Clouds 24 1013 54 10000 5.1 220 12:57 25.01.2020
4056 Clouds 25 1013 42 10000 5.7 240 12:38 25.01.2020
4057 Clouds 26 1013 42 10000 5.7 240 12:19 25.01.2020
4058 Clouds 26 1013 42 10000 5.7 240 12:19 25.01.2020
4059 Clouds 27 1013 42 10000 6.7 230 11:40 25.01.2020
4060 Clouds 27 1013 42 10000 6.7 230 11:40 25.01.2020
4061 Clouds 28 1013 42 10000 6.7 230 11:19 25.01.2020
4062 Clouds 29 1013 48 10000 6.2 240 10:55 25.01.2020
4063 Clouds 29 1013 42 10000 7.2 240 10:37 25.01.2020
4064 Clouds 29 1013 42 10000 7.2 240 10:18 25.01.2020
4065 Clouds 30 1013 35 10000 7.2 220 09:40 25.01.2020
4066 Clouds 29 1013 35 10000 7.2 220 09:19 25.01.2020
4067 Clouds 30 1012 43 10000 6.7 260 08:43 25.01.2020
4068 Clouds 31 1013 43 10000 6.2 260 07:57 25.01.2020
4069 Clouds 31 1013 43 10000 6.2 260 07:28 25.01.2020
4070 Clouds 31 1014 40 10000 7.2 260 06:33 25.01.2020
4071 Clouds 31 1014 40 10000 6.7 270 05:57 25.01.2020
4072 Clouds 31 1014 26 10000 4.1 230 05:38 25.01.2020
4073 Clouds 31 1014 26 10000 4.1 230 05:38 25.01.2020
4074 Clouds 31 1015 37 10000 7.2 250 03:58 25.01.2020
4075 Clouds 29 1015 42 10000 7.2 250 03:39 25.01.2020
4076 Clouds 27 1016 50 10000 5.1 90 02:36 25.01.2020
4077 Clouds 25 1016 53 10000 3.6 90 01:57 25.01.2020
4078 Clouds 24 1016 57 10000 1.5 90 01:21 25.01.2020
4079 Clouds 22 1016 68 10000 2.3 95 00:37 25.01.2020
4080 Clouds 21 1016 68 10000 2.3 95 00:18 25.01.2020
4081 Clouds 19 1015 88 10000 0.5 180 23:41 24.01.2020
4082 Clouds 19 1015 88 10000 0.5 180 23:41 24.01.2020
4083 Clouds 19 1015 88 10000 0.5 180 23:41 24.01.2020
4084 Clouds 19 1015 88 10000 0.5 180 23:41 24.01.2020
4085 Clouds 18 1015 88 10000 0.5 180 23:23 24.01.2020
4086 Clouds 17 1015 87 10000 2.1 170 22:46 24.01.2020
4087 Clouds 18 1015 87 10000 3.6 210 22:27 24.01.2020
4088 Clouds 17 1014 87 10000 3.6 210 21:58 24.01.2020
4089 Clouds 18 1014 87 10000 3.6 190 21:39 24.01.2020
4090 Clouds 18 1014 87 10000 3.6 190 21:18 24.01.2020
4091 Clouds 18 1014 77 10000 2.6 210 20:43 24.01.2020
4092 Clouds 18 1014 77 10000 2.6 210 20:22 24.01.2020
4093 Clouds 18 1014 77 10000 4.1 220 19:58 24.01.2020
4094 Clouds 18 1014 77 10000 2.6 200 19:39 24.01.2020
4095 Clouds 18 1014 77 10000 2.6 200 19:21 24.01.2020
4096 Clouds 18 1015 77 10000 2.6 180 18:44 24.01.2020
4097 Clouds 19 1015 77 10000 3.6 180 18:25 24.01.2020
4098 Clouds 19 1015 72 10000 3.6 200 17:56 24.01.2020
4099 Clouds 19 1015 72 10000 3.6 200 17:56 24.01.2020
4100 Clouds 19 1015 77 10000 3.6 210 17:38 24.01.2020
4101 Clear 19 1015 77 10000 3.6 210 17:20 24.01.2020
4102 Clear 20 1016 72 10000 5.1 200 16:39 24.01.2020
4103 Clear 20 1016 72 10000 5.1 200 16:21 24.01.2020
4104 Clear 20 1016 68 10000 7.7 200 15:55 24.01.2020
4105 Clear 21 1016 64 10000 5.7 200 15:37 24.01.2020
4106 Clear 21 1016 64 10000 5.7 200 15:18 24.01.2020
4107 Clear 21 1016 64 10000 6.2 220 14:41 24.01.2020
4108 Clear 21 1016 64 10000 6.2 220 14:22 24.01.2020
4109 Clear 23 1015 64 10000 5.1 220 13:44 24.01.2020
4110 Clear 23 1015 44 10000 5.7 220 13:24 24.01.2020
4111 Clear 24 1015 41 10000 5.7 220 12:45 24.01.2020
4112 Clear 25 1015 36 10000 7.7 220 12:23 24.01.2020
4113 Clear 26 1015 32 10000 6.2 230 11:59 24.01.2020
4114 Clear 27 1014 30 10000 8.2 230 11:40 24.01.2020
4115 Clear 28 1014 30 10000 8.2 230 11:18 24.01.2020
4116 Clear 30 1014 23 10000 8.7 230 10:43 24.01.2020
4117 Clear 30 1014 23 10000 8.7 230 10:21 24.01.2020
4118 Clear 30 1014 23 10000 8.2 250 09:55 24.01.2020
4119 Clear 31 1014 22 10000 7.7 250 09:37 24.01.2020
4120 Clear 31 1014 22 10000 7.7 250 09:18 24.01.2020
4121 Clear 32 1014 27 10000 6.7 250 08:39 24.01.2020
4122 Clear 32 1014 27 10000 6.7 250 08:19 24.01.2020
4123 Clear 32 1015 31 10000 6.2 240 07:48 24.01.2020
4124 Clear 32 1015 31 10000 7.7 270 07:22 24.01.2020
4125 Clear 32 1015 31 10000 7.2 260 06:45 24.01.2020
4126 Clear 32 1015 29 10000 7.7 260 06:24 24.01.2020
4127 Clear 32 1016 29 10000 2.6 340 05:33 24.01.2020
4128 Clear 29 1017 39 10000 3.6 100 03:36 24.01.2020
4129 Clear 27 1017 47 10000 3.6 80 02:40 24.01.2020
4130 Clear 26 1017 47 10000 3.6 80 02:21 24.01.2020
4131 Clear 24 1017 53 10000 5.1 90 01:39 24.01.2020
4132 Clear 22 1017 60 10000 5.1 90 00:52 24.01.2020
4133 Clear 21 1017 60 10000 4.6 80 00:19 24.01.2020
4134 Clear 19 1016 63 10000 4.1 100 23:42 23.01.2020
4135 Clear 19 1016 63 10000 4.1 100 23:23 23.01.2020
4136 Clear 19 1016 63 10000 3.6 100 22:58 23.01.2020
4137 Clear 19 1015 60 10000 3.1 110 22:37 23.01.2020
4138 Clear 19 1015 60 10000 3.1 110 22:37 23.01.2020
4139 Clear 19 1015 60 10000 3.1 110 22:18 23.01.2020
4140 Clear 19 1015 60 10000 4.6 110 21:55 23.01.2020
4141 Clear 19 1015 60 10000 4.1 120 21:37 23.01.2020
4142 Clear 19 1015 60 10000 4.1 120 21:19 23.01.2020
4143 Clear 18 1015 60 10000 3.1 90 20:54 23.01.2020
4144 Clear 18 1015 72 10000 2.6 60 20:36 23.01.2020
4145 Clear 18 1015 72 10000 2.6 60 20:18 23.01.2020
4146 Clear 18 1015 82 10000 1.5 270 19:42 23.01.2020
4147 Clear 18 1015 82 10000 1.5 270 19:23 23.01.2020
4148 Clear 17 1015 82 10000 2.1 210 18:57 23.01.2020
4149 Clear 18 1015 82 10000 2.6 210 18:38 23.01.2020
4150 Clear 18 1015 82 10000 2.6 210 18:19 23.01.2020
4151 Clear 19 1016 72 10000 3.6 190 17:45 23.01.2020
4152 Clear 19 1016 72 10000 3.6 190 17:21 23.01.2020
4153 Clear 19 1016 68 10000 3.6 200 16:59 23.01.2020
4154 Clear 20 1016 68 10000 4.6 190 16:39 23.01.2020
4155 Clear 20 1016 68 10000 4.6 190 16:20 23.01.2020
4156 Clear 20 1016 64 10000 4.6 210 15:58 23.01.2020
4157 Clear 21 1017 68 10000 4.1 180 15:39 23.01.2020
4158 Clear 21 1017 68 10000 4.1 180 15:19 23.01.2020
4159 Clear 21 1017 73 10000 3.6 180 14:58 23.01.2020
4160 Clear 21 1016 68 10000 4.1 210 14:40 23.01.2020
4161 Clear 21 1016 68 10000 4.1 210 14:21 23.01.2020
4162 Clear 22 1016 68 10000 4.6 210 13:46 23.01.2020
4163 Clear 22 1016 64 10000 6.7 210 13:21 23.01.2020
4164 Clear 22 1015 64 10000 6.7 220 12:57 23.01.2020
4165 Clear 22 1015 64 10000 6.7 220 12:57 23.01.2020
4166 Clear 23 1015 60 10000 7.7 210 12:39 23.01.2020
4167 Clear 23 1015 60 10000 7.7 210 12:21 23.01.2020
4168 Clear 24 1015 54 10000 8.2 230 11:45 23.01.2020
4169 Clear 25 1015 54 10000 8.2 230 11:25 23.01.2020
4170 Clear 25 1015 51 10000 7.7 230 10:59 23.01.2020
4171 Clear 26 1015 51 10000 9.3 230 10:41 23.01.2020
4172 Clear 26 1015 51 10000 9.3 230 10:19 23.01.2020
4173 Clear 27 1015 47 10000 8.2 240 09:41 23.01.2020
4174 Clear 27 1015 47 10000 8.2 240 09:22 23.01.2020
4175 Clear 27 1015 47 10000 7.2 250 08:56 23.01.2020
4176 Clear 27 1015 47 10000 7.2 240 08:38 23.01.2020
4177 Clear 27 1015 47 10000 7.2 240 08:19 23.01.2020
4178 Clear 27 1015 51 10000 7.7 260 07:39 23.01.2020
4179 Clear 27 1015 51 10000 7.7 260 07:18 23.01.2020
4180 Clear 27 1016 51 10000 7.7 230 06:44 23.01.2020
4181 Clear 27 1016 51 10000 7.7 230 06:18 23.01.2020
4182 Clouds 26 1017 50 10000 7.7 240 04:25 23.01.2020
4183 Clouds 25 1017 53 10000 2.6 180 03:36 23.01.2020
4184 Clouds 21 1018 64 10000 3.6 200 01:55 23.01.2020
4185 Clouds 20 1017 72 10000 5.7 190 00:44 23.01.2020
4186 Clouds 19 1017 72 10000 5.7 190 00:24 23.01.2020
4187 Clouds 19 1017 77 10000 5.1 200 23:46 22.01.2020
4188 Clouds 18 1017 77 10000 4.6 200 23:28 22.01.2020
4189 Clouds 18 1016 68 10000 3.1 220 22:43 22.01.2020
4190 Clouds 18 1016 68 10000 3.1 220 22:25 22.01.2020
4191 Clouds 18 1016 68 10000 4.1 200 21:59 22.01.2020
4192 Clouds 18 1016 68 10000 4.6 180 21:38 22.01.2020
4193 Clouds 18 1016 68 10000 4.6 180 21:19 22.01.2020
4194 Clouds 18 1016 68 10000 4.6 180 21:19 22.01.2020
4195 Clouds 19 1016 68 10000 4.1 190 20:42 22.01.2020
4196 Clouds 19 1016 68 10000 4.1 190 20:23 22.01.2020
4197 Clouds 19 1016 68 10000 3.6 190 19:59 22.01.2020
4198 Clouds 19 1016 72 10000 4.1 190 19:41 22.01.2020
4199 Clouds 19 1016 72 10000 4.1 190 19:21 22.01.2020
4200 Clouds 18 1016 72 10000 4.6 180 18:59 22.01.2020
4201 Clouds 18 1016 72 10000 5.7 180 18:40 22.01.2020
4202 Clouds 18 1016 72 10000 5.7 180 18:21 22.01.2020
4203 Clouds 18 1017 72 10000 5.1 200 17:57 22.01.2020
4204 Clouds 18 1017 72 10000 5.1 200 17:57 22.01.2020
4205 Clouds 19 1017 72 10000 4.1 210 17:39 22.01.2020
4206 Clouds 19 1017 72 10000 4.1 210 17:19 22.01.2020
4207 Clouds 19 1017 72 10000 4.1 210 16:54 22.01.2020
4208 Clouds 19 1017 72 10000 4.6 210 16:36 22.01.2020
4209 Clouds 19 1017 72 10000 4.6 210 16:18 22.01.2020
4210 Clouds 20 1017 68 10000 5.1 210 15:41 22.01.2020
4211 Clouds 20 1017 68 10000 5.1 210 15:23 22.01.2020
4212 Clouds 20 1017 68 10000 5.1 210 14:58 22.01.2020
4213 Clouds 20 1016 68 10000 6.2 210 14:37 22.01.2020
4214 Clouds 20 1016 68 10000 6.2 210 14:19 22.01.2020
4215 Clouds 20 1016 68 10000 6.7 210 13:55 22.01.2020
4216 Clouds 20 1016 68 10000 7.2 210 13:36 22.01.2020
4217 Clouds 20 1016 68 10000 7.2 210 13:18 22.01.2020
4218 Clouds 20 1016 72 10000 8.7 210 12:56 22.01.2020
4219 Clouds 21 1015 60 10000 7.2 220 12:37 22.01.2020
4220 Clouds 21 1015 60 10000 7.2 220 12:18 22.01.2020
4221 Clouds 21 1015 60 10000 7.2 220 11:56 22.01.2020
4222 Clouds 21 1015 60 10000 7.2 220 11:56 22.01.2020
4223 Clouds 21 1015 56 10000 7.2 220 11:37 22.01.2020
4224 Clouds 22 1015 56 10000 7.2 220 11:18 22.01.2020
4225 Clouds 23 1015 56 10000 7.2 220 10:44 22.01.2020
4226 Clouds 23 1015 56 10000 7.2 220 10:20 22.01.2020
4227 Clouds 23 1015 50 10000 7.2 220 09:44 22.01.2020
4228 Clouds 23 1015 50 10000 7.2 220 09:25 22.01.2020
4229 Clouds 23 1015 47 10000 9.8 230 08:58 22.01.2020
4230 Clouds 24 1015 50 10000 7.2 220 08:40 22.01.2020
4231 Clouds 24 1015 50 10000 7.2 220 08:21 22.01.2020
4232 Clouds 24 1015 50 10000 7.2 220 07:54 22.01.2020
4233 Clouds 24 1015 47 10000 8.7 220 07:36 22.01.2020
4234 Clouds 24 1015 47 10000 8.7 220 07:18 22.01.2020
4235 Clouds 24 1016 53 10000 5.7 210 06:30 22.01.2020
4236 Clouds 23 1017 49 10000 7.7 220 05:41 22.01.2020
4237 Clouds 22 1017 49 10000 9.3 240 04:18 22.01.2020
4238 Clouds 22 1017 49 10000 9.3 240 03:22 22.01.2020
4239 Clouds 20 1017 56 10000 5.1 190 01:44 22.01.2020
4240 Clouds 18 1017 59 10000 3.6 180 00:44 22.01.2020
4241 Clouds 17 1016 63 10000 3.1 180 00:26 22.01.2020
4242 Clouds 15 1016 82 10000 3.96 183 23:38 21.01.2020
4243 Clouds 15 1016 82 10000 3.96 183 23:38 21.01.2020
4244 Clouds 15 1016 82 10000 3.96 183 23:38 21.01.2020
4245 Clouds 14 1016 82 10000 3.64 162 23:20 21.01.2020
4246 Clouds 14 1016 76 10000 3.64 162 22:59 21.01.2020
4247 Clouds 14 1015 76 10000 1.5 150 22:39 21.01.2020
4248 Clouds 14 1015 76 10000 1.5 130 22:20 21.01.2020
4249 Clouds 14 1015 71 10000 3.6 160 21:56 21.01.2020
4250 Clouds 14 1015 67 10000 3.6 190 21:37 21.01.2020
4251 Clouds 15 1015 67 10000 3.6 190 21:19 21.01.2020
4252 Clear 15 1015 62 10000 4.6 200 20:55 21.01.2020
4253 Clear 15 1015 62 10000 4.6 200 20:37 21.01.2020
4254 Clear 15 1015 62 10000 4.6 200 20:18 21.01.2020
4255 Clear 15 1015 62 10000 4.6 200 20:18 21.01.2020
4256 Clear 15 1015 62 10000 4.1 180 19:55 21.01.2020
4257 Clear 16 1015 59 10000 5.7 190 19:36 21.01.2020
4258 Clear 16 1015 59 10000 5.7 190 19:18 21.01.2020
4259 Clear 16 1015 55 10000 5.1 200 18:54 21.01.2020
4260 Clear 17 1015 55 10000 5.7 200 18:36 21.01.2020
4261 Clear 17 1015 55 10000 5.7 200 18:18 21.01.2020
4262 Clear 17 1015 55 10000 8.7 210 17:42 21.01.2020
4263 Clear 18 1015 55 10000 8.7 210 17:19 21.01.2020
4264 Clear 18 1014 52 10000 7.2 180 16:56 21.01.2020
4265 Clear 18 1015 55 10000 7.2 180 16:36 21.01.2020
4266 Clear 19 1015 55 10000 7.2 180 16:18 21.01.2020
4267 Clear 19 1014 59 10000 6.2 210 15:40 21.01.2020
4268 Clear 19 1014 59 10000 6.2 210 15:20 21.01.2020
4269 Clear 19 1014 59 10000 7.2 210 14:55 21.01.2020
4270 Clear 19 1014 60 10000 7.2 210 14:36 21.01.2020
4271 Clear 19 1014 60 10000 7.2 210 14:18 21.01.2020
4272 Clouds 20 1013 56 10000 6.2 190 13:38 21.01.2020
4273 Clouds 20 1013 56 10000 6.2 190 13:18 21.01.2020
4274 Clouds 20 1013 56 10000 9.3 230 12:43 21.01.2020
4275 Clouds 20 1013 56 10000 9.3 230 12:43 21.01.2020
4276 Clouds 20 1013 56 10000 9.3 230 12:24 21.01.2020
4277 Clouds 21 1013 60 10000 9.3 210 11:56 21.01.2020
4278 Clouds 21 1013 60 10000 9.3 210 11:56 21.01.2020
4279 Clouds 21 1012 56 10000 8.7 220 11:38 21.01.2020
4280 Clouds 21 1012 56 10000 8.7 220 11:38 21.01.2020
4281 Clouds 21 1012 56 10000 8.7 220 11:38 21.01.2020
4282 Clouds 21 1012 56 10000 8.7 220 11:38 21.01.2020
4283 Clouds 22 1012 56 10000 8.7 220 11:19 21.01.2020
4284 Clouds 22 1012 56 10000 8.7 220 11:19 21.01.2020
4285 Clouds 22 1012 49 10000 9.3 230 10:43 21.01.2020
4286 Clouds 23 1012 49 10000 9.3 240 10:23 21.01.2020
4287 Clouds 24 1011 50 10000 8.7 230 09:56 21.01.2020
4288 Clouds 23 1011 50 10000 8.7 230 09:56 21.01.2020
4289 Clouds 24 1012 47 10000 9.3 230 09:38 21.01.2020
4290 Clouds 24 1012 47 10000 9.3 230 09:20 21.01.2020
4291 Clouds 24 1012 50 10000 9.3 230 08:44 21.01.2020
4292 Clouds 24 1012 53 10000 9.3 230 08:26 21.01.2020
4293 Clouds 25 1012 47 10000 8.7 240 07:44 21.01.2020
4294 Clouds 25 1012 47 10000 8.7 240 07:25 21.01.2020
4295 Clouds 25 1012 47 10000 9.3 230 06:58 21.01.2020
4296 Clouds 25 1012 44 10000 9.3 230 06:38 21.01.2020
4297 Clouds 25 1012 50 10000 9.3 230 05:55 21.01.2020
4298 Clouds 25 1012 50 10000 9.3 230 05:55 21.01.2020
4299 Clouds 25 1013 50 10000 9.3 250 05:32 21.01.2020
4300 Clouds 24 1013 50 10000 9.3 220 04:38 21.01.2020
4301 Drizzle 21 1013 64 10000 5.7 220 02:27 21.01.2020
4302 Clouds 20 1013 64 10000 3.1 210 01:36 21.01.2020
4303 Rain 19 1013 68 10000 7.2 230 00:45 21.01.2020
4304 Rain 19 1013 68 10000 7.2 230 00:25 21.01.2020
4305 Clouds 18 1013 72 10000 3.6 210 23:56 20.01.2020
4306 Clouds 18 1013 72 10000 5.1 190 23:36 20.01.2020
4307 Clouds 18 1013 72 10000 5.1 190 23:18 20.01.2020
4308 Clouds 17 1012 72 10000 5.7 180 22:40 20.01.2020
4309 Clouds 17 1012 72 10000 5.7 180 22:21 20.01.2020
4310 Clouds 17 1012 72 10000 5.7 190 21:58 20.01.2020
4311 Clouds 17 1012 72 10000 5.7 190 21:58 20.01.2020
4312 Clouds 17 1012 72 10000 7.2 200 21:38 20.01.2020
4313 Clouds 17 1012 72 10000 7.2 200 21:20 20.01.2020
4314 Clear 17 1012 72 10000 6.2 210 20:58 20.01.2020
4315 Clear 17 1012 72 10000 7.7 200 20:39 20.01.2020
4316 Clear 17 1012 72 10000 7.7 200 20:20 20.01.2020
4317 Clear 18 1012 72 10000 6.7 200 19:58 20.01.2020
4318 Clouds 18 1012 72 10000 8.7 200 19:40 20.01.2020
4319 Clouds 18 1012 72 10000 8.7 200 19:19 20.01.2020
4320 Clouds 19 1012 72 10000 7.7 200 18:45 20.01.2020
4321 Clouds 19 1012 77 10000 5.7 210 18:24 20.01.2020
4322 Clear 19 1012 77 10000 5.1 210 17:59 20.01.2020
4323 Clear 19 1012 72 10000 5.1 220 17:38 20.01.2020
4324 Clear 19 1012 72 10000 5.1 220 17:18 20.01.2020
4325 Clear 20 1012 77 10000 5.1 210 16:45 20.01.2020
4326 Clear 20 1012 77 10000 6.2 210 16:25 20.01.2020
4327 Clouds 20 1012 77 10000 6.2 210 15:58 20.01.2020
4328 Clouds 20 1012 77 10000 6.2 210 15:58 20.01.2020
4329 Clouds 20 1012 77 10000 6.7 220 15:40 20.01.2020
4330 Clouds 20 1012 77 10000 6.7 220 15:21 20.01.2020
4331 Clear 20 1012 82 10000 6.2 210 14:55 20.01.2020
4332 Clouds 21 1012 77 10000 7.7 220 14:36 20.01.2020
4333 Clouds 21 1012 77 10000 7.7 220 14:18 20.01.2020
4334 Clear 21 1012 78 10000 7.7 220 13:41 20.01.2020
4335 Clear 22 1012 78 10000 7.7 220 13:23 20.01.2020
4336 Clear 23 1011 57 10000 7.2 230 12:56 20.01.2020
4337 Clear 23 1010 53 10000 5.7 220 12:38 20.01.2020
4338 Clear 24 1010 53 10000 5.7 220 12:19 20.01.2020
4339 Clear 24 1010 54 10000 7.7 230 11:43 20.01.2020
4340 Clear 24 1010 54 10000 7.7 230 11:43 20.01.2020
4341 Clear 25 1010 54 10000 7.7 230 11:24 20.01.2020
4342 Clear 26 1010 50 10000 8.2 230 10:57 20.01.2020
4343 Clear 26 1010 51 10000 8.7 230 10:39 20.01.2020
4344 Clear 27 1010 51 10000 8.7 230 10:19 20.01.2020
4345 Clear 27 1010 39 10000 7.7 230 09:41 20.01.2020
4346 Clear 28 1010 39 10000 7.7 230 09:21 20.01.2020
4347 Clear 30 1009 35 10000 9.8 230 08:49 20.01.2020
4348 Clear 30 1009 29 10000 7.2 250 08:30 20.01.2020
4349 Clear 31 1009 29 10000 6.2 240 07:53 20.01.2020
4350 Clear 31 1010 27 10000 7.2 240 07:30 20.01.2020
4351 Clear 31 1010 26 10000 6.7 260 06:59 20.01.2020
4352 Clear 31 1010 27 10000 6.7 230 06:30 20.01.2020
4353 Clear 31 1010 31 10000 6.2 240 05:44 20.01.2020
4354 Clear 30 1011 33 10000 7.2 230 05:25 20.01.2020
4355 Clear 30 1011 27 10000 4.6 230 04:49 20.01.2020
4356 Clear 27 1012 36 10000 5.1 260 02:59 20.01.2020
4357 Clear 25 1012 41 10000 5.1 260 01:57 20.01.2020
4358 Clear 23 1012 46 10000 1 250 01:37 20.01.2020
4359 Clear 21 1012 52 10000 2.1 90 00:45 20.01.2020
4360 Clear 21 1012 52 10000 2.1 90 00:25 20.01.2020
4361 Clear 18 1012 67 10000 2.6 50 23:40 19.01.2020
4362 Clear 18 1012 67 10000 2.6 50 23:20 19.01.2020
4363 Clear 17 1012 67 10000 0.5 360 22:57 19.01.2020
4364 Clear 16 1012 72 10000 2.6 310 22:39 19.01.2020
4365 Clear 16 1012 72 10000 2.6 310 22:21 19.01.2020
4366 Clear 17 1012 77 10000 2.1 310 21:57 19.01.2020
4367 Clear 17 1011 77 10000 3.1 260 21:39 19.01.2020
4368 Clear 17 1011 77 10000 3.1 260 21:20 19.01.2020
4369 Clear 17 1011 82 10000 2.1 280 20:57 19.01.2020
4370 Clear 17 1011 77 10000 2.1 310 20:39 19.01.2020
4371 Clear 17 1011 77 10000 2.1 310 20:21 19.01.2020
4372 Clear 17 1011 82 10000 2.6 260 19:57 19.01.2020
4373 Clear 17 1011 72 10000 1.5 320 19:39 19.01.2020
4374 Clear 17 1011 72 10000 1.5 320 19:20 19.01.2020
4375 Clear 18 1011 72 10000 4.1 210 18:57 19.01.2020
4376 Clear 18 1012 68 10000 3.6 190 18:39 19.01.2020
4377 Clear 18 1012 68 10000 3.6 190 18:20 19.01.2020
4378 Clear 19 1012 68 10000 3.6 210 17:58 19.01.2020
4379 Clear 19 1012 68 10000 3.6 210 17:58 19.01.2020
4380 Clear 19 1012 68 10000 4.6 190 17:40 19.01.2020
4381 Clear 19 1012 68 10000 4.6 190 17:21 19.01.2020
4382 Clear 20 1013 64 10000 4.6 210 16:59 19.01.2020
4383 Clear 20 1013 60 10000 5.1 210 16:39 19.01.2020
4384 Clear 20 1013 60 10000 5.1 210 16:21 19.01.2020
4385 Clear 21 1013 56 10000 5.7 200 15:58 19.01.2020
4386 Clear 21 1013 56 10000 6.2 200 15:38 19.01.2020
4387 Clear 21 1013 56 10000 6.2 200 15:20 19.01.2020
4388 Clear 21 1013 53 10000 6.7 200 14:58 19.01.2020
4389 Clear 21 1013 53 10000 7.2 190 14:39 19.01.2020
4390 Clear 22 1013 53 10000 7.2 190 14:18 19.01.2020
4391 Clear 22 1013 53 10000 8.7 190 13:57 19.01.2020
4392 Clear 22 1013 49 10000 8.7 190 13:38 19.01.2020
4393 Clear 22 1013 49 10000 8.7 190 13:19 19.01.2020
4394 Clear 22 1013 49 10000 8.2 190 12:55 19.01.2020
4395 Clear 23 1013 50 10000 6.2 180 12:36 19.01.2020
4396 Clear 23 1013 50 10000 6.2 180 12:18 19.01.2020
4397 Clear 24 1013 41 10000 6.2 180 11:42 19.01.2020
4398 Clear 25 1013 41 10000 6.2 180 11:20 19.01.2020
4399 Clear 26 1013 36 10000 6.2 180 10:56 19.01.2020
4400 Clear 26 1013 36 10000 6.2 180 10:56 19.01.2020
4401 Clear 27 1012 37 10000 8.2 220 10:37 19.01.2020
4402 Clear 27 1012 37 10000 8.2 220 10:19 19.01.2020
4403 Clear 27 1012 34 10000 8.2 220 09:45 19.01.2020
4404 Clear 28 1012 34 10000 9.3 220 09:45 19.01.2020
4405 Clear 28 1012 34 10000 9.3 220 09:27 19.01.2020
4406 Clear 28 1012 32 10000 8.7 240 08:58 19.01.2020
4407 Clear 28 1012 20 10000 7.2 240 08:40 19.01.2020
4408 Clear 29 1012 20 10000 7.2 240 08:21 19.01.2020
4409 Clear 29 1013 34 10000 7.7 250 07:42 19.01.2020
4410 Clear 30 1013 34 10000 7.7 250 07:22 19.01.2020
4411 Clear 31 1013 25 10000 7.2 210 06:51 19.01.2020
4412 Clear 29 1015 30 10000 4.6 100 05:41 19.01.2020
4413 Clear 23 1017 43 10000 7.7 70 02:44 19.01.2020
4414 Clear 23 1017 43 10000 7.7 70 02:21 19.01.2020
4415 Clear 21 1017 52 10000 9.8 90 01:25 19.01.2020
4416 Clear 21 1017 52 10000 9.8 90 01:25 19.01.2020
4417 Clear 19 1017 59 10000 7.7 90 00:46 19.01.2020
4418 Clear 19 1017 59 10000 7.7 90 00:28 19.01.2020
4419 Clear 18 1016 63 10000 10.8 80 23:56 18.01.2020
4420 Clear 18 1016 63 10000 9.3 80 23:38 18.01.2020
4421 Clear 18 1016 63 10000 9.3 80 23:38 18.01.2020
4422 Clear 17 1016 63 10000 9.3 80 23:19 18.01.2020
4423 Clear 17 1016 63 10000 9.3 80 22:55 18.01.2020
4424 Clear 17 1016 59 10000 8.7 80 22:36 18.01.2020
4425 Clear 17 1016 59 10000 8.7 80 22:18 18.01.2020
4426 Clear 17 1015 59 10000 8.7 90 21:56 18.01.2020
4427 Clear 18 1015 55 10000 8.2 80 21:36 18.01.2020
4428 Clear 18 1015 55 10000 8.2 80 21:18 18.01.2020
4429 Clear 18 1014 55 10000 11.3 90 20:42 18.01.2020
4430 Clear 18 1014 55 10000 11.3 90 20:20 18.01.2020
4431 Clear 19 1014 52 10000 9.3 100 19:55 18.01.2020
4432 Clear 19 1015 55 10000 7.7 110 19:37 18.01.2020
4433 Clear 19 1015 55 10000 7.7 110 19:36 18.01.2020
4434 Clear 19 1015 55 10000 7.7 110 19:18 18.01.2020
4435 Clear 20 1014 45 10000 11.3 110 18:41 18.01.2020
4436 Clear 20 1014 45 10000 11.3 110 18:21 18.01.2020
4437 Clear 21 1014 37 10000 9.8 110 17:41 18.01.2020
4438 Clear 22 1014 37 10000 9.8 110 17:21 18.01.2020
4439 Clear 23 1014 35 10000 12.3 110 16:59 18.01.2020
4440 Clear 23 1014 35 10000 8.2 110 16:41 18.01.2020
4441 Clear 23 1014 35 10000 8.2 110 16:22 18.01.2020
4442 Clear 24 1014 33 10000 9.3 110 15:57 18.01.2020
4443 Clear 25 1014 31 10000 7.7 110 15:39 18.01.2020
4444 Clear 25 1014 31 10000 7.7 110 15:20 18.01.2020
4445 Clear 25 1014 27 10000 6.7 130 14:42 18.01.2020
4446 Clear 25 1014 27 10000 6.7 130 14:20 18.01.2020
4447 Clear 24 1013 26 10000 5.7 130 13:58 18.01.2020
4448 Clear 25 1013 24 10000 5.1 130 13:39 18.01.2020
4449 Clear 25 1013 24 10000 5.1 130 13:20 18.01.2020
4450 Clear 25 1012 21 10000 5.7 130 12:43 18.01.2020
4451 Clear 25 1013 47 10000 5.7 210 12:22 18.01.2020
4452 Clear 25 1013 47 10000 5.7 210 12:22 18.01.2020
4453 Clear 26 1012 20 10000 6.2 150 11:58 18.01.2020
4454 Clear 27 1011 37 10000 5.7 260 11:40 18.01.2020
4455 Clear 27 1011 37 10000 5.7 260 11:20 18.01.2020
4456 Clear 28 1011 37 10000 7.2 220 10:43 18.01.2020
4457 Clear 29 1011 37 10000 7.2 220 10:21 18.01.2020
4458 Clear 29 1011 18 10000 7.2 220 09:56 18.01.2020
4459 Clear 29 1011 19 10000 7.2 220 09:38 18.01.2020
4460 Clear 29 1011 19 10000 7.2 220 09:18 18.01.2020
4461 Clear 30 1012 20 10000 7.2 220 08:42 18.01.2020
4462 Clear 29 1012 20 10000 7.2 220 08:20 18.01.2020
4463 Clear 29 1012 23 10000 7.2 220 07:56 18.01.2020
4464 Clear 29 1012 27 10000 7.2 220 07:37 18.01.2020
4465 Clear 30 1012 27 10000 7.2 220 06:48 18.01.2020
4466 Clear 29 1013 28 10000 7.2 220 06:22 18.01.2020
4467 Clear 30 1013 32 10000 3.6 160 05:31 18.01.2020
4468 Clear 27 1014 36 10000 5.1 110 04:19 18.01.2020
4469 Clouds 25 1014 47 10000 5.1 150 02:21 18.01.2020
4470 Clouds 23 1015 56 10000 6.7 140 01:36 18.01.2020
4471 Clouds 21 1014 68 10000 6.7 170 00:38 18.01.2020
4472 Clouds 21 1014 68 10000 6.7 170 00:19 18.01.2020
4473 Clouds 20 1014 72 10000 6.7 170 23:45 17.01.2020
4474 Clouds 20 1013 72 10000 6.2 180 23:21 17.01.2020
4475 Clouds 19 1013 72 10000 4.6 180 22:59 17.01.2020
4476 Clouds 20 1013 72 10000 5.7 180 22:40 17.01.2020
4477 Clouds 20 1013 72 10000 5.7 180 22:19 17.01.2020
4478 Clouds 20 1012 73 10000 5.7 170 21:42 17.01.2020
4479 Clouds 21 1012 73 10000 5.7 170 21:24 17.01.2020
4480 Clouds 21 1012 73 10000 6.7 170 20:59 17.01.2020
4481 Clouds 21 1012 68 10000 3.6 160 20:40 17.01.2020
4482 Clouds 21 1012 68 10000 3.6 160 20:20 17.01.2020
4483 Clouds 21 1012 68 10000 3.6 160 20:20 17.01.2020
4484 Clouds 22 1012 68 10000 4.1 180 19:57 17.01.2020
4485 Clear 22 1011 68 10000 4.1 190 19:38 17.01.2020
4486 Clear 22 1011 68 10000 4.1 190 19:19 17.01.2020
4487 Clear 22 1011 68 10000 4.1 180 18:57 17.01.2020
4488 Clear 22 1011 64 10000 5.7 170 18:36 17.01.2020
4489 Clear 22 1011 64 10000 5.7 170 18:18 17.01.2020
4490 Clear 22 1011 69 10000 6.2 170 17:39 17.01.2020
4491 Clear 22 1011 69 10000 6.2 170 17:21 17.01.2020
4492 Clear 22 1011 78 10000 4.1 160 16:44 17.01.2020
4493 Clear 22 1011 78 10000 4.1 190 16:21 17.01.2020
4494 Clouds 22 1011 78 10000 4.1 170 15:58 17.01.2020
4495 Clouds 22 1011 78 10000 5.1 170 15:40 17.01.2020
4496 Clouds 22 1011 78 10000 5.1 170 15:40 17.01.2020
4497 Clouds 22 1011 78 10000 5.1 170 15:21 17.01.2020
4498 Clouds 22 1011 78 10000 5.1 170 14:43 17.01.2020
4499 Clouds 22 1011 78 10000 5.1 170 14:24 17.01.2020
4500 Clouds 23 1010 78 10000 5.1 240 13:45 17.01.2020
4501 Clouds 23 1010 78 10000 5.1 240 13:23 17.01.2020
4502 Clouds 23 1010 69 10000 5.7 250 12:47 17.01.2020
4503 Clouds 23 1009 73 10000 5.1 250 12:23 17.01.2020
4504 Clouds 24 1009 65 10000 6.7 230 11:43 17.01.2020
4505 Clouds 25 1009 65 10000 5.1 270 11:20 17.01.2020
4506 Clouds 25 1009 65 10000 5.1 270 11:20 17.01.2020
4507 Clouds 26 1009 61 10000 5.1 270 10:58 17.01.2020
4508 Clouds 26 1009 65 10000 5.7 250 10:40 17.01.2020
4509 Clouds 26 1009 65 10000 5.7 250 10:21 17.01.2020
4510 Clouds 26 1009 61 10000 6.7 270 09:56 17.01.2020
4511 Clouds 27 1009 57 10000 6.7 270 09:37 17.01.2020
4512 Clouds 27 1009 57 10000 6.7 270 09:18 17.01.2020
4513 Clouds 27 1009 54 10000 5.1 260 08:42 17.01.2020
4514 Clouds 27 1009 54 10000 5.1 260 08:23 17.01.2020
4515 Clouds 27 1010 54 10000 5.7 260 07:49 17.01.2020
4516 Clouds 26 1010 57 10000 5.7 260 07:30 17.01.2020
4517 Clouds 26 1010 57 10000 5.7 250 06:56 17.01.2020
4518 Clouds 26 1010 54 10000 5.7 290 06:36 17.01.2020
4519 Clouds 26 1010 54 10000 4.1 250 05:22 17.01.2020
4520 Clouds 26 1008 68 0 1.79 11 03:38 17.01.2020
4521 Clouds 26 1007 65 0 0.45 287 02:42 17.01.2020
4522 Clouds 25 1007 72 0 0.89 163 01:45 17.01.2020
4523 Clouds 24 1007 74 0 0.45 225 01:27 17.01.2020
4524 Clouds 24 1007 73 0 0.89 203 00:40 17.01.2020
4525 Rain 24 1009 69 10000 4.1 220 00:19 17.01.2020
4526 Rain 23 1009 69 10000 4.1 220 23:41 16.01.2020
4527 Rain 23 1009 69 10000 4.1 220 23:22 16.01.2020
4528 Clouds 23 1009 64 10000 2.6 230 22:42 16.01.2020
4529 Clouds 23 1009 64 10000 2.6 230 22:22 16.01.2020
4530 Clouds 23 1009 64 10000 2.6 230 22:22 16.01.2020
4531 Clouds 23 1008 64 10000 2.6 210 21:57 16.01.2020
4532 Clouds 23 1008 64 10000 2.6 240 21:38 16.01.2020
4533 Clouds 23 1008 64 10000 2.6 240 21:19 16.01.2020
4534 Clouds 23 1008 64 10000 2.6 230 20:57 16.01.2020
4535 Clouds 23 1008 64 10000 3.1 210 20:38 16.01.2020
4536 Clouds 23 1008 64 10000 3.1 210 20:19 16.01.2020
4537 Clouds 23 1008 64 10000 3.1 210 19:56 16.01.2020
4538 Clouds 23 1008 60 10000 3.6 200 19:37 16.01.2020
4539 Clouds 23 1008 60 10000 3.6 200 19:19 16.01.2020
4540 Clouds 23 1009 60 10000 4.1 210 18:55 16.01.2020
4541 Clouds 23 1008 57 10000 5.1 190 18:37 16.01.2020
4542 Clouds 24 1008 57 10000 5.1 190 18:18 16.01.2020
4543 Clouds 24 1009 53 10000 4.1 200 17:42 16.01.2020
4544 Clouds 24 1009 53 10000 4.1 200 17:23 16.01.2020
4545 Clouds 25 1009 50 10000 4.1 210 16:57 16.01.2020
4546 Clouds 25 1009 50 10000 4.1 210 16:38 16.01.2020
4547 Clouds 25 1009 50 10000 4.1 210 16:19 16.01.2020
4548 Clouds 25 1009 50 10000 5.1 210 15:44 16.01.2020
4549 Clouds 26 1010 51 10000 5.7 200 15:22 16.01.2020
4550 Clouds 26 1010 51 10000 5.7 200 14:57 16.01.2020
4551 Clouds 26 1009 51 10000 6.2 210 14:38 16.01.2020
4552 Clouds 26 1009 51 10000 6.2 210 14:19 16.01.2020
4553 Clouds 26 1009 51 10000 5.7 210 13:44 16.01.2020
4554 Clouds 26 1009 48 10000 6.2 220 13:25 16.01.2020
4555 Clouds 27 1009 45 10000 6.7 220 12:46 16.01.2020
4556 Clouds 27 1008 42 10000 7.7 220 12:28 16.01.2020
4557 Clouds 28 1008 40 10000 7.2 210 11:58 16.01.2020
4558 Clouds 29 1008 35 10000 8.2 220 11:39 16.01.2020
4559 Clouds 29 1008 35 10000 8.2 220 11:21 16.01.2020
4560 Clouds 30 1008 36 10000 8.2 230 10:39 16.01.2020
4561 Clouds 31 1008 36 10000 8.2 230 10:21 16.01.2020
4562 Clouds 32 1008 36 10000 7.7 230 09:58 16.01.2020
4563 Clouds 33 1008 36 10000 8.7 220 09:40 16.01.2020
4564 Clouds 33 1008 36 10000 8.7 220 09:21 16.01.2020
4565 Clouds 33 1008 34 10000 9.3 230 08:52 16.01.2020
4566 Clouds 33 1008 36 10000 7.7 230 08:34 16.01.2020
4567 Clouds 34 1009 36 10000 7.2 260 07:59 16.01.2020
4568 Clouds 34 1009 34 10000 6.2 270 07:39 16.01.2020
4569 Clouds 34 1009 34 10000 6.2 270 07:20 16.01.2020
4570 Clouds 35 1009 32 10000 3.1 260 06:43 16.01.2020
4571 Clouds 35 1009 34 10000 7.2 230 06:21 16.01.2020
4572 Clouds 34 1010 36 10000 7.2 230 05:45 16.01.2020
4573 Clear 31 1011 40 10000 3.1 90 04:38 16.01.2020
4574 Clear 31 1012 45 10000 5.1 90 03:28 16.01.2020
4575 Clear 29 1012 45 10000 6.7 100 02:43 16.01.2020
4576 Clouds 24 1013 56 10000 7.2 90 00:54 16.01.2020
4577 Clouds 23 1013 60 10000 6.2 90 00:24 16.01.2020
4578 Clouds 22 1013 64 10000 6.2 100 23:50 15.01.2020
4579 Clouds 21 1012 64 10000 8.2 90 23:23 15.01.2020
4580 Clear 20 1012 64 10000 7.7 100 22:58 15.01.2020
4581 Clear 20 1012 64 10000 8.2 100 22:40 15.01.2020
4582 Clear 20 1012 64 10000 8.2 100 22:19 15.01.2020
4583 Clear 20 1012 64 10000 8.2 100 22:19 15.01.2020
4584 Clear 20 1012 64 10000 7.7 100 21:58 15.01.2020
4585 Clear 21 1011 60 10000 5.7 100 21:38 15.01.2020
4586 Clear 21 1011 60 10000 5.7 100 21:20 15.01.2020
4587 Clear 21 1011 60 10000 4.1 100 20:58 15.01.2020
4588 Clear 21 1011 60 10000 4.1 100 20:58 15.01.2020
4589 Clear 21 1011 60 10000 4.6 90 20:40 15.01.2020
4590 Clear 21 1011 60 10000 4.6 90 20:20 15.01.2020
4591 Clear 21 1011 60 10000 6.7 90 19:55 15.01.2020
4592 Clear 22 1011 56 10000 5.1 90 19:37 15.01.2020
4593 Clear 22 1011 56 10000 5.1 90 19:19 15.01.2020
4594 Clear 22 1011 56 10000 5.1 100 18:57 15.01.2020
4595 Clear 23 1011 53 10000 8.7 80 18:38 15.01.2020
4596 Clear 23 1011 53 10000 8.7 80 18:19 15.01.2020
4597 Clear 23 1011 53 10000 6.2 100 17:58 15.01.2020
4598 Clear 23 1012 53 10000 4.6 100 17:38 15.01.2020
4599 Clear 24 1012 53 10000 4.6 100 17:19 15.01.2020
4600 Clear 24 1012 50 10000 4.6 120 16:41 15.01.2020
4601 Clear 24 1012 50 10000 4.6 120 16:41 15.01.2020
4602 Clear 25 1012 50 10000 4.6 120 16:22 15.01.2020
4603 Clear 25 1012 50 10000 4.6 120 16:22 15.01.2020
4604 Clear 25 1012 50 10000 4.6 120 15:58 15.01.2020
4605 Clear 26 1012 50 10000 8.7 100 15:39 15.01.2020
4606 Clear 26 1012 50 10000 8.7 100 15:20 15.01.2020
4607 Clear 27 1012 47 10000 8.2 100 14:43 15.01.2020
4608 Clear 27 1012 44 10000 7.7 110 14:20 15.01.2020
4609 Clear 28 1011 42 10000 7.7 100 13:46 15.01.2020
4610 Clear 29 1011 42 10000 8.7 100 13:27 15.01.2020
4611 Clear 30 1011 40 10000 7.7 110 12:59 15.01.2020
4612 Clear 30 1010 38 10000 8.2 110 12:40 15.01.2020
4613 Clear 31 1010 38 10000 8.2 110 12:20 15.01.2020
4614 Clear 32 1010 35 10000 8.2 120 11:58 15.01.2020
4615 Clear 31 1009 36 10000 7.2 120 11:37 15.01.2020
4616 Clear 33 1009 36 10000 7.2 120 11:19 15.01.2020
4617 Clear 34 1009 36 10000 6.7 110 10:43 15.01.2020
4618 Clear 34 1009 36 10000 5.1 110 10:25 15.01.2020
4619 Clear 34 1009 36 10000 5.7 100 09:45 15.01.2020
4620 Clear 34 1010 36 10000 5.1 130 09:26 15.01.2020
4621 Clear 34 1010 36 10000 6.7 110 08:58 15.01.2020
4622 Clear 34 1010 36 10000 4.6 150 08:39 15.01.2020
4623 Clear 34 1010 36 10000 4.6 150 08:21 15.01.2020
4624 Clear 33 1011 38 10000 7.2 100 07:51 15.01.2020
4625 Clear 33 1011 38 10000 5.7 110 07:31 15.01.2020
4626 Clear 32 1011 38 10000 6.7 110 06:46 15.01.2020
4627 Clouds 32 1011 40 10000 8.2 90 06:20 15.01.2020
4628 Clouds 30 1013 45 10000 8.2 110 04:42 15.01.2020
4629 Clouds 26 1013 53 10000 9.3 100 02:38 15.01.2020
4630 Clouds 24 1013 56 10000 5.1 130 01:28 15.01.2020
4631 Clouds 23 1013 56 10000 5.1 130 00:46 15.01.2020
4632 Clouds 22 1013 60 10000 4.1 110 00:27 15.01.2020
4633 Clouds 21 1013 68 10000 7.7 110 23:56 14.01.2020
4634 Clear 21 1013 64 10000 5.1 120 23:38 14.01.2020
4635 Clear 20 1013 64 10000 5.1 120 23:19 14.01.2020
4636 Clouds 20 1013 64 10000 5.1 110 22:41 14.01.2020
4637 Clouds 20 1013 64 10000 5.1 110 22:19 14.01.2020
4638 Clouds 20 1013 64 10000 5.1 110 21:58 14.01.2020
4639 Clouds 20 1012 64 10000 5.1 120 21:40 14.01.2020
4640 Clouds 20 1012 64 10000 5.1 120 21:21 14.01.2020
4641 Clouds 20 1012 64 10000 5.1 120 21:21 14.01.2020
4642 Clouds 20 1012 64 10000 6.7 120 20:58 14.01.2020
4643 Clear 20 1012 64 10000 5.7 120 20:40 14.01.2020
4644 Clear 20 1012 64 10000 5.7 120 20:19 14.01.2020
4645 Clear 21 1012 64 10000 5.7 120 19:55 14.01.2020
4646 Clear 21 1011 60 10000 5.7 120 19:37 14.01.2020
4647 Clear 21 1011 60 10000 5.7 120 19:18 14.01.2020
4648 Clear 22 1011 56 10000 6.2 120 18:41 14.01.2020
4649 Clear 22 1011 56 10000 6.2 120 18:20 14.01.2020
4650 Clear 22 1011 56 10000 6.2 120 17:59 14.01.2020
4651 Clear 23 1011 49 10000 7.7 100 17:37 14.01.2020
4652 Clear 22 1011 49 10000 7.7 100 17:18 14.01.2020
4653 Clear 22 1011 49 10000 7.7 100 17:18 14.01.2020
4654 Clear 23 1011 53 10000 3.6 110 16:55 14.01.2020
4655 Clear 24 1011 53 10000 7.7 120 16:36 14.01.2020
4656 Clear 24 1011 53 10000 7.7 120 16:18 14.01.2020
4657 Clear 26 1010 47 10000 8.2 120 15:42 14.01.2020
4658 Clear 26 1010 47 10000 8.2 120 15:19 14.01.2020
4659 Clear 27 1010 45 10000 7.7 110 14:46 14.01.2020
4660 Clear 27 1010 42 10000 8.2 110 14:23 14.01.2020
4661 Clear 26 1009 54 10000 9.3 130 13:58 14.01.2020
4662 Clear 26 1008 51 10000 9.3 130 13:39 14.01.2020
4663 Clear 26 1008 51 10000 9.3 130 13:19 14.01.2020
4664 Clear 27 1008 42 10000 9.3 130 12:42 14.01.2020
4665 Clear 28 1008 42 10000 9.3 130 12:22 14.01.2020
4666 Clear 28 1007 38 10000 9.3 130 11:56 14.01.2020
4667 Clear 29 1007 40 10000 9.3 130 11:37 14.01.2020
4668 Clear 29 1007 40 10000 9.3 130 11:37 14.01.2020
4669 Clear 30 1007 40 10000 9.3 130 11:19 14.01.2020
4670 Clear 32 1007 36 10000 6.7 240 10:41 14.01.2020
4671 Clear 32 1007 36 10000 6.7 240 10:20 14.01.2020
4672 Clear 32 1007 36 10000 8.2 230 09:59 14.01.2020
4673 Clear 32 1007 36 10000 7.7 240 09:40 14.01.2020
4674 Clear 32 1007 36 10000 7.7 240 09:21 14.01.2020
4675 Clear 32 1008 36 10000 6.7 250 08:56 14.01.2020
4676 Clear 32 1008 36 10000 7.7 240 08:38 14.01.2020
4677 Clear 32 1008 36 10000 7.7 240 08:19 14.01.2020
4678 Clear 32 1008 36 10000 8.2 220 07:37 14.01.2020
4679 Clear 32 1009 36 10000 7.7 250 06:57 14.01.2020
4680 Clear 30 1009 38 10000 9.3 230 06:39 14.01.2020
4681 Clear 32 1009 32 10000 4.6 210 05:33 14.01.2020
4682 Clear 32 1010 35 10000 6.2 220 04:22 14.01.2020
4683 Clear 30 1010 40 10000 6.2 220 03:35 14.01.2020
4684 Clear 27 1011 45 10000 6.2 220 02:26 14.01.2020
4685 Clear 24 1011 50 10000 2.6 120 01:18 14.01.2020
4686 Clear 23 1011 56 10000 3.6 100 00:38 14.01.2020
4687 Clear 22 1011 60 10000 3.6 110 23:59 13.01.2020
4688 Clear 21 1011 60 10000 3.1 140 23:37 13.01.2020
4689 Clear 21 1011 60 10000 3.1 140 23:18 13.01.2020
4690 Clear 21 1011 60 10000 3.1 140 23:18 13.01.2020
4691 Clear 21 1010 60 10000 2.6 90 22:45 13.01.2020
4692 Clear 21 1010 56 10000 3.1 110 22:22 13.01.2020
4693 Clear 21 1009 56 10000 3.6 90 21:58 13.01.2020
4694 Clear 22 1009 53 10000 4.6 90 21:39 13.01.2020
4695 Clear 22 1009 53 10000 4.6 90 21:19 13.01.2020
4696 Clear 22 1009 53 10000 4.6 70 20:59 13.01.2020
4697 Clear 23 1008 49 10000 4.1 80 20:41 13.01.2020
4698 Clear 23 1008 49 10000 4.1 80 20:41 13.01.2020
4699 Clear 23 1008 49 10000 4.1 80 20:22 13.01.2020
4700 Clear 23 1008 49 10000 4.1 80 20:22 13.01.2020
4701 Clear 23 1008 49 10000 4.1 80 20:22 13.01.2020
4702 Clear 23 1008 49 10000 4.6 100 19:59 13.01.2020
4703 Clear 23 1008 47 10000 4.1 100 19:40 13.01.2020
4704 Clear 23 1008 47 10000 4.1 100 19:20 13.01.2020
4705 Clear 23 1008 44 10000 3.1 110 18:57 13.01.2020
4706 Clear 23 1008 41 10000 3.1 60 18:37 13.01.2020
4707 Clear 23 1008 41 10000 3.1 60 18:37 13.01.2020
4708 Clear 24 1008 41 10000 3.1 60 18:19 13.01.2020
4709 Clear 22 1009 60 10000 3.1 240 17:44 13.01.2020
4710 Clear 22 1009 60 10000 3.1 240 17:25 13.01.2020
4711 Clear 22 1009 64 10000 2.1 50 16:58 13.01.2020
4712 Clear 22 1006 66 0 2.24 205 16:38 13.01.2020
4713 Clear 22 1006 66 0 1.79 236 16:20 13.01.2020
4714 Clear 22 1006 66 0 0.89 239 15:54 13.01.2020
4715 Clear 23 1006 65 0 3.08 167 15:36 13.01.2020
4716 Clear 23 1006 64 0 0.89 252 15:18 13.01.2020
4717 Clear 23 1007 62 0 1.34 274 14:40 13.01.2020
4718 Clear 23 1007 61 0 0.89 228 14:22 13.01.2020
4719 Clear 24 1007 61 0 1.79 236 13:56 13.01.2020
4720 Clear 24 1007 61 0 1.79 236 13:56 13.01.2020
4721 Clear 24 1007 60 0 1.79 239 13:37 13.01.2020
4722 Clear 24 1006 59 0 0.89 259 13:19 13.01.2020
4723 Clear 25 1008 42 10000 6.2 190 12:43 13.01.2020
4724 Clear 26 1008 42 10000 6.2 190 12:23 13.01.2020
4725 Clear 26 1008 42 10000 6.2 190 12:23 13.01.2020
4726 Clear 26 1008 42 10000 6.2 190 11:58 13.01.2020
4727 Clear 27 1008 39 10000 6.2 190 11:38 13.01.2020
4728 Clear 28 1008 35 10000 6.2 190 11:19 13.01.2020
4729 Clear 29 1008 35 10000 6.2 190 10:56 13.01.2020
4730 Clear 29 1008 33 10000 6.2 230 10:37 13.01.2020
4731 Clear 31 1008 33 10000 6.2 230 10:19 13.01.2020
4732 Clear 32 1008 31 10000 7.2 250 09:43 13.01.2020
4733 Clear 33 1008 31 10000 7.2 250 09:24 13.01.2020
4734 Clear 32 1008 32 10000 6.7 260 08:56 13.01.2020
4735 Clear 31 1009 35 10000 6.7 250 08:36 13.01.2020
4736 Clear 31 1009 35 10000 6.7 250 08:18 13.01.2020
4737 Clear 33 1009 24 10000 3.1 220 07:42 13.01.2020
4738 Clear 33 1009 24 10000 3.1 220 07:21 13.01.2020
4739 Clear 33 1010 27 10000 7.2 230 06:37 13.01.2020
4740 Clear 33 1010 27 10000 7.2 230 06:37 13.01.2020
4741 Clear 31 1011 29 10000 7.2 230 05:37 13.01.2020
4742 Clear 30 1012 35 10000 5.1 120 04:26 13.01.2020
4743 Clear 27 1013 39 10000 5.1 130 03:35 13.01.2020
4744 Clear 26 1013 41 10000 4.6 110 02:49 13.01.2020
4745 Clear 25 1013 44 10000 4.1 120 02:29 13.01.2020
4746 Clear 23 1013 49 10000 5.1 110 01:33 13.01.2020
4747 Clear 22 1013 53 10000 4.1 120 00:43 13.01.2020
4748 Clear 21 1013 56 10000 4.1 130 00:24 13.01.2020
4749 Clear 20 1013 63 10000 5.1 130 23:57 12.01.2020
4750 Clear 19 1013 63 10000 5.1 140 23:37 12.01.2020
4751 Clear 19 1013 63 10000 5.1 140 23:19 12.01.2020
4752 Clear 19 1012 63 10000 3.1 110 22:42 12.01.2020
4753 Clear 19 1012 63 10000 3.1 110 22:24 12.01.2020
4754 Clear 19 1012 59 10000 3.6 120 21:58 12.01.2020
4755 Clear 19 1012 59 10000 5.7 120 21:39 12.01.2020
4756 Clear 19 1012 59 10000 5.7 120 21:39 12.01.2020
4757 Clear 19 1012 59 10000 5.7 120 21:20 12.01.2020
4758 Clear 20 1012 56 10000 5.7 100 20:57 12.01.2020
4759 Clear 20 1012 56 10000 4.1 100 20:39 12.01.2020
4760 Clear 20 1012 56 10000 4.1 100 20:20 12.01.2020
4761 Clear 20 1012 52 10000 6.2 110 19:56 12.01.2020
4762 Clear 21 1011 53 10000 5.7 130 19:38 12.01.2020
4763 Clear 21 1011 53 10000 5.7 130 19:19 12.01.2020
4764 Clear 21 1011 49 10000 4.1 130 18:57 12.01.2020
4765 Clear 21 1011 56 10000 3.1 160 18:39 12.01.2020
4766 Clear 21 1011 56 10000 3.1 160 18:21 12.01.2020
4767 Clear 21 1011 60 10000 7.2 110 17:55 12.01.2020
4768 Clear 21 1011 60 10000 4.1 210 17:37 12.01.2020
4769 Clear 21 1011 60 10000 4.1 210 17:18 12.01.2020
4770 Clear 21 1012 56 10000 7.2 110 16:54 12.01.2020
4771 Clear 21 1012 56 10000 5.7 200 16:36 12.01.2020
4772 Clear 21 1012 56 10000 5.7 200 16:18 12.01.2020
4773 Clear 22 1011 64 10000 4.6 210 15:40 12.01.2020
4774 Clear 22 1011 64 10000 3.6 220 15:21 12.01.2020
4775 Clear 22 1011 64 10000 3.6 220 14:44 12.01.2020
4776 Clear 22 1011 64 10000 3.6 240 14:25 12.01.2020
4777 Clear 23 1011 69 10000 4.1 240 13:58 12.01.2020
4778 Clear 23 1011 69 10000 6.7 230 13:40 12.01.2020
4779 Clear 23 1011 69 10000 6.7 230 13:22 12.01.2020
4780 Clear 23 1011 64 10000 6.2 240 12:58 12.01.2020
4781 Clear 24 1010 54 10000 6.2 240 12:38 12.01.2020
4782 Clear 24 1010 54 10000 6.2 240 12:19 12.01.2020
4783 Clear 25 1010 51 10000 7.2 240 11:43 12.01.2020
4784 Clear 26 1010 51 10000 7.2 240 11:23 12.01.2020
4785 Clear 28 1010 42 10000 7.2 240 10:59 12.01.2020
4786 Clear 28 1010 42 10000 7.7 240 10:40 12.01.2020
4787 Clear 28 1010 42 10000 7.7 240 10:21 12.01.2020
4788 Clear 28 1009 33 10000 9.3 240 09:44 12.01.2020
4789 Clear 29 1009 33 10000 9.3 240 09:24 12.01.2020
4790 Clear 30 1009 31 10000 8.7 240 08:57 12.01.2020
4791 Clear 31 1009 31 10000 8.7 230 08:38 12.01.2020
4792 Clear 31 1009 31 10000 8.7 230 08:19 12.01.2020
4793 Clear 31 1009 27 10000 8.2 240 07:38 12.01.2020
4794 Clear 31 1009 27 10000 8.2 240 07:19 12.01.2020
4795 Clear 32 1010 26 10000 7.7 230 06:41 12.01.2020
4796 Clear 31 1010 33 10000 9.3 220 05:58 12.01.2020
4797 Clear 31 1010 37 10000 6.7 270 05:20 12.01.2020
4798 Clear 32 1010 26 10000 9.3 220 03:44 12.01.2020
4799 Clear 31 1010 30 10000 6.2 250 02:55 12.01.2020
4800 Clear 30 1011 32 10000 6.2 250 02:30 12.01.2020
4801 Clear 26 1011 36 10000 4.1 40 01:39 12.01.2020
4802 Clear 25 1011 38 10000 2.1 100 00:57 12.01.2020
4803 Clear 23 1011 43 10000 0.5 360 00:37 12.01.2020
4804 Clear 23 1011 43 10000 0.5 360 00:18 12.01.2020
4805 Clear 20 1010 67 10000 2.1 220 23:41 11.01.2020
4806 Clear 19 1010 67 10000 2.1 220 23:19 11.01.2020
4807 Clear 19 1010 63 10000 2.1 230 22:56 11.01.2020
4808 Clear 19 1010 59 10000 2.6 230 22:38 11.01.2020
4809 Clear 19 1010 59 10000 2.6 230 22:20 11.01.2020
4810 Clear 19 1009 63 10000 0.5 310 21:44 11.01.2020
4811 Clear 20 1009 63 10000 1.72 41 21:20 11.01.2020
4812 Clear 20 1009 59 10000 2.1 300 20:59 11.01.2020
4813 Clear 20 1009 55 10000 2.1 280 20:39 11.01.2020
4814 Clear 20 1009 52 10000 2.6 180 20:19 11.01.2020
4815 Clear 20 1009 52 10000 2.6 180 19:57 11.01.2020
4816 Clear 20 1009 52 10000 2.1 140 19:38 11.01.2020
4817 Clear 20 1009 52 10000 2.1 140 19:38 11.01.2020
4818 Clear 21 1009 52 10000 2.1 140 19:20 11.01.2020
4819 Clear 20 1009 55 10000 1.5 10 18:55 11.01.2020
4820 Clear 20 1010 52 10000 1 330 18:37 11.01.2020
4821 Clear 21 1010 52 10000 1 330 18:18 11.01.2020
4822 Clear 21 1010 48 10000 0.5 110 17:57 11.01.2020
4823 Clear 21 1010 48 10000 0.5 110 17:57 11.01.2020
4824 Clear 22 1010 45 10000 2.1 190 17:39 11.01.2020
4825 Clear 22 1010 45 10000 2.1 190 17:18 11.01.2020
4826 Clear 23 1011 40 10000 2.6 200 16:44 11.01.2020
4827 Clear 23 1011 36 10000 3.1 190 16:24 11.01.2020
4828 Clear 24 1011 33 10000 4.1 180 15:56 11.01.2020
4829 Clear 24 1011 31 10000 4.1 210 15:38 11.01.2020
4830 Clear 25 1011 31 10000 4.1 210 15:19 11.01.2020
4831 Clear 25 1011 31 10000 5.7 190 14:46 11.01.2020
4832 Clear 26 1011 28 10000 7.2 190 14:25 11.01.2020
4833 Clear 26 1011 30 10000 7.2 190 13:57 11.01.2020
4834 Clear 27 1011 26 10000 7.7 190 13:37 11.01.2020
4835 Clear 27 1011 26 10000 7.7 190 13:19 11.01.2020
4836 Clear 28 1011 23 10000 8.2 200 12:44 11.01.2020
4837 Clear 27 1011 23 10000 8.2 200 12:26 11.01.2020
4838 Clear 30 1011 23 10000 7.7 200 11:56 11.01.2020
4839 Clear 29 1010 21 10000 7.2 220 11:38 11.01.2020
4840 Clear 31 1010 21 10000 7.2 220 11:18 11.01.2020
4841 Clear 32 1010 21 10000 6.2 200 10:44 11.01.2020
4842 Clear 33 1010 14 10000 2.6 200 10:24 11.01.2020
4843 Clear 33 1011 16 10000 5.7 70 09:42 11.01.2020
4844 Clear 34 1011 16 10000 5.7 70 09:21 11.01.2020
4845 Clear 34 1011 15 10000 6.2 200 08:43 11.01.2020
4846 Clear 34 1011 15 10000 3.6 90 08:23 11.01.2020
4847 Clear 34 1012 16 10000 3.6 50 07:45 11.01.2020
4848 Clear 34 1012 14 10000 5.1 80 07:26 11.01.2020
4849 Clear 34 1012 14 10000 5.1 80 07:26 11.01.2020
4850 Clear 34 1013 16 10000 5.7 100 06:56 11.01.2020
4851 Clear 33 1013 16 10000 7.2 60 06:28 11.01.2020
4852 Clear 30 1015 20 10000 6.7 70 04:49 11.01.2020
4853 Clear 30 1015 19 10000 7.7 80 04:30 11.01.2020
4854 Clear 29 1016 23 10000 8.2 70 03:58 11.01.2020
4855 Clear 27 1016 30 10000 8.2 70 02:43 11.01.2020
4856 Clear 25 1017 38 10000 10.3 80 01:44 11.01.2020
4857 Clear 23 1017 40 10000 9.8 80 01:21 11.01.2020
4858 Clear 22 1017 46 10000 9.3 70 00:46 11.01.2020
4859 Clear 21 1017 49 10000 10.3 80 00:20 11.01.2020
4860 Clear 19 1017 55 10000 12.9 100 23:41 10.01.2020
4861 Clear 19 1017 55 10000 12.9 100 23:22 10.01.2020
4862 Clear 19 1016 55 10000 12.9 100 22:59 10.01.2020
4863 Clear 18 1016 55 10000 11.3 100 22:40 10.01.2020
4864 Clear 18 1016 55 10000 11.3 100 22:21 10.01.2020
4865 Clear 18 1016 55 10000 11.3 100 21:58 10.01.2020
4866 Clear 18 1016 55 10000 8.2 90 21:39 10.01.2020
4867 Clear 19 1016 55 10000 8.2 90 21:19 10.01.2020
4868 Clear 19 1016 52 10000 8.7 100 20:55 10.01.2020
4869 Clear 19 1017 52 10000 9.3 100 20:37 10.01.2020
4870 Clear 19 1017 52 10000 9.3 100 20:18 10.01.2020
4871 Clear 20 1017 45 10000 7.7 120 19:39 10.01.2020
4872 Clear 20 1017 45 10000 7.7 120 19:20 10.01.2020
4873 Clear 21 1017 43 10000 7.2 110 18:44 10.01.2020
4874 Clear 21 1017 46 10000 7.7 110 18:20 10.01.2020
4875 Clear 22 1017 37 10000 7.7 110 17:58 10.01.2020
4876 Clear 22 1017 35 10000 7.7 110 17:39 10.01.2020
4877 Clear 23 1017 35 10000 7.7 110 17:21 10.01.2020
4878 Clear 23 1017 33 10000 7.2 120 16:59 10.01.2020
4879 Clear 24 1017 31 10000 7.7 120 16:40 10.01.2020
4880 Clear 24 1017 31 10000 7.7 120 16:21 10.01.2020
4881 Clear 25 1017 29 10000 9.3 110 15:56 10.01.2020
4882 Clear 25 1017 26 10000 9.3 90 15:37 10.01.2020
4883 Clear 26 1017 26 10000 9.3 90 15:18 10.01.2020
4884 Clear 26 1017 22 10000 9.3 90 14:55 10.01.2020
4885 Clear 27 1016 22 10000 9.3 90 14:37 10.01.2020
4886 Clear 27 1016 21 10000 9.3 90 14:18 10.01.2020
4887 Clear 28 1016 21 10000 9.3 90 13:44 10.01.2020
4888 Clear 28 1016 18 10000 5.7 130 13:26 10.01.2020
4889 Clear 29 1016 17 10000 5.7 120 12:59 10.01.2020
4890 Clear 29 1016 17 10000 7.7 110 12:39 10.01.2020
4891 Clear 30 1016 17 10000 7.7 110 12:21 10.01.2020
4892 Clear 29 1015 16 10000 7.2 100 11:56 10.01.2020
4893 Clear 31 1015 15 10000 7.7 120 11:38 10.01.2020
4894 Clear 30 1015 15 10000 7.7 120 11:38 10.01.2020
4895 Clear 32 1015 15 10000 7.7 120 11:18 10.01.2020
4896 Clear 32 1015 15 10000 7.2 110 10:58 10.01.2020
4897 Clear 32 1015 13 10000 8.2 100 10:36 10.01.2020
4898 Clear 32 1015 13 10000 8.2 100 10:18 10.01.2020
4899 Clear 32 1015 13 10000 8.2 110 09:43 10.01.2020
4900 Clear 33 1015 13 10000 8.2 110 09:24 10.01.2020
4901 Clear 32 1015 13 10000 7.7 110 08:43 10.01.2020
4902 Clear 32 1016 13 10000 7.7 100 08:24 10.01.2020
4903 Clear 31 1016 13 10000 7.7 90 07:48 10.01.2020
4904 Clear 31 1017 15 10000 7.7 110 07:30 10.01.2020
4905 Clear 31 1017 17 10000 6.7 130 06:56 10.01.2020
4906 Clear 30 1017 20 10000 8.7 100 06:27 10.01.2020
4907 Clear 29 1018 21 10000 7.7 100 05:52 10.01.2020
4908 Clear 26 1019 29 10000 7.7 110 03:50 10.01.2020
4909 Clear 25 1019 27 10000 7.7 60 03:31 10.01.2020
4910 Clear 24 1019 33 10000 8.2 90 02:51 10.01.2020
4911 Clear 21 1019 40 10000 7.7 110 01:52 10.01.2020
4912 Clear 20 1019 45 10000 9.8 90 01:28 10.01.2020
4913 Clear 19 1019 48 10000 7.7 110 00:47 10.01.2020
4914 Clear 18 1019 52 10000 5.7 110 00:29 10.01.2020
4915 Clear 17 1018 59 10000 5.7 110 23:39 09.01.2020
4916 Clear 17 1018 59 10000 5.7 110 23:39 09.01.2020
4917 Clear 17 1018 59 10000 5.7 110 23:39 09.01.2020
4918 Clear 17 1018 59 10000 5.7 110 23:39 09.01.2020
4919 Clear 17 1018 59 10000 5.7 110 23:39 09.01.2020
4920 Clear 16 1018 59 10000 5.7 110 23:21 09.01.2020
4921 Clear 16 1018 55 10000 5.1 120 22:58 09.01.2020
4922 Clear 16 1018 55 10000 3.6 120 22:39 09.01.2020
4923 Clear 16 1018 55 10000 3.6 120 22:19 09.01.2020
4924 Clear 16 1017 51 10000 7.7 110 21:57 09.01.2020
4925 Clear 16 1017 55 10000 9.8 110 21:38 09.01.2020
4926 Clear 17 1017 55 10000 9.8 110 21:20 09.01.2020
4927 Clear 17 1016 51 10000 7.7 130 20:58 09.01.2020
4928 Clear 17 1016 51 10000 7.7 130 20:39 09.01.2020
4929 Clear 17 1016 51 10000 5.1 140 20:20 09.01.2020
4930 Clear 18 1016 48 10000 6.7 140 19:58 09.01.2020
4931 Clear 18 1016 48 10000 6.7 120 19:38 09.01.2020
4932 Clear 18 1016 48 10000 6.7 120 19:19 09.01.2020
4933 Clear 19 1016 45 10000 8.7 110 18:55 09.01.2020
4934 Clear 19 1016 45 10000 8.2 120 18:37 09.01.2020
4935 Clear 19 1016 45 10000 8.2 120 18:19 09.01.2020
4936 Clear 20 1015 43 10000 7.7 130 17:41 09.01.2020
4937 Clear 20 1015 43 10000 7.7 130 17:41 09.01.2020
4938 Clear 20 1015 43 10000 7.7 130 17:41 09.01.2020
4939 Clear 21 1015 43 10000 7.7 130 17:18 09.01.2020
4940 Clear 21 1015 40 10000 7.7 110 16:55 09.01.2020
4941 Clear 20 1015 49 10000 7.7 110 16:36 09.01.2020
4942 Clear 20 1015 49 10000 7.7 110 16:18 09.01.2020
4943 Smoke 20 1014 43 10000 7.7 160 15:41 09.01.2020
4944 Smoke 21 1014 43 10000 7.7 160 15:19 09.01.2020
4945 Smoke 21 1014 43 10000 7.7 170 14:44 09.01.2020
4946 Clear 21 1013 43 9000 9.8 190 14:22 09.01.2020
4947 Clear 22 1014 46 10000 6.7 190 13:57 09.01.2020
4948 Clear 22 1013 49 10000 6.7 200 13:39 09.01.2020
4949 Smoke 22 1013 43 5000 9.8 190 13:21 09.01.2020
4950 Clear 22 1012 49 6000 9.8 200 12:59 09.01.2020
4951 Clear 23 1012 53 9000 7.7 180 12:40 09.01.2020
4952 Clear 23 1012 53 9000 7.7 180 12:40 09.01.2020
4953 Clear 23 1012 53 9000 7.7 180 12:20 09.01.2020
4954 Clear 23 1011 50 10000 10.3 210 11:57 09.01.2020
4955 Clear 24 1011 47 10000 10.3 220 11:38 09.01.2020
4956 Clear 24 1011 47 10000 10.3 220 11:20 09.01.2020
4957 Clear 24 1011 41 9000 9.8 220 10:43 09.01.2020
4958 Clear 25 1010 41 10000 11.3 220 10:22 09.01.2020
4959 Clear 25 1010 39 10000 10.8 220 09:56 09.01.2020
4960 Clear 26 1010 39 10000 11.8 220 09:38 09.01.2020
4961 Clear 26 1010 39 10000 11.8 220 09:18 09.01.2020
4962 Clear 26 1010 39 9000 11.3 220 08:55 09.01.2020
4963 Clear 26 1010 39 10000 10.8 230 08:37 09.01.2020
4964 Clear 26 1010 39 10000 10.8 230 08:19 09.01.2020
4965 Clear 26 1011 41 10000 9.8 240 07:42 09.01.2020
4966 Clear 26 1011 41 10000 9.8 240 07:23 09.01.2020
4967 Clear 26 1011 39 10000 10.3 230 06:38 09.01.2020
4968 Clear 26 1011 39 10000 10.3 230 06:19 09.01.2020
4969 Clear 27 1011 34 10000 9.8 230 05:44 09.01.2020
4970 Clear 26 1012 32 10000 7.7 210 04:42 09.01.2020
4971 Clear 25 1012 41 10000 6.2 170 03:30 09.01.2020
4972 Clear 25 1012 41 10000 6.2 170 03:30 09.01.2020
4973 Clouds 23 1012 41 10000 9.3 220 02:52 09.01.2020
4974 Clouds 22 1012 46 10000 6.7 180 02:23 09.01.2020
4975 Clouds 21 1012 52 10000 7.7 180 01:35 09.01.2020
4976 Clouds 20 1012 63 10000 7.7 190 00:40 09.01.2020
4977 Clouds 19 1012 63 10000 7.7 190 00:20 09.01.2020
4978 Clouds 18 1011 68 10000 7.7 190 23:41 08.01.2020
4979 Clouds 18 1011 68 10000 7.7 190 23:23 08.01.2020
4980 Clouds 17 1011 77 10000 8.7 190 22:58 08.01.2020
4981 Clouds 17 1011 72 10000 8.7 200 22:38 08.01.2020
4982 Clouds 17 1011 72 10000 8.7 200 22:20 08.01.2020
4983 Clouds 17 1010 72 10000 9.3 190 21:56 08.01.2020
4984 Clouds 17 1010 72 10000 8.2 190 21:37 08.01.2020
4985 Clouds 17 1010 72 10000 8.2 190 21:18 08.01.2020
4986 Clouds 17 1010 72 10000 7.7 190 20:56 08.01.2020
4987 Clear 18 1009 72 10000 8.2 200 20:37 08.01.2020
4988 Clouds 18 1009 72 10000 8.2 200 20:19 08.01.2020
4989 Clouds 18 1009 72 10000 7.2 200 19:39 08.01.2020
4990 Clouds 18 1009 72 10000 7.2 200 19:20 08.01.2020
4991 Clouds 19 1009 72 10000 8.2 200 18:58 08.01.2020
4992 Clouds 19 1009 72 10000 8.2 200 18:58 08.01.2020
4993 Clouds 19 1009 77 10000 7.7 190 18:39 08.01.2020
4994 Clouds 19 1009 77 10000 7.7 190 18:19 08.01.2020
4995 Clouds 19 1009 77 10000 7.7 190 18:19 08.01.2020
4996 Clouds 19 1009 72 10000 8.7 200 17:57 08.01.2020
4997 Clouds 20 1009 72 10000 7.7 210 17:39 08.01.2020
4998 Clouds 20 1009 72 10000 7.7 210 17:20 08.01.2020
4999 Clouds 20 1009 72 10000 7.2 190 16:56 08.01.2020
5000 Clouds 20 1009 72 10000 7.2 190 16:38 08.01.2020
5001 Clouds 20 1009 72 10000 7.2 190 16:19 08.01.2020
5002 Clouds 20 1010 68 10000 7.2 200 15:45 08.01.2020
5003 Clouds 21 1009 68 10000 7.7 210 15:22 08.01.2020
5004 Clouds 21 1009 68 10000 7.7 210 15:22 08.01.2020
5005 Clouds 21 1009 68 10000 7.2 210 14:59 08.01.2020
5006 Clouds 21 1009 64 10000 7.7 210 14:40 08.01.2020
5007 Clear 21 1009 64 10000 7.7 210 14:21 08.01.2020
5008 Clear 21 1008 60 10000 8.2 220 13:41 08.01.2020
5009 Clear 21 1008 56 10000 8.7 210 13:22 08.01.2020
5010 Clear 22 1008 49 10000 8.2 210 12:55 08.01.2020
5011 Clear 22 1008 53 10000 7.2 210 12:36 08.01.2020
5012 Clear 22 1008 53 10000 7.2 210 12:18 08.01.2020
5013 Clear 24 1007 44 10000 8.7 230 11:47 08.01.2020
5014 Clear 25 1007 39 10000 9.3 230 11:19 08.01.2020
5015 Clear 25 1006 39 10000 8.7 230 10:59 08.01.2020
5016 Clear 25 1006 39 10000 8.7 230 10:59 08.01.2020
5017 Clear 26 1006 34 10000 9.3 240 10:40 08.01.2020
5018 Clear 26 1006 34 10000 9.3 240 10:20 08.01.2020
5019 Clear 27 1006 36 10000 9.3 230 09:43 08.01.2020
5020 Clear 27 1006 32 10000 8.7 230 09:20 08.01.2020
5021 Clear 27 1006 32 10000 8.7 210 08:58 08.01.2020
5022 Clear 28 1006 32 10000 9.3 220 08:39 08.01.2020
5023 Clear 27 1006 32 10000 9.3 220 08:20 08.01.2020
5024 Clear 27 1006 34 10000 10.3 240 07:51 08.01.2020
5025 Clear 28 1006 30 10000 9.8 240 07:33 08.01.2020
5026 Clear 29 1006 30 10000 9.8 240 06:50 08.01.2020
5027 Clear 29 1006 35 10000 8.7 240 06:32 08.01.2020
5028 Clear 28 1006 35 10000 8.7 240 05:54 08.01.2020
5029 Clear 29 1006 37 10000 8.2 240 05:18 08.01.2020
5030 Clear 28 1007 37 10000 7.7 230 04:27 08.01.2020
5031 Clear 27 1007 42 10000 6.7 200 02:45 08.01.2020
5032 Clear 26 1007 47 10000 6.2 210 02:27 08.01.2020
5033 Clear 24 1008 53 10000 6.2 210 01:50 08.01.2020
5034 Clear 23 1008 53 10000 6.7 210 01:25 08.01.2020
5035 Clear 22 1007 64 10000 5.7 210 00:40 08.01.2020
5036 Clear 21 1007 64 10000 5.7 210 00:20 08.01.2020
5037 Clear 19 1007 77 10000 4.6 200 23:44 07.01.2020
5038 Clear 18 1007 77 10000 4.6 200 23:20 07.01.2020
5039 Clear 18 1007 77 10000 5.1 210 22:40 07.01.2020
5040 Clear 18 1007 77 10000 5.1 200 22:20 07.01.2020
5041 Clear 18 1007 77 10000 5.1 200 21:57 07.01.2020
5042 Clear 18 1006 82 10000 4.6 200 21:38 07.01.2020
5043 Clear 18 1006 82 10000 4.6 200 21:38 07.01.2020
5044 Clear 18 1006 82 10000 4.6 200 21:20 07.01.2020
5045 Clear 19 1006 82 10000 4.1 200 20:56 07.01.2020
5046 Clear 19 1006 82 10000 4.1 200 20:38 07.01.2020
5047 Clear 19 1006 82 10000 4.1 200 20:19 07.01.2020
5048 Clear 19 1006 82 10000 4.1 200 19:38 07.01.2020
5049 Clear 19 1006 82 10000 4.1 200 19:20 07.01.2020
5050 Clear 19 1006 77 10000 4.6 190 18:58 07.01.2020
5051 Clear 20 1006 77 10000 3.6 180 18:40 07.01.2020
5052 Clear 20 1006 77 10000 3.6 180 18:19 07.01.2020
5053 Clear 20 1006 72 10000 4.6 180 17:59 07.01.2020
5054 Clear 20 1006 77 10000 7.2 190 17:39 07.01.2020
5055 Clear 20 1006 77 10000 7.2 190 17:21 07.01.2020
5056 Clear 21 1007 73 10000 6.7 200 16:56 07.01.2020
5057 Clear 21 1007 73 10000 6.7 210 16:38 07.01.2020
5058 Clear 21 1007 73 10000 6.7 210 16:19 07.01.2020
5059 Clear 21 1007 64 10000 7.2 210 15:57 07.01.2020
5060 Clear 21 1007 53 10000 5.1 220 15:38 07.01.2020
5061 Clear 21 1007 53 10000 5.1 220 15:19 07.01.2020
5062 Clear 21 1007 64 10000 3.6 220 14:42 07.01.2020
5063 Clear 22 1007 64 10000 3.6 220 14:24 07.01.2020
5064 Clear 22 1007 60 10000 4.1 210 13:57 07.01.2020
5065 Clear 22 1007 49 10000 5.1 230 13:39 07.01.2020
5066 Clear 22 1007 49 10000 5.1 230 13:18 07.01.2020
5067 Clear 23 1006 44 10000 6.2 240 12:41 07.01.2020
5068 Clear 23 1006 44 10000 6.2 240 12:19 07.01.2020
5069 Clear 25 1006 47 10000 6.2 260 11:45 07.01.2020
5070 Clear 26 1006 47 10000 6.2 260 11:24 07.01.2020
5071 Clear 26 1005 44 10000 6.2 260 10:59 07.01.2020
5072 Clear 26 1005 44 10000 6.2 260 10:41 07.01.2020
5073 Clear 26 1005 42 10000 7.7 250 10:41 07.01.2020
5074 Clear 26 1005 42 10000 7.7 250 10:23 07.01.2020
5075 Clear 28 1005 30 10000 5.1 270 09:57 07.01.2020
5076 Clear 29 1005 27 10000 5.7 260 09:38 07.01.2020
5077 Clear 31 1005 27 10000 5.7 260 09:20 07.01.2020
5078 Clear 29 1005 27 10000 6.2 270 08:42 07.01.2020
5079 Clear 31 1005 27 10000 6.2 270 08:22 07.01.2020
5080 Clear 31 1005 27 10000 6.2 270 07:54 07.01.2020
5081 Clear 31 1006 25 10000 5.7 260 07:27 07.01.2020
5082 Clear 31 1006 25 10000 6.7 250 06:53 07.01.2020
5083 Clear 32 1006 22 10000 6.2 270 06:32 07.01.2020
5084 Clear 31 1006 24 10000 4.6 230 05:49 07.01.2020
5085 Clear 31 1007 27 10000 3.1 300 04:33 07.01.2020
5086 Clear 29 1007 28 10000 2.1 280 03:26 07.01.2020
5087 Clear 27 1007 31 10000 7.2 240 02:21 07.01.2020
5088 Clear 26 1007 33 10000 7.2 240 01:51 07.01.2020
5089 Clear 25 1008 36 10000 2.6 210 01:26 07.01.2020
5090 Clear 22 1007 35 10000 5.1 300 00:22 07.01.2020
5091 Clear 20 1007 35 10000 4.6 60 23:59 06.01.2020
5092 Clear 19 1007 45 10000 3.6 50 23:39 06.01.2020
5093 Clear 18 1007 45 10000 3.6 50 23:21 06.01.2020
5094 Clear 18 1007 63 10000 3.1 30 22:56 06.01.2020
5095 Clear 17 1007 77 10000 1.89 119 22:37 06.01.2020
5096 Clear 17 1007 77 10000 1.89 119 22:19 06.01.2020
5097 Clear 17 1007 77 10000 2.6 250 21:55 06.01.2020
5098 Clear 18 1007 72 10000 3.1 240 21:36 06.01.2020
5099 Clear 18 1007 72 10000 3.1 240 21:36 06.01.2020
5100 Clear 18 1007 72 10000 3.1 240 21:18 06.01.2020
5101 Clear 18 1007 72 10000 2.6 270 20:54 06.01.2020
5102 Clear 18 1007 68 10000 3.1 210 20:54 06.01.2020
5103 Clear 18 1007 67 10000 1.5 350 20:36 06.01.2020
5104 Clear 18 1007 67 10000 1.5 350 20:18 06.01.2020
5105 Clear 18 1007 72 10000 1.5 340 19:55 06.01.2020
5106 Clear 18 1007 67 10000 2.1 320 19:36 06.01.2020
5107 Clear 18 1007 67 10000 2.1 320 19:36 06.01.2020
5108 Clear 18 1007 67 10000 2.1 320 19:18 06.01.2020
5109 Clear 18 1008 67 10000 0.5 40 18:43 06.01.2020
5110 Clear 19 1008 63 10000 0.5 100 18:20 06.01.2020
5111 Clear 20 1009 49 10000 3.1 210 17:39 06.01.2020
5112 Clear 20 1009 49 10000 3.1 210 17:20 06.01.2020
5113 Clear 21 1009 49 10000 2.6 200 16:57 06.01.2020
5114 Clear 21 1009 46 10000 4.1 190 16:38 06.01.2020
5115 Clear 21 1009 46 10000 4.1 190 16:19 06.01.2020
5116 Clear 22 1010 53 10000 2.6 190 15:43 06.01.2020
5117 Clear 22 1010 46 10000 4.6 200 15:21 06.01.2020
5118 Clear 22 1010 49 10000 5.7 210 14:59 06.01.2020
5119 Clear 22 1010 49 10000 5.7 210 14:41 06.01.2020
5120 Clear 23 1010 47 10000 5.7 220 14:21 06.01.2020
5121 Clear 23 1010 47 10000 5.7 220 14:21 06.01.2020
5122 Clear 23 1010 41 10000 5.1 180 13:58 06.01.2020
5123 Clear 24 1010 39 10000 5.1 210 13:38 06.01.2020
5124 Clear 24 1010 39 10000 5.1 210 13:20 06.01.2020
5125 Clear 24 1010 36 10000 5.1 180 12:44 06.01.2020
5126 Clear 25 1009 30 10000 6.2 210 12:21 06.01.2020
5127 Clear 26 1009 30 10000 7.7 220 11:59 06.01.2020
5128 Clear 27 1009 27 10000 7.7 240 11:41 06.01.2020
5129 Clear 28 1009 27 10000 7.7 240 11:23 06.01.2020
5130 Clear 29 1009 25 10000 7.7 230 10:57 06.01.2020
5131 Clear 30 1009 24 10000 7.2 240 10:39 06.01.2020
5132 Clear 30 1009 24 10000 7.2 240 10:20 06.01.2020
5133 Clear 31 1009 25 10000 8.2 240 09:39 06.01.2020
5134 Clear 31 1009 25 10000 8.2 240 09:19 06.01.2020
5135 Clear 31 1009 29 10000 6.2 260 08:46 06.01.2020
5136 Clear 31 1009 31 10000 6.2 270 08:26 06.01.2020
5137 Clear 32 1009 27 10000 6.7 260 07:53 06.01.2020
5138 Clear 33 1009 22 10000 5.7 250 07:28 06.01.2020
5139 Clear 33 1009 21 10000 5.7 250 06:45 06.01.2020
5140 Clear 33 1010 27 10000 8.2 220 06:19 06.01.2020
5141 Clear 32 1010 24 10000 6.2 260 05:42 06.01.2020
5142 Clear 32 1010 22 10000 4.1 270 04:33 06.01.2020
5143 Clear 32 1011 25 10000 3.6 270 03:59 06.01.2020
5144 Clear 30 1011 25 10000 1 280 02:46 06.01.2020
5145 Clear 27 1011 28 10000 1.5 240 02:23 06.01.2020
5146 Clear 26 1011 31 10000 4.6 250 01:43 06.01.2020
5147 Clear 25 1011 36 10000 4.6 250 01:21 06.01.2020
5148 Clear 22 1011 56 10000 2.6 330 00:41 06.01.2020
5149 Clear 22 1011 56 10000 2.6 330 00:20 06.01.2020
5150 Clear 18 1011 76 10000 1.5 210 23:41 05.01.2020
5151 Clear 17 1011 76 10000 1.5 210 23:22 05.01.2020
5152 Clear 17 1011 82 10000 1 180 22:55 05.01.2020
5153 Clear 17 1011 82 10000 2.1 180 22:37 05.01.2020
5154 Clear 17 1011 82 10000 2.1 180 22:19 05.01.2020
5155 Clear 17 1011 71 10000 3.1 230 21:41 05.01.2020
5156 Clear 17 1011 71 10000 3.1 230 21:21 05.01.2020
5157 Clear 18 1011 67 10000 1 220 20:59 05.01.2020
5158 Clear 18 1011 67 10000 1.49 99 20:40 05.01.2020
5159 Clear 17 1011 67 10000 1.9 94 20:20 05.01.2020
5160 Clear 18 1011 63 10000 1.5 180 19:59 05.01.2020
5161 Clear 18 1011 63 10000 2.6 210 19:41 05.01.2020
5162 Clear 18 1011 63 10000 2.6 210 19:21 05.01.2020
5163 Clear 19 1011 59 10000 3.6 210 18:56 05.01.2020
5164 Clear 19 1011 55 10000 3.6 210 18:38 05.01.2020
5165 Clear 19 1011 55 10000 3.6 210 18:19 05.01.2020
5166 Clear 20 1012 49 10000 3.6 190 17:59 05.01.2020
5167 Clear 20 1012 46 10000 4.1 190 17:39 05.01.2020
5168 Clear 20 1012 46 10000 4.1 190 17:20 05.01.2020
5169 Clear 21 1012 46 10000 4.1 150 16:57 05.01.2020
5170 Clear 21 1012 46 10000 4.6 190 16:39 05.01.2020
5171 Clear 22 1012 43 10000 4.1 210 16:20 05.01.2020
5172 Clear 22 1012 43 10000 2.6 190 15:40 05.01.2020
5173 Clear 23 1012 43 10000 2.6 190 15:21 05.01.2020
5174 Clear 23 1013 41 10000 3.1 210 14:57 05.01.2020
5175 Clear 23 1013 41 10000 3.1 210 14:57 05.01.2020
5176 Clear 24 1012 36 10000 5.1 190 14:38 05.01.2020
5177 Clear 24 1012 36 10000 5.1 190 14:20 05.01.2020
5178 Clear 24 1012 34 10000 4.6 200 13:57 05.01.2020
5179 Clear 25 1012 31 10000 5.1 210 13:38 05.01.2020
5180 Clear 25 1012 31 10000 5.1 210 13:38 05.01.2020
5181 Clear 25 1012 31 10000 5.1 210 13:20 05.01.2020
5182 Clear 25 1012 30 10000 5.7 210 12:56 05.01.2020
5183 Clear 25 1012 30 10000 5.7 210 12:56 05.01.2020
5184 Clear 26 1011 30 10000 7.2 210 12:37 05.01.2020
5185 Clear 26 1011 30 10000 7.2 210 12:19 05.01.2020
5186 Clear 27 1011 28 10000 6.2 200 11:44 05.01.2020
5187 Clear 29 1011 25 10000 6.2 200 11:20 05.01.2020
5188 Clear 29 1010 23 10000 6.2 200 10:59 05.01.2020
5189 Clear 31 1010 18 10000 7.7 230 10:40 05.01.2020
5190 Clear 31 1010 18 10000 7.7 230 10:19 05.01.2020
5191 Clear 32 1010 18 10000 7.2 250 09:42 05.01.2020
5192 Clear 31 1010 17 10000 8.7 240 09:22 05.01.2020
5193 Clear 33 1010 14 10000 7.7 260 08:52 05.01.2020
5194 Clear 32 1011 14 10000 7.7 250 08:32 05.01.2020
5195 Clear 34 1011 15 10000 7.7 260 07:59 05.01.2020
5196 Clear 34 1011 15 10000 5.7 250 07:39 05.01.2020
5197 Clear 34 1011 15 10000 5.7 250 07:39 05.01.2020
5198 Clear 34 1011 15 10000 5.7 250 07:20 05.01.2020
5199 Clear 34 1012 15 10000 3.6 330 06:40 05.01.2020
5200 Clear 33 1013 16 10000 7.2 230 05:34 05.01.2020
5201 Clear 33 1013 16 10000 7.2 230 05:34 05.01.2020
5202 Clear 33 1013 18 10000 4.1 350 04:49 05.01.2020
5203 Clear 32 1013 18 10000 5.1 360 04:18 05.01.2020
5204 Clear 30 1014 25 10000 7.2 40 02:50 05.01.2020
5205 Clear 29 1014 24 10000 7.2 30 02:32 05.01.2020
5206 Clear 27 1014 26 10000 7.7 40 01:49 05.01.2020
5207 Clear 25 1014 27 10000 6.2 70 01:19 05.01.2020
5208 Clear 23 1014 33 10000 7.7 60 00:55 05.01.2020
5209 Clear 22 1014 27 10000 7.7 60 00:36 05.01.2020
5210 Clear 21 1014 27 10000 7.7 60 00:18 05.01.2020
5211 Clear 19 1014 45 10000 7.2 60 23:40 04.01.2020
5212 Clear 18 1014 45 10000 7.2 60 23:20 04.01.2020
5213 Clear 17 1014 48 10000 5.1 60 22:40 04.01.2020
5214 Clear 17 1014 48 10000 5.1 60 22:22 04.01.2020
5215 Clear 17 1014 48 10000 5.1 60 22:22 04.01.2020
5216 Clear 17 1014 48 10000 5.1 50 21:58 04.01.2020
5217 Clear 17 1014 48 10000 4.1 50 21:40 04.01.2020
5218 Clear 17 1014 48 10000 4.1 50 21:21 04.01.2020
5219 Clear 17 1014 45 10000 4.1 60 20:59 04.01.2020
5220 Clear 17 1014 42 10000 5.1 70 20:40 04.01.2020
5221 Clear 17 1014 42 10000 5.1 70 20:21 04.01.2020
5222 Clear 16 1014 42 10000 3.6 110 19:57 04.01.2020
5223 Clear 16 1014 42 10000 3.6 110 19:57 04.01.2020
5224 Clear 16 1015 48 10000 4.1 100 19:38 04.01.2020
5225 Clear 15 1015 48 10000 4.1 100 19:20 04.01.2020
5226 Clear 15 1015 71 10000 3.8 88 18:55 04.01.2020
5227 Clear 15 1015 76 10000 3.6 100 18:36 04.01.2020
5228 Clear 15 1015 76 10000 3.6 100 18:18 04.01.2020
5229 Clear 15 1016 71 10000 3.6 210 17:41 04.01.2020
5230 Clear 15 1016 71 10000 3.6 210 17:41 04.01.2020
5231 Clear 16 1016 71 10000 3.6 210 17:23 04.01.2020
5232 Clear 16 1016 63 10000 5.1 150 16:58 04.01.2020
5233 Clear 17 1016 63 10000 5.1 150 16:39 04.01.2020
5234 Clear 17 1016 63 10000 5.1 150 16:39 04.01.2020
5235 Clear 17 1016 63 10000 5.1 150 16:21 04.01.2020
5236 Clear 17 1016 59 10000 5.1 150 15:54 04.01.2020
5237 Clear 18 1017 59 10000 5.1 150 15:36 04.01.2020
5238 Clear 18 1017 59 10000 5.1 150 15:18 04.01.2020
5239 Clear 19 1017 52 10000 5.1 150 14:42 04.01.2020
5240 Clear 19 1017 52 10000 5.1 150 14:20 04.01.2020
5241 Clear 19 1017 52 10000 5.1 150 14:20 04.01.2020
5242 Clear 19 1017 52 10000 5.1 150 13:59 04.01.2020
5243 Clear 19 1017 52 10000 7.2 200 13:38 04.01.2020
5244 Clear 20 1017 52 10000 7.2 200 13:19 04.01.2020
5245 Clear 20 1016 46 10000 6.2 210 12:57 04.01.2020
5246 Clear 20 1017 52 10000 6.2 210 12:38 04.01.2020
5247 Clear 21 1017 52 10000 6.2 210 12:18 04.01.2020
5248 Clear 22 1016 35 10000 5.7 210 11:55 04.01.2020
5249 Clear 22 1016 38 10000 6.7 220 11:36 04.01.2020
5250 Clear 23 1016 38 10000 6.7 220 11:18 04.01.2020
5251 Clear 23 1016 35 10000 8.7 220 10:40 04.01.2020
5252 Clear 23 1016 35 10000 8.7 220 10:21 04.01.2020
5253 Clear 23 1016 33 10000 9.8 230 09:47 04.01.2020
5254 Clear 24 1016 27 10000 6.7 240 09:26 04.01.2020
5255 Clear 26 1016 21 10000 7.2 240 08:49 04.01.2020
5256 Clear 25 1017 12 10000 2.1 120 08:29 04.01.2020
5257 Clear 26 1017 14 10000 4.1 170 07:56 04.01.2020
5258 Clear 26 1017 12 10000 5.7 110 07:38 04.01.2020
5259 Clear 26 1018 14 10000 3.1 110 06:44 04.01.2020
5260 Clear 25 1018 19 10000 5.1 90 05:59 04.01.2020
5261 Clear 23 1019 20 10000 3.6 150 04:51 04.01.2020
5262 Clear 22 1020 19 10000 6.2 90 04:30 04.01.2020
5263 Clear 21 1021 26 10000 6.2 100 03:29 04.01.2020
5264 Clear 20 1021 29 10000 5.7 110 02:49 04.01.2020
5265 Clear 19 1021 34 10000 7.2 90 02:18 04.01.2020
5266 Clear 19 1021 34 10000 7.2 90 02:18 04.01.2020
5267 Clear 18 1021 39 10000 9.3 80 01:42 04.01.2020
5268 Clear 17 1022 41 10000 10.3 90 01:23 04.01.2020
5269 Clear 15 1022 47 10000 9.3 90 00:29 04.01.2020
5270 Clear 14 1022 50 10000 4.1 100 23:57 03.01.2020
5271 Clear 14 1022 50 10000 5.7 90 23:30 03.01.2020
5272 Clear 14 1022 50 10000 5.7 90 23:30 03.01.2020
5273 Clear 13 1022 50 10000 4.1 120 22:59 03.01.2020
5274 Clear 12 1021 50 10000 5.1 120 22:40 03.01.2020
5275 Clear 13 1021 50 10000 4.6 120 22:19 03.01.2020
5276 Clear 13 1021 50 10000 4.6 120 21:57 03.01.2020
5277 Clear 13 1021 47 10000 4.6 150 21:37 03.01.2020
5278 Clear 13 1021 47 10000 4.6 150 21:18 03.01.2020
5279 Clear 13 1020 47 10000 5.1 140 20:54 03.01.2020
5280 Clear 13 1020 47 10000 5.1 140 20:54 03.01.2020
5281 Clear 13 1020 43 10000 3.6 140 20:36 03.01.2020
5282 Clear 13 1020 43 10000 3.6 140 20:18 03.01.2020
5283 Clear 14 1020 41 10000 5.1 130 19:42 03.01.2020
5284 Clear 14 1020 41 10000 5.1 130 19:23 03.01.2020
5285 Clear 15 1020 38 10000 6.7 110 18:54 03.01.2020
5286 Clear 15 1020 38 10000 7.2 160 18:36 03.01.2020
5287 Clear 15 1020 38 10000 7.2 160 18:18 03.01.2020
5288 Clear 15 1020 44 10000 6.7 110 17:41 03.01.2020
5289 Clear 15 1020 44 10000 6.7 110 17:21 03.01.2020
5290 Clear 15 1020 48 10000 6.2 190 16:44 03.01.2020
5291 Clear 15 1020 48 10000 6.2 190 16:25 03.01.2020
5292 Clear 16 1020 48 10000 6.2 190 16:00 03.01.2020
5293 Clear 17 1020 45 10000 6.7 190 15:41 03.01.2020
5294 Clear 17 1020 45 10000 6.7 190 15:19 03.01.2020
5295 Clear 18 1019 42 10000 6.7 190 14:40 03.01.2020
5296 Clear 18 1019 42 10000 6.7 190 14:40 03.01.2020
5297 Clear 18 1019 42 10000 6.7 190 14:20 03.01.2020
5298 Clear 18 1018 42 10000 7.2 180 13:57 03.01.2020
5299 Clear 18 1018 42 10000 7.2 210 13:39 03.01.2020
5300 Clear 18 1018 42 10000 7.2 210 13:39 03.01.2020
5301 Clear 18 1018 42 10000 7.2 210 13:20 03.01.2020
5302 Clear 19 1018 39 10000 7.2 190 12:41 03.01.2020
5303 Clear 19 1017 40 10000 7.2 190 12:22 03.01.2020
5304 Clear 20 1017 42 10000 7.2 190 11:53 03.01.2020
5305 Clear 20 1017 37 10000 7.2 200 11:34 03.01.2020
5306 Clear 21 1016 40 10000 7.2 200 10:58 03.01.2020
5307 Clear 21 1016 40 10000 9.8 230 10:39 03.01.2020
5308 Clear 21 1016 40 10000 9.8 230 10:21 03.01.2020
5309 Clear 22 1016 37 10000 9.8 230 09:55 03.01.2020
5310 Clear 21 1016 35 10000 9.8 230 09:37 03.01.2020
5311 Clear 22 1016 35 10000 9.8 230 09:19 03.01.2020
5312 Clear 22 1017 37 10000 9.3 230 08:44 03.01.2020
5313 Clear 22 1017 37 10000 8.7 230 08:22 03.01.2020
5314 Clear 22 1017 35 10000 9.3 240 07:43 03.01.2020
5315 Clear 22 1017 35 10000 8.7 240 07:19 03.01.2020
5316 Clear 22 1017 37 10000 8.7 230 06:59 03.01.2020
5317 Clear 21 1018 37 10000 9.3 210 06:40 03.01.2020
5318 Clear 21 1018 37 10000 9.3 210 06:22 03.01.2020
5319 Clear 20 1018 35 10000 7.2 200 04:45 03.01.2020
5320 Clouds 20 1019 42 10000 7.7 210 03:38 03.01.2020
5321 Rain 19 1019 59 10000 8.7 200 02:53 03.01.2020
5322 Rain 18 1019 55 10000 6.2 190 01:50 03.01.2020
5323 Rain 17 1019 55 10000 6.2 190 01:18 03.01.2020
5324 Clouds 16 1018 63 10000 5.1 180 00:33 03.01.2020
5325 Rain 15 1018 72 10000 6.2 190 23:58 02.01.2020
5326 Clouds 14 1018 82 10000 6.2 190 23:39 02.01.2020
5327 Clouds 14 1018 82 10000 6.2 190 23:20 02.01.2020
5328 Rain 13 1018 82 10000 6.2 190 22:58 02.01.2020
5329 Rain 13 1018 82 10000 4.6 190 22:39 02.01.2020
5330 Rain 13 1018 82 10000 4.6 190 22:19 02.01.2020
5331 Rain 13 1018 87 10000 3.6 210 21:55 02.01.2020
5332 Clouds 13 1017 82 10000 3.6 190 21:36 02.01.2020
5333 Clouds 13 1017 82 10000 3.6 190 21:18 02.01.2020
5334 Clouds 14 1016 82 10000 4.6 170 20:40 02.01.2020
5335 Clouds 14 1016 82 10000 4.6 170 20:21 02.01.2020
5336 Rain 15 1016 82 10000 7.2 200 19:56 02.01.2020
5337 Rain 15 1016 82 10000 7.2 200 19:56 02.01.2020
5338 Clouds 15 1016 82 10000 6.2 190 19:38 02.01.2020
5339 Clouds 15 1016 82 10000 6.2 190 19:19 02.01.2020
5340 Clouds 15 1016 82 10000 6.7 190 18:59 02.01.2020
5341 Rain 16 1016 63 10000 7.7 180 18:40 02.01.2020
5342 Rain 16 1016 63 10000 7.7 180 18:22 02.01.2020
5343 Rain 16 1016 63 10000 7.7 180 18:22 02.01.2020
5344 Rain 17 1016 59 10000 7.2 220 17:57 02.01.2020
5345 Clouds 18 1016 59 10000 7.7 220 17:37 02.01.2020
5346 Clouds 18 1016 59 10000 7.7 220 17:19 02.01.2020
5347 Clouds 18 1016 59 10000 6.2 220 16:57 02.01.2020
5348 Clouds 18 1016 55 10000 7.7 230 16:38 02.01.2020
5349 Clouds 18 1016 55 10000 7.7 230 16:20 02.01.2020
5350 Rain 18 1015 68 10000 7.2 220 15:45 02.01.2020
5351 Rain 18 1015 63 10000 7.2 220 15:24 02.01.2020
5352 Rain 18 1015 63 10000 7.2 220 14:59 02.01.2020
5353 Rain 19 1015 59 10000 7.2 220 14:39 02.01.2020
5354 Rain 19 1015 59 10000 7.2 220 14:39 02.01.2020
5355 Rain 19 1015 59 10000 6.2 220 14:21 02.01.2020
5356 Rain 19 1015 59 10000 6.2 220 13:58 02.01.2020
5357 Rain 19 1015 59 10000 6.2 220 13:40 02.01.2020
5358 Rain 19 1015 59 10000 6.2 220 13:19 02.01.2020
5359 Clouds 20 1014 60 10000 8.7 230 12:43 02.01.2020
5360 Clouds 20 1014 60 10000 8.7 230 12:23 02.01.2020
5361 Clouds 21 1013 43 10000 8.7 230 11:42 02.01.2020
5362 Clouds 22 1013 43 10000 8.7 230 11:23 02.01.2020
5363 Clouds 22 1013 46 10000 9.8 230 10:46 02.01.2020
5364 Clouds 23 1013 40 10000 9.3 230 10:28 02.01.2020
5365 Clouds 23 1012 41 10000 9.8 220 09:58 02.01.2020
5366 Clouds 23 1012 44 10000 10.8 230 09:36 02.01.2020
5367 Clouds 23 1012 47 10000 10.3 220 08:59 02.01.2020
5368 Clouds 23 1012 50 10000 9.8 230 08:40 02.01.2020
5369 Clouds 24 1012 50 10000 9.8 230 08:21 02.01.2020
5370 Clouds 23 1013 49 10000 9.3 230 07:47 02.01.2020
5371 Clouds 23 1013 53 10000 9.8 230 07:27 02.01.2020
5372 Clouds 23 1013 56 10000 9.3 230 06:41 02.01.2020
5373 Clouds 23 1013 56 10000 7.7 230 05:40 02.01.2020
5374 Clouds 23 1013 53 10000 8.2 240 04:35 02.01.2020
5375 Clouds 23 1013 53 10000 7.7 240 03:44 02.01.2020
5376 Clouds 23 1013 47 10000 6.2 200 02:21 02.01.2020
5377 Clouds 22 1013 49 10000 7.7 230 01:53 02.01.2020
5378 Clouds 22 1013 49 10000 7.7 230 01:53 02.01.2020
5379 Clouds 22 1013 53 10000 7.7 200 01:25 02.01.2020
5380 Clear 21 1013 64 10000 6.2 200 00:45 02.01.2020
5381 Clear 20 1013 68 10000 6.7 190 00:26 02.01.2020
5382 Clouds 18 1012 72 10000 7.7 190 23:43 01.01.2020
5383 Clouds 18 1012 72 10000 7.7 190 23:21 01.01.2020
5384 Clear 17 1012 77 10000 5.1 200 22:39 01.01.2020
5385 Clear 17 1012 77 10000 5.1 200 22:39 01.01.2020
5386 Clear 17 1012 77 10000 5.1 200 22:39 01.01.2020
5387 Clear 17 1012 77 10000 5.1 200 22:20 01.01.2020
5388 Clear 17 1012 77 10000 5.1 200 22:20 01.01.2020
5389 Clear 17 1011 72 10000 6.7 200 21:58 01.01.2020
5390 Clear 17 1011 72 10000 6.7 190 21:39 01.01.2020
5391 Clear 17 1011 72 10000 6.7 190 21:20 01.01.2020
5392 Clear 17 1011 72 10000 6.7 190 20:56 01.01.2020
5393 Clear 18 1011 68 10000 7.2 200 20:38 01.01.2020
5394 Clear 18 1011 68 10000 7.2 200 20:38 01.01.2020
5395 Clouds 18 1011 68 10000 7.2 200 20:19 01.01.2020
5396 Clouds 18 1011 68 10000 7.7 200 19:55 01.01.2020
5397 Clouds 18 1011 68 10000 7.7 190 19:37 01.01.2020
5398 Clouds 18 1011 68 10000 7.7 190 19:19 01.01.2020
5399 Clouds 19 1011 68 10000 7.7 190 18:56 01.01.2020
5400 Clouds 19 1011 68 10000 7.7 200 18:36 01.01.2020
5401 Clouds 19 1011 68 10000 7.7 200 18:18 01.01.2020
5402 Clouds 19 1011 77 10000 5.7 200 17:56 01.01.2020
5403 Clouds 19 1011 77 10000 4.1 210 17:38 01.01.2020
5404 Clouds 19 1011 77 10000 4.1 210 17:19 01.01.2020
5405 Clouds 20 1012 72 10000 4.6 210 16:42 01.01.2020
5406 Clouds 20 1012 72 10000 4.6 210 16:24 01.01.2020
5407 Clouds 20 1011 72 10000 5.1 220 15:58 01.01.2020
5408 Clouds 20 1012 72 10000 6.2 210 15:40 01.01.2020
5409 Clouds 20 1012 72 10000 6.2 210 15:40 01.01.2020
5410 Clouds 20 1012 72 10000 6.2 210 15:22 01.01.2020
5411 Clouds 20 1012 68 10000 6.7 210 14:59 01.01.2020
5412 Clouds 20 1012 72 10000 5.7 200 14:40 01.01.2020
5413 Clouds 21 1012 68 10000 6.7 220 14:22 01.01.2020
5414 Clouds 21 1012 68 10000 7.2 220 13:56 01.01.2020
5415 Clouds 21 1011 56 10000 7.2 220 13:37 01.01.2020
5416 Clouds 21 1011 56 10000 7.2 220 13:19 01.01.2020
5417 Clouds 22 1011 53 10000 8.2 230 12:57 01.01.2020
5418 Clouds 22 1011 50 10000 8.2 230 12:39 01.01.2020
5419 Clouds 23 1011 50 10000 8.2 230 12:19 01.01.2020
5420 Clouds 24 1010 50 10000 7.7 250 11:43 01.01.2020
5421 Clouds 25 1010 39 10000 7.7 230 11:23 01.01.2020
5422 Clouds 26 1010 39 10000 7.7 230 10:59 01.01.2020
5423 Clouds 26 1010 39 10000 7.7 230 10:41 01.01.2020
5424 Clouds 26 1010 39 10000 8.2 210 10:21 01.01.2020
5425 Clouds 26 1010 39 10000 8.2 210 10:21 01.01.2020
5426 Clouds 27 1009 42 10000 7.2 240 09:58 01.01.2020
5427 Clouds 27 1009 42 10000 7.2 240 09:37 01.01.2020
5428 Clouds 27 1009 42 10000 7.2 240 09:18 01.01.2020
5429 Clouds 28 1010 39 10000 8.2 230 08:55 01.01.2020
5430 Clouds 29 1010 37 10000 9.3 230 08:36 01.01.2020
5431 Clouds 29 1010 37 10000 9.3 230 08:36 01.01.2020
5432 Clear 29 1010 37 10000 9.3 230 08:18 01.01.2020
5433 Clear 29 1010 35 10000 7.7 230 07:51 01.01.2020
5434 Clear 29 1010 31 10000 8.2 230 07:32 01.01.2020
5435 Clear 30 1010 45 10000 7.2 270 06:44 01.01.2020
5436 Clear 30 1010 45 10000 7.2 270 06:20 01.01.2020
5437 Clouds 30 1011 35 10000 6.2 250 05:21 01.01.2020
5438 Clouds 27 1011 34 10000 9.3 240 03:43 01.01.2020
5439 Clouds 27 1012 32 10000 4.6 240 03:22 01.01.2020
5440 Clouds 27 1012 34 10000 9.3 240 02:56 01.01.2020
5441 Clouds 26 1012 39 10000 3.6 140 02:33 01.01.2020
5442 Clouds 24 1012 44 10000 4.1 140 01:45 01.01.2020
5443 Clouds 23 1013 43 10000 4.6 70 01:24 01.01.2020
5444 Clouds 22 1013 46 10000 3.1 80 00:57 01.01.2020
5445 Clouds 21 1013 56 10000 2.1 90 00:37 01.01.2020
5446 Clouds 21 1013 56 10000 2.1 90 00:19 01.01.2020
5447 Clouds 18 1013 77 10000 2.6 220 23:40 31.12.2019
5448 Clouds 18 1013 77 10000 2.6 220 23:21 31.12.2019
5449 Clouds 17 1013 77 10000 4.6 220 22:57 31.12.2019
5450 Clouds 16 1013 77 10000 4.1 230 22:38 31.12.2019
5451 Clouds 16 1013 77 10000 4.1 230 22:18 31.12.2019
5452 Clouds 16 1012 77 10000 4.1 220 21:54 31.12.2019
5453 Clouds 16 1012 77 10000 4.1 220 21:36 31.12.2019
5454 Clouds 16 1012 77 10000 4.1 220 21:18 31.12.2019
5455 Clouds 17 1012 77 10000 5.1 200 20:40 31.12.2019
5456 Clouds 17 1012 77 10000 5.1 200 20:21 31.12.2019
5457 Clouds 17 1012 82 10000 3.6 200 19:59 31.12.2019
5458 Clouds 17 1012 82 10000 3.1 190 19:40 31.12.2019
5459 Clouds 17 1012 82 10000 3.1 190 19:22 31.12.2019
5460 Clouds 17 1013 82 10000 3.1 210 18:57 31.12.2019
5461 Clouds 18 1013 82 10000 3.6 210 18:39 31.12.2019
5462 Clouds 18 1013 82 10000 3.6 210 18:19 31.12.2019
5463 Clouds 18 1013 77 10000 4.6 190 17:56 31.12.2019
5464 Clouds 18 1013 72 10000 4.6 190 17:37 31.12.2019
5465 Clouds 18 1013 72 10000 4.6 190 17:19 31.12.2019
5466 Clouds 19 1014 72 10000 5.7 200 16:56 31.12.2019
5467 Clouds 19 1014 72 10000 5.7 210 16:37 31.12.2019
5468 Clouds 19 1014 72 10000 5.7 210 16:19 31.12.2019
5469 Clouds 19 1014 68 10000 5.7 210 15:56 31.12.2019
5470 Clouds 19 1014 68 10000 6.7 200 15:38 31.12.2019
5471 Clouds 19 1014 68 10000 6.7 200 15:38 31.12.2019
5472 Clouds 19 1014 68 10000 6.7 200 15:20 31.12.2019
5473 Clouds 20 1014 68 10000 7.2 190 14:56 31.12.2019
5474 Clouds 20 1015 72 10000 4.1 180 14:37 31.12.2019
5475 Clouds 20 1015 72 10000 4.1 180 14:19 31.12.2019
5476 Clouds 20 1015 72 10000 5.7 200 13:56 31.12.2019
5477 Clouds 20 1014 68 10000 6.2 210 13:38 31.12.2019
5478 Clouds 20 1014 68 10000 6.2 210 13:38 31.12.2019
5479 Clouds 21 1014 68 10000 6.2 210 13:20 31.12.2019
5480 Clouds 21 1014 56 10000 6.2 230 12:55 31.12.2019
5481 Clouds 22 1014 49 10000 7.2 220 12:37 31.12.2019
5482 Clouds 22 1014 49 10000 7.2 220 12:19 31.12.2019
5483 Clouds 23 1013 44 10000 6.7 230 11:55 31.12.2019
5484 Clouds 23 1013 44 10000 6.7 230 11:55 31.12.2019
5485 Clouds 23 1013 38 10000 7.7 230 11:37 31.12.2019
5486 Clouds 23 1013 38 10000 7.7 230 11:37 31.12.2019
5487 Clear 24 1013 38 10000 7.7 230 11:19 31.12.2019
5488 Clear 24 1013 38 10000 7.7 230 11:19 31.12.2019
5489 Clear 25 1013 36 10000 8.7 230 10:55 31.12.2019
5490 Clear 25 1013 32 10000 8.2 230 10:37 31.12.2019
5491 Clear 26 1013 32 10000 8.2 230 10:19 31.12.2019
5492 Clear 26 1013 28 10000 9.3 220 09:57 31.12.2019
5493 Clear 26 1013 30 10000 8.7 250 09:38 31.12.2019
5494 Clear 26 1013 30 10000 8.7 250 09:18 31.12.2019
5495 Clear 26 1013 28 10000 8.7 230 09:18 31.12.2019
5496 Clear 27 1013 30 10000 8.2 230 08:42 31.12.2019
5497 Clear 27 1013 30 10000 8.2 230 08:42 31.12.2019
5498 Clear 28 1013 30 10000 8.2 230 08:22 31.12.2019
5499 Clear 28 1013 35 10000 6.7 260 07:56 31.12.2019
5500 Clear 29 1014 37 10000 7.7 250 07:37 31.12.2019
5501 Clear 29 1014 37 10000 7.7 250 07:18 31.12.2019
5502 Clear 29 1014 30 10000 6.7 250 06:29 31.12.2019
5503 Clear 29 1015 25 10000 6.7 220 04:58 31.12.2019
5504 Clear 28 1016 28 10000 2.1 210 04:25 31.12.2019
5505 Clear 25 1017 36 10000 2.6 180 02:58 31.12.2019
5506 Clear 23 1017 40 10000 4.6 100 02:21 31.12.2019
5507 Clear 23 1017 40 10000 4.6 100 02:21 31.12.2019
5508 Clear 22 1017 40 10000 6.7 220 01:50 31.12.2019
5509 Clear 21 1017 49 10000 5.7 100 01:31 31.12.2019
5510 Clear 20 1017 52 10000 6.7 90 00:49 31.12.2019
5511 Clear 19 1017 52 10000 4.1 90 00:26 31.12.2019
5512 Clear 18 1017 55 10000 3.6 120 23:58 30.12.2019
5513 Clear 17 1017 59 10000 3.1 110 23:40 30.12.2019
5514 Clear 17 1017 59 10000 3.1 110 23:22 30.12.2019
5515 Clear 16 1017 59 10000 5.1 90 22:59 30.12.2019
5516 Clear 15 1017 67 10000 5.1 90 22:41 30.12.2019
5517 Clear 15 1017 67 10000 5.1 90 22:21 30.12.2019
5518 Clear 15 1016 76 10000 5.1 140 21:57 30.12.2019
5519 Clear 14 1016 71 10000 2.6 210 21:39 30.12.2019
5520 Clear 14 1016 71 10000 2.6 210 21:20 30.12.2019
5521 Clear 14 1016 67 10000 5.1 140 20:58 30.12.2019
5522 Clear 15 1016 67 10000 5.1 140 20:40 30.12.2019
5523 Clear 15 1016 67 10000 5.1 140 20:40 30.12.2019
5524 Clear 15 1016 67 10000 5.1 140 20:20 30.12.2019
5525 Clear 15 1016 67 10000 4.6 210 19:58 30.12.2019
5526 Clear 15 1016 67 10000 4.6 190 19:39 30.12.2019
5527 Clear 15 1016 67 10000 4.6 190 19:39 30.12.2019
5528 Clear 15 1016 67 10000 4.6 190 19:19 30.12.2019
5529 Clear 16 1016 67 10000 5.1 190 18:59 30.12.2019
5530 Clear 16 1016 63 10000 6.2 190 18:40 30.12.2019
5531 Clear 16 1016 63 10000 6.2 190 18:20 30.12.2019
5532 Clear 17 1017 67 10000 5.7 190 17:56 30.12.2019
5533 Clear 17 1017 67 10000 5.7 190 17:56 30.12.2019
5534 Clear 17 1017 68 10000 5.1 200 17:38 30.12.2019
5535 Clear 17 1017 68 10000 5.1 200 17:19 30.12.2019
5536 Clear 18 1017 68 10000 4.1 200 16:58 30.12.2019
5537 Clear 18 1017 68 10000 3.6 190 16:37 30.12.2019
5538 Clear 18 1017 68 10000 3.6 190 16:18 30.12.2019
5539 Clear 19 1017 63 10000 5.7 190 15:55 30.12.2019
5540 Clear 19 1017 63 10000 5.1 190 15:37 30.12.2019
5541 Clear 19 1017 63 10000 5.1 190 15:18 30.12.2019
5542 Clear 19 1017 63 10000 8.2 200 14:42 30.12.2019
5543 Clear 19 1017 60 10000 7.7 210 14:20 30.12.2019
5544 Clear 20 1017 56 10000 6.7 210 13:56 30.12.2019
5545 Clear 20 1017 56 10000 7.2 210 13:37 30.12.2019
5546 Clear 20 1017 56 10000 7.2 210 13:19 30.12.2019
5547 Clear 20 1017 52 10000 6.2 200 12:43 30.12.2019
5548 Clear 21 1017 52 10000 6.2 200 12:22 30.12.2019
5549 Clear 21 1017 49 10000 6.2 200 11:59 30.12.2019
5550 Clear 22 1016 46 10000 6.2 200 11:40 30.12.2019
5551 Clear 22 1016 46 10000 6.2 200 11:19 30.12.2019
5552 Clear 22 1016 46 10000 6.2 200 11:19 30.12.2019
5553 Clear 23 1016 46 10000 6.2 200 10:45 30.12.2019
5554 Clear 23 1016 41 10000 6.2 200 10:22 30.12.2019
5555 Clear 23 1016 41 10000 6.2 200 09:59 30.12.2019
5556 Clear 24 1016 41 10000 6.2 200 09:41 30.12.2019
5557 Clear 24 1016 41 10000 9.3 230 09:20 30.12.2019
5558 Clear 24 1016 36 10000 9.3 230 08:54 30.12.2019
5559 Clear 24 1017 33 10000 9.3 230 08:36 30.12.2019
5560 Clear 24 1017 33 10000 9.3 230 08:36 30.12.2019
5561 Clear 24 1017 33 10000 9.3 230 08:18 30.12.2019
5562 Clear 25 1017 36 10000 7.7 230 07:39 30.12.2019
5563 Clear 25 1017 31 10000 8.7 210 06:52 30.12.2019
5564 Clear 23 1017 31 10000 6.7 220 04:58 30.12.2019
5565 Clear 23 1018 33 10000 9.3 230 03:57 30.12.2019
5566 Clouds 22 1018 37 10000 5.1 200 02:58 30.12.2019
5567 Clouds 22 1018 37 10000 5.7 170 02:40 30.12.2019
5568 Clouds 20 1018 43 10000 4.1 170 01:55 30.12.2019
5569 Clear 20 1018 45 10000 4.6 140 01:21 30.12.2019
5570 Clear 19 1018 48 10000 6.2 150 00:45 30.12.2019
5571 Clouds 19 1017 55 10000 5.1 170 00:19 30.12.2019
5572 Clouds 17 1017 67 10000 5.1 180 23:39 29.12.2019
5573 Clouds 17 1017 67 10000 5.1 180 23:21 29.12.2019
5574 Clouds 16 1016 67 10000 3.6 180 22:54 29.12.2019
5575 Clouds 15 1016 76 10000 3.6 170 22:36 29.12.2019
5576 Clouds 15 1016 76 10000 3.6 170 22:36 29.12.2019
5577 Clouds 15 1016 76 10000 3.6 170 22:36 29.12.2019
5578 Clouds 15 1016 76 10000 3.6 170 22:18 29.12.2019
5579 Clouds 16 1016 72 10000 4.1 190 21:42 29.12.2019
5580 Clouds 16 1016 72 10000 4.1 190 21:21 29.12.2019
5581 Clouds 16 1016 67 10000 4.1 190 20:57 29.12.2019
5582 Clouds 17 1016 72 10000 5.1 180 20:39 29.12.2019
5583 Clouds 17 1016 72 10000 5.1 180 20:20 29.12.2019
5584 Clouds 17 1016 72 10000 5.1 180 20:20 29.12.2019
5585 Clouds 17 1016 72 10000 5.1 180 20:20 29.12.2019
5586 Clouds 17 1016 68 10000 7.2 190 19:59 29.12.2019
5587 Clouds 18 1015 68 10000 5.7 190 19:40 29.12.2019
5588 Clouds 18 1015 68 10000 5.7 190 19:21 29.12.2019
5589 Clouds 18 1015 72 10000 5.1 190 18:57 29.12.2019
5590 Clouds 19 1015 72 10000 4.6 190 18:38 29.12.2019
5591 Clouds 19 1015 72 10000 4.6 190 18:19 29.12.2019
5592 Clouds 19 1015 77 10000 4.6 190 17:57 29.12.2019
5593 Clouds 19 1015 77 10000 5.1 190 17:39 29.12.2019
5594 Clouds 19 1015 77 10000 5.1 190 17:20 29.12.2019
5595 Clouds 19 1015 77 10000 5.1 190 16:56 29.12.2019
5596 Clouds 19 1015 72 10000 5.7 210 16:37 29.12.2019
5597 Clouds 19 1015 72 10000 5.7 210 16:37 29.12.2019
5598 Clouds 20 1015 72 10000 5.7 210 16:19 29.12.2019
5599 Clouds 20 1015 72 10000 5.7 200 15:56 29.12.2019
5600 Clouds 20 1015 68 10000 5.1 210 15:38 29.12.2019
5601 Clouds 20 1015 68 10000 5.1 210 15:19 29.12.2019
5602 Clouds 20 1015 68 10000 3.6 250 14:56 29.12.2019
5603 Rain 20 1015 68 10000 4.1 230 14:37 29.12.2019
5604 Rain 20 1015 68 10000 4.1 230 14:18 29.12.2019
5605 Rain 21 1015 72 10000 6.7 220 13:55 29.12.2019
5606 Rain 21 1015 72 10000 6.7 220 13:55 29.12.2019
5607 Rain 21 1014 60 10000 6.7 230 13:37 29.12.2019
5608 Rain 21 1014 60 10000 6.7 230 13:18 29.12.2019
5609 Rain 21 1014 68 10000 6.7 240 12:43 29.12.2019
5610 Rain 22 1014 60 10000 6.7 240 12:25 29.12.2019
5611 Rain 22 1014 60 10000 6.7 240 12:25 29.12.2019
5612 Rain 22 1013 60 10000 7.2 220 11:56 29.12.2019
5613 Clouds 23 1013 56 10000 8.7 230 11:37 29.12.2019
5614 Clouds 23 1013 56 10000 8.7 230 11:37 29.12.2019
5615 Clouds 23 1013 56 10000 8.7 230 11:37 29.12.2019
5616 Clouds 23 1013 56 10000 8.7 230 11:19 29.12.2019
5617 Clouds 24 1013 53 10000 7.7 260 10:42 29.12.2019
5618 Clouds 24 1013 53 10000 7.7 260 10:22 29.12.2019
5619 Clouds 24 1013 50 10000 8.2 260 09:56 29.12.2019
5620 Clouds 24 1013 53 10000 8.2 250 09:38 29.12.2019
5621 Clouds 24 1013 53 10000 8.2 250 09:19 29.12.2019
5622 Clouds 24 1013 50 10000 7.7 250 08:46 29.12.2019
5623 Clouds 25 1013 50 10000 8.7 250 08:24 29.12.2019
5624 Clouds 24 1013 50 10000 8.7 250 07:54 29.12.2019
5625 Clouds 25 1013 47 10000 7.7 260 07:28 29.12.2019
5626 Clouds 24 1013 57 10000 8.2 260 06:53 29.12.2019
5627 Clouds 25 1013 47 10000 7.7 240 06:23 29.12.2019
5628 Clouds 25 1013 47 10000 8.2 240 05:50 29.12.2019
5629 Clouds 25 1013 53 10000 7.7 250 04:35 29.12.2019
5630 Clouds 24 1013 57 10000 8.2 240 03:40 29.12.2019
5631 Clouds 24 1013 57 10000 8.2 240 03:19 29.12.2019
5632 Clouds 24 1012 60 10000 4.6 250 02:19 29.12.2019
5633 Clouds 23 1013 64 10000 2.6 250 01:31 29.12.2019
5634 Clouds 23 1013 64 10000 2.6 250 01:31 29.12.2019
5635 Clouds 21 1013 68 10000 3.1 240 00:51 29.12.2019
5636 Clouds 20 1013 72 10000 3.6 210 00:27 29.12.2019
5637 Clouds 19 1013 77 10000 5.7 240 23:57 28.12.2019
5638 Clouds 18 1012 88 10000 3.1 190 23:39 28.12.2019
5639 Clouds 17 1012 93 10000 2.6 190 23:18 28.12.2019
5640 Clouds 17 1012 93 10000 3.1 190 22:39 28.12.2019
5641 Clouds 17 1012 93 10000 3.1 190 22:19 28.12.2019
5642 Clouds 17 1012 88 10000 3.1 180 21:57 28.12.2019
5643 Clouds 17 1012 82 10000 3.1 180 21:38 28.12.2019
5644 Clouds 17 1012 82 10000 3.1 180 21:20 28.12.2019
5645 Clouds 18 1012 82 10000 3.6 210 20:55 28.12.2019
5646 Clouds 18 1012 82 10000 2.6 160 20:36 28.12.2019
5647 Clouds 18 1012 82 10000 2.6 160 20:18 28.12.2019
5648 Clouds 18 1012 82 10000 3.6 180 19:54 28.12.2019
5649 Clouds 18 1013 77 10000 4.6 210 19:36 28.12.2019
5650 Clouds 19 1013 77 10000 4.6 210 19:18 28.12.2019
5651 Clouds 19 1013 77 10000 5.1 200 18:43 28.12.2019
5652 Clouds 19 1013 77 10000 5.1 200 18:21 28.12.2019
5653 Clouds 19 1013 82 10000 4.6 210 17:59 28.12.2019
5654 Clouds 19 1013 82 10000 4.1 210 17:41 28.12.2019
5655 Clouds 19 1013 82 10000 4.1 210 17:21 28.12.2019
5656 Clouds 19 1013 77 10000 3.1 190 16:55 28.12.2019
5657 Clear 19 1013 77 10000 3.6 210 16:36 28.12.2019
5658 Clear 19 1013 77 10000 3.6 210 16:36 28.12.2019
5659 Clear 19 1013 77 10000 3.6 210 16:18 28.12.2019
5660 Clear 20 1013 72 10000 4.1 210 15:41 28.12.2019
5661 Clear 20 1013 72 10000 4.1 210 15:21 28.12.2019
5662 Clear 20 1013 68 10000 4.6 210 14:48 28.12.2019
5663 Clear 20 1013 68 10000 4.6 210 14:26 28.12.2019
5664 Clear 20 1014 68 10000 4.6 230 13:58 28.12.2019
5665 Clear 21 1014 73 10000 5.1 220 13:39 28.12.2019
5666 Clouds 21 1014 64 10000 4.6 240 13:20 28.12.2019
5667 Clouds 21 1014 64 10000 5.7 240 12:56 28.12.2019
5668 Clouds 22 1013 56 10000 5.7 240 12:37 28.12.2019
5669 Clouds 22 1013 56 10000 5.7 240 12:19 28.12.2019
5670 Clouds 24 1013 44 10000 5.1 240 11:40 28.12.2019
5671 Clear 25 1013 44 10000 5.1 240 11:21 28.12.2019
5672 Clear 25 1012 44 10000 6.7 240 10:55 28.12.2019
5673 Clear 26 1013 44 10000 6.7 230 10:36 28.12.2019
5674 Clear 26 1013 44 10000 6.7 230 10:18 28.12.2019
5675 Clear 26 1013 44 10000 6.7 230 10:18 28.12.2019
5676 Clear 27 1013 44 10000 6.7 240 09:45 28.12.2019
5677 Clear 26 1013 44 10000 7.2 240 09:23 28.12.2019
5678 Clear 27 1013 42 10000 6.7 230 08:57 28.12.2019
5679 Clear 27 1014 44 10000 7.7 230 08:38 28.12.2019
5680 Clear 27 1014 44 10000 7.7 230 08:19 28.12.2019
5681 Clear 27 1014 48 10000 7.2 260 07:41 28.12.2019
5682 Clear 27 1014 47 10000 7.2 240 06:55 28.12.2019
5683 Clear 27 1015 44 10000 7.2 270 05:40 28.12.2019
5684 Clear 26 1016 41 10000 5.1 200 03:48 28.12.2019
5685 Clear 24 1016 50 10000 5.7 190 02:50 28.12.2019
5686 Clear 22 1016 49 10000 5.7 200 02:19 28.12.2019
5687 Clear 22 1016 49 10000 7.2 190 01:50 28.12.2019
5688 Clear 21 1017 56 10000 7.2 190 01:21 28.12.2019
5689 Clear 19 1016 68 10000 5.1 170 00:42 28.12.2019
5690 Clear 19 1016 68 10000 5.1 170 00:23 28.12.2019
5691 Clear 19 1016 68 10000 5.1 170 00:23 28.12.2019
5692 Clear 17 1016 72 10000 3.1 200 23:46 27.12.2019
5693 Clouds 16 1016 87 10000 2.1 180 23:21 27.12.2019
5694 Clouds 15 1016 87 10000 3.1 170 22:59 27.12.2019
5695 Clouds 14 1016 87 10000 2.6 210 22:40 27.12.2019
5696 Clouds 14 1016 87 10000 2.6 210 22:40 27.12.2019
5697 Clouds 14 1016 87 10000 2.6 210 22:21 27.12.2019
5698 Clear 14 1015 82 10000 3.1 210 21:59 27.12.2019
5699 Clear 15 1015 82 10000 3.1 210 21:40 27.12.2019
5700 Clear 15 1015 82 10000 3.1 210 21:22 27.12.2019
5701 Clouds 15 1015 82 10000 3.6 180 20:42 27.12.2019
5702 Clouds 16 1015 82 10000 3.6 170 20:24 27.12.2019
5703 Clouds 16 1015 77 10000 3.6 180 19:57 27.12.2019
5704 Clouds 16 1015 72 10000 4.6 200 19:38 27.12.2019
5705 Clouds 16 1015 72 10000 4.6 200 19:19 27.12.2019
5706 Clear 16 1016 77 10000 3.6 210 18:42 27.12.2019
5707 Clear 16 1016 77 10000 3.6 210 18:24 27.12.2019
5708 Clear 17 1016 77 10000 3.1 190 18:00 27.12.2019
5709 Clear 17 1016 72 10000 3.6 180 17:41 27.12.2019
5710 Clear 17 1016 72 10000 3.6 180 17:20 27.12.2019
5711 Clear 17 1016 72 10000 3.6 180 16:59 27.12.2019
5712 Clear 17 1016 72 10000 3.6 180 16:59 27.12.2019
5713 Clear 17 1016 72 10000 3.6 180 16:59 27.12.2019
5714 Clear 18 1016 68 10000 5.1 190 16:39 27.12.2019
5715 Clear 18 1016 68 10000 5.1 190 16:21 27.12.2019
5716 Clear 19 1016 68 10000 6.2 200 15:56 27.12.2019
5717 Clear 19 1016 64 10000 7.2 200 15:37 27.12.2019
5718 Clear 19 1016 64 10000 7.2 200 15:18 27.12.2019
5719 Clear 19 1016 64 10000 4.6 210 14:54 27.12.2019
5720 Clear 20 1016 64 10000 5.7 210 14:36 27.12.2019
5721 Clear 20 1016 64 10000 5.7 210 14:18 27.12.2019
5722 Clear 20 1016 68 10000 5.7 210 13:43 27.12.2019
5723 Clear 20 1016 60 10000 7.7 210 13:22 27.12.2019
5724 Clear 21 1016 64 10000 7.2 210 12:44 27.12.2019
5725 Clear 22 1015 60 10000 6.7 220 12:26 27.12.2019
5726 Clear 22 1016 56 10000 7.7 220 11:56 27.12.2019
5727 Clouds 23 1015 53 10000 8.2 220 11:38 27.12.2019
5728 Clouds 23 1015 53 10000 8.2 220 11:19 27.12.2019
5729 Clouds 24 1015 53 10000 8.2 230 10:45 27.12.2019
5730 Clouds 24 1014 53 10000 8.2 230 10:23 27.12.2019
5731 Clouds 26 1014 44 10000 9.3 230 09:49 27.12.2019
5732 Clear 26 1014 42 10000 9.8 230 09:22 27.12.2019
5733 Clear 26 1014 42 10000 8.7 240 08:59 27.12.2019
5734 Clear 27 1014 35 10000 8.7 230 08:40 27.12.2019
5735 Clear 26 1014 39 10000 9.8 230 08:18 27.12.2019
5736 Clear 27 1015 42 10000 9.3 240 07:38 27.12.2019
5737 Clear 27 1015 44 10000 7.7 240 06:43 27.12.2019
5738 Clear 27 1015 42 10000 6.7 230 06:22 27.12.2019
5739 Clear 27 1016 32 10000 5.7 200 04:33 27.12.2019
5740 Clouds 24 1016 50 10000 5.7 200 02:28 27.12.2019
5741 Clouds 23 1016 60 10000 5.1 190 01:42 27.12.2019
5742 Clouds 22 1016 64 10000 5.7 200 01:20 27.12.2019
5743 Clouds 21 1017 68 10000 6.2 210 00:46 27.12.2019
5744 Clouds 21 1017 68 10000 5.1 200 00:25 27.12.2019
5745 Clouds 19 1016 77 10000 5.7 190 23:54 26.12.2019
5746 Clouds 19 1016 77 10000 5.7 190 23:36 26.12.2019
5747 Clouds 19 1016 77 10000 5.7 190 23:18 26.12.2019
5748 Clouds 18 1015 77 10000 5.1 190 22:38 26.12.2019
5749 Clouds 19 1015 77 10000 5.1 190 22:18 26.12.2019
5750 Clouds 19 1015 77 10000 5.1 200 21:39 26.12.2019
5751 Clouds 19 1015 77 10000 5.1 200 21:21 26.12.2019
5752 Clouds 19 1014 72 10000 5.7 190 20:54 26.12.2019
5753 Clouds 20 1014 72 10000 7.7 200 20:36 26.12.2019
5754 Clouds 20 1014 72 10000 7.7 200 20:18 26.12.2019
5755 Clouds 20 1014 72 10000 7.7 200 20:18 26.12.2019
5756 Clouds 20 1014 77 10000 7.2 210 19:54 26.12.2019
5757 Clouds 20 1014 77 10000 5.7 210 19:36 26.12.2019
5758 Clouds 20 1014 77 10000 5.7 210 19:18 26.12.2019
5759 Clouds 20 1014 77 10000 5.7 210 19:18 26.12.2019
5760 Clouds 20 1014 77 10000 5.7 210 18:55 26.12.2019
5761 Clouds 20 1014 77 10000 5.7 210 18:55 26.12.2019
5762 Clouds 20 1015 73 10000 6.2 200 18:36 26.12.2019
5763 Clouds 20 1015 73 10000 6.2 200 18:18 26.12.2019
5764 Clouds 21 1015 73 10000 6.2 220 17:40 26.12.2019
5765 Clouds 21 1015 73 10000 6.2 220 17:20 26.12.2019
5766 Clouds 21 1015 73 10000 5.7 210 16:48 26.12.2019
5767 Clouds 21 1015 73 10000 5.1 210 16:26 26.12.2019
5768 Clouds 21 1014 77 10000 4.6 220 15:57 26.12.2019
5769 Clouds 21 1015 77 10000 5.1 240 15:38 26.12.2019
5770 Clouds 21 1015 77 10000 5.1 240 15:19 26.12.2019
5771 Clouds 21 1014 73 10000 6.2 220 14:41 26.12.2019
5772 Clouds 21 1014 73 10000 6.2 220 14:23 26.12.2019
5773 Clouds 21 1014 73 10000 6.2 220 14:23 26.12.2019
5774 Clouds 22 1014 73 10000 6.7 220 13:45 26.12.2019
5775 Clouds 22 1013 73 10000 6.2 210 13:26 26.12.2019
5776 Clouds 22 1013 73 10000 6.2 220 12:59 26.12.2019
5777 Clouds 22 1013 73 10000 6.2 220 12:59 26.12.2019
5778 Clouds 22 1013 73 10000 6.2 220 12:41 26.12.2019
5779 Clouds 22 1012 69 10000 7.7 230 12:23 26.12.2019
5780 Clouds 23 1012 69 10000 6.2 220 11:58 26.12.2019
5781 Clouds 23 1012 69 10000 6.2 220 11:58 26.12.2019
5782 Clouds 23 1012 64 10000 6.7 240 11:40 26.12.2019
5783 Clouds 24 1012 64 10000 6.7 240 11:21 26.12.2019
5784 Clouds 25 1011 61 10000 6.7 220 10:49 26.12.2019
5785 Clouds 25 1011 57 10000 7.2 220 10:24 26.12.2019
5786 Clouds 25 1011 57 10000 6.2 250 09:54 26.12.2019
5787 Clouds 26 1011 57 10000 6.7 260 09:32 26.12.2019
5788 Clouds 26 1011 54 10000 6.2 260 08:57 26.12.2019
5789 Clouds 27 1012 54 10000 4.6 260 08:38 26.12.2019
5790 Clouds 28 1012 54 10000 4.6 260 08:20 26.12.2019
5791 Clouds 28 1012 51 10000 5.7 260 07:31 26.12.2019
5792 Clouds 29 1012 51 10000 5.1 260 06:56 26.12.2019
5793 Clouds 29 1012 51 10000 5.1 240 06:33 26.12.2019
5794 Clouds 28 1013 51 10000 4.1 250 05:49 26.12.2019
5795 Clouds 28 1013 54 10000 4.6 270 04:59 26.12.2019
5796 Clouds 27 1013 54 10000 5.1 240 04:32 26.12.2019
5797 Clouds 27 1013 57 10000 3.6 320 03:19 26.12.2019
5798 Clouds 25 1013 69 10000 3.6 320 02:40 26.12.2019
5799 Clouds 25 1013 69 10000 3.6 320 02:19 26.12.2019
5800 Clouds 23 1013 83 10000 3.6 20 01:41 26.12.2019
5801 Clouds 23 1013 83 10000 3.6 20 01:22 26.12.2019
5802 Clouds 22 1013 88 10000 4.6 20 00:41 26.12.2019
5803 Clouds 21 1013 88 10000 4.6 20 00:22 26.12.2019
5804 Clouds 21 1013 83 10000 3.6 20 23:42 25.12.2019
5805 Clouds 20 1012 94 10000 3.6 20 23:21 25.12.2019
5806 Clouds 20 1012 94 10000 3.1 20 22:59 25.12.2019
5807 Clouds 20 1012 88 10000 3.1 30 22:40 25.12.2019
5808 Clouds 20 1012 88 10000 3.1 30 22:22 25.12.2019
5809 Clouds 19 1012 93 10000 2.6 20 21:59 25.12.2019
5810 Clouds 20 1012 88 10000 3.6 10 21:40 25.12.2019
5811 Clouds 20 1012 88 10000 3.6 10 21:21 25.12.2019
5812 Clouds 20 1012 88 10000 3.6 10 21:21 25.12.2019
5813 Clouds 20 1012 88 10000 2.6 350 20:57 25.12.2019
5814 Clouds 20 1012 88 10000 3.1 30 20:39 25.12.2019
5815 Clouds 20 1012 88 10000 3.1 30 20:18 25.12.2019
5816 Clouds 20 1012 88 10000 3.1 30 20:18 25.12.2019
5817 Clouds 21 1012 88 10000 2.6 350 19:43 25.12.2019
5818 Clouds 21 1011 82 10000 2.6 350 19:25 25.12.2019
5819 Clouds 21 1012 82 10000 2.6 350 18:58 25.12.2019
5820 Clouds 21 1012 77 10000 3.6 30 18:37 25.12.2019
5821 Clouds 21 1012 77 10000 3.6 30 18:19 25.12.2019
5822 Clouds 22 1012 77 10000 2.6 350 17:42 25.12.2019
5823 Clouds 22 1012 77 10000 2.6 340 17:20 25.12.2019
5824 Clouds 22 1012 77 10000 2.6 360 16:58 25.12.2019
5825 Clouds 22 1012 73 10000 3.1 330 16:37 25.12.2019
5826 Clouds 22 1012 73 10000 3.1 330 16:18 25.12.2019
5827 Clouds 22 1012 73 10000 1.5 310 15:57 25.12.2019
5828 Clouds 22 1012 73 10000 1.5 310 15:57 25.12.2019
5829 Clouds 22 1012 69 10000 3.6 250 15:38 25.12.2019
5830 Clouds 22 1012 69 10000 3.6 250 15:20 25.12.2019
5831 Clouds 23 1012 60 10000 4.1 250 14:57 25.12.2019
5832 Clouds 23 1012 60 10000 3.6 260 14:39 25.12.2019
5833 Clouds 23 1012 60 10000 3.6 260 14:39 25.12.2019
5834 Clouds 23 1012 60 10000 3.6 260 14:20 25.12.2019
5835 Clouds 24 1012 50 10000 4.6 250 13:44 25.12.2019
5836 Clouds 24 1012 53 10000 4.6 260 13:21 25.12.2019
5837 Clouds 25 1012 47 10000 4.6 250 12:56 25.12.2019
5838 Clouds 25 1011 47 10000 5.1 240 12:38 25.12.2019
5839 Clouds 26 1011 47 10000 5.1 240 12:18 25.12.2019
5840 Clouds 28 1011 39 10000 4.6 240 11:42 25.12.2019
5841 Clouds 30 1011 35 10000 4.6 250 11:22 25.12.2019
5842 Clouds 32 1010 33 10000 4.6 270 10:41 25.12.2019
5843 Clouds 32 1010 33 10000 4.6 270 10:22 25.12.2019
5844 Clouds 32 1010 32 10000 5.1 250 09:59 25.12.2019
5845 Clouds 31 1010 30 10000 5.1 270 09:41 25.12.2019
5846 Clouds 31 1010 30 10000 5.1 270 09:23 25.12.2019
5847 Clouds 32 1010 30 10000 7.2 260 08:44 25.12.2019
5848 Clouds 34 1010 30 10000 7.2 260 08:24 25.12.2019
5849 Clouds 35 1010 28 10000 5.7 260 07:44 25.12.2019
5850 Clouds 33 1011 30 10000 4.6 270 07:23 25.12.2019
5851 Clouds 34 1011 26 10000 3.6 230 06:24 25.12.2019
5852 Clouds 33 1011 26 10000 3.6 250 05:51 25.12.2019
5853 Clouds 33 1012 29 10000 3.1 300 04:46 25.12.2019
5854 Clouds 33 1012 33 10000 2.6 210 04:24 25.12.2019
5855 Clouds 31 1012 33 10000 6.2 290 03:46 25.12.2019
5856 Clouds 30 1012 37 10000 3.6 110 03:18 25.12.2019
5857 Clouds 28 1013 39 10000 6.2 80 02:30 25.12.2019
5858 Clouds 27 1013 42 10000 3.6 90 01:53 25.12.2019
5859 Clouds 25 1013 44 10000 6.7 80 01:22 25.12.2019
5860 Clouds 25 1013 43 10000 6.7 80 00:42 25.12.2019
5861 Clouds 25 1013 44 10000 5.1 110 00:23 25.12.2019
5862 Clouds 23 1013 43 10000 6.2 30 23:40 24.12.2019
5863 Clouds 23 1013 43 10000 6.2 30 23:20 24.12.2019
5864 Clouds 23 1013 43 10000 7.7 80 22:42 24.12.2019
5865 Clouds 22 1013 43 10000 7.2 70 22:24 24.12.2019
5866 Clouds 23 1012 43 10000 5.7 90 21:59 24.12.2019
5867 Clouds 23 1013 43 10000 7.2 80 21:41 24.12.2019
5868 Clouds 23 1012 43 10000 5.7 90 21:41 24.12.2019
5869 Clouds 23 1013 43 10000 7.2 80 21:20 24.12.2019
5870 Clouds 23 1013 43 10000 7.7 90 20:42 24.12.2019
5871 Clouds 24 1013 44 10000 6.7 90 20:23 24.12.2019
5872 Clouds 24 1012 44 10000 7.7 90 19:55 24.12.2019
5873 Clouds 25 1013 41 10000 5.1 80 19:37 24.12.2019
5874 Clouds 25 1013 41 10000 5.1 80 19:18 24.12.2019
5875 Clouds 25 1013 41 10000 5.1 80 19:18 24.12.2019
5876 Clouds 25 1013 41 10000 3.6 80 18:42 24.12.2019
5877 Clouds 25 1013 41 10000 3.6 80 18:19 24.12.2019
5878 Clouds 26 1013 39 10000 7.2 100 17:44 24.12.2019
5879 Clouds 25 1014 39 10000 7.2 100 17:22 24.12.2019
5880 Clouds 25 1014 39 10000 7.2 100 17:22 24.12.2019
5881 Clouds 25 1014 36 10000 8.2 90 16:58 24.12.2019
5882 Clouds 23 1014 64 10000 7.2 100 16:39 24.12.2019
5883 Clouds 23 1014 64 10000 7.2 100 16:21 24.12.2019
5884 Clouds 23 1014 73 10000 7.2 100 15:57 24.12.2019
5885 Clouds 23 1014 64 10000 7.2 100 15:37 24.12.2019
5886 Clouds 23 1014 64 10000 7.2 100 15:19 24.12.2019
5887 Clouds 24 1014 61 10000 7.2 100 14:58 24.12.2019
5888 Clouds 24 1014 61 10000 7.2 100 14:40 24.12.2019
5889 Clouds 24 1014 61 10000 7.2 100 14:21 24.12.2019
5890 Clouds 24 1014 61 10000 7.2 100 14:21 24.12.2019
5891 Clouds 25 1014 57 10000 7.2 100 13:56 24.12.2019
5892 Clouds 25 1014 54 10000 7.2 100 13:38 24.12.2019
5893 Clouds 25 1014 54 10000 7.2 100 13:19 24.12.2019
5894 Clouds 26 1014 54 10000 7.2 100 12:56 24.12.2019
5895 Clouds 26 1013 48 10000 5.1 240 12:37 24.12.2019
5896 Clouds 26 1013 48 10000 5.1 240 12:19 24.12.2019
5897 Clouds 26 1013 48 10000 5.1 240 12:19 24.12.2019
5898 Clouds 27 1013 48 10000 6.2 240 11:56 24.12.2019
5899 Clouds 27 1013 48 10000 6.7 250 11:37 24.12.2019
5900 Clouds 27 1013 48 10000 6.7 250 11:37 24.12.2019
5901 Clear 28 1013 48 10000 6.7 250 11:19 24.12.2019
5902 Clear 29 1013 45 10000 6.2 250 10:56 24.12.2019
5903 Clear 29 1013 45 10000 6.2 250 10:56 24.12.2019
5904 Clear 29 1013 42 10000 6.7 250 10:37 24.12.2019
5905 -273 0 0 0 0 0 10:37 24.12.2019
5906 Clear 29 1013 42 10000 6.7 250 10:19 24.12.2019
5907 Clear 30 1013 40 10000 6.7 240 09:55 24.12.2019
5908 Clear 30 1013 38 10000 7.7 230 09:37 24.12.2019
5909 Clear 30 1013 38 10000 7.7 230 09:18 24.12.2019
5910 Clear 31 1013 35 10000 6.7 230 08:44 24.12.2019
5911 Clear 31 1013 38 10000 6.2 260 08:21 24.12.2019
5912 Clear 31 1013 42 10000 6.7 260 07:46 24.12.2019
5913 Clear 32 1014 40 10000 7.2 260 07:26 24.12.2019
5914 Clear 31 1014 38 10000 6.7 250 06:58 24.12.2019
5915 Clear 30 1014 38 10000 6.2 260 06:38 24.12.2019
5916 Clear 30 1014 38 10000 6.2 260 06:19 24.12.2019
5917 Clear 30 1015 31 10000 3.1 240 05:20 24.12.2019
5918 Clear 31 1015 31 10000 7.2 230 04:44 24.12.2019
5919 Clear 30 1016 35 10000 7.2 230 03:50 24.12.2019
5920 Clear 29 1016 37 10000 7.2 230 03:18 24.12.2019
5921 Clouds 26 1016 36 10000 2.6 150 02:21 24.12.2019
5922 Clouds 24 1016 38 10000 3.1 160 01:50 24.12.2019
5923 Clouds 24 1016 38 10000 4.6 170 01:21 24.12.2019
5924 Clouds 22 1016 43 10000 4.6 180 00:45 24.12.2019
5925 Clouds 21 1016 49 10000 5.1 190 00:23 24.12.2019
5926 Clouds 20 1016 56 10000 6.2 190 23:56 23.12.2019
5927 Clouds 21 1016 56 10000 6.2 190 23:56 23.12.2019
5928 Clouds 19 1016 63 10000 4.1 200 23:37 23.12.2019
5929 Clouds 19 1016 63 10000 4.1 200 23:19 23.12.2019
5930 Clouds 18 1015 68 10000 4.6 230 22:55 23.12.2019
5931 Clouds 18 1015 68 10000 4.6 230 22:55 23.12.2019
5932 Clouds 18 1015 68 10000 4.6 210 22:36 23.12.2019
5933 Clouds 18 1015 68 10000 4.6 210 22:36 23.12.2019
5934 Clouds 18 1015 68 10000 4.6 210 22:36 23.12.2019
5935 Clouds 18 1015 68 10000 4.6 210 22:18 23.12.2019
5936 Clouds 18 1015 68 10000 3.6 210 21:55 23.12.2019
5937 Clouds 18 1014 72 10000 3.6 210 21:36 23.12.2019
5938 Clouds 19 1014 72 10000 3.6 210 21:18 23.12.2019
5939 Clouds 19 1014 72 10000 5.1 230 20:56 23.12.2019
5940 Clouds 19 1014 72 10000 3.6 230 20:38 23.12.2019
5941 Clouds 19 1014 72 10000 3.6 230 20:18 23.12.2019
5942 Clouds 19 1014 72 10000 3.6 230 20:18 23.12.2019
5943 Clouds 19 1014 72 10000 3.1 210 19:54 23.12.2019
5944 Clouds 19 1014 72 10000 3.6 180 19:36 23.12.2019
5945 Clouds 19 1014 72 10000 3.6 180 19:18 23.12.2019
5946 Clouds 20 1015 68 10000 6.7 190 18:54 23.12.2019
5947 Clouds 20 1015 64 10000 7.2 190 18:36 23.12.2019
5948 Clouds 20 1015 64 10000 7.2 190 18:18 23.12.2019
5949 Clouds 21 1015 68 10000 7.2 200 17:41 23.12.2019
5950 Clouds 21 1015 68 10000 7.2 200 17:20 23.12.2019
5951 Clouds 21 1015 68 10000 6.7 210 16:59 23.12.2019
5952 Clouds 21 1015 73 10000 5.7 220 16:40 23.12.2019
5953 Clouds 21 1015 73 10000 5.7 220 16:19 23.12.2019
5954 Clouds 22 1015 73 10000 4.6 210 15:58 23.12.2019
5955 Clouds 22 1015 69 10000 5.7 210 15:37 23.12.2019
5956 Clouds 22 1015 69 10000 5.7 210 15:19 23.12.2019
5957 Clouds 22 1015 69 10000 4.1 210 14:57 23.12.2019
5958 Clouds 22 1014 69 10000 4.1 180 14:39 23.12.2019
5959 Clouds 22 1014 69 10000 4.1 180 14:19 23.12.2019
5960 Clouds 22 1014 64 10000 4.6 220 13:57 23.12.2019
5961 Clouds 22 1014 73 10000 4.6 220 13:39 23.12.2019
5962 Clouds 23 1014 60 10000 3.6 240 13:20 23.12.2019
5963 Clouds 23 1013 60 10000 4.6 230 12:55 23.12.2019
5964 Clouds 23 1013 57 10000 5.7 240 12:37 23.12.2019
5965 Clouds 23 1013 57 10000 5.7 240 12:37 23.12.2019
5966 Clouds 24 1013 57 10000 5.7 240 12:18 23.12.2019
5967 Clouds 25 1013 51 10000 5.7 230 11:42 23.12.2019
5968 Clouds 25 1013 51 10000 5.7 230 11:24 23.12.2019
5969 Clouds 26 1013 47 10000 6.7 230 10:56 23.12.2019
5970 Clouds 27 1013 42 10000 7.7 230 10:38 23.12.2019
5971 Clouds 27 1013 42 10000 7.7 230 10:20 23.12.2019
5972 Clouds 28 1012 42 10000 7.2 230 09:58 23.12.2019
5973 Clouds 27 1012 42 10000 7.2 240 09:39 23.12.2019
5974 Clouds 27 1012 42 10000 7.2 240 09:39 23.12.2019
5975 Clouds 28 1012 42 10000 7.2 240 09:19 23.12.2019
5976 Clouds 29 1012 48 10000 6.7 260 08:55 23.12.2019
5977 Clouds 30 1012 45 10000 6.7 260 08:37 23.12.2019
5978 Clouds 30 1012 45 10000 6.7 260 08:18 23.12.2019
5979 Clouds 30 1012 40 10000 6.7 260 07:42 23.12.2019
5980 Clouds 31 1012 40 10000 6.7 260 07:19 23.12.2019
5981 Clouds 31 1013 43 10000 6.7 250 06:43 23.12.2019
5982 Clouds 31 1013 43 10000 6.7 250 06:22 23.12.2019
5983 Clouds 30 1013 40 10000 6.7 240 05:46 23.12.2019
5984 Clouds 30 1013 35 10000 2.6 300 04:55 23.12.2019
5985 Clouds 30 1013 37 10000 7.2 230 03:59 23.12.2019
5986 Clouds 27 1014 44 10000 7.2 230 02:48 23.12.2019
5987 Clouds 26 1014 47 10000 3.1 130 02:20 23.12.2019
5988 Clouds 25 1014 47 10000 4.1 90 01:51 23.12.2019
5989 Clouds 24 1014 50 10000 4.1 80 01:32 23.12.2019
5990 Clouds 24 1014 50 10000 4.1 80 01:32 23.12.2019
5991 Clouds 23 1014 56 10000 2.6 70 00:49 23.12.2019
5992 Clouds 22 1013 60 10000 3.6 120 00:30 23.12.2019
5993 Clouds 21 1013 68 10000 3.1 90 23:57 22.12.2019
5994 Clouds 20 1013 68 10000 3.1 90 23:57 22.12.2019
5995 Clouds 19 1013 82 10000 3.1 120 23:37 22.12.2019
5996 Clouds 19 1013 82 10000 3.1 120 23:19 22.12.2019
5997 Clouds 18 1013 82 10000 2.1 80 22:55 22.12.2019
5998 Clouds 18 1012 87 10000 1.5 170 22:37 22.12.2019
5999 Clouds 18 1012 87 10000 1.5 170 22:18 22.12.2019
6000 Clouds 18 1012 82 10000 2.6 230 21:54 22.12.2019
6001 Clouds 18 1012 82 10000 2.6 280 21:36 22.12.2019
6002 Clouds 18 1012 82 10000 2.6 280 21:18 22.12.2019
6003 Clouds 18 1011 82 10000 2.1 20 20:40 22.12.2019
6004 Clouds 18 1011 82 10000 2.1 20 20:19 22.12.2019
6005 Clouds 18 1011 88 10000 2.1 40 19:57 22.12.2019
6006 Clouds 18 1012 87 10000 2.1 360 19:39 22.12.2019
6007 Clouds 18 1012 87 10000 2.1 360 19:20 22.12.2019
6008 Clouds 18 1012 93 10000 2.6 30 18:44 22.12.2019
6009 Clouds 19 1012 93 10000 2.6 30 18:25 22.12.2019
6010 Clouds 19 1012 88 10000 2.6 110 17:58 22.12.2019
6011 Clouds 19 1012 88 10000 2.6 200 17:39 22.12.2019
6012 Clouds 19 1012 88 10000 2.6 200 17:19 22.12.2019
6013 Clouds 20 1013 82 10000 1.88 151 16:59 22.12.2019
6014 Clouds 20 1013 82 10000 2.6 230 16:41 22.12.2019
6015 Clouds 21 1013 73 10000 1.5 230 16:22 22.12.2019
6016 Clouds 21 1013 73 10000 1.5 230 16:22 22.12.2019
6017 Clouds 21 1013 77 10000 2.6 220 15:57 22.12.2019
6018 Clouds 21 1013 68 10000 2.6 230 15:39 22.12.2019
6019 Clouds 21 1013 68 10000 2.6 230 15:39 22.12.2019
6020 Clouds 21 1013 68 10000 2.6 230 15:20 22.12.2019
6021 Clouds 22 1013 68 10000 2.1 210 14:56 22.12.2019
6022 Clouds 22 1013 69 10000 3.1 220 14:38 22.12.2019
6023 Clouds 22 1013 69 10000 3.1 220 14:19 22.12.2019
6024 Clouds 22 1013 69 10000 3.6 220 13:55 22.12.2019
6025 Clouds 22 1013 64 10000 4.1 220 13:37 22.12.2019
6026 Clouds 22 1013 64 10000 4.1 220 13:19 22.12.2019
6027 Clouds 22 1013 64 10000 4.1 220 13:19 22.12.2019
6028 Clouds 22 1013 64 10000 4.1 220 13:19 22.12.2019
6029 Clouds 22 1013 64 10000 5.1 230 12:56 22.12.2019
6030 Clouds 23 1012 64 10000 5.7 220 12:38 22.12.2019
6031 Clouds 23 1012 64 10000 5.7 220 12:19 22.12.2019
6032 Clouds 23 1012 60 10000 5.7 230 11:56 22.12.2019
6033 Clouds 23 1012 60 10000 5.7 230 11:56 22.12.2019
6034 Clouds 23 1012 60 10000 7.2 220 11:38 22.12.2019
6035 Clouds 23 1012 60 10000 7.2 220 11:19 22.12.2019
6036 Clouds 24 1012 60 10000 7.7 230 10:55 22.12.2019
6037 Clouds 23 1012 61 10000 7.2 230 10:37 22.12.2019
6038 Clouds 23 1012 61 10000 7.2 230 10:18 22.12.2019
6039 Clouds 24 1011 61 10000 6.7 230 09:57 22.12.2019
6040 Clouds 25 1011 57 10000 6.7 230 09:38 22.12.2019
6041 Clouds 25 1011 57 10000 6.7 230 09:20 22.12.2019
6042 Clouds 25 1011 51 10000 7.2 240 08:42 22.12.2019
6043 Clouds 26 1011 51 10000 7.2 240 08:21 22.12.2019
6044 Clouds 27 1011 48 10000 6.2 250 07:42 22.12.2019
6045 Clouds 28 1011 48 10000 6.2 250 07:21 22.12.2019
6046 Clouds 28 1011 54 10000 6.7 230 06:52 22.12.2019
6047 Clouds 28 1012 51 10000 6.7 240 06:22 22.12.2019
6048 Clouds 26 1012 57 10000 6.7 280 05:29 22.12.2019
6049 Clouds 27 1012 39 10000 7.7 240 04:45 22.12.2019
6050 Clouds 27 1012 47 10000 3.1 260 04:22 22.12.2019
6051 Clouds 24 1013 57 10000 4.1 220 02:43 22.12.2019
6052 Clouds 24 1013 57 10000 4.1 220 02:43 22.12.2019
6053 Clouds 24 1013 57 10000 4.1 220 02:43 22.12.2019
6054 Clouds 22 1013 56 10000 4.6 220 01:59 22.12.2019
6055 Clouds 22 1013 64 10000 4.1 200 01:31 22.12.2019
6056 Clouds 21 1013 68 10000 5.7 190 00:48 22.12.2019
6057 Clouds 20 1013 72 10000 5.1 190 00:28 22.12.2019
6058 Clouds 19 1012 77 10000 5.7 200 23:57 21.12.2019
6059 Clouds 19 1012 77 10000 5.7 200 23:57 21.12.2019
6060 Clouds 18 1012 82 10000 5.1 190 23:39 21.12.2019
6061 Clouds 18 1012 82 10000 5.1 190 23:20 21.12.2019
6062 Clouds 18 1011 77 10000 4.6 180 22:46 21.12.2019
6063 Clouds 18 1011 77 10000 5.1 210 22:20 21.12.2019
6064 Clouds 18 1010 82 10000 4.6 220 21:58 21.12.2019
6065 Clouds 18 1010 82 10000 5.1 190 21:39 21.12.2019
6066 Clouds 18 1010 82 10000 5.1 190 21:20 21.12.2019
6067 Clouds 18 1011 77 10000 6.2 210 20:59 21.12.2019
6068 Clouds 18 1011 82 10000 5.1 200 20:40 21.12.2019
6069 Clouds 18 1011 82 10000 5.1 200 20:22 21.12.2019
6070 Clouds 19 1011 82 10000 4.6 210 19:58 21.12.2019
6071 Clouds 19 1011 82 10000 4.1 210 19:40 21.12.2019
6072 Clouds 19 1011 82 10000 4.1 210 19:19 21.12.2019
6073 Clouds 19 1012 82 10000 3.6 210 18:55 21.12.2019
6074 Clouds 19 1012 77 10000 2.6 180 18:37 21.12.2019
6075 Clouds 19 1012 77 10000 2.6 180 18:19 21.12.2019
6076 Clouds 19 1012 77 10000 3.1 210 17:43 21.12.2019
6077 Clouds 20 1012 77 10000 3.6 230 17:25 21.12.2019
6078 Clear 20 1013 82 10000 4.6 210 16:59 21.12.2019
6079 Clouds 20 1013 77 10000 4.6 190 16:41 21.12.2019
6080 Clouds 20 1013 77 10000 4.6 190 16:41 21.12.2019
6081 Clouds 20 1013 77 10000 4.6 190 16:19 21.12.2019
6082 Clouds 20 1013 77 10000 4.6 190 16:19 21.12.2019
6083 Clouds 21 1013 77 10000 5.1 200 15:57 21.12.2019
6084 Clouds 21 1013 77 10000 7.7 210 15:38 21.12.2019
6085 Clouds 21 1013 77 10000 7.7 210 15:38 21.12.2019
6086 Clouds 21 1013 77 10000 7.7 210 15:38 21.12.2019
6087 Clouds 21 1013 77 10000 7.7 210 15:19 21.12.2019
6088 Clear 21 1012 83 10000 7.7 210 14:57 21.12.2019
6089 Clear 21 1012 68 10000 8.2 220 14:38 21.12.2019
6090 Clear 21 1012 68 10000 8.2 220 14:18 21.12.2019
6091 Clear 22 1013 78 10000 7.7 210 13:55 21.12.2019
6092 Clear 22 1012 64 10000 7.7 220 13:37 21.12.2019
6093 Clear 22 1012 64 10000 7.7 220 13:18 21.12.2019
6094 Clear 23 1011 57 10000 7.7 220 12:54 21.12.2019
6095 Clear 23 1011 50 10000 7.7 220 12:36 21.12.2019
6096 Clear 24 1011 50 10000 7.7 220 12:18 21.12.2019
6097 Clear 25 1011 47 10000 8.2 230 11:42 21.12.2019
6098 Clear 25 1011 47 10000 8.2 230 11:24 21.12.2019
6099 Clear 26 1011 48 10000 7.7 240 10:56 21.12.2019
6100 Clear 27 1010 45 10000 8.7 230 10:37 21.12.2019
6101 Clear 27 1010 45 10000 8.7 230 10:19 21.12.2019
6102 Clear 27 1010 45 10000 8.7 230 10:19 21.12.2019
6103 Clear 28 1011 37 10000 8.7 210 09:42 21.12.2019
6104 Clear 28 1011 37 10000 8.7 210 09:21 21.12.2019
6105 Clear 28 1011 33 10000 7.2 230 08:57 21.12.2019
6106 Clear 29 1011 31 10000 7.2 240 08:37 21.12.2019
6107 Clear 30 1011 31 10000 7.2 240 08:18 21.12.2019
6108 Clear 31 1011 29 10000 7.7 250 07:41 21.12.2019
6109 Clear 32 1011 29 10000 7.7 250 07:22 21.12.2019
6110 Clear 33 1011 23 10000 7.7 240 06:44 21.12.2019
6111 Clear 33 1012 24 10000 3.1 220 06:25 21.12.2019
6112 Clear 34 1012 26 10000 8.2 230 05:49 21.12.2019
6113 Clear 32 1013 27 10000 8.2 230 04:58 21.12.2019
6114 Clear 30 1014 35 10000 8.2 230 03:57 21.12.2019
6115 Clear 27 1015 39 10000 7.2 90 02:52 21.12.2019
6116 Clear 25 1015 44 10000 7.2 80 01:57 21.12.2019
6117 Clear 24 1015 47 10000 7.7 80 01:27 21.12.2019
6118 Clear 22 1015 46 10000 9.3 80 00:53 21.12.2019
6119 Clear 21 1015 52 10000 7.2 80 00:32 21.12.2019
6120 Clear 20 1015 55 10000 7.2 80 23:57 20.12.2019
6121 Clear 20 1016 55 10000 9.3 90 23:37 20.12.2019
6122 Clear 19 1016 55 10000 9.3 90 23:18 20.12.2019
6123 Clear 18 1015 59 10000 8.2 90 22:40 20.12.2019
6124 Clear 18 1015 59 10000 8.2 90 22:21 20.12.2019
6125 Clear 18 1015 55 10000 9.8 90 21:57 20.12.2019
6126 Clear 18 1015 55 10000 2.1 100 21:39 20.12.2019
6127 Clear 18 1015 55 10000 2.1 100 21:19 20.12.2019
6128 Clear 18 1015 59 10000 4.1 90 20:39 20.12.2019
6129 Clear 18 1015 59 10000 4.1 90 20:19 20.12.2019
6130 Clear 18 1015 68 10000 7.2 90 19:58 20.12.2019
6131 Clear 17 1015 82 10000 7.2 90 19:40 20.12.2019
6132 Clear 17 1015 82 10000 7.2 90 19:19 20.12.2019
6133 Clear 17 1015 77 10000 7.2 90 18:42 20.12.2019
6134 Clear 17 1015 77 10000 7.2 90 18:24 20.12.2019
6135 Clear 17 1016 72 10000 5.1 200 17:59 20.12.2019
6136 Clear 17 1016 72 10000 5.1 200 17:41 20.12.2019
6137 Clear 18 1016 72 10000 5.1 200 17:21 20.12.2019
6138 Clear 18 1016 72 10000 5.1 200 17:21 20.12.2019
6139 Clear 18 1016 72 10000 5.7 200 16:59 20.12.2019
6140 Clear 18 1016 68 10000 6.2 200 16:39 20.12.2019
6141 Clear 18 1016 68 10000 6.2 200 16:20 20.12.2019
6142 Clear 19 1016 68 10000 6.2 190 15:56 20.12.2019
6143 Clear 19 1016 68 10000 6.7 200 15:38 20.12.2019
6144 Clear 19 1016 68 10000 6.7 200 15:38 20.12.2019
6145 Clear 19 1016 68 10000 6.7 200 15:19 20.12.2019
6146 Clear 20 1017 64 10000 5.1 210 14:43 20.12.2019
6147 Clear 20 1017 64 10000 5.1 210 14:25 20.12.2019
6148 Clear 20 1016 64 10000 5.7 210 13:59 20.12.2019
6149 Clear 20 1016 64 10000 5.7 210 13:59 20.12.2019
6150 Clear 20 1016 68 10000 5.1 210 13:40 20.12.2019
6151 Clear 20 1016 68 10000 5.1 210 13:20 20.12.2019
6152 Clear 20 1016 56 10000 7.2 210 12:57 20.12.2019
6153 Clear 21 1016 60 10000 7.2 210 12:37 20.12.2019
6154 Clear 21 1016 56 10000 8.2 220 12:18 20.12.2019
6155 Clear 22 1016 49 10000 7.7 210 11:57 20.12.2019
6156 Clear 22 1016 49 10000 8.7 220 11:39 20.12.2019
6157 Clear 22 1016 49 10000 8.7 220 11:18 20.12.2019
6158 Clear 23 1016 44 10000 7.7 230 10:56 20.12.2019
6159 Clear 24 1016 47 10000 9.3 240 10:38 20.12.2019
6160 Clear 24 1016 47 10000 9.3 240 10:19 20.12.2019
6161 Clear 25 1016 44 10000 8.7 240 09:43 20.12.2019
6162 Clear 24 1016 44 10000 8.7 240 09:21 20.12.2019
6163 Clear 24 1016 44 10000 8.2 240 08:57 20.12.2019
6164 Clear 24 1016 44 10000 8.2 230 08:38 20.12.2019
6165 Clouds 26 1016 44 10000 8.2 230 08:20 20.12.2019
6166 Clear 26 1016 39 10000 7.7 230 07:57 20.12.2019
6167 Clear 26 1017 36 10000 7.2 230 07:37 20.12.2019
6168 Clear 26 1017 36 10000 7.2 230 07:18 20.12.2019
6169 Clouds 26 1017 41 10000 4.6 190 06:44 20.12.2019
6170 Clouds 26 1017 41 10000 4.6 190 06:26 20.12.2019
6171 Clouds 25 1018 44 10000 5.7 220 05:47 20.12.2019
6172 Clouds 24 1018 53 10000 5.1 220 04:59 20.12.2019
6173 Clouds 23 1018 44 10000 3.6 210 03:49 20.12.2019
6174 Clouds 22 1018 53 10000 3.6 190 02:46 20.12.2019
6175 Clouds 22 1018 56 10000 2.1 150 01:59 20.12.2019
6176 Clouds 21 1018 68 10000 1 190 01:35 20.12.2019
6177 Clouds 20 1018 77 10000 2.1 10 00:54 20.12.2019
6178 Clouds 20 1017 77 10000 3.1 20 00:35 20.12.2019
6179 Clouds 19 1017 82 10000 2.6 80 23:57 19.12.2019
6180 Clouds 18 1017 88 10000 2.6 80 23:39 19.12.2019
6181 Clouds 18 1017 88 10000 2.6 80 23:19 19.12.2019
6182 Rain 18 1016 82 10000 3.6 170 22:39 19.12.2019
6183 Rain 18 1016 82 10000 3.6 170 22:21 19.12.2019
6184 Clouds 18 1016 87 10000 2.1 70 21:56 19.12.2019
6185 Clouds 18 1016 87 10000 2.1 70 21:56 19.12.2019
6186 Clouds 18 1015 77 10000 2.1 170 21:38 19.12.2019
6187 Clouds 18 1015 77 10000 2.1 170 21:19 19.12.2019
6188 Clouds 18 1015 77 10000 4.1 180 20:56 19.12.2019
6189 Rain 18 1015 72 10000 5.1 220 20:37 19.12.2019
6190 Clouds 18 1015 68 10000 3.6 250 20:19 19.12.2019
6191 Clouds 18 1015 68 10000 3.6 250 20:19 19.12.2019
6192 Clouds 18 1015 68 10000 3.6 250 19:57 19.12.2019
6193 Clouds 18 1015 68 10000 3.6 240 19:39 19.12.2019
6194 Clouds 18 1015 68 10000 3.6 240 19:19 19.12.2019
6195 Clouds 18 1015 63 10000 4.6 240 18:55 19.12.2019
6196 Clouds 19 1015 63 10000 5.1 240 18:37 19.12.2019
6197 Clouds 19 1015 63 10000 5.1 240 18:18 19.12.2019
6198 Clouds 19 1015 59 10000 3.6 230 17:54 19.12.2019
6199 Clouds 19 1015 59 10000 5.1 230 17:36 19.12.2019
6200 Clouds 19 1015 59 10000 5.1 230 17:18 19.12.2019
6201 Clouds 19 1015 59 10000 5.1 230 17:18 19.12.2019
6202 Clouds 19 1015 59 10000 6.7 230 16:54 19.12.2019
6203 Clouds 19 1015 60 10000 6.7 230 16:36 19.12.2019
6204 Clouds 19 1015 60 10000 6.7 230 16:18 19.12.2019
6205 Clouds 20 1015 60 10000 5.1 230 15:54 19.12.2019
6206 Clouds 20 1015 56 10000 6.2 240 15:36 19.12.2019
6207 Clouds 20 1015 56 10000 6.2 240 15:18 19.12.2019
6208 Clouds 20 1014 60 10000 6.2 240 14:42 19.12.2019
6209 Clouds 20 1014 60 10000 6.2 240 14:20 19.12.2019
6210 Clouds 20 1014 64 10000 6.7 250 13:57 19.12.2019
6211 Clouds 20 1014 64 10000 6.2 250 13:38 19.12.2019
6212 Rain 20 1014 56 10000 6.7 240 13:19 19.12.2019
6213 Clouds 21 1014 52 10000 6.7 260 12:55 19.12.2019
6214 Clouds 21 1014 56 10000 8.2 250 12:37 19.12.2019
6215 Clouds 21 1014 56 10000 8.2 250 12:18 19.12.2019
6216 Clouds 21 1013 49 10000 7.7 260 11:57 19.12.2019
6217 Clouds 22 1013 49 10000 8.7 250 11:39 19.12.2019
6218 Clouds 22 1013 49 10000 8.7 250 11:18 19.12.2019
6219 Clouds 23 1013 49 10000 7.7 270 10:55 19.12.2019
6220 Clouds 22 1013 49 10000 8.2 260 10:36 19.12.2019
6221 Clouds 23 1013 49 10000 8.2 260 10:18 19.12.2019
6222 Clouds 23 1013 49 10000 8.2 260 10:18 19.12.2019
6223 Clouds 23 1013 49 10000 8.2 260 10:18 19.12.2019
6224 Clouds 23 1012 49 10000 8.7 260 09:38 19.12.2019
6225 Clouds 23 1012 49 10000 8.7 260 09:20 19.12.2019
6226 Clouds 23 1012 49 10000 8.7 260 09:20 19.12.2019
6227 Clouds 23 1012 49 10000 8.7 260 09:20 19.12.2019
6228 Clouds 23 1012 49 10000 8.7 260 09:20 19.12.2019
6229 Clouds 24 1012 43 10000 8.7 250 08:58 19.12.2019
6230 Clouds 24 1012 44 10000 9.3 260 08:39 19.12.2019
6231 Clouds 24 1012 44 10000 9.3 260 08:19 19.12.2019
6232 Clouds 24 1012 44 10000 7.7 270 07:56 19.12.2019
6233 Clouds 24 1012 50 10000 8.7 260 07:38 19.12.2019
6234 Clouds 24 1012 50 10000 8.7 260 07:19 19.12.2019
6235 Clouds 23 1012 53 10000 8.2 280 06:49 19.12.2019
6236 Clouds 23 1012 68 10000 6.2 270 06:28 19.12.2019
6237 Rain 22 1012 83 7000 7.7 270 05:52 19.12.2019
6238 Clouds 21 1012 83 10000 8.2 250 05:32 19.12.2019
6239 Drizzle 20 1011 88 3000 7.7 260 04:43 19.12.2019
6240 Clouds 24 1010 64 10000 7.7 310 02:48 19.12.2019
6241 Rain 24 1010 60 10000 7.2 300 01:46 19.12.2019
6242 Clouds 23 1010 60 10000 6.2 300 01:21 19.12.2019
6243 Clouds 23 1010 68 10000 4.6 310 00:39 19.12.2019
6244 Clouds 23 1010 68 10000 4.6 310 00:39 19.12.2019
6245 Clouds 22 1010 68 10000 4.6 310 00:39 19.12.2019
6246 Clouds 23 1010 68 10000 4.6 310 00:39 19.12.2019
6247 Clouds 23 1010 68 10000 4.6 310 00:39 19.12.2019
6248 Clouds 22 1010 68 10000 4.6 310 00:20 19.12.2019
6249 Clouds 21 1010 82 10000 2.6 360 23:45 18.12.2019
6250 Clouds 21 1010 82 10000 2.6 360 23:45 18.12.2019
6251 Clouds 21 1010 82 10000 2.6 360 23:19 18.12.2019
6252 Clouds 20 1009 82 10000 2.6 340 22:58 18.12.2019
6253 Clouds 20 1009 77 10000 3.1 290 22:40 18.12.2019
6254 Clouds 20 1009 77 10000 3.1 290 22:22 18.12.2019
6255 Clouds 20 1009 77 10000 4.1 270 21:59 18.12.2019
6256 Clouds 20 1009 73 10000 3.6 280 21:41 18.12.2019
6257 Clouds 20 1009 73 10000 3.6 280 21:21 18.12.2019
6258 Clouds 21 1009 77 10000 4.1 280 20:58 18.12.2019
6259 Clouds 21 1009 73 10000 4.1 270 20:39 18.12.2019
6260 Clouds 21 1009 73 10000 4.1 270 20:20 18.12.2019
6261 Clouds 21 1009 77 10000 4.6 280 19:57 18.12.2019
6262 Clouds 21 1009 77 10000 5.1 270 19:39 18.12.2019
6263 Clouds 21 1009 77 10000 5.1 270 19:39 18.12.2019
6264 Clouds 20 1009 77 10000 5.1 270 19:19 18.12.2019
6265 Clouds 21 1009 77 10000 5.1 270 18:59 18.12.2019
6266 Clouds 21 1009 77 10000 5.1 270 18:41 18.12.2019
6267 Clouds 21 1009 77 10000 5.1 270 18:22 18.12.2019
6268 Clouds 21 1009 77 10000 4.1 270 17:56 18.12.2019
6269 Clouds 21 1010 83 10000 3.6 280 17:38 18.12.2019
6270 Clouds 21 1010 83 10000 3.6 280 17:38 18.12.2019
6271 Clouds 21 1010 83 10000 3.6 280 17:19 18.12.2019
6272 Clouds 21 1010 83 10000 4.1 270 16:43 18.12.2019
6273 Clouds 21 1010 77 10000 4.1 260 16:24 18.12.2019
6274 Clouds 21 1010 83 10000 3.6 290 15:59 18.12.2019
6275 Clouds 21 1011 83 10000 3.6 290 15:40 18.12.2019
6276 Clouds 21 1011 83 10000 3.6 290 15:21 18.12.2019
6277 Clouds 22 1010 78 10000 3.1 280 14:58 18.12.2019
6278 Clouds 22 1010 78 10000 3.6 260 14:40 18.12.2019
6279 Clouds 22 1010 78 10000 3.6 260 14:19 18.12.2019
6280 Clouds 22 1011 83 10000 3.6 260 13:56 18.12.2019
6281 Clouds 22 1011 83 10000 4.1 250 13:37 18.12.2019
6282 Clouds 22 1011 83 10000 4.1 250 13:19 18.12.2019
6283 Clouds 23 1010 78 10000 4.6 260 12:54 18.12.2019
6284 Clouds 23 1010 78 10000 4.6 260 12:54 18.12.2019
6285 Clouds 23 1010 83 10000 5.1 250 12:36 18.12.2019
6286 Clouds 24 1010 65 10000 6.2 260 12:18 18.12.2019
6287 Clouds 24 1010 65 10000 6.2 260 11:54 18.12.2019
6288 Clouds 25 1009 57 10000 6.2 260 11:36 18.12.2019
6289 Clouds 26 1009 57 10000 6.2 260 11:18 18.12.2019
6290 Clouds 27 1009 39 10000 6.2 260 10:54 18.12.2019
6291 Clouds 27 1009 39 10000 6.2 260 10:54 18.12.2019
6292 Clear 27 1009 39 10000 5.7 270 10:36 18.12.2019
6293 Clear 28 1009 39 10000 5.7 270 10:18 18.12.2019
6294 Clear 29 1009 25 10000 6.7 290 09:21 18.12.2019
6295 Clear 29 1008 23 10000 6.7 280 08:57 18.12.2019
6296 Clear 29 1008 23 10000 6.7 280 08:57 18.12.2019
6297 Clear 29 1008 23 10000 6.7 280 08:57 18.12.2019
6298 Clear 30 1008 22 10000 5.7 280 08:39 18.12.2019
6299 Clouds 32 1008 22 10000 5.7 280 08:20 18.12.2019
6300 Clouds 33 1008 24 10000 5.1 280 07:42 18.12.2019
6301 Clouds 33 1008 24 10000 5.1 280 07:21 18.12.2019
6302 Clouds 34 1008 23 10000 6.2 260 06:53 18.12.2019
6303 Clouds 33 1008 23 10000 5.1 250 06:26 18.12.2019
6304 Clouds 31 1009 26 10000 4.6 260 05:39 18.12.2019
6305 Clouds 33 1009 26 10000 3.1 290 04:35 18.12.2019
6306 Clouds 31 1010 28 10000 5.1 270 02:50 18.12.2019
6307 Clouds 30 1010 30 10000 5.1 270 02:30 18.12.2019
6308 Clouds 28 1010 30 10000 4.1 90 01:47 18.12.2019
6309 Clouds 27 1010 32 10000 5.7 110 01:28 18.12.2019
6310 Clouds 27 1011 31 10000 4.6 70 00:59 18.12.2019
6311 Clouds 26 1011 31 10000 3.6 50 00:39 18.12.2019
6312 Clouds 26 1011 31 10000 3.6 50 00:21 18.12.2019
6313 Clouds 24 1010 35 10000 4.6 70 23:44 17.12.2019
6314 Clouds 24 1010 35 10000 4.6 70 23:24 17.12.2019
6315 Clouds 24 1010 33 10000 3.6 50 22:57 17.12.2019
6316 Clouds 23 1010 31 10000 3.1 60 22:39 17.12.2019
6317 Clouds 23 1010 31 10000 3.1 60 22:20 17.12.2019
6318 Clouds 23 1010 29 10000 2.6 50 21:57 17.12.2019
6319 Clouds 23 1010 29 10000 3.1 120 21:39 17.12.2019
6320 Clouds 23 1010 29 10000 3.1 120 21:20 17.12.2019
6321 Clouds 24 1010 29 10000 2.1 90 20:59 17.12.2019
6322 Clouds 24 1010 29 10000 2.1 90 20:40 17.12.2019
6323 Clouds 24 1010 29 10000 2.1 90 20:19 17.12.2019
6324 Clouds 24 1010 29 10000 2.6 120 19:59 17.12.2019
6325 Clouds 24 1011 36 10000 1.5 260 19:41 17.12.2019
6326 Clouds 24 1011 36 10000 1.5 260 19:20 17.12.2019
6327 Clouds 23 1011 64 10000 7.2 100 18:57 17.12.2019
6328 Clouds 22 1011 72 10000 2.1 140 18:38 17.12.2019
6329 Clouds 22 1011 72 10000 2.1 140 18:20 17.12.2019
6330 Clouds 22 1011 72 10000 7.2 100 17:55 17.12.2019
6331 Clouds 22 1011 68 10000 2.6 210 17:37 17.12.2019
6332 Clouds 23 1011 64 10000 7.2 100 17:18 17.12.2019
6333 Clouds 23 1011 64 10000 7.2 100 16:55 17.12.2019
6334 Clouds 23 1011 73 10000 3.1 200 16:36 17.12.2019
6335 Clouds 23 1011 73 10000 3.1 200 16:18 17.12.2019
6336 Clouds 23 1012 73 10000 1.5 160 16:18 17.12.2019
6337 Clouds 24 1011 61 10000 7.2 100 15:38 17.12.2019
6338 Clouds 24 1011 61 10000 7.2 100 15:20 17.12.2019
6339 Clouds 24 1011 61 10000 7.2 100 14:57 17.12.2019
6340 Clouds 24 1011 57 10000 7.2 100 14:38 17.12.2019
6341 Clouds 25 1011 57 10000 7.2 100 14:19 17.12.2019
6342 Clouds 25 1011 57 10000 7.2 100 14:19 17.12.2019
6343 Clouds 25 1011 54 10000 4.6 160 13:58 17.12.2019
6344 Clouds 25 1010 47 10000 4.6 160 13:39 17.12.2019
6345 Clouds 26 1010 47 10000 4.6 160 13:19 17.12.2019
6346 Clouds 26 1010 47 10000 4.6 160 12:59 17.12.2019
6347 Clouds 27 1010 39 10000 5.1 190 12:38 17.12.2019
6348 Clouds 27 1010 39 10000 5.1 190 12:38 17.12.2019
6349 Clouds 27 1010 30 10000 5.1 160 12:18 17.12.2019
6350 Clouds 27 1010 39 10000 5.1 190 12:18 17.12.2019
6351 Clouds 27 1010 30 10000 5.1 160 11:56 17.12.2019
6352 Clouds 27 1010 37 10000 7.2 230 11:37 17.12.2019
6353 Clouds 29 1009 33 10000 6.7 210 11:18 17.12.2019
6354 Clouds 29 1009 33 10000 6.7 210 10:57 17.12.2019
6355 Clouds 30 1009 31 10000 9.8 230 10:38 17.12.2019
6356 Clouds 31 1009 31 10000 9.8 230 10:19 17.12.2019
6357 Clouds 31 1009 26 10000 10.3 230 09:43 17.12.2019
6358 Clouds 31 1009 26 10000 10.3 230 09:22 17.12.2019
6359 Clouds 33 1009 23 10000 8.2 230 08:59 17.12.2019
6360 Clouds 33 1009 26 10000 8.7 230 08:40 17.12.2019
6361 Clear 30 1009 26 10000 8.7 230 08:22 17.12.2019
6362 Clouds 30 1009 26 10000 8.7 230 08:22 17.12.2019
6363 Clouds 32 1009 26 10000 9.3 240 07:58 17.12.2019
6364 Clouds 31 1009 28 10000 8.7 230 07:39 17.12.2019
6365 Clouds 32 1009 28 10000 8.7 230 07:21 17.12.2019
6366 Clouds 33 1009 24 10000 8.7 250 06:42 17.12.2019
6367 Clouds 31 1009 24 10000 8.7 250 06:24 17.12.2019
6368 Clouds 31 1009 30 10000 7.2 270 06:24 17.12.2019
6369 Clouds 32 1009 23 10000 6.2 240 05:41 17.12.2019
6370 Clouds 34 1010 24 10000 6.7 220 04:53 17.12.2019
6371 Clouds 30 1010 29 10000 8.2 230 03:50 17.12.2019
6372 Clouds 32 1010 23 10000 2.6 230 02:25 17.12.2019
6373 Clouds 28 1011 34 10000 2.6 260 01:21 17.12.2019
6374 Clouds 26 1011 39 10000 2.6 310 00:45 17.12.2019
6375 Clouds 24 1011 44 10000 1.5 340 00:21 17.12.2019
6376 Clouds 24 1011 44 10000 1.5 340 00:21 17.12.2019
6377 Clouds 24 1011 44 10000 1.5 340 00:21 17.12.2019
6378 Clouds 22 1010 72 10000 3.1 180 23:44 16.12.2019
6379 Clouds 21 1010 72 10000 3.1 180 23:20 16.12.2019
6380 Clouds 20 1010 77 10000 3.1 180 22:59 16.12.2019
6381 Clouds 20 1009 72 10000 3.6 10 22:39 16.12.2019
6382 Clouds 21 1009 72 10000 3.6 10 22:21 16.12.2019
6383 Clouds 20 1009 82 10000 2.6 50 21:57 16.12.2019
6384 Clouds 20 1009 88 10000 2.1 40 21:39 16.12.2019
6385 Clouds 20 1009 88 10000 2.1 40 21:20 16.12.2019
6386 Clouds 20 1009 88 10000 2.1 240 20:58 16.12.2019
6387 Clouds 21 1009 77 10000 1 260 20:39 16.12.2019
6388 Clouds 21 1009 77 10000 1 260 20:39 16.12.2019
6389 Clouds 21 1009 77 10000 1 260 20:19 16.12.2019
6390 Clouds 21 1009 77 10000 2.6 200 19:56 16.12.2019
6391 Clouds 22 1009 73 10000 2.6 180 19:37 16.12.2019
6392 Clouds 22 1009 73 10000 2.6 180 19:19 16.12.2019
6393 Clouds 22 1009 73 10000 2.6 210 18:58 16.12.2019
6394 Clouds 22 1009 73 10000 2.6 210 18:58 16.12.2019
6395 Clouds 22 1009 69 10000 3.1 200 18:40 16.12.2019
6396 Clouds 22 1009 69 10000 3.1 200 18:40 16.12.2019
6397 Clouds 23 1009 69 10000 3.1 200 18:20 16.12.2019
6398 Clouds 23 1009 64 10000 3.6 200 17:57 16.12.2019
6399 Clouds 23 1009 64 10000 3.6 210 17:39 16.12.2019
6400 Clouds 23 1009 64 10000 5.1 190 17:21 16.12.2019
6401 Clouds 23 1009 64 10000 5.1 190 16:57 16.12.2019
6402 Clouds 24 1009 61 10000 6.2 190 16:38 16.12.2019
6403 Clouds 24 1009 61 10000 6.2 190 16:19 16.12.2019
6404 Clouds 24 1009 57 10000 3.6 210 15:58 16.12.2019
6405 Clouds 24 1009 57 10000 4.6 210 15:38 16.12.2019
6406 Clouds 24 1009 57 10000 4.6 210 15:20 16.12.2019
6407 Clouds 24 1009 54 10000 4.6 210 14:55 16.12.2019
6408 Clouds 25 1009 50 10000 4.6 210 14:37 16.12.2019
6409 Clouds 25 1009 50 10000 4.6 210 14:18 16.12.2019
6410 Clouds 25 1008 44 10000 5.7 210 13:56 16.12.2019
6411 Clouds 26 1008 42 10000 5.1 210 13:37 16.12.2019
6412 Clouds 26 1008 42 10000 5.1 210 13:19 16.12.2019
6413 Clouds 26 1008 34 10000 6.7 220 12:57 16.12.2019
6414 Clouds 26 1007 37 10000 6.7 210 12:39 16.12.2019
6415 Clouds 26 1007 37 10000 6.7 210 12:18 16.12.2019
6416 Clouds 26 1007 37 10000 7.7 220 11:57 16.12.2019
6417 Clouds 27 1007 35 10000 5.7 220 11:39 16.12.2019
6418 Clear 28 1006 30 10000 5.7 220 11:19 16.12.2019
6419 Clear 29 1006 30 10000 5.7 220 10:54 16.12.2019
6420 Clear 30 1006 33 10000 5.7 220 10:36 16.12.2019
6421 Clouds 30 1006 33 10000 5.7 220 10:18 16.12.2019
6422 Clouds 31 1005 24 10000 7.7 270 09:43 16.12.2019
6423 Clear 32 1005 24 10000 7.7 270 09:24 16.12.2019
6424 Clear 33 1005 20 10000 6.7 260 08:41 16.12.2019
6425 Clear 35 1005 20 10000 6.7 260 08:20 16.12.2019
6426 Clear 35 1005 22 10000 7.7 270 07:53 16.12.2019
6427 Clear 36 1005 20 10000 7.7 270 07:31 16.12.2019
6428 Clear 34 1005 18 10000 7.7 260 06:58 16.12.2019
6429 Clear 33 1005 16 10000 6.7 270 06:40 16.12.2019
6430 Clear 37 1005 19 10000 7.2 260 06:20 16.12.2019
6431 Clear 38 1005 18 10000 5.1 250 05:41 16.12.2019
6432 Clear 37 1005 18 10000 5.1 250 05:22 16.12.2019
6433 Clear 35 1006 16 10000 7.7 240 03:28 16.12.2019
6434 Clear 29 1006 20 10000 3.6 190 01:46 16.12.2019
6435 Clear 29 1006 23 10000 3.1 180 01:21 16.12.2019
6436 Clear 27 1006 28 10000 4.1 180 00:39 16.12.2019
6437 Clear 26 1006 34 10000 3.1 220 00:19 16.12.2019
6438 Clear 25 1006 49 10000 2.1 210 23:44 15.12.2019
6439 Clear 23 1006 49 10000 2.1 210 23:25 15.12.2019
6440 Clear 23 1006 43 10000 3.1 220 22:57 15.12.2019
6441 Clear 23 1005 43 10000 3.1 220 22:38 15.12.2019
6442 Clear 23 1005 43 10000 3.1 220 22:38 15.12.2019
6443 Clear 23 1005 43 10000 3.1 220 22:19 15.12.2019
6444 Clear 23 1005 43 10000 2.6 210 21:58 15.12.2019
6445 Clear 23 1004 36 10000 3.6 220 21:39 15.12.2019
6446 Clear 24 1004 36 10000 3.6 220 21:20 15.12.2019
6447 Clear 24 1005 44 10000 3.6 200 20:58 15.12.2019
6448 Clear 24 1005 44 10000 3.6 200 20:58 15.12.2019
6449 Clear 24 1005 44 10000 4.1 220 20:40 15.12.2019
6450 Clear 25 1004 24 10000 5.1 190 20:21 15.12.2019
6451 Clear 25 1004 24 10000 5.1 190 20:21 15.12.2019
6452 Clear 24 1004 24 10000 5.1 190 20:21 15.12.2019
6453 Clouds 24 1005 44 10000 3.1 200 19:58 15.12.2019
6454 Clear 24 1005 47 10000 2.6 210 19:40 15.12.2019
6455 Clouds 25 1005 47 10000 2.6 210 19:20 15.12.2019
6456 Clear 25 1005 36 10000 4.1 220 18:58 15.12.2019
6457 Clouds 25 1005 34 10000 2.6 200 18:39 15.12.2019
6458 Clouds 25 1005 41 10000 3.6 170 18:19 15.12.2019
6459 Clouds 25 1005 41 10000 3.6 170 17:56 15.12.2019
6460 Clouds 25 1005 41 10000 3.6 170 17:56 15.12.2019
6461 Clear 25 1005 38 10000 6.2 200 17:38 15.12.2019
6462 Clear 25 1005 36 10000 6.7 200 17:19 15.12.2019
6463 Clear 26 1005 36 10000 6.7 200 16:57 15.12.2019
6464 Clear 26 1005 34 10000 7.7 200 16:39 15.12.2019
6465 Clear 26 1005 34 10000 6.7 200 16:20 15.12.2019
6466 Clear 26 1005 34 10000 6.7 200 15:55 15.12.2019
6467 Clear 26 1006 32 10000 6.7 190 15:37 15.12.2019
6468 Clear 26 1006 32 10000 6.7 190 15:18 15.12.2019
6469 Clear 26 1005 30 10000 4.6 190 14:55 15.12.2019
6470 Clear 26 1005 30 10000 5.1 210 14:36 15.12.2019
6471 Clear 27 1005 30 10000 5.1 210 14:18 15.12.2019
6472 Clear 27 1004 28 10000 6.2 210 13:55 15.12.2019
6473 Clear 28 1004 28 10000 6.2 210 13:37 15.12.2019
6474 Clear 28 1004 28 10000 3.6 200 13:18 15.12.2019
6475 Clear 28 1004 28 10000 6.2 210 13:18 15.12.2019
6476 Clear 27 1004 27 10000 5.7 220 12:56 15.12.2019
6477 Clear 28 1004 23 10000 6.7 230 12:37 15.12.2019
6478 Smoke 29 1003 21 10000 5.1 190 12:19 15.12.2019
6479 Smoke 30 1003 17 10000 5.1 190 11:38 15.12.2019
6480 Clear 32 1003 17 10000 9.3 230 11:20 15.12.2019
6481 Clear 32 1003 17 10000 9.3 230 10:58 15.12.2019
6482 Clear 33 1003 15 10000 5.1 190 10:40 15.12.2019
6483 Clear 33 1003 15 10000 5.1 190 10:19 15.12.2019
6484 Clear 34 1003 14 10000 9.3 220 09:58 15.12.2019
6485 Clear 34 1003 16 10000 9.3 230 09:37 15.12.2019
6486 Clear 34 1003 11 10000 8.7 200 09:19 15.12.2019
6487 Clear 36 1003 14 10000 9.3 230 08:55 15.12.2019
6488 Clear 36 1003 10 10000 10.8 230 08:36 15.12.2019
6489 Clear 36 1003 10 10000 10.8 230 08:18 15.12.2019
6490 Clear 37 1003 10 10000 10.8 230 07:47 15.12.2019
6491 Clear 38 1003 10 10000 8.2 230 07:28 15.12.2019
6492 Clear 38 1003 11 10000 6.7 240 06:26 15.12.2019
6493 Clear 37 1004 10 10000 4.6 260 05:42 15.12.2019
6494 Clear 39 1004 9 10000 2.6 330 05:21 15.12.2019
6495 Clear 38 1004 10 10000 8.7 270 04:21 15.12.2019
6496 Clear 35 1005 16 10000 4.6 90 02:55 15.12.2019
6497 Clear 34 1005 21 10000 6.2 80 02:32 15.12.2019
6498 Clear 31 1005 14 10000 7.7 80 01:41 15.12.2019
6499 Clear 31 1005 14 10000 7.7 80 01:19 15.12.2019
6500 Clear 30 1006 26 10000 3.6 60 00:49 15.12.2019
6501 Clear 29 1006 26 10000 5.7 80 00:31 15.12.2019
6502 Clear 26 1006 27 10000 5.7 80 23:41 14.12.2019
6503 Clear 26 1006 27 10000 5.7 80 23:23 14.12.2019
6504 Clear 26 1006 27 10000 4.6 70 22:59 14.12.2019
6505 Clear 26 1006 24 10000 2.6 30 22:41 14.12.2019
6506 Clear 26 1006 24 10000 2.6 30 22:22 14.12.2019
6507 Clear 26 1006 24 10000 2.1 20 21:57 14.12.2019
6508 Clear 26 1006 24 10000 2.1 50 21:38 14.12.2019
6509 Clear 26 1006 24 10000 2.1 50 21:19 14.12.2019
6510 Clear 27 1006 22 10000 2.6 160 20:59 14.12.2019
6511 Clear 27 1006 20 10000 5.1 110 20:40 14.12.2019
6512 Clouds 27 1006 20 10000 5.1 110 20:20 14.12.2019
6513 Clouds 27 1006 21 10000 6.2 110 19:57 14.12.2019
6514 Clouds 27 1006 23 10000 7.2 100 19:38 14.12.2019
6515 Clouds 27 1006 23 10000 7.2 100 19:20 14.12.2019
6516 Clouds 28 1006 23 10000 8.2 110 18:56 14.12.2019
6517 Clouds 27 1007 21 10000 5.1 110 18:38 14.12.2019
6518 Clouds 27 1007 21 10000 5.1 110 18:38 14.12.2019
6519 Clouds 27 1007 21 10000 5.1 110 18:19 14.12.2019
6520 Clouds 25 1007 29 10000 3.6 70 17:44 14.12.2019
6521 Clouds 25 1007 29 10000 3.6 70 17:24 14.12.2019
6522 Clouds 25 1007 36 10000 5.1 120 16:58 14.12.2019
6523 Clouds 25 1008 36 10000 5.1 120 16:39 14.12.2019
6524 Clouds 25 1008 36 10000 5.1 120 16:18 14.12.2019
6525 Clouds 26 1008 28 10000 5.1 120 15:43 14.12.2019
6526 Clouds 27 1008 28 10000 5.1 120 15:22 14.12.2019
6527 Clouds 28 1008 25 10000 5.1 130 14:59 14.12.2019
6528 Clouds 28 1008 23 10000 6.7 200 14:38 14.12.2019
6529 Clear 28 1008 23 10000 6.7 200 14:19 14.12.2019
6530 Clear 29 1008 19 10000 6.2 210 13:55 14.12.2019
6531 Clear 30 1007 18 10000 5.7 210 13:37 14.12.2019
6532 Clear 31 1007 16 10000 6.2 210 13:18 14.12.2019
6533 Clear 30 1007 12 10000 7.2 190 12:41 14.12.2019
6534 Clear 31 1007 12 10000 7.2 210 12:21 14.12.2019
6535 Clear 31 1007 12 10000 7.2 210 12:21 14.12.2019
6536 Clear 31 1007 12 10000 7.2 210 11:59 14.12.2019
6537 Clear 33 1007 11 10000 7.2 230 11:40 14.12.2019
6538 Clear 35 1007 11 10000 7.2 230 11:20 14.12.2019
6539 Clear 36 1007 8 10000 7.7 210 10:59 14.12.2019
6540 Clear 36 1007 8 10000 7.7 210 10:59 14.12.2019
6541 Clear 37 1007 6 10000 9.3 200 10:40 14.12.2019
6542 Clear 37 1007 6 10000 9.3 200 10:22 14.12.2019
6543 Clear 36 1007 7 10000 9.3 230 09:59 14.12.2019
6544 Clear 35 1007 8 10000 9.8 230 09:40 14.12.2019
6545 Clear 35 1007 8 10000 9.8 230 09:20 14.12.2019
6546 Clear 36 1008 8 10000 9.3 220 08:43 14.12.2019
6547 Clear 38 1008 8 10000 9.3 220 08:20 14.12.2019
6548 Clear 39 1008 9 10000 8.2 250 07:44 14.12.2019
6549 Clear 39 1008 9 10000 8.2 250 07:24 14.12.2019
6550 Clear 39 1008 7 10000 8.2 260 06:57 14.12.2019
6551 Clear 39 1009 7 10000 7.2 250 06:38 14.12.2019
6552 Clear 39 1009 9 10000 7.2 250 06:18 14.12.2019
6553 Clear 36 1009 8 10000 7.2 240 04:48 14.12.2019
6554 Clear 35 1011 18 10000 4.6 40 02:35 14.12.2019
6555 Clear 32 1011 22 10000 5.1 70 01:56 14.12.2019
6556 Clear 31 1011 23 10000 6.2 70 01:37 14.12.2019
6557 Clear 28 1012 24 10000 5.7 60 00:47 14.12.2019
6558 Clear 28 1012 24 10000 5.7 60 00:27 14.12.2019
6559 Clear 27 1012 26 10000 6.2 100 23:56 13.12.2019
6560 Clear 26 1012 27 10000 3.1 50 23:37 13.12.2019
6561 Clear 25 1011 27 10000 6.2 100 23:18 13.12.2019
6562 Clear 25 1011 26 10000 4.1 80 22:40 13.12.2019
6563 Clear 25 1011 26 10000 4.1 80 22:19 13.12.2019
6564 Clear 25 1011 27 10000 6.2 100 21:56 13.12.2019
6565 Clear 25 1011 22 10000 6.2 100 21:37 13.12.2019
6566 Clear 26 1011 22 10000 6.2 100 21:19 13.12.2019
6567 Clear 26 1011 23 10000 8.2 110 20:41 13.12.2019
6568 Clear 27 1011 23 10000 8.2 110 20:22 13.12.2019
6569 Clear 27 1011 23 10000 8.2 110 19:59 13.12.2019
6570 Clear 27 1011 23 10000 8.2 110 19:40 13.12.2019
6571 Clear 27 1011 23 10000 8.2 110 19:22 13.12.2019
6572 Clear 27 1012 21 10000 6.7 110 18:59 13.12.2019
6573 Clear 27 1012 24 10000 3.6 210 18:40 13.12.2019
6574 Clear 27 1012 24 10000 3.6 210 18:19 13.12.2019
6575 Clear 27 1013 25 10000 5.1 150 17:43 13.12.2019
6576 Clear 27 1013 25 10000 5.1 150 17:20 13.12.2019
6577 Clear 27 1013 25 10000 5.1 150 17:20 13.12.2019
6578 Clear 27 1013 21 10000 7.7 150 16:59 13.12.2019
6579 Clear 27 1013 21 10000 3.1 190 16:39 13.12.2019
6580 Clear 27 1013 21 10000 3.1 190 16:20 13.12.2019
6581 Clear 27 1014 18 10000 5.1 190 15:44 13.12.2019
6582 Clear 27 1014 18 10000 5.1 190 15:23 13.12.2019
6583 Clear 27 1014 18 10000 5.1 190 15:23 13.12.2019
6584 Clear 28 1014 20 10000 5.7 190 14:59 13.12.2019
6585 Clear 28 1014 20 10000 6.2 190 14:41 13.12.2019
6586 Clear 29 1014 20 10000 6.2 190 14:20 13.12.2019
6587 Clear 30 1013 19 10000 7.2 190 13:57 13.12.2019
6588 Clear 30 1013 19 10000 8.2 190 13:37 13.12.2019
6589 Clear 30 1013 19 10000 8.2 190 13:19 13.12.2019
6590 Clear 31 1013 15 10000 8.7 210 12:42 13.12.2019
6591 Clear 31 1013 15 10000 8.7 210 12:20 13.12.2019
6592 Clear 31 1013 12 10000 8.2 210 11:57 13.12.2019
6593 Clear 31 1013 12 10000 8.2 210 11:57 13.12.2019
6594 Clear 32 1012 11 10000 9.3 200 11:39 13.12.2019
6595 Clear 32 1012 11 10000 9.3 200 11:39 13.12.2019
6596 Clear 34 1012 11 10000 9.3 200 11:20 13.12.2019
6597 Clear 36 1012 12 10000 9.8 220 10:42 13.12.2019
6598 Clear 36 1012 12 10000 9.8 220 10:42 13.12.2019
6599 Clear 36 1012 12 10000 9.8 220 10:23 13.12.2019
6600 Clear 37 1012 10 10000 9.8 210 09:55 13.12.2019
6601 Clear 37 1012 10 10000 8.7 240 09:36 13.12.2019
6602 Clear 38 1012 10 10000 7.2 220 09:18 13.12.2019
6603 Clear 38 1012 10 10000 7.2 220 09:18 13.12.2019
6604 Clear 39 1012 11 10000 6.2 200 08:40 13.12.2019
6605 Clear 39 1012 6 10000 6.2 200 08:22 13.12.2019
6606 Clear 39 1013 7 10000 6.2 200 07:44 13.12.2019
6607 Clear 39 1013 7 10000 6.2 200 07:20 13.12.2019
6608 Clear 37 1013 7 10000 6.2 200 06:50 13.12.2019
6609 Clear 39 1014 8 10000 4.1 90 06:28 13.12.2019
6610 Clear 37 1014 8 10000 3.6 110 05:44 13.12.2019
6611 Clear 38 1014 8 10000 3.6 110 05:24 13.12.2019
6612 Clear 37 1015 10 10000 5.7 40 04:35 13.12.2019
6613 Clear 37 1016 11 10000 7.2 30 03:30 13.12.2019
6614 Clear 35 1016 13 10000 7.7 40 02:32 13.12.2019
6615 Clear 35 1016 13 10000 7.7 40 02:32 13.12.2019
6616 Clear 31 1016 18 10000 6.2 30 01:40 13.12.2019
6617 Clear 30 1016 20 10000 5.1 40 00:51 13.12.2019
6618 Clear 30 1016 20 10000 5.7 50 00:32 13.12.2019
6619 Clear 28 1016 24 10000 4.6 50 23:47 12.12.2019
6620 Clear 28 1016 24 10000 4.6 50 23:47 12.12.2019
6621 Clear 27 1016 27 10000 6.7 80 23:27 12.12.2019
6622 Clear 26 1016 29 10000 7.2 40 22:59 12.12.2019
6623 Clear 26 1015 27 10000 8.7 70 22:41 12.12.2019
6624 Clear 26 1015 27 10000 8.7 70 22:41 12.12.2019
6625 Clear 26 1015 27 10000 8.7 70 22:22 12.12.2019
6626 Clear 26 1015 27 10000 8.7 70 21:56 12.12.2019
6627 Clear 26 1015 27 10000 8.2 70 21:38 12.12.2019
6628 Clear 26 1015 27 10000 8.2 70 21:20 12.12.2019
6629 Clear 27 1015 24 10000 8.7 80 21:20 12.12.2019
6630 Clear 26 1015 24 10000 8.7 80 20:59 12.12.2019
6631 Clear 27 1014 24 10000 10.3 90 20:40 12.12.2019
6632 Clear 27 1014 24 10000 10.3 90 20:22 12.12.2019
6633 Clear 27 1014 22 10000 10.3 90 19:59 12.12.2019
6634 Clear 27 1014 21 10000 10.3 100 19:40 12.12.2019
6635 Clear 27 1014 21 10000 10.3 100 19:21 12.12.2019
6636 Clear 28 1015 21 10000 10.8 100 18:56 12.12.2019
6637 Clear 28 1015 21 10000 10.8 100 18:56 12.12.2019
6638 Clear 28 1015 18 10000 9.3 100 18:38 12.12.2019
6639 Clear 28 1015 18 10000 9.3 100 18:19 12.12.2019
6640 Clear 29 1015 17 10000 8.7 100 17:57 12.12.2019
6641 Clear 28 1015 18 10000 6.2 100 17:38 12.12.2019
6642 Clear 27 1015 18 10000 6.2 100 17:19 12.12.2019
6643 Clear 26 1015 25 10000 7.2 80 16:55 12.12.2019
6644 Clear 25 1015 27 10000 7.2 80 16:37 12.12.2019
6645 Clear 25 1015 27 10000 7.2 80 16:18 12.12.2019
6646 Clear 26 1015 27 10000 7.2 80 15:54 12.12.2019
6647 Clear 26 1015 27 10000 7.2 80 15:36 12.12.2019
6648 Clear 26 1015 27 10000 7.2 80 15:18 12.12.2019
6649 Clear 26 1015 27 10000 7.2 80 15:18 12.12.2019
6650 Clear 27 1015 26 10000 7.2 80 14:38 12.12.2019
6651 Clear 28 1015 26 10000 7.2 80 14:19 12.12.2019
6652 Clear 28 1015 26 10000 7.2 80 13:57 12.12.2019
6653 Clear 29 1015 23 10000 3.1 100 13:38 12.12.2019
6654 Clouds 29 1015 23 10000 3.1 100 13:20 12.12.2019
6655 Clouds 32 1015 18 10000 5.7 140 12:57 12.12.2019
6656 Clouds 32 1015 16 10000 5.1 130 12:38 12.12.2019
6657 Clouds 34 1015 15 10000 5.7 150 12:19 12.12.2019
6658 Clouds 34 1015 15 10000 5.7 150 12:19 12.12.2019
6659 Clouds 34 1015 15 10000 5.7 150 11:54 12.12.2019
6660 Clouds 35 1014 10 10000 5.7 150 11:36 12.12.2019
6661 Clear 36 1014 10 10000 5.7 150 11:18 12.12.2019
6662 Clear 36 1014 9 10000 5.1 120 10:41 12.12.2019
6663 Clear 37 1014 9 10000 5.1 120 10:23 12.12.2019
6664 Clear 37 1014 9 10000 5.1 120 10:23 12.12.2019
6665 Clear 37 1014 11 10000 5.7 160 09:59 12.12.2019
6666 Clear 37 1014 9 10000 4.1 180 09:41